<?xml version="1.0" encoding="UTF-8" standalone="no" ?>
<gpx xmlns="http://www.topografix.com/GPX/1/1" xmlns:xsi="http://www.w3.org/2001/XMLSchema-instance" xsi:schemaLocation="http://www.topografix.com/GPX/1/1 http://www.topografix.com/GPX/1/1/gpx.xsd" version="1.1" creator="VisuGPX - https://www.visugpx.com">
  <metadata>
    <name>Rando Clairvivre 2013 35 km</name>
    <desc><![CDATA[trace de 35 km  de la rando de Clairvivre]]></desc>
  </metadata>
  <trk>
    <name><![CDATA[35]]></name>
    <trkseg>
      <trkpt lat="45.31594" lon="1.2287">
        <ele>244.33461</ele>
        <time>2011-05-02T12:49:41Z</time>
      </trkpt>
      <trkpt lat="45.31594" lon="1.2287">
        <ele>244.463089</ele>
        <time>2011-05-02T12:49:42Z</time>
      </trkpt>
      <trkpt lat="45.31586" lon="1.22891">
        <ele>244.800003</ele>
        <time>2011-05-02T12:49:54Z</time>
      </trkpt>
      <trkpt lat="45.31579" lon="1.22895">
        <ele>244.899994</ele>
        <time>2011-05-02T12:49:57Z</time>
      </trkpt>
      <trkpt lat="45.31572" lon="1.22896">
        <ele>244.300003</ele>
        <time>2011-05-02T12:49:59Z</time>
      </trkpt>
      <trkpt lat="45.31568" lon="1.22897">
        <ele>243.800003</ele>
        <time>2011-05-02T12:50:00Z</time>
      </trkpt>
      <trkpt lat="45.31563" lon="1.22898">
        <ele>243.5</ele>
        <time>2011-05-02T12:50:01Z</time>
      </trkpt>
      <trkpt lat="45.31558" lon="1.22898">
        <ele>243.399994</ele>
        <time>2011-05-02T12:50:02Z</time>
      </trkpt>
      <trkpt lat="45.31553" lon="1.22898">
        <ele>243.300003</ele>
        <time>2011-05-02T12:50:03Z</time>
      </trkpt>
      <trkpt lat="45.31548" lon="1.22897">
        <ele>242.699997</ele>
        <time>2011-05-02T12:50:04Z</time>
      </trkpt>
      <trkpt lat="45.31543" lon="1.22896">
        <ele>242.300003</ele>
        <time>2011-05-02T12:50:05Z</time>
      </trkpt>
      <trkpt lat="45.31535" lon="1.22892">
        <ele>241.699997</ele>
        <time>2011-05-02T12:50:07Z</time>
      </trkpt>
      <trkpt lat="45.31528" lon="1.22887">
        <ele>241.800003</ele>
        <time>2011-05-02T12:50:09Z</time>
      </trkpt>
      <trkpt lat="45.31522" lon="1.22883">
        <ele>242.100006</ele>
        <time>2011-05-02T12:50:11Z</time>
      </trkpt>
      <trkpt lat="45.31516" lon="1.2288">
        <ele>242.699997</ele>
        <time>2011-05-02T12:50:13Z</time>
      </trkpt>
      <trkpt lat="45.31509" lon="1.22876">
        <ele>243.5</ele>
        <time>2011-05-02T12:50:16Z</time>
      </trkpt>
      <trkpt lat="45.31502" lon="1.22873">
        <ele>243.5</ele>
        <time>2011-05-02T12:50:19Z</time>
      </trkpt>
      <trkpt lat="45.31496" lon="1.22871">
        <ele>243.699997</ele>
        <time>2011-05-02T12:50:21Z</time>
      </trkpt>
      <trkpt lat="45.3149" lon="1.22868">
        <ele>243.399994</ele>
        <time>2011-05-02T12:50:23Z</time>
      </trkpt>
      <trkpt lat="45.31483" lon="1.22864">
        <ele>242.899994</ele>
        <time>2011-05-02T12:50:25Z</time>
      </trkpt>
      <trkpt lat="45.31475" lon="1.2286">
        <ele>242.899994</ele>
        <time>2011-05-02T12:50:27Z</time>
      </trkpt>
      <trkpt lat="45.31466" lon="1.22855">
        <ele>243</ele>
        <time>2011-05-02T12:50:29Z</time>
      </trkpt>
      <trkpt lat="45.31462" lon="1.22853">
        <ele>242.5</ele>
        <time>2011-05-02T12:50:30Z</time>
      </trkpt>
      <trkpt lat="45.31458" lon="1.2285">
        <ele>242.199997</ele>
        <time>2011-05-02T12:50:31Z</time>
      </trkpt>
      <trkpt lat="45.31454" lon="1.22848">
        <ele>241.699997</ele>
        <time>2011-05-02T12:50:32Z</time>
      </trkpt>
      <trkpt lat="45.31449" lon="1.22845">
        <ele>241.399994</ele>
        <time>2011-05-02T12:50:33Z</time>
      </trkpt>
      <trkpt lat="45.31445" lon="1.22843">
        <ele>241.100006</ele>
        <time>2011-05-02T12:50:34Z</time>
      </trkpt>
      <trkpt lat="45.3144" lon="1.2284">
        <ele>241.100006</ele>
        <time>2011-05-02T12:50:35Z</time>
      </trkpt>
      <trkpt lat="45.31435" lon="1.22837">
        <ele>241</ele>
        <time>2011-05-02T12:50:36Z</time>
      </trkpt>
      <trkpt lat="45.3143" lon="1.22834">
        <ele>240.800003</ele>
        <time>2011-05-02T12:50:37Z</time>
      </trkpt>
      <trkpt lat="45.31426" lon="1.22831">
        <ele>240.699997</ele>
        <time>2011-05-02T12:50:38Z</time>
      </trkpt>
      <trkpt lat="45.31421" lon="1.22828">
        <ele>240.5</ele>
        <time>2011-05-02T12:50:39Z</time>
      </trkpt>
      <trkpt lat="45.31416" lon="1.22825">
        <ele>240.399994</ele>
        <time>2011-05-02T12:50:40Z</time>
      </trkpt>
      <trkpt lat="45.3141" lon="1.22822">
        <ele>240.300003</ele>
        <time>2011-05-02T12:50:41Z</time>
      </trkpt>
      <trkpt lat="45.31405" lon="1.22819">
        <ele>239.899994</ele>
        <time>2011-05-02T12:50:42Z</time>
      </trkpt>
      <trkpt lat="45.314" lon="1.22816">
        <ele>239.699997</ele>
        <time>2011-05-02T12:50:43Z</time>
      </trkpt>
      <trkpt lat="45.31394" lon="1.22813">
        <ele>239.100006</ele>
        <time>2011-05-02T12:50:44Z</time>
      </trkpt>
      <trkpt lat="45.31389" lon="1.2281">
        <ele>238.699997</ele>
        <time>2011-05-02T12:50:45Z</time>
      </trkpt>
      <trkpt lat="45.31383" lon="1.22807">
        <ele>238.399994</ele>
        <time>2011-05-02T12:50:46Z</time>
      </trkpt>
      <trkpt lat="45.31377" lon="1.22803">
        <ele>237.899994</ele>
        <time>2011-05-02T12:50:47Z</time>
      </trkpt>
      <trkpt lat="45.31371" lon="1.22799">
        <ele>237.5</ele>
        <time>2011-05-02T12:50:48Z</time>
      </trkpt>
      <trkpt lat="45.31364" lon="1.22795">
        <ele>236.899994</ele>
        <time>2011-05-02T12:50:49Z</time>
      </trkpt>
      <trkpt lat="45.31358" lon="1.2279">
        <ele>236.5</ele>
        <time>2011-05-02T12:50:50Z</time>
      </trkpt>
      <trkpt lat="45.31351" lon="1.22786">
        <ele>236</ele>
        <time>2011-05-02T12:50:51Z</time>
      </trkpt>
      <trkpt lat="45.31343" lon="1.22781">
        <ele>235.600006</ele>
        <time>2011-05-02T12:50:52Z</time>
      </trkpt>
      <trkpt lat="45.31336" lon="1.22776">
        <ele>235.300003</ele>
        <time>2011-05-02T12:50:53Z</time>
      </trkpt>
      <trkpt lat="45.31328" lon="1.22771">
        <ele>234.899994</ele>
        <time>2011-05-02T12:50:54Z</time>
      </trkpt>
      <trkpt lat="45.3132" lon="1.22766">
        <ele>234.5</ele>
        <time>2011-05-02T12:50:55Z</time>
      </trkpt>
      <trkpt lat="45.31312" lon="1.22761">
        <ele>233.899994</ele>
        <time>2011-05-02T12:50:56Z</time>
      </trkpt>
      <trkpt lat="45.31305" lon="1.22757">
        <ele>233.5</ele>
        <time>2011-05-02T12:50:57Z</time>
      </trkpt>
      <trkpt lat="45.31297" lon="1.22752">
        <ele>233.100006</ele>
        <time>2011-05-02T12:50:58Z</time>
      </trkpt>
      <trkpt lat="45.3129" lon="1.22748">
        <ele>232.800003</ele>
        <time>2011-05-02T12:50:59Z</time>
      </trkpt>
      <trkpt lat="45.31283" lon="1.22743">
        <ele>232.5</ele>
        <time>2011-05-02T12:51:00Z</time>
      </trkpt>
      <trkpt lat="45.31276" lon="1.22739">
        <ele>232.399994</ele>
        <time>2011-05-02T12:51:01Z</time>
      </trkpt>
      <trkpt lat="45.31269" lon="1.22735">
        <ele>232.399994</ele>
        <time>2011-05-02T12:51:02Z</time>
      </trkpt>
      <trkpt lat="45.31262" lon="1.22731">
        <ele>232</ele>
        <time>2011-05-02T12:51:03Z</time>
      </trkpt>
      <trkpt lat="45.31255" lon="1.22727">
        <ele>231.800003</ele>
        <time>2011-05-02T12:51:04Z</time>
      </trkpt>
      <trkpt lat="45.31248" lon="1.22723">
        <ele>231.600006</ele>
        <time>2011-05-02T12:51:05Z</time>
      </trkpt>
      <trkpt lat="45.31242" lon="1.22719">
        <ele>231.600006</ele>
        <time>2011-05-02T12:51:06Z</time>
      </trkpt>
      <trkpt lat="45.31235" lon="1.22715">
        <ele>231.600006</ele>
        <time>2011-05-02T12:51:07Z</time>
      </trkpt>
      <trkpt lat="45.31229" lon="1.22711">
        <ele>231.199997</ele>
        <time>2011-05-02T12:51:08Z</time>
      </trkpt>
      <trkpt lat="45.31223" lon="1.22708">
        <ele>230.899994</ele>
        <time>2011-05-02T12:51:09Z</time>
      </trkpt>
      <trkpt lat="45.31217" lon="1.22704">
        <ele>230.399994</ele>
        <time>2011-05-02T12:51:10Z</time>
      </trkpt>
      <trkpt lat="45.31211" lon="1.227">
        <ele>230.100006</ele>
        <time>2011-05-02T12:51:11Z</time>
      </trkpt>
      <trkpt lat="45.31205" lon="1.22697">
        <ele>229.800003</ele>
        <time>2011-05-02T12:51:12Z</time>
      </trkpt>
      <trkpt lat="45.31196" lon="1.2269">
        <ele>230</ele>
        <time>2011-05-02T12:51:13Z</time>
      </trkpt>
      <trkpt lat="45.31191" lon="1.22687">
        <ele>230.100006</ele>
        <time>2011-05-02T12:51:14Z</time>
      </trkpt>
      <trkpt lat="45.31185" lon="1.22684">
        <ele>230.100006</ele>
        <time>2011-05-02T12:51:15Z</time>
      </trkpt>
      <trkpt lat="45.3118" lon="1.22681">
        <ele>230</ele>
        <time>2011-05-02T12:51:16Z</time>
      </trkpt>
      <trkpt lat="45.31175" lon="1.22677">
        <ele>230</ele>
        <time>2011-05-02T12:51:17Z</time>
      </trkpt>
      <trkpt lat="45.3117" lon="1.22674">
        <ele>230</ele>
        <time>2011-05-02T12:51:18Z</time>
      </trkpt>
      <trkpt lat="45.31165" lon="1.22671">
        <ele>230</ele>
        <time>2011-05-02T12:51:19Z</time>
      </trkpt>
      <trkpt lat="45.31161" lon="1.22667">
        <ele>229.699997</ele>
        <time>2011-05-02T12:51:20Z</time>
      </trkpt>
      <trkpt lat="45.31158" lon="1.22662">
        <ele>229.399994</ele>
        <time>2011-05-02T12:51:21Z</time>
      </trkpt>
      <trkpt lat="45.31157" lon="1.22655">
        <ele>229.199997</ele>
        <time>2011-05-02T12:51:22Z</time>
      </trkpt>
      <trkpt lat="45.31156" lon="1.22648">
        <ele>229</ele>
        <time>2011-05-02T12:51:23Z</time>
      </trkpt>
      <trkpt lat="45.31157" lon="1.22641">
        <ele>228.800003</ele>
        <time>2011-05-02T12:51:24Z</time>
      </trkpt>
      <trkpt lat="45.31162" lon="1.22631">
        <ele>228.399994</ele>
        <time>2011-05-02T12:51:26Z</time>
      </trkpt>
      <trkpt lat="45.31163" lon="1.22624">
        <ele>228.5</ele>
        <time>2011-05-02T12:51:27Z</time>
      </trkpt>
      <trkpt lat="45.31166" lon="1.22612">
        <ele>228.800003</ele>
        <time>2011-05-02T12:51:29Z</time>
      </trkpt>
      <trkpt lat="45.31169" lon="1.22601">
        <ele>229</ele>
        <time>2011-05-02T12:51:31Z</time>
      </trkpt>
      <trkpt lat="45.31171" lon="1.22591">
        <ele>229.399994</ele>
        <time>2011-05-02T12:51:33Z</time>
      </trkpt>
      <trkpt lat="45.31174" lon="1.22581">
        <ele>229.199997</ele>
        <time>2011-05-02T12:51:35Z</time>
      </trkpt>
      <trkpt lat="45.31177" lon="1.22572">
        <ele>229.699997</ele>
        <time>2011-05-02T12:51:37Z</time>
      </trkpt>
      <trkpt lat="45.3118" lon="1.22562">
        <ele>229.899994</ele>
        <time>2011-05-02T12:51:39Z</time>
      </trkpt>
      <trkpt lat="45.31183" lon="1.22551">
        <ele>229.899994</ele>
        <time>2011-05-02T12:51:41Z</time>
      </trkpt>
      <trkpt lat="45.31186" lon="1.2254">
        <ele>229.899994</ele>
        <time>2011-05-02T12:51:43Z</time>
      </trkpt>
      <trkpt lat="45.31188" lon="1.22535">
        <ele>229.399994</ele>
        <time>2011-05-02T12:51:44Z</time>
      </trkpt>
      <trkpt lat="45.31198" lon="1.22505">
        <ele>228</ele>
        <time>2011-05-02T12:51:48Z</time>
      </trkpt>
      <trkpt lat="45.31202" lon="1.22493">
        <ele>228.199997</ele>
        <time>2011-05-02T12:51:50Z</time>
      </trkpt>
      <trkpt lat="45.31205" lon="1.22484">
        <ele>227.399994</ele>
        <time>2011-05-02T12:51:51Z</time>
      </trkpt>
      <trkpt lat="45.31208" lon="1.22474">
        <ele>226.899994</ele>
        <time>2011-05-02T12:51:52Z</time>
      </trkpt>
      <trkpt lat="45.31211" lon="1.22463">
        <ele>226.100006</ele>
        <time>2011-05-02T12:51:53Z</time>
      </trkpt>
      <trkpt lat="45.31214" lon="1.22452">
        <ele>225.5</ele>
        <time>2011-05-02T12:51:54Z</time>
      </trkpt>
      <trkpt lat="45.31218" lon="1.22442">
        <ele>224.600006</ele>
        <time>2011-05-02T12:51:55Z</time>
      </trkpt>
      <trkpt lat="45.31221" lon="1.22432">
        <ele>223.899994</ele>
        <time>2011-05-02T12:51:56Z</time>
      </trkpt>
      <trkpt lat="45.31224" lon="1.22423">
        <ele>223.399994</ele>
        <time>2011-05-02T12:51:57Z</time>
      </trkpt>
      <trkpt lat="45.31227" lon="1.22413">
        <ele>223.300003</ele>
        <time>2011-05-02T12:51:58Z</time>
      </trkpt>
      <trkpt lat="45.3123" lon="1.22405">
        <ele>223.199997</ele>
        <time>2011-05-02T12:51:59Z</time>
      </trkpt>
      <trkpt lat="45.31232" lon="1.22397">
        <ele>222.800003</ele>
        <time>2011-05-02T12:52:00Z</time>
      </trkpt>
      <trkpt lat="45.31234" lon="1.2239">
        <ele>222.5</ele>
        <time>2011-05-02T12:52:01Z</time>
      </trkpt>
      <trkpt lat="45.31237" lon="1.22384">
        <ele>222.300003</ele>
        <time>2011-05-02T12:52:02Z</time>
      </trkpt>
      <trkpt lat="45.31241" lon="1.22373">
        <ele>223</ele>
        <time>2011-05-02T12:52:04Z</time>
      </trkpt>
      <trkpt lat="45.31244" lon="1.22365">
        <ele>223.300003</ele>
        <time>2011-05-02T12:52:06Z</time>
      </trkpt>
      <trkpt lat="45.31247" lon="1.22357">
        <ele>223.699997</ele>
        <time>2011-05-02T12:52:08Z</time>
      </trkpt>
      <trkpt lat="45.3125" lon="1.22346">
        <ele>223.699997</ele>
        <time>2011-05-02T12:52:11Z</time>
      </trkpt>
      <trkpt lat="45.31253" lon="1.22336">
        <ele>224.899994</ele>
        <time>2011-05-02T12:52:14Z</time>
      </trkpt>
      <trkpt lat="45.31256" lon="1.22324">
        <ele>226</ele>
        <time>2011-05-02T12:52:17Z</time>
      </trkpt>
      <trkpt lat="45.31259" lon="1.22313">
        <ele>226.699997</ele>
        <time>2011-05-02T12:52:20Z</time>
      </trkpt>
      <trkpt lat="45.3126" lon="1.22305">
        <ele>226.899994</ele>
        <time>2011-05-02T12:52:22Z</time>
      </trkpt>
      <trkpt lat="45.31262" lon="1.22297">
        <ele>227.699997</ele>
        <time>2011-05-02T12:52:24Z</time>
      </trkpt>
      <trkpt lat="45.31265" lon="1.22285">
        <ele>228.399994</ele>
        <time>2011-05-02T12:52:27Z</time>
      </trkpt>
      <trkpt lat="45.31268" lon="1.22275">
        <ele>229.300003</ele>
        <time>2011-05-02T12:52:30Z</time>
      </trkpt>
      <trkpt lat="45.31271" lon="1.22263">
        <ele>229.699997</ele>
        <time>2011-05-02T12:52:33Z</time>
      </trkpt>
      <trkpt lat="45.31274" lon="1.22251">
        <ele>229.600006</ele>
        <time>2011-05-02T12:52:36Z</time>
      </trkpt>
      <trkpt lat="45.31277" lon="1.22243">
        <ele>229.800003</ele>
        <time>2011-05-02T12:52:38Z</time>
      </trkpt>
      <trkpt lat="45.31279" lon="1.22232">
        <ele>230.300003</ele>
        <time>2011-05-02T12:52:41Z</time>
      </trkpt>
      <trkpt lat="45.31283" lon="1.2222">
        <ele>230.899994</ele>
        <time>2011-05-02T12:52:44Z</time>
      </trkpt>
      <trkpt lat="45.31283" lon="1.22217">
        <ele>231.199997</ele>
        <time>2011-05-02T12:52:45Z</time>
      </trkpt>
      <trkpt lat="45.31286" lon="1.22197">
        <ele>231.399994</ele>
        <time>2011-05-02T12:52:54Z</time>
      </trkpt>
      <trkpt lat="45.31283" lon="1.22187">
        <ele>231.300003</ele>
        <time>2011-05-02T12:53:16Z</time>
      </trkpt>
      <trkpt lat="45.31278" lon="1.22177">
        <ele>231</ele>
        <time>2011-05-02T12:53:21Z</time>
      </trkpt>
      <trkpt lat="45.31275" lon="1.22167">
        <ele>230.899994</ele>
        <time>2011-05-02T12:53:25Z</time>
      </trkpt>
      <trkpt lat="45.31272" lon="1.22158">
        <ele>231.399994</ele>
        <time>2011-05-02T12:53:28Z</time>
      </trkpt>
      <trkpt lat="45.31271" lon="1.22147">
        <ele>231.100006</ele>
        <time>2011-05-02T12:53:32Z</time>
      </trkpt>
      <trkpt lat="45.31266" lon="1.2214">
        <ele>230.600006</ele>
        <time>2011-05-02T12:53:35Z</time>
      </trkpt>
      <trkpt lat="45.31264" lon="1.22132">
        <ele>230</ele>
        <time>2011-05-02T12:53:37Z</time>
      </trkpt>
      <trkpt lat="45.31262" lon="1.22123">
        <ele>229.300003</ele>
        <time>2011-05-02T12:53:39Z</time>
      </trkpt>
      <trkpt lat="45.3126" lon="1.22114">
        <ele>228.699997</ele>
        <time>2011-05-02T12:53:41Z</time>
      </trkpt>
      <trkpt lat="45.31258" lon="1.22109">
        <ele>228.300003</ele>
        <time>2011-05-02T12:53:42Z</time>
      </trkpt>
      <trkpt lat="45.31256" lon="1.22103">
        <ele>228</ele>
        <time>2011-05-02T12:53:43Z</time>
      </trkpt>
      <trkpt lat="45.31253" lon="1.22097">
        <ele>227.699997</ele>
        <time>2011-05-02T12:53:44Z</time>
      </trkpt>
      <trkpt lat="45.3125" lon="1.22085">
        <ele>226.800003</ele>
        <time>2011-05-02T12:53:46Z</time>
      </trkpt>
      <trkpt lat="45.31248" lon="1.22079">
        <ele>226.5</ele>
        <time>2011-05-02T12:53:47Z</time>
      </trkpt>
      <trkpt lat="45.31245" lon="1.22071">
        <ele>226.300003</ele>
        <time>2011-05-02T12:53:48Z</time>
      </trkpt>
      <trkpt lat="45.31242" lon="1.22062">
        <ele>225.100006</ele>
        <time>2011-05-02T12:53:49Z</time>
      </trkpt>
      <trkpt lat="45.31239" lon="1.22053">
        <ele>224.300003</ele>
        <time>2011-05-02T12:53:50Z</time>
      </trkpt>
      <trkpt lat="45.31236" lon="1.22043">
        <ele>223.600006</ele>
        <time>2011-05-02T12:53:51Z</time>
      </trkpt>
      <trkpt lat="45.31234" lon="1.22033">
        <ele>222.899994</ele>
        <time>2011-05-02T12:53:52Z</time>
      </trkpt>
      <trkpt lat="45.3123" lon="1.22023">
        <ele>222.300003</ele>
        <time>2011-05-02T12:53:53Z</time>
      </trkpt>
      <trkpt lat="45.31227" lon="1.22013">
        <ele>221.399994</ele>
        <time>2011-05-02T12:53:54Z</time>
      </trkpt>
      <trkpt lat="45.31224" lon="1.22003">
        <ele>220.600006</ele>
        <time>2011-05-02T12:53:55Z</time>
      </trkpt>
      <trkpt lat="45.3122" lon="1.21993">
        <ele>220</ele>
        <time>2011-05-02T12:53:56Z</time>
      </trkpt>
      <trkpt lat="45.31216" lon="1.21982">
        <ele>219.600006</ele>
        <time>2011-05-02T12:53:57Z</time>
      </trkpt>
      <trkpt lat="45.31212" lon="1.21972">
        <ele>219.199997</ele>
        <time>2011-05-02T12:53:58Z</time>
      </trkpt>
      <trkpt lat="45.31209" lon="1.21964">
        <ele>219.199997</ele>
        <time>2011-05-02T12:53:59Z</time>
      </trkpt>
      <trkpt lat="45.31205" lon="1.21954">
        <ele>219.100006</ele>
        <time>2011-05-02T12:54:00Z</time>
      </trkpt>
      <trkpt lat="45.31202" lon="1.21945">
        <ele>218.899994</ele>
        <time>2011-05-02T12:54:01Z</time>
      </trkpt>
      <trkpt lat="45.31199" lon="1.21934">
        <ele>218.699997</ele>
        <time>2011-05-02T12:54:02Z</time>
      </trkpt>
      <trkpt lat="45.31199" lon="1.21924">
        <ele>218.5</ele>
        <time>2011-05-02T12:54:03Z</time>
      </trkpt>
      <trkpt lat="45.312" lon="1.21915">
        <ele>218.600006</ele>
        <time>2011-05-02T12:54:04Z</time>
      </trkpt>
      <trkpt lat="45.31201" lon="1.21906">
        <ele>218.600006</ele>
        <time>2011-05-02T12:54:05Z</time>
      </trkpt>
      <trkpt lat="45.31203" lon="1.21898">
        <ele>218.600006</ele>
        <time>2011-05-02T12:54:06Z</time>
      </trkpt>
      <trkpt lat="45.31204" lon="1.2189">
        <ele>218.699997</ele>
        <time>2011-05-02T12:54:07Z</time>
      </trkpt>
      <trkpt lat="45.31206" lon="1.21882">
        <ele>218.699997</ele>
        <time>2011-05-02T12:54:08Z</time>
      </trkpt>
      <trkpt lat="45.31208" lon="1.21875">
        <ele>218.699997</ele>
        <time>2011-05-02T12:54:09Z</time>
      </trkpt>
      <trkpt lat="45.31209" lon="1.21867">
        <ele>218.699997</ele>
        <time>2011-05-02T12:54:10Z</time>
      </trkpt>
      <trkpt lat="45.31209" lon="1.21858">
        <ele>218.699997</ele>
        <time>2011-05-02T12:54:11Z</time>
      </trkpt>
      <trkpt lat="45.3121" lon="1.21849">
        <ele>218.800003</ele>
        <time>2011-05-02T12:54:12Z</time>
      </trkpt>
      <trkpt lat="45.3121" lon="1.2184">
        <ele>218.300003</ele>
        <time>2011-05-02T12:54:13Z</time>
      </trkpt>
      <trkpt lat="45.3121" lon="1.2183">
        <ele>218</ele>
        <time>2011-05-02T12:54:14Z</time>
      </trkpt>
      <trkpt lat="45.31209" lon="1.21821">
        <ele>217.899994</ele>
        <time>2011-05-02T12:54:15Z</time>
      </trkpt>
      <trkpt lat="45.31208" lon="1.21811">
        <ele>217.899994</ele>
        <time>2011-05-02T12:54:16Z</time>
      </trkpt>
      <trkpt lat="45.31205" lon="1.21803">
        <ele>217.800003</ele>
        <time>2011-05-02T12:54:17Z</time>
      </trkpt>
      <trkpt lat="45.31201" lon="1.21795">
        <ele>217.100006</ele>
        <time>2011-05-02T12:54:18Z</time>
      </trkpt>
      <trkpt lat="45.31198" lon="1.21786">
        <ele>216.600006</ele>
        <time>2011-05-02T12:54:19Z</time>
      </trkpt>
      <trkpt lat="45.31196" lon="1.21777">
        <ele>216.600006</ele>
        <time>2011-05-02T12:54:20Z</time>
      </trkpt>
      <trkpt lat="45.31194" lon="1.21769">
        <ele>216.5</ele>
        <time>2011-05-02T12:54:21Z</time>
      </trkpt>
      <trkpt lat="45.31192" lon="1.2176">
        <ele>216.5</ele>
        <time>2011-05-02T12:54:22Z</time>
      </trkpt>
      <trkpt lat="45.3119" lon="1.21751">
        <ele>216.100006</ele>
        <time>2011-05-02T12:54:23Z</time>
      </trkpt>
      <trkpt lat="45.31188" lon="1.21743">
        <ele>215.800003</ele>
        <time>2011-05-02T12:54:24Z</time>
      </trkpt>
      <trkpt lat="45.31187" lon="1.21734">
        <ele>215.899994</ele>
        <time>2011-05-02T12:54:25Z</time>
      </trkpt>
      <trkpt lat="45.31186" lon="1.21725">
        <ele>215.899994</ele>
        <time>2011-05-02T12:54:26Z</time>
      </trkpt>
      <trkpt lat="45.31185" lon="1.21717">
        <ele>215.899994</ele>
        <time>2011-05-02T12:54:27Z</time>
      </trkpt>
      <trkpt lat="45.31185" lon="1.21708">
        <ele>215.899994</ele>
        <time>2011-05-02T12:54:28Z</time>
      </trkpt>
      <trkpt lat="45.31186" lon="1.217">
        <ele>215.899994</ele>
        <time>2011-05-02T12:54:29Z</time>
      </trkpt>
      <trkpt lat="45.31186" lon="1.21692">
        <ele>216.399994</ele>
        <time>2011-05-02T12:54:30Z</time>
      </trkpt>
      <trkpt lat="45.31188" lon="1.21684">
        <ele>216.800003</ele>
        <time>2011-05-02T12:54:31Z</time>
      </trkpt>
      <trkpt lat="45.31191" lon="1.21677">
        <ele>216.5</ele>
        <time>2011-05-02T12:54:32Z</time>
      </trkpt>
      <trkpt lat="45.31194" lon="1.2167">
        <ele>216.399994</ele>
        <time>2011-05-02T12:54:33Z</time>
      </trkpt>
      <trkpt lat="45.31197" lon="1.21665">
        <ele>216.300003</ele>
        <time>2011-05-02T12:54:34Z</time>
      </trkpt>
      <trkpt lat="45.31201" lon="1.2166">
        <ele>216.300003</ele>
        <time>2011-05-02T12:54:35Z</time>
      </trkpt>
      <trkpt lat="45.31205" lon="1.21655">
        <ele>216.300003</ele>
        <time>2011-05-02T12:54:36Z</time>
      </trkpt>
      <trkpt lat="45.31209" lon="1.21651">
        <ele>216.300003</ele>
        <time>2011-05-02T12:54:37Z</time>
      </trkpt>
      <trkpt lat="45.31213" lon="1.21647">
        <ele>216.399994</ele>
        <time>2011-05-02T12:54:38Z</time>
      </trkpt>
      <trkpt lat="45.31217" lon="1.21642">
        <ele>216.699997</ele>
        <time>2011-05-02T12:54:39Z</time>
      </trkpt>
      <trkpt lat="45.31221" lon="1.21638">
        <ele>216.899994</ele>
        <time>2011-05-02T12:54:40Z</time>
      </trkpt>
      <trkpt lat="45.31225" lon="1.21633">
        <ele>217.100006</ele>
        <time>2011-05-02T12:54:41Z</time>
      </trkpt>
      <trkpt lat="45.31229" lon="1.2163">
        <ele>216.800003</ele>
        <time>2011-05-02T12:54:42Z</time>
      </trkpt>
      <trkpt lat="45.31233" lon="1.21627">
        <ele>216.5</ele>
        <time>2011-05-02T12:54:43Z</time>
      </trkpt>
      <trkpt lat="45.31238" lon="1.21625">
        <ele>216.800003</ele>
        <time>2011-05-02T12:54:44Z</time>
      </trkpt>
      <trkpt lat="45.31242" lon="1.21624">
        <ele>217.100006</ele>
        <time>2011-05-02T12:54:45Z</time>
      </trkpt>
      <trkpt lat="45.31247" lon="1.21623">
        <ele>216.800003</ele>
        <time>2011-05-02T12:54:46Z</time>
      </trkpt>
      <trkpt lat="45.31252" lon="1.21622">
        <ele>216.600006</ele>
        <time>2011-05-02T12:54:47Z</time>
      </trkpt>
      <trkpt lat="45.31257" lon="1.21623">
        <ele>216.399994</ele>
        <time>2011-05-02T12:54:48Z</time>
      </trkpt>
      <trkpt lat="45.31261" lon="1.21624">
        <ele>216.399994</ele>
        <time>2011-05-02T12:54:49Z</time>
      </trkpt>
      <trkpt lat="45.31266" lon="1.21625">
        <ele>216.399994</ele>
        <time>2011-05-02T12:54:50Z</time>
      </trkpt>
      <trkpt lat="45.31271" lon="1.21624">
        <ele>216.300003</ele>
        <time>2011-05-02T12:54:51Z</time>
      </trkpt>
      <trkpt lat="45.31276" lon="1.21624">
        <ele>216.199997</ele>
        <time>2011-05-02T12:54:52Z</time>
      </trkpt>
      <trkpt lat="45.3128" lon="1.21622">
        <ele>216.399994</ele>
        <time>2011-05-02T12:54:53Z</time>
      </trkpt>
      <trkpt lat="45.31285" lon="1.21619">
        <ele>216.600006</ele>
        <time>2011-05-02T12:54:54Z</time>
      </trkpt>
      <trkpt lat="45.31288" lon="1.21614">
        <ele>216.699997</ele>
        <time>2011-05-02T12:54:55Z</time>
      </trkpt>
      <trkpt lat="45.31292" lon="1.2161">
        <ele>216.5</ele>
        <time>2011-05-02T12:54:56Z</time>
      </trkpt>
      <trkpt lat="45.31295" lon="1.21605">
        <ele>216.399994</ele>
        <time>2011-05-02T12:54:57Z</time>
      </trkpt>
      <trkpt lat="45.31298" lon="1.21599">
        <ele>217</ele>
        <time>2011-05-02T12:54:58Z</time>
      </trkpt>
      <trkpt lat="45.31301" lon="1.21594">
        <ele>217.399994</ele>
        <time>2011-05-02T12:54:59Z</time>
      </trkpt>
      <trkpt lat="45.31303" lon="1.21587">
        <ele>217.699997</ele>
        <time>2011-05-02T12:55:00Z</time>
      </trkpt>
      <trkpt lat="45.31305" lon="1.21581">
        <ele>217.600006</ele>
        <time>2011-05-02T12:55:01Z</time>
      </trkpt>
      <trkpt lat="45.31306" lon="1.21575">
        <ele>217.600006</ele>
        <time>2011-05-02T12:55:02Z</time>
      </trkpt>
      <trkpt lat="45.31307" lon="1.21568">
        <ele>217.300003</ele>
        <time>2011-05-02T12:55:03Z</time>
      </trkpt>
      <trkpt lat="45.31308" lon="1.21561">
        <ele>217.100006</ele>
        <time>2011-05-02T12:55:04Z</time>
      </trkpt>
      <trkpt lat="45.31308" lon="1.21555">
        <ele>217</ele>
        <time>2011-05-02T12:55:05Z</time>
      </trkpt>
      <trkpt lat="45.31308" lon="1.21548">
        <ele>217</ele>
        <time>2011-05-02T12:55:06Z</time>
      </trkpt>
      <trkpt lat="45.31308" lon="1.21542">
        <ele>216.899994</ele>
        <time>2011-05-02T12:55:07Z</time>
      </trkpt>
      <trkpt lat="45.31308" lon="1.21535">
        <ele>216.899994</ele>
        <time>2011-05-02T12:55:08Z</time>
      </trkpt>
      <trkpt lat="45.31308" lon="1.21523">
        <ele>216.399994</ele>
        <time>2011-05-02T12:55:10Z</time>
      </trkpt>
      <trkpt lat="45.31306" lon="1.2151">
        <ele>216.100006</ele>
        <time>2011-05-02T12:55:12Z</time>
      </trkpt>
      <trkpt lat="45.31305" lon="1.21498">
        <ele>216.199997</ele>
        <time>2011-05-02T12:55:14Z</time>
      </trkpt>
      <trkpt lat="45.31304" lon="1.21486">
        <ele>216.199997</ele>
        <time>2011-05-02T12:55:16Z</time>
      </trkpt>
      <trkpt lat="45.31302" lon="1.21474">
        <ele>216.800003</ele>
        <time>2011-05-02T12:55:18Z</time>
      </trkpt>
      <trkpt lat="45.31301" lon="1.21468">
        <ele>217.100006</ele>
        <time>2011-05-02T12:55:19Z</time>
      </trkpt>
      <trkpt lat="45.31299" lon="1.21462">
        <ele>217.399994</ele>
        <time>2011-05-02T12:55:20Z</time>
      </trkpt>
      <trkpt lat="45.31298" lon="1.21455">
        <ele>217.600006</ele>
        <time>2011-05-02T12:55:21Z</time>
      </trkpt>
      <trkpt lat="45.31296" lon="1.21449">
        <ele>217.800003</ele>
        <time>2011-05-02T12:55:22Z</time>
      </trkpt>
      <trkpt lat="45.31294" lon="1.21443">
        <ele>218</ele>
        <time>2011-05-02T12:55:23Z</time>
      </trkpt>
      <trkpt lat="45.31292" lon="1.21437">
        <ele>217.699997</ele>
        <time>2011-05-02T12:55:24Z</time>
      </trkpt>
      <trkpt lat="45.31291" lon="1.21431">
        <ele>217.5</ele>
        <time>2011-05-02T12:55:25Z</time>
      </trkpt>
      <trkpt lat="45.31289" lon="1.21425">
        <ele>217.300003</ele>
        <time>2011-05-02T12:55:26Z</time>
      </trkpt>
      <trkpt lat="45.31287" lon="1.21419">
        <ele>217.100006</ele>
        <time>2011-05-02T12:55:27Z</time>
      </trkpt>
      <trkpt lat="45.31286" lon="1.21412">
        <ele>217</ele>
        <time>2011-05-02T12:55:28Z</time>
      </trkpt>
      <trkpt lat="45.31285" lon="1.214">
        <ele>217</ele>
        <time>2011-05-02T12:55:30Z</time>
      </trkpt>
      <trkpt lat="45.31285" lon="1.21388">
        <ele>217.5</ele>
        <time>2011-05-02T12:55:32Z</time>
      </trkpt>
      <trkpt lat="45.31286" lon="1.21378">
        <ele>218.399994</ele>
        <time>2011-05-02T12:55:34Z</time>
      </trkpt>
      <trkpt lat="45.31289" lon="1.21367">
        <ele>220.199997</ele>
        <time>2011-05-02T12:55:37Z</time>
      </trkpt>
      <trkpt lat="45.31288" lon="1.21354">
        <ele>220.899994</ele>
        <time>2011-05-02T12:55:40Z</time>
      </trkpt>
      <trkpt lat="45.31286" lon="1.21344">
        <ele>220.199997</ele>
        <time>2011-05-02T12:55:42Z</time>
      </trkpt>
      <trkpt lat="45.31284" lon="1.21336">
        <ele>219.600006</ele>
        <time>2011-05-02T12:55:43Z</time>
      </trkpt>
      <trkpt lat="45.31283" lon="1.2133">
        <ele>219.100006</ele>
        <time>2011-05-02T12:55:44Z</time>
      </trkpt>
      <trkpt lat="45.3128" lon="1.21324">
        <ele>218.800003</ele>
        <time>2011-05-02T12:55:45Z</time>
      </trkpt>
      <trkpt lat="45.31277" lon="1.21317">
        <ele>218.800003</ele>
        <time>2011-05-02T12:55:46Z</time>
      </trkpt>
      <trkpt lat="45.31273" lon="1.21311">
        <ele>218.800003</ele>
        <time>2011-05-02T12:55:47Z</time>
      </trkpt>
      <trkpt lat="45.31269" lon="1.21305">
        <ele>218.600006</ele>
        <time>2011-05-02T12:55:48Z</time>
      </trkpt>
      <trkpt lat="45.31264" lon="1.213">
        <ele>218.399994</ele>
        <time>2011-05-02T12:55:49Z</time>
      </trkpt>
      <trkpt lat="45.31258" lon="1.21295">
        <ele>217.899994</ele>
        <time>2011-05-02T12:55:50Z</time>
      </trkpt>
      <trkpt lat="45.31253" lon="1.2129">
        <ele>217.399994</ele>
        <time>2011-05-02T12:55:51Z</time>
      </trkpt>
      <trkpt lat="45.31248" lon="1.21286">
        <ele>217.100006</ele>
        <time>2011-05-02T12:55:52Z</time>
      </trkpt>
      <trkpt lat="45.31243" lon="1.21282">
        <ele>217.399994</ele>
        <time>2011-05-02T12:55:53Z</time>
      </trkpt>
      <trkpt lat="45.31238" lon="1.21278">
        <ele>217.600006</ele>
        <time>2011-05-02T12:55:54Z</time>
      </trkpt>
      <trkpt lat="45.31233" lon="1.21275">
        <ele>217.699997</ele>
        <time>2011-05-02T12:55:55Z</time>
      </trkpt>
      <trkpt lat="45.31228" lon="1.21272">
        <ele>217.800003</ele>
        <time>2011-05-02T12:55:56Z</time>
      </trkpt>
      <trkpt lat="45.31224" lon="1.21269">
        <ele>217.899994</ele>
        <time>2011-05-02T12:55:57Z</time>
      </trkpt>
      <trkpt lat="45.31219" lon="1.21268">
        <ele>217.800003</ele>
        <time>2011-05-02T12:55:58Z</time>
      </trkpt>
      <trkpt lat="45.3121" lon="1.21266">
        <ele>217.399994</ele>
        <time>2011-05-02T12:56:00Z</time>
      </trkpt>
      <trkpt lat="45.31202" lon="1.21262">
        <ele>217.199997</ele>
        <time>2011-05-02T12:56:02Z</time>
      </trkpt>
      <trkpt lat="45.31197" lon="1.21256">
        <ele>217.300003</ele>
        <time>2011-05-02T12:56:04Z</time>
      </trkpt>
      <trkpt lat="45.31193" lon="1.21247">
        <ele>218.100006</ele>
        <time>2011-05-02T12:56:07Z</time>
      </trkpt>
      <trkpt lat="45.31193" lon="1.21235">
        <ele>218.899994</ele>
        <time>2011-05-02T12:56:11Z</time>
      </trkpt>
      <trkpt lat="45.31194" lon="1.21225">
        <ele>220.100006</ele>
        <time>2011-05-02T12:56:15Z</time>
      </trkpt>
      <trkpt lat="45.31193" lon="1.21213">
        <ele>222</ele>
        <time>2011-05-02T12:56:19Z</time>
      </trkpt>
      <trkpt lat="45.31194" lon="1.212">
        <ele>223</ele>
        <time>2011-05-02T12:56:23Z</time>
      </trkpt>
      <trkpt lat="45.31195" lon="1.2119">
        <ele>224</ele>
        <time>2011-05-02T12:56:26Z</time>
      </trkpt>
      <trkpt lat="45.31195" lon="1.2118">
        <ele>224.399994</ele>
        <time>2011-05-02T12:56:29Z</time>
      </trkpt>
      <trkpt lat="45.31195" lon="1.21169">
        <ele>224.899994</ele>
        <time>2011-05-02T12:56:32Z</time>
      </trkpt>
      <trkpt lat="45.31194" lon="1.21158">
        <ele>225.800003</ele>
        <time>2011-05-02T12:56:35Z</time>
      </trkpt>
      <trkpt lat="45.31193" lon="1.21147">
        <ele>225.399994</ele>
        <time>2011-05-02T12:56:38Z</time>
      </trkpt>
      <trkpt lat="45.31193" lon="1.21136">
        <ele>226.300003</ele>
        <time>2011-05-02T12:56:41Z</time>
      </trkpt>
      <trkpt lat="45.31192" lon="1.21126">
        <ele>227.100006</ele>
        <time>2011-05-02T12:56:44Z</time>
      </trkpt>
      <trkpt lat="45.31192" lon="1.21115">
        <ele>227.899994</ele>
        <time>2011-05-02T12:56:47Z</time>
      </trkpt>
      <trkpt lat="45.31192" lon="1.21105">
        <ele>228.5</ele>
        <time>2011-05-02T12:56:50Z</time>
      </trkpt>
      <trkpt lat="45.31192" lon="1.21101">
        <ele>228.800003</ele>
        <time>2011-05-02T12:56:51Z</time>
      </trkpt>
      <trkpt lat="45.31193" lon="1.21082">
        <ele>228.5</ele>
        <time>2011-05-02T12:56:56Z</time>
      </trkpt>
      <trkpt lat="45.31193" lon="1.2107">
        <ele>229.199997</ele>
        <time>2011-05-02T12:56:59Z</time>
      </trkpt>
      <trkpt lat="45.31194" lon="1.21058">
        <ele>229.600006</ele>
        <time>2011-05-02T12:57:02Z</time>
      </trkpt>
      <trkpt lat="45.31194" lon="1.21047">
        <ele>229.199997</ele>
        <time>2011-05-02T12:57:05Z</time>
      </trkpt>
      <trkpt lat="45.31194" lon="1.21035">
        <ele>229.5</ele>
        <time>2011-05-02T12:57:08Z</time>
      </trkpt>
      <trkpt lat="45.31195" lon="1.21026">
        <ele>229.5</ele>
        <time>2011-05-02T12:57:10Z</time>
      </trkpt>
      <trkpt lat="45.31196" lon="1.21017">
        <ele>229.699997</ele>
        <time>2011-05-02T12:57:12Z</time>
      </trkpt>
      <trkpt lat="45.31196" lon="1.21007">
        <ele>230.199997</ele>
        <time>2011-05-02T12:57:14Z</time>
      </trkpt>
      <trkpt lat="45.31196" lon="1.20997">
        <ele>229.699997</ele>
        <time>2011-05-02T12:57:16Z</time>
      </trkpt>
      <trkpt lat="45.31197" lon="1.20985">
        <ele>229.199997</ele>
        <time>2011-05-02T12:57:18Z</time>
      </trkpt>
      <trkpt lat="45.31197" lon="1.20979">
        <ele>229.199997</ele>
        <time>2011-05-02T12:57:19Z</time>
      </trkpt>
      <trkpt lat="45.31197" lon="1.20972">
        <ele>229.199997</ele>
        <time>2011-05-02T12:57:20Z</time>
      </trkpt>
      <trkpt lat="45.31197" lon="1.20966">
        <ele>229.100006</ele>
        <time>2011-05-02T12:57:21Z</time>
      </trkpt>
      <trkpt lat="45.31198" lon="1.20958">
        <ele>228.899994</ele>
        <time>2011-05-02T12:57:22Z</time>
      </trkpt>
      <trkpt lat="45.31198" lon="1.20951">
        <ele>228.100006</ele>
        <time>2011-05-02T12:57:23Z</time>
      </trkpt>
      <trkpt lat="45.31199" lon="1.20944">
        <ele>227.399994</ele>
        <time>2011-05-02T12:57:24Z</time>
      </trkpt>
      <trkpt lat="45.31199" lon="1.20937">
        <ele>226.699997</ele>
        <time>2011-05-02T12:57:25Z</time>
      </trkpt>
      <trkpt lat="45.312" lon="1.20929">
        <ele>226.199997</ele>
        <time>2011-05-02T12:57:26Z</time>
      </trkpt>
      <trkpt lat="45.312" lon="1.20921">
        <ele>225.899994</ele>
        <time>2011-05-02T12:57:27Z</time>
      </trkpt>
      <trkpt lat="45.312" lon="1.20914">
        <ele>225.5</ele>
        <time>2011-05-02T12:57:28Z</time>
      </trkpt>
      <trkpt lat="45.312" lon="1.20905">
        <ele>225.199997</ele>
        <time>2011-05-02T12:57:29Z</time>
      </trkpt>
      <trkpt lat="45.312" lon="1.20896">
        <ele>224.800003</ele>
        <time>2011-05-02T12:57:30Z</time>
      </trkpt>
      <trkpt lat="45.312" lon="1.20886">
        <ele>224.5</ele>
        <time>2011-05-02T12:57:31Z</time>
      </trkpt>
      <trkpt lat="45.31201" lon="1.20874">
        <ele>223.699997</ele>
        <time>2011-05-02T12:57:32Z</time>
      </trkpt>
      <trkpt lat="45.31201" lon="1.20861">
        <ele>223.100006</ele>
        <time>2011-05-02T12:57:33Z</time>
      </trkpt>
      <trkpt lat="45.31201" lon="1.20849">
        <ele>222.600006</ele>
        <time>2011-05-02T12:57:34Z</time>
      </trkpt>
      <trkpt lat="45.31201" lon="1.20836">
        <ele>222.199997</ele>
        <time>2011-05-02T12:57:35Z</time>
      </trkpt>
      <trkpt lat="45.31201" lon="1.20824">
        <ele>221.800003</ele>
        <time>2011-05-02T12:57:36Z</time>
      </trkpt>
      <trkpt lat="45.31199" lon="1.20812">
        <ele>220.899994</ele>
        <time>2011-05-02T12:57:37Z</time>
      </trkpt>
      <trkpt lat="45.31196" lon="1.20801">
        <ele>220.199997</ele>
        <time>2011-05-02T12:57:38Z</time>
      </trkpt>
      <trkpt lat="45.31192" lon="1.20791">
        <ele>219.699997</ele>
        <time>2011-05-02T12:57:39Z</time>
      </trkpt>
      <trkpt lat="45.31188" lon="1.20782">
        <ele>219.600006</ele>
        <time>2011-05-02T12:57:40Z</time>
      </trkpt>
      <trkpt lat="45.31184" lon="1.20775">
        <ele>219.5</ele>
        <time>2011-05-02T12:57:41Z</time>
      </trkpt>
      <trkpt lat="45.31179" lon="1.20768">
        <ele>219.399994</ele>
        <time>2011-05-02T12:57:42Z</time>
      </trkpt>
      <trkpt lat="45.31174" lon="1.20761">
        <ele>219.199997</ele>
        <time>2011-05-02T12:57:43Z</time>
      </trkpt>
      <trkpt lat="45.31169" lon="1.20754">
        <ele>219.199997</ele>
        <time>2011-05-02T12:57:44Z</time>
      </trkpt>
      <trkpt lat="45.31166" lon="1.20746">
        <ele>219.199997</ele>
        <time>2011-05-02T12:57:45Z</time>
      </trkpt>
      <trkpt lat="45.31163" lon="1.20738">
        <ele>219.100006</ele>
        <time>2011-05-02T12:57:46Z</time>
      </trkpt>
      <trkpt lat="45.31161" lon="1.20729">
        <ele>219.100006</ele>
        <time>2011-05-02T12:57:47Z</time>
      </trkpt>
      <trkpt lat="45.3116" lon="1.2072">
        <ele>219</ele>
        <time>2011-05-02T12:57:48Z</time>
      </trkpt>
      <trkpt lat="45.31158" lon="1.20711">
        <ele>218.300003</ele>
        <time>2011-05-02T12:57:49Z</time>
      </trkpt>
      <trkpt lat="45.31157" lon="1.20702">
        <ele>217.899994</ele>
        <time>2011-05-02T12:57:50Z</time>
      </trkpt>
      <trkpt lat="45.31156" lon="1.20693">
        <ele>217.5</ele>
        <time>2011-05-02T12:57:51Z</time>
      </trkpt>
      <trkpt lat="45.31155" lon="1.20684">
        <ele>217.199997</ele>
        <time>2011-05-02T12:57:52Z</time>
      </trkpt>
      <trkpt lat="45.31155" lon="1.20676">
        <ele>217</ele>
        <time>2011-05-02T12:57:53Z</time>
      </trkpt>
      <trkpt lat="45.31154" lon="1.20667">
        <ele>216.600006</ele>
        <time>2011-05-02T12:57:54Z</time>
      </trkpt>
      <trkpt lat="45.31153" lon="1.20658">
        <ele>216.300003</ele>
        <time>2011-05-02T12:57:55Z</time>
      </trkpt>
      <trkpt lat="45.31153" lon="1.2065">
        <ele>216.5</ele>
        <time>2011-05-02T12:57:56Z</time>
      </trkpt>
      <trkpt lat="45.31153" lon="1.20642">
        <ele>216.600006</ele>
        <time>2011-05-02T12:57:57Z</time>
      </trkpt>
      <trkpt lat="45.31154" lon="1.20634">
        <ele>216.699997</ele>
        <time>2011-05-02T12:57:58Z</time>
      </trkpt>
      <trkpt lat="45.31154" lon="1.20626">
        <ele>217.100006</ele>
        <time>2011-05-02T12:57:59Z</time>
      </trkpt>
      <trkpt lat="45.31154" lon="1.20619">
        <ele>217.300003</ele>
        <time>2011-05-02T12:58:00Z</time>
      </trkpt>
      <trkpt lat="45.31155" lon="1.20612">
        <ele>217.399994</ele>
        <time>2011-05-02T12:58:01Z</time>
      </trkpt>
      <trkpt lat="45.31155" lon="1.20605">
        <ele>217.399994</ele>
        <time>2011-05-02T12:58:02Z</time>
      </trkpt>
      <trkpt lat="45.31155" lon="1.20597">
        <ele>217.199997</ele>
        <time>2011-05-02T12:58:03Z</time>
      </trkpt>
      <trkpt lat="45.31155" lon="1.2059">
        <ele>217.100006</ele>
        <time>2011-05-02T12:58:04Z</time>
      </trkpt>
      <trkpt lat="45.31155" lon="1.20582">
        <ele>217</ele>
        <time>2011-05-02T12:58:05Z</time>
      </trkpt>
      <trkpt lat="45.31156" lon="1.20574">
        <ele>216.800003</ele>
        <time>2011-05-02T12:58:06Z</time>
      </trkpt>
      <trkpt lat="45.31156" lon="1.20565">
        <ele>216.699997</ele>
        <time>2011-05-02T12:58:07Z</time>
      </trkpt>
      <trkpt lat="45.31155" lon="1.20557">
        <ele>216.199997</ele>
        <time>2011-05-02T12:58:08Z</time>
      </trkpt>
      <trkpt lat="45.31153" lon="1.20547">
        <ele>215.899994</ele>
        <time>2011-05-02T12:58:09Z</time>
      </trkpt>
      <trkpt lat="45.31152" lon="1.20538">
        <ele>215.699997</ele>
        <time>2011-05-02T12:58:10Z</time>
      </trkpt>
      <trkpt lat="45.3115" lon="1.20528">
        <ele>215.5</ele>
        <time>2011-05-02T12:58:11Z</time>
      </trkpt>
      <trkpt lat="45.31149" lon="1.20519">
        <ele>215.399994</ele>
        <time>2011-05-02T12:58:12Z</time>
      </trkpt>
      <trkpt lat="45.31147" lon="1.20509">
        <ele>215.300003</ele>
        <time>2011-05-02T12:58:13Z</time>
      </trkpt>
      <trkpt lat="45.31145" lon="1.20499">
        <ele>215.199997</ele>
        <time>2011-05-02T12:58:14Z</time>
      </trkpt>
      <trkpt lat="45.31143" lon="1.20489">
        <ele>215</ele>
        <time>2011-05-02T12:58:15Z</time>
      </trkpt>
      <trkpt lat="45.31139" lon="1.2048">
        <ele>214.899994</ele>
        <time>2011-05-02T12:58:16Z</time>
      </trkpt>
      <trkpt lat="45.31134" lon="1.20472">
        <ele>214.699997</ele>
        <time>2011-05-02T12:58:17Z</time>
      </trkpt>
      <trkpt lat="45.3113" lon="1.20463">
        <ele>214.699997</ele>
        <time>2011-05-02T12:58:18Z</time>
      </trkpt>
      <trkpt lat="45.31125" lon="1.20454">
        <ele>214.699997</ele>
        <time>2011-05-02T12:58:19Z</time>
      </trkpt>
      <trkpt lat="45.3112" lon="1.20446">
        <ele>214.300003</ele>
        <time>2011-05-02T12:58:20Z</time>
      </trkpt>
      <trkpt lat="45.31116" lon="1.20437">
        <ele>213.899994</ele>
        <time>2011-05-02T12:58:21Z</time>
      </trkpt>
      <trkpt lat="45.31112" lon="1.20428">
        <ele>213.399994</ele>
        <time>2011-05-02T12:58:22Z</time>
      </trkpt>
      <trkpt lat="45.31107" lon="1.20419">
        <ele>212.899994</ele>
        <time>2011-05-02T12:58:23Z</time>
      </trkpt>
      <trkpt lat="45.31103" lon="1.2041">
        <ele>212.600006</ele>
        <time>2011-05-02T12:58:24Z</time>
      </trkpt>
      <trkpt lat="45.31098" lon="1.204">
        <ele>211.899994</ele>
        <time>2011-05-02T12:58:25Z</time>
      </trkpt>
      <trkpt lat="45.31094" lon="1.2039">
        <ele>211.399994</ele>
        <time>2011-05-02T12:58:26Z</time>
      </trkpt>
      <trkpt lat="45.3109" lon="1.2038">
        <ele>210.699997</ele>
        <time>2011-05-02T12:58:27Z</time>
      </trkpt>
      <trkpt lat="45.31086" lon="1.20369">
        <ele>210.300003</ele>
        <time>2011-05-02T12:58:28Z</time>
      </trkpt>
      <trkpt lat="45.31081" lon="1.20358">
        <ele>209.899994</ele>
        <time>2011-05-02T12:58:29Z</time>
      </trkpt>
      <trkpt lat="45.31076" lon="1.20347">
        <ele>209.699997</ele>
        <time>2011-05-02T12:58:30Z</time>
      </trkpt>
      <trkpt lat="45.31072" lon="1.20336">
        <ele>209.5</ele>
        <time>2011-05-02T12:58:31Z</time>
      </trkpt>
      <trkpt lat="45.31066" lon="1.20326">
        <ele>208.300003</ele>
        <time>2011-05-02T12:58:32Z</time>
      </trkpt>
      <trkpt lat="45.31061" lon="1.20315">
        <ele>207.399994</ele>
        <time>2011-05-02T12:58:33Z</time>
      </trkpt>
      <trkpt lat="45.31055" lon="1.20305">
        <ele>206.300003</ele>
        <time>2011-05-02T12:58:34Z</time>
      </trkpt>
      <trkpt lat="45.31049" lon="1.20295">
        <ele>205.5</ele>
        <time>2011-05-02T12:58:35Z</time>
      </trkpt>
      <trkpt lat="45.31042" lon="1.20286">
        <ele>204.899994</ele>
        <time>2011-05-02T12:58:36Z</time>
      </trkpt>
      <trkpt lat="45.31036" lon="1.20277">
        <ele>204.5</ele>
        <time>2011-05-02T12:58:37Z</time>
      </trkpt>
      <trkpt lat="45.3103" lon="1.20268">
        <ele>204.199997</ele>
        <time>2011-05-02T12:58:38Z</time>
      </trkpt>
      <trkpt lat="45.31025" lon="1.20258">
        <ele>204.199997</ele>
        <time>2011-05-02T12:58:39Z</time>
      </trkpt>
      <trkpt lat="45.3102" lon="1.20249">
        <ele>204.100006</ele>
        <time>2011-05-02T12:58:40Z</time>
      </trkpt>
      <trkpt lat="45.31016" lon="1.20238">
        <ele>203.300003</ele>
        <time>2011-05-02T12:58:41Z</time>
      </trkpt>
      <trkpt lat="45.31012" lon="1.20228">
        <ele>202.600006</ele>
        <time>2011-05-02T12:58:42Z</time>
      </trkpt>
      <trkpt lat="45.31008" lon="1.20218">
        <ele>202.100006</ele>
        <time>2011-05-02T12:58:43Z</time>
      </trkpt>
      <trkpt lat="45.31004" lon="1.20209">
        <ele>201.699997</ele>
        <time>2011-05-02T12:58:44Z</time>
      </trkpt>
      <trkpt lat="45.30999" lon="1.20201">
        <ele>201.399994</ele>
        <time>2011-05-02T12:58:45Z</time>
      </trkpt>
      <trkpt lat="45.30994" lon="1.20192">
        <ele>201.100006</ele>
        <time>2011-05-02T12:58:46Z</time>
      </trkpt>
      <trkpt lat="45.30989" lon="1.20184">
        <ele>201</ele>
        <time>2011-05-02T12:58:47Z</time>
      </trkpt>
      <trkpt lat="45.30984" lon="1.20176">
        <ele>200.800003</ele>
        <time>2011-05-02T12:58:48Z</time>
      </trkpt>
      <trkpt lat="45.30979" lon="1.20168">
        <ele>200.699997</ele>
        <time>2011-05-02T12:58:49Z</time>
      </trkpt>
      <trkpt lat="45.30975" lon="1.20159">
        <ele>200.600006</ele>
        <time>2011-05-02T12:58:50Z</time>
      </trkpt>
      <trkpt lat="45.30971" lon="1.2015">
        <ele>200.5</ele>
        <time>2011-05-02T12:58:51Z</time>
      </trkpt>
      <trkpt lat="45.30967" lon="1.20142">
        <ele>200.300003</ele>
        <time>2011-05-02T12:58:52Z</time>
      </trkpt>
      <trkpt lat="45.30963" lon="1.20133">
        <ele>199.199997</ele>
        <time>2011-05-02T12:58:53Z</time>
      </trkpt>
      <trkpt lat="45.30958" lon="1.20124">
        <ele>198.399994</ele>
        <time>2011-05-02T12:58:54Z</time>
      </trkpt>
      <trkpt lat="45.30954" lon="1.20116">
        <ele>197.800003</ele>
        <time>2011-05-02T12:58:55Z</time>
      </trkpt>
      <trkpt lat="45.30949" lon="1.20109">
        <ele>197.800003</ele>
        <time>2011-05-02T12:58:56Z</time>
      </trkpt>
      <trkpt lat="45.30944" lon="1.201">
        <ele>197.899994</ele>
        <time>2011-05-02T12:58:57Z</time>
      </trkpt>
      <trkpt lat="45.30938" lon="1.20092">
        <ele>197.5</ele>
        <time>2011-05-02T12:58:58Z</time>
      </trkpt>
      <trkpt lat="45.30933" lon="1.20084">
        <ele>197.199997</ele>
        <time>2011-05-02T12:58:59Z</time>
      </trkpt>
      <trkpt lat="45.30928" lon="1.20076">
        <ele>196.800003</ele>
        <time>2011-05-02T12:59:00Z</time>
      </trkpt>
      <trkpt lat="45.30922" lon="1.20068">
        <ele>196.399994</ele>
        <time>2011-05-02T12:59:01Z</time>
      </trkpt>
      <trkpt lat="45.30917" lon="1.2006">
        <ele>196.199997</ele>
        <time>2011-05-02T12:59:02Z</time>
      </trkpt>
      <trkpt lat="45.30912" lon="1.20051">
        <ele>195.5</ele>
        <time>2011-05-02T12:59:03Z</time>
      </trkpt>
      <trkpt lat="45.30907" lon="1.20044">
        <ele>195</ele>
        <time>2011-05-02T12:59:04Z</time>
      </trkpt>
      <trkpt lat="45.30903" lon="1.20038">
        <ele>194.600006</ele>
        <time>2011-05-02T12:59:05Z</time>
      </trkpt>
      <trkpt lat="45.30899" lon="1.20032">
        <ele>194.300003</ele>
        <time>2011-05-02T12:59:06Z</time>
      </trkpt>
      <trkpt lat="45.30892" lon="1.20027">
        <ele>193</ele>
        <time>2011-05-02T12:59:08Z</time>
      </trkpt>
      <trkpt lat="45.30884" lon="1.20029">
        <ele>191.899994</ele>
        <time>2011-05-02T12:59:10Z</time>
      </trkpt>
      <trkpt lat="45.30877" lon="1.20037">
        <ele>190.699997</ele>
        <time>2011-05-02T12:59:12Z</time>
      </trkpt>
      <trkpt lat="45.30869" lon="1.20034">
        <ele>189.600006</ele>
        <time>2011-05-02T12:59:15Z</time>
      </trkpt>
      <trkpt lat="45.30866" lon="1.20023">
        <ele>188.800003</ele>
        <time>2011-05-02T12:59:18Z</time>
      </trkpt>
      <trkpt lat="45.30865" lon="1.20014">
        <ele>188.5</ele>
        <time>2011-05-02T12:59:20Z</time>
      </trkpt>
      <trkpt lat="45.30865" lon="1.20003">
        <ele>187.600006</ele>
        <time>2011-05-02T12:59:22Z</time>
      </trkpt>
      <trkpt lat="45.30865" lon="1.19991">
        <ele>186.199997</ele>
        <time>2011-05-02T12:59:24Z</time>
      </trkpt>
      <trkpt lat="45.30864" lon="1.19979">
        <ele>184.899994</ele>
        <time>2011-05-02T12:59:26Z</time>
      </trkpt>
      <trkpt lat="45.30861" lon="1.19973">
        <ele>184.399994</ele>
        <time>2011-05-02T12:59:27Z</time>
      </trkpt>
      <trkpt lat="45.30858" lon="1.19969">
        <ele>184</ele>
        <time>2011-05-02T12:59:28Z</time>
      </trkpt>
      <trkpt lat="45.30854" lon="1.19966">
        <ele>183.600006</ele>
        <time>2011-05-02T12:59:29Z</time>
      </trkpt>
      <trkpt lat="45.30849" lon="1.19964">
        <ele>183.399994</ele>
        <time>2011-05-02T12:59:30Z</time>
      </trkpt>
      <trkpt lat="45.30844" lon="1.19963">
        <ele>183.800003</ele>
        <time>2011-05-02T12:59:31Z</time>
      </trkpt>
      <trkpt lat="45.30839" lon="1.19962">
        <ele>184.100006</ele>
        <time>2011-05-02T12:59:32Z</time>
      </trkpt>
      <trkpt lat="45.30834" lon="1.1996">
        <ele>183.899994</ele>
        <time>2011-05-02T12:59:33Z</time>
      </trkpt>
      <trkpt lat="45.30829" lon="1.19959">
        <ele>183.800003</ele>
        <time>2011-05-02T12:59:34Z</time>
      </trkpt>
      <trkpt lat="45.30824" lon="1.19956">
        <ele>183.800003</ele>
        <time>2011-05-02T12:59:35Z</time>
      </trkpt>
      <trkpt lat="45.3082" lon="1.19952">
        <ele>183.5</ele>
        <time>2011-05-02T12:59:36Z</time>
      </trkpt>
      <trkpt lat="45.30816" lon="1.19948">
        <ele>183.300003</ele>
        <time>2011-05-02T12:59:37Z</time>
      </trkpt>
      <trkpt lat="45.30812" lon="1.19944">
        <ele>183.5</ele>
        <time>2011-05-02T12:59:38Z</time>
      </trkpt>
      <trkpt lat="45.30808" lon="1.1994">
        <ele>183.600006</ele>
        <time>2011-05-02T12:59:39Z</time>
      </trkpt>
      <trkpt lat="45.30805" lon="1.19936">
        <ele>183.699997</ele>
        <time>2011-05-02T12:59:40Z</time>
      </trkpt>
      <trkpt lat="45.30801" lon="1.19931">
        <ele>184.100006</ele>
        <time>2011-05-02T12:59:41Z</time>
      </trkpt>
      <trkpt lat="45.30797" lon="1.19927">
        <ele>184.399994</ele>
        <time>2011-05-02T12:59:42Z</time>
      </trkpt>
      <trkpt lat="45.30794" lon="1.19923">
        <ele>183.899994</ele>
        <time>2011-05-02T12:59:43Z</time>
      </trkpt>
      <trkpt lat="45.30791" lon="1.19918">
        <ele>183.5</ele>
        <time>2011-05-02T12:59:44Z</time>
      </trkpt>
      <trkpt lat="45.30787" lon="1.19913">
        <ele>183.699997</ele>
        <time>2011-05-02T12:59:45Z</time>
      </trkpt>
      <trkpt lat="45.30781" lon="1.19905">
        <ele>183.899994</ele>
        <time>2011-05-02T12:59:47Z</time>
      </trkpt>
      <trkpt lat="45.30774" lon="1.19897">
        <ele>184.199997</ele>
        <time>2011-05-02T12:59:49Z</time>
      </trkpt>
      <trkpt lat="45.30766" lon="1.19891">
        <ele>183.600006</ele>
        <time>2011-05-02T12:59:51Z</time>
      </trkpt>
      <trkpt lat="45.30759" lon="1.19886">
        <ele>184.199997</ele>
        <time>2011-05-02T12:59:53Z</time>
      </trkpt>
      <trkpt lat="45.30756" lon="1.19882">
        <ele>184.5</ele>
        <time>2011-05-02T12:59:54Z</time>
      </trkpt>
      <trkpt lat="45.30749" lon="1.19867">
        <ele>184.100006</ele>
        <time>2011-05-02T12:59:57Z</time>
      </trkpt>
      <trkpt lat="45.30745" lon="1.19856">
        <ele>184.199997</ele>
        <time>2011-05-02T12:59:59Z</time>
      </trkpt>
      <trkpt lat="45.30742" lon="1.19846">
        <ele>184.699997</ele>
        <time>2011-05-02T13:00:01Z</time>
      </trkpt>
      <trkpt lat="45.30738" lon="1.19836">
        <ele>185.600006</ele>
        <time>2011-05-02T13:00:03Z</time>
      </trkpt>
      <trkpt lat="45.30734" lon="1.19826">
        <ele>185.600006</ele>
        <time>2011-05-02T13:00:05Z</time>
      </trkpt>
      <trkpt lat="45.30731" lon="1.19816">
        <ele>185.899994</ele>
        <time>2011-05-02T13:00:07Z</time>
      </trkpt>
      <trkpt lat="45.30727" lon="1.19806">
        <ele>186.300003</ele>
        <time>2011-05-02T13:00:09Z</time>
      </trkpt>
      <trkpt lat="45.30724" lon="1.19796">
        <ele>186.300003</ele>
        <time>2011-05-02T13:00:11Z</time>
      </trkpt>
      <trkpt lat="45.3072" lon="1.19786">
        <ele>186.100006</ele>
        <time>2011-05-02T13:00:13Z</time>
      </trkpt>
      <trkpt lat="45.30717" lon="1.19777">
        <ele>186.199997</ele>
        <time>2011-05-02T13:00:15Z</time>
      </trkpt>
      <trkpt lat="45.30714" lon="1.19766">
        <ele>187.100006</ele>
        <time>2011-05-02T13:00:17Z</time>
      </trkpt>
      <trkpt lat="45.30712" lon="1.1976">
        <ele>187.300003</ele>
        <time>2011-05-02T13:00:18Z</time>
      </trkpt>
      <trkpt lat="45.3071" lon="1.19754">
        <ele>187</ele>
        <time>2011-05-02T13:00:19Z</time>
      </trkpt>
      <trkpt lat="45.30708" lon="1.19747">
        <ele>186.800003</ele>
        <time>2011-05-02T13:00:20Z</time>
      </trkpt>
      <trkpt lat="45.30706" lon="1.1974">
        <ele>186.199997</ele>
        <time>2011-05-02T13:00:21Z</time>
      </trkpt>
      <trkpt lat="45.30704" lon="1.19733">
        <ele>185.800003</ele>
        <time>2011-05-02T13:00:22Z</time>
      </trkpt>
      <trkpt lat="45.30701" lon="1.19726">
        <ele>185.300003</ele>
        <time>2011-05-02T13:00:23Z</time>
      </trkpt>
      <trkpt lat="45.30699" lon="1.1972">
        <ele>185</ele>
        <time>2011-05-02T13:00:24Z</time>
      </trkpt>
      <trkpt lat="45.30697" lon="1.19713">
        <ele>184.800003</ele>
        <time>2011-05-02T13:00:25Z</time>
      </trkpt>
      <trkpt lat="45.30695" lon="1.19707">
        <ele>184.600006</ele>
        <time>2011-05-02T13:00:26Z</time>
      </trkpt>
      <trkpt lat="45.30694" lon="1.19696">
        <ele>184.199997</ele>
        <time>2011-05-02T13:00:28Z</time>
      </trkpt>
      <trkpt lat="45.30699" lon="1.19691">
        <ele>183.399994</ele>
        <time>2011-05-02T13:00:30Z</time>
      </trkpt>
      <trkpt lat="45.30706" lon="1.19688">
        <ele>182.699997</ele>
        <time>2011-05-02T13:00:32Z</time>
      </trkpt>
      <trkpt lat="45.30713" lon="1.19682">
        <ele>181.699997</ele>
        <time>2011-05-02T13:00:34Z</time>
      </trkpt>
      <trkpt lat="45.30718" lon="1.19674">
        <ele>181.100006</ele>
        <time>2011-05-02T13:00:36Z</time>
      </trkpt>
      <trkpt lat="45.30724" lon="1.19665">
        <ele>180.300003</ele>
        <time>2011-05-02T13:00:39Z</time>
      </trkpt>
      <trkpt lat="45.30731" lon="1.1966">
        <ele>179.100006</ele>
        <time>2011-05-02T13:00:44Z</time>
      </trkpt>
      <trkpt lat="45.30739" lon="1.19657">
        <ele>179.100006</ele>
        <time>2011-05-02T13:00:48Z</time>
      </trkpt>
      <trkpt lat="45.30745" lon="1.1965">
        <ele>180.199997</ele>
        <time>2011-05-02T13:00:53Z</time>
      </trkpt>
      <trkpt lat="45.30753" lon="1.19645">
        <ele>180.800003</ele>
        <time>2011-05-02T13:00:58Z</time>
      </trkpt>
      <trkpt lat="45.30755" lon="1.19645">
        <ele>181.5</ele>
        <time>2011-05-02T13:00:59Z</time>
      </trkpt>
      <trkpt lat="45.3077" lon="1.19648">
        <ele>183.600006</ele>
        <time>2011-05-02T13:01:08Z</time>
      </trkpt>
      <trkpt lat="45.30777" lon="1.1965">
        <ele>185.199997</ele>
        <time>2011-05-02T13:01:12Z</time>
      </trkpt>
      <trkpt lat="45.30784" lon="1.19652">
        <ele>184.899994</ele>
        <time>2011-05-02T13:01:15Z</time>
      </trkpt>
      <trkpt lat="45.30791" lon="1.19653">
        <ele>185.300003</ele>
        <time>2011-05-02T13:01:18Z</time>
      </trkpt>
      <trkpt lat="45.30799" lon="1.19653">
        <ele>186.399994</ele>
        <time>2011-05-02T13:01:21Z</time>
      </trkpt>
      <trkpt lat="45.30806" lon="1.19653">
        <ele>187</ele>
        <time>2011-05-02T13:01:24Z</time>
      </trkpt>
      <trkpt lat="45.30814" lon="1.19653">
        <ele>186.600006</ele>
        <time>2011-05-02T13:01:27Z</time>
      </trkpt>
      <trkpt lat="45.30821" lon="1.19652">
        <ele>186.300003</ele>
        <time>2011-05-02T13:01:30Z</time>
      </trkpt>
      <trkpt lat="45.30829" lon="1.19651">
        <ele>186.699997</ele>
        <time>2011-05-02T13:01:33Z</time>
      </trkpt>
      <trkpt lat="45.30837" lon="1.1965">
        <ele>186.399994</ele>
        <time>2011-05-02T13:01:36Z</time>
      </trkpt>
      <trkpt lat="45.30844" lon="1.19647">
        <ele>187.100006</ele>
        <time>2011-05-02T13:01:39Z</time>
      </trkpt>
      <trkpt lat="45.3085" lon="1.19643">
        <ele>187.399994</ele>
        <time>2011-05-02T13:01:42Z</time>
      </trkpt>
      <trkpt lat="45.30857" lon="1.19638">
        <ele>187.800003</ele>
        <time>2011-05-02T13:01:45Z</time>
      </trkpt>
      <trkpt lat="45.30863" lon="1.19633">
        <ele>189.100006</ele>
        <time>2011-05-02T13:01:48Z</time>
      </trkpt>
      <trkpt lat="45.30869" lon="1.19627">
        <ele>189.800003</ele>
        <time>2011-05-02T13:01:51Z</time>
      </trkpt>
      <trkpt lat="45.30875" lon="1.19621">
        <ele>189.199997</ele>
        <time>2011-05-02T13:01:54Z</time>
      </trkpt>
      <trkpt lat="45.30881" lon="1.19615">
        <ele>189.899994</ele>
        <time>2011-05-02T13:01:57Z</time>
      </trkpt>
      <trkpt lat="45.30887" lon="1.19608">
        <ele>190.5</ele>
        <time>2011-05-02T13:02:00Z</time>
      </trkpt>
      <trkpt lat="45.30889" lon="1.19606">
        <ele>190.800003</ele>
        <time>2011-05-02T13:02:01Z</time>
      </trkpt>
      <trkpt lat="45.30897" lon="1.19593">
        <ele>191.600006</ele>
        <time>2011-05-02T13:02:06Z</time>
      </trkpt>
      <trkpt lat="45.30902" lon="1.19584">
        <ele>192.300003</ele>
        <time>2011-05-02T13:02:09Z</time>
      </trkpt>
      <trkpt lat="45.30907" lon="1.19574">
        <ele>192.199997</ele>
        <time>2011-05-02T13:02:12Z</time>
      </trkpt>
      <trkpt lat="45.3091" lon="1.19567">
        <ele>192.300003</ele>
        <time>2011-05-02T13:02:14Z</time>
      </trkpt>
      <trkpt lat="45.30914" lon="1.1956">
        <ele>192.600006</ele>
        <time>2011-05-02T13:02:16Z</time>
      </trkpt>
      <trkpt lat="45.30918" lon="1.19553">
        <ele>192.800003</ele>
        <time>2011-05-02T13:02:18Z</time>
      </trkpt>
      <trkpt lat="45.30925" lon="1.19545">
        <ele>192.300003</ele>
        <time>2011-05-02T13:02:21Z</time>
      </trkpt>
      <trkpt lat="45.30932" lon="1.19538">
        <ele>191.600006</ele>
        <time>2011-05-02T13:02:24Z</time>
      </trkpt>
      <trkpt lat="45.3094" lon="1.19531">
        <ele>191.399994</ele>
        <time>2011-05-02T13:02:27Z</time>
      </trkpt>
      <trkpt lat="45.30948" lon="1.19529">
        <ele>191.399994</ele>
        <time>2011-05-02T13:02:30Z</time>
      </trkpt>
      <trkpt lat="45.30956" lon="1.19528">
        <ele>191.399994</ele>
        <time>2011-05-02T13:02:33Z</time>
      </trkpt>
      <trkpt lat="45.30963" lon="1.19527">
        <ele>192.399994</ele>
        <time>2011-05-02T13:02:36Z</time>
      </trkpt>
      <trkpt lat="45.30967" lon="1.19516">
        <ele>193.399994</ele>
        <time>2011-05-02T13:02:42Z</time>
      </trkpt>
      <trkpt lat="45.30964" lon="1.19504">
        <ele>193.5</ele>
        <time>2011-05-02T13:02:45Z</time>
      </trkpt>
      <trkpt lat="45.30961" lon="1.19493">
        <ele>192.5</ele>
        <time>2011-05-02T13:02:48Z</time>
      </trkpt>
      <trkpt lat="45.30953" lon="1.19488">
        <ele>191.5</ele>
        <time>2011-05-02T13:02:51Z</time>
      </trkpt>
      <trkpt lat="45.30944" lon="1.1949">
        <ele>192.5</ele>
        <time>2011-05-02T13:02:54Z</time>
      </trkpt>
      <trkpt lat="45.30936" lon="1.19489">
        <ele>192</ele>
        <time>2011-05-02T13:02:57Z</time>
      </trkpt>
      <trkpt lat="45.30928" lon="1.19486">
        <ele>192.600006</ele>
        <time>2011-05-02T13:03:01Z</time>
      </trkpt>
      <trkpt lat="45.30928" lon="1.19483">
        <ele>193.300003</ele>
        <time>2011-05-02T13:03:02Z</time>
      </trkpt>
      <trkpt lat="45.30927" lon="1.19462">
        <ele>196</ele>
        <time>2011-05-02T13:03:12Z</time>
      </trkpt>
      <trkpt lat="45.30926" lon="1.1945">
        <ele>196.100006</ele>
        <time>2011-05-02T13:03:18Z</time>
      </trkpt>
      <trkpt lat="45.30924" lon="1.19439">
        <ele>195.699997</ele>
        <time>2011-05-02T13:03:24Z</time>
      </trkpt>
      <trkpt lat="45.30928" lon="1.19428">
        <ele>195.5</ele>
        <time>2011-05-02T13:03:29Z</time>
      </trkpt>
      <trkpt lat="45.30934" lon="1.19423">
        <ele>195.5</ele>
        <time>2011-05-02T13:03:33Z</time>
      </trkpt>
      <trkpt lat="45.3094" lon="1.19416">
        <ele>196.100006</ele>
        <time>2011-05-02T13:03:37Z</time>
      </trkpt>
      <trkpt lat="45.30948" lon="1.19409">
        <ele>197.899994</ele>
        <time>2011-05-02T13:03:41Z</time>
      </trkpt>
      <trkpt lat="45.30954" lon="1.19401">
        <ele>197.800003</ele>
        <time>2011-05-02T13:03:45Z</time>
      </trkpt>
      <trkpt lat="45.30962" lon="1.19396">
        <ele>197</ele>
        <time>2011-05-02T13:03:49Z</time>
      </trkpt>
      <trkpt lat="45.30968" lon="1.19391">
        <ele>198.199997</ele>
        <time>2011-05-02T13:03:52Z</time>
      </trkpt>
      <trkpt lat="45.30974" lon="1.19387">
        <ele>198.899994</ele>
        <time>2011-05-02T13:03:55Z</time>
      </trkpt>
      <trkpt lat="45.30981" lon="1.19383">
        <ele>198.899994</ele>
        <time>2011-05-02T13:03:58Z</time>
      </trkpt>
      <trkpt lat="45.30988" lon="1.19378">
        <ele>198.100006</ele>
        <time>2011-05-02T13:04:01Z</time>
      </trkpt>
      <trkpt lat="45.30995" lon="1.19372">
        <ele>199.600006</ele>
        <time>2011-05-02T13:04:04Z</time>
      </trkpt>
      <trkpt lat="45.30997" lon="1.1937">
        <ele>199.800003</ele>
        <time>2011-05-02T13:04:05Z</time>
      </trkpt>
      <trkpt lat="45.31009" lon="1.19364">
        <ele>200.600006</ele>
        <time>2011-05-02T13:04:10Z</time>
      </trkpt>
      <trkpt lat="45.31012" lon="1.19375">
        <ele>199.800003</ele>
        <time>2011-05-02T13:04:16Z</time>
      </trkpt>
      <trkpt lat="45.31009" lon="1.19382">
        <ele>199.699997</ele>
        <time>2011-05-02T13:04:18Z</time>
      </trkpt>
      <trkpt lat="45.31005" lon="1.19391">
        <ele>200</ele>
        <time>2011-05-02T13:04:20Z</time>
      </trkpt>
      <trkpt lat="45.31001" lon="1.194">
        <ele>199</ele>
        <time>2011-05-02T13:04:22Z</time>
      </trkpt>
      <trkpt lat="45.30998" lon="1.19411">
        <ele>197.5</ele>
        <time>2011-05-02T13:04:24Z</time>
      </trkpt>
      <trkpt lat="45.30996" lon="1.19423">
        <ele>196.800003</ele>
        <time>2011-05-02T13:04:26Z</time>
      </trkpt>
      <trkpt lat="45.31" lon="1.19434">
        <ele>195.100006</ele>
        <time>2011-05-02T13:04:29Z</time>
      </trkpt>
      <trkpt lat="45.31009" lon="1.19436">
        <ele>194.699997</ele>
        <time>2011-05-02T13:04:32Z</time>
      </trkpt>
      <trkpt lat="45.31017" lon="1.19439">
        <ele>194.399994</ele>
        <time>2011-05-02T13:04:36Z</time>
      </trkpt>
      <trkpt lat="45.31024" lon="1.19441">
        <ele>195.5</ele>
        <time>2011-05-02T13:04:39Z</time>
      </trkpt>
      <trkpt lat="45.31032" lon="1.19444">
        <ele>196.899994</ele>
        <time>2011-05-02T13:04:43Z</time>
      </trkpt>
      <trkpt lat="45.31039" lon="1.19446">
        <ele>198</ele>
        <time>2011-05-02T13:04:47Z</time>
      </trkpt>
      <trkpt lat="45.31047" lon="1.19447">
        <ele>198.399994</ele>
        <time>2011-05-02T13:04:51Z</time>
      </trkpt>
      <trkpt lat="45.31055" lon="1.19445">
        <ele>199</ele>
        <time>2011-05-02T13:04:55Z</time>
      </trkpt>
      <trkpt lat="45.31062" lon="1.19441">
        <ele>199.5</ele>
        <time>2011-05-02T13:04:59Z</time>
      </trkpt>
      <trkpt lat="45.31071" lon="1.19436">
        <ele>200.399994</ele>
        <time>2011-05-02T13:05:03Z</time>
      </trkpt>
      <trkpt lat="45.31079" lon="1.19431">
        <ele>200.5</ele>
        <time>2011-05-02T13:05:07Z</time>
      </trkpt>
      <trkpt lat="45.31081" lon="1.1943">
        <ele>200.800003</ele>
        <time>2011-05-02T13:05:08Z</time>
      </trkpt>
      <trkpt lat="45.31095" lon="1.19422">
        <ele>201.699997</ele>
        <time>2011-05-02T13:05:15Z</time>
      </trkpt>
      <trkpt lat="45.31103" lon="1.19417">
        <ele>202.199997</ele>
        <time>2011-05-02T13:05:19Z</time>
      </trkpt>
      <trkpt lat="45.31111" lon="1.19412">
        <ele>202.600006</ele>
        <time>2011-05-02T13:05:23Z</time>
      </trkpt>
      <trkpt lat="45.31118" lon="1.19409">
        <ele>203.100006</ele>
        <time>2011-05-02T13:05:26Z</time>
      </trkpt>
      <trkpt lat="45.31127" lon="1.19407">
        <ele>203.800003</ele>
        <time>2011-05-02T13:05:30Z</time>
      </trkpt>
      <trkpt lat="45.31134" lon="1.19407">
        <ele>204.100006</ele>
        <time>2011-05-02T13:05:33Z</time>
      </trkpt>
      <trkpt lat="45.31141" lon="1.19406">
        <ele>204.399994</ele>
        <time>2011-05-02T13:05:36Z</time>
      </trkpt>
      <trkpt lat="45.31148" lon="1.19407">
        <ele>204.5</ele>
        <time>2011-05-02T13:05:39Z</time>
      </trkpt>
      <trkpt lat="45.31156" lon="1.19408">
        <ele>204.800003</ele>
        <time>2011-05-02T13:05:42Z</time>
      </trkpt>
      <trkpt lat="45.31163" lon="1.19411">
        <ele>204.899994</ele>
        <time>2011-05-02T13:05:45Z</time>
      </trkpt>
      <trkpt lat="45.3117" lon="1.19413">
        <ele>205.5</ele>
        <time>2011-05-02T13:05:48Z</time>
      </trkpt>
      <trkpt lat="45.31178" lon="1.19416">
        <ele>205.699997</ele>
        <time>2011-05-02T13:05:51Z</time>
      </trkpt>
      <trkpt lat="45.31185" lon="1.19419">
        <ele>205.199997</ele>
        <time>2011-05-02T13:05:54Z</time>
      </trkpt>
      <trkpt lat="45.31193" lon="1.19422">
        <ele>205.600006</ele>
        <time>2011-05-02T13:05:57Z</time>
      </trkpt>
      <trkpt lat="45.31201" lon="1.19425">
        <ele>205.800003</ele>
        <time>2011-05-02T13:06:00Z</time>
      </trkpt>
      <trkpt lat="45.31208" lon="1.19428">
        <ele>205.399994</ele>
        <time>2011-05-02T13:06:03Z</time>
      </trkpt>
      <trkpt lat="45.31216" lon="1.19432">
        <ele>206.100006</ele>
        <time>2011-05-02T13:06:06Z</time>
      </trkpt>
      <trkpt lat="45.31223" lon="1.19434">
        <ele>206.399994</ele>
        <time>2011-05-02T13:06:09Z</time>
      </trkpt>
      <trkpt lat="45.31225" lon="1.19434">
        <ele>206.699997</ele>
        <time>2011-05-02T13:06:10Z</time>
      </trkpt>
      <trkpt lat="45.31228" lon="1.19448">
        <ele>207.199997</ele>
        <time>2011-05-02T13:06:19Z</time>
      </trkpt>
      <trkpt lat="45.31225" lon="1.1946">
        <ele>208.399994</ele>
        <time>2011-05-02T13:06:23Z</time>
      </trkpt>
      <trkpt lat="45.31222" lon="1.19469">
        <ele>208.800003</ele>
        <time>2011-05-02T13:06:26Z</time>
      </trkpt>
      <trkpt lat="45.3122" lon="1.19479">
        <ele>209.300003</ele>
        <time>2011-05-02T13:06:29Z</time>
      </trkpt>
      <trkpt lat="45.31218" lon="1.19488">
        <ele>210.199997</ele>
        <time>2011-05-02T13:06:32Z</time>
      </trkpt>
      <trkpt lat="45.31215" lon="1.19498">
        <ele>210.600006</ele>
        <time>2011-05-02T13:06:35Z</time>
      </trkpt>
      <trkpt lat="45.31213" lon="1.19507">
        <ele>211.300003</ele>
        <time>2011-05-02T13:06:38Z</time>
      </trkpt>
      <trkpt lat="45.31211" lon="1.19517">
        <ele>212</ele>
        <time>2011-05-02T13:06:41Z</time>
      </trkpt>
      <trkpt lat="45.31208" lon="1.19526">
        <ele>212.600006</ele>
        <time>2011-05-02T13:06:44Z</time>
      </trkpt>
      <trkpt lat="45.31206" lon="1.19536">
        <ele>213.300003</ele>
        <time>2011-05-02T13:06:47Z</time>
      </trkpt>
      <trkpt lat="45.31203" lon="1.19545">
        <ele>213.699997</ele>
        <time>2011-05-02T13:06:50Z</time>
      </trkpt>
      <trkpt lat="45.31201" lon="1.19555">
        <ele>214.699997</ele>
        <time>2011-05-02T13:06:53Z</time>
      </trkpt>
      <trkpt lat="45.31199" lon="1.19564">
        <ele>215.300003</ele>
        <time>2011-05-02T13:06:56Z</time>
      </trkpt>
      <trkpt lat="45.31196" lon="1.19574">
        <ele>215.800003</ele>
        <time>2011-05-02T13:06:59Z</time>
      </trkpt>
      <trkpt lat="45.31194" lon="1.19583">
        <ele>216.100006</ele>
        <time>2011-05-02T13:07:02Z</time>
      </trkpt>
      <trkpt lat="45.3119" lon="1.19594">
        <ele>216.399994</ele>
        <time>2011-05-02T13:07:06Z</time>
      </trkpt>
      <trkpt lat="45.31191" lon="1.19606">
        <ele>217.199997</ele>
        <time>2011-05-02T13:07:10Z</time>
      </trkpt>
      <trkpt lat="45.31193" lon="1.19608">
        <ele>217.5</ele>
        <time>2011-05-02T13:07:11Z</time>
      </trkpt>
      <trkpt lat="45.31203" lon="1.19616">
        <ele>217.899994</ele>
        <time>2011-05-02T13:07:16Z</time>
      </trkpt>
      <trkpt lat="45.3121" lon="1.19621">
        <ele>217.800003</ele>
        <time>2011-05-02T13:07:19Z</time>
      </trkpt>
      <trkpt lat="45.31217" lon="1.19625">
        <ele>218.800003</ele>
        <time>2011-05-02T13:07:22Z</time>
      </trkpt>
      <trkpt lat="45.31224" lon="1.19629">
        <ele>218.399994</ele>
        <time>2011-05-02T13:07:25Z</time>
      </trkpt>
      <trkpt lat="45.31233" lon="1.19633">
        <ele>218.5</ele>
        <time>2011-05-02T13:07:28Z</time>
      </trkpt>
      <trkpt lat="45.31238" lon="1.19634">
        <ele>218.899994</ele>
        <time>2011-05-02T13:07:30Z</time>
      </trkpt>
      <trkpt lat="45.31245" lon="1.19636">
        <ele>219.300003</ele>
        <time>2011-05-02T13:07:32Z</time>
      </trkpt>
      <trkpt lat="45.31251" lon="1.19637">
        <ele>219.199997</ele>
        <time>2011-05-02T13:07:34Z</time>
      </trkpt>
      <trkpt lat="45.31258" lon="1.19638">
        <ele>218.800003</ele>
        <time>2011-05-02T13:07:36Z</time>
      </trkpt>
      <trkpt lat="45.31265" lon="1.19638">
        <ele>218.800003</ele>
        <time>2011-05-02T13:07:38Z</time>
      </trkpt>
      <trkpt lat="45.31272" lon="1.19638">
        <ele>218.800003</ele>
        <time>2011-05-02T13:07:40Z</time>
      </trkpt>
      <trkpt lat="45.31279" lon="1.19637">
        <ele>218.800003</ele>
        <time>2011-05-02T13:07:42Z</time>
      </trkpt>
      <trkpt lat="45.31287" lon="1.19636">
        <ele>218.699997</ele>
        <time>2011-05-02T13:07:44Z</time>
      </trkpt>
      <trkpt lat="45.31294" lon="1.19636">
        <ele>219.199997</ele>
        <time>2011-05-02T13:07:46Z</time>
      </trkpt>
      <trkpt lat="45.31302" lon="1.19636">
        <ele>220</ele>
        <time>2011-05-02T13:07:48Z</time>
      </trkpt>
      <trkpt lat="45.31309" lon="1.19637">
        <ele>219.600006</ele>
        <time>2011-05-02T13:07:50Z</time>
      </trkpt>
      <trkpt lat="45.31317" lon="1.19638">
        <ele>219.600006</ele>
        <time>2011-05-02T13:07:52Z</time>
      </trkpt>
      <trkpt lat="45.31324" lon="1.1964">
        <ele>219.399994</ele>
        <time>2011-05-02T13:07:54Z</time>
      </trkpt>
      <trkpt lat="45.31332" lon="1.19642">
        <ele>219.100006</ele>
        <time>2011-05-02T13:07:56Z</time>
      </trkpt>
      <trkpt lat="45.3134" lon="1.19645">
        <ele>219</ele>
        <time>2011-05-02T13:07:58Z</time>
      </trkpt>
      <trkpt lat="45.31348" lon="1.19648">
        <ele>219.600006</ele>
        <time>2011-05-02T13:08:00Z</time>
      </trkpt>
      <trkpt lat="45.31357" lon="1.19651">
        <ele>219.199997</ele>
        <time>2011-05-02T13:08:02Z</time>
      </trkpt>
      <trkpt lat="45.31365" lon="1.19654">
        <ele>219.199997</ele>
        <time>2011-05-02T13:08:04Z</time>
      </trkpt>
      <trkpt lat="45.31373" lon="1.19657">
        <ele>219.800003</ele>
        <time>2011-05-02T13:08:06Z</time>
      </trkpt>
      <trkpt lat="45.31381" lon="1.19658">
        <ele>220.199997</ele>
        <time>2011-05-02T13:08:08Z</time>
      </trkpt>
      <trkpt lat="45.3139" lon="1.1966">
        <ele>220.300003</ele>
        <time>2011-05-02T13:08:10Z</time>
      </trkpt>
      <trkpt lat="45.31398" lon="1.19661">
        <ele>220.199997</ele>
        <time>2011-05-02T13:08:12Z</time>
      </trkpt>
      <trkpt lat="45.31402" lon="1.19661">
        <ele>220</ele>
        <time>2011-05-02T13:08:13Z</time>
      </trkpt>
      <trkpt lat="45.31414" lon="1.19662">
        <ele>219.5</ele>
        <time>2011-05-02T13:08:16Z</time>
      </trkpt>
      <trkpt lat="45.31422" lon="1.19663">
        <ele>219.199997</ele>
        <time>2011-05-02T13:08:18Z</time>
      </trkpt>
      <trkpt lat="45.31431" lon="1.19663">
        <ele>219.199997</ele>
        <time>2011-05-02T13:08:20Z</time>
      </trkpt>
      <trkpt lat="45.31436" lon="1.19663">
        <ele>219.300003</ele>
        <time>2011-05-02T13:08:21Z</time>
      </trkpt>
      <trkpt lat="45.3144" lon="1.19663">
        <ele>219.300003</ele>
        <time>2011-05-02T13:08:22Z</time>
      </trkpt>
      <trkpt lat="45.31445" lon="1.19664">
        <ele>219.5</ele>
        <time>2011-05-02T13:08:23Z</time>
      </trkpt>
      <trkpt lat="45.31449" lon="1.19665">
        <ele>219.600006</ele>
        <time>2011-05-02T13:08:24Z</time>
      </trkpt>
      <trkpt lat="45.31454" lon="1.19666">
        <ele>219.5</ele>
        <time>2011-05-02T13:08:25Z</time>
      </trkpt>
      <trkpt lat="45.31459" lon="1.19668">
        <ele>219.399994</ele>
        <time>2011-05-02T13:08:26Z</time>
      </trkpt>
      <trkpt lat="45.31463" lon="1.1967">
        <ele>219.300003</ele>
        <time>2011-05-02T13:08:27Z</time>
      </trkpt>
      <trkpt lat="45.31468" lon="1.19671">
        <ele>219.100006</ele>
        <time>2011-05-02T13:08:28Z</time>
      </trkpt>
      <trkpt lat="45.31473" lon="1.19672">
        <ele>219.100006</ele>
        <time>2011-05-02T13:08:29Z</time>
      </trkpt>
      <trkpt lat="45.31478" lon="1.19674">
        <ele>219.300003</ele>
        <time>2011-05-02T13:08:30Z</time>
      </trkpt>
      <trkpt lat="45.31483" lon="1.19675">
        <ele>219.399994</ele>
        <time>2011-05-02T13:08:31Z</time>
      </trkpt>
      <trkpt lat="45.31487" lon="1.19677">
        <ele>219.5</ele>
        <time>2011-05-02T13:08:32Z</time>
      </trkpt>
      <trkpt lat="45.31492" lon="1.1968">
        <ele>219.600006</ele>
        <time>2011-05-02T13:08:33Z</time>
      </trkpt>
      <trkpt lat="45.31496" lon="1.19682">
        <ele>219.699997</ele>
        <time>2011-05-02T13:08:34Z</time>
      </trkpt>
      <trkpt lat="45.31501" lon="1.19685">
        <ele>219.699997</ele>
        <time>2011-05-02T13:08:35Z</time>
      </trkpt>
      <trkpt lat="45.31505" lon="1.19687">
        <ele>219.699997</ele>
        <time>2011-05-02T13:08:36Z</time>
      </trkpt>
      <trkpt lat="45.3151" lon="1.19688">
        <ele>219.100006</ele>
        <time>2011-05-02T13:08:37Z</time>
      </trkpt>
      <trkpt lat="45.31514" lon="1.1969">
        <ele>218.600006</ele>
        <time>2011-05-02T13:08:38Z</time>
      </trkpt>
      <trkpt lat="45.31523" lon="1.19692">
        <ele>219.399994</ele>
        <time>2011-05-02T13:08:40Z</time>
      </trkpt>
      <trkpt lat="45.31532" lon="1.19695">
        <ele>219.600006</ele>
        <time>2011-05-02T13:08:42Z</time>
      </trkpt>
      <trkpt lat="45.3154" lon="1.19697">
        <ele>219.800003</ele>
        <time>2011-05-02T13:08:44Z</time>
      </trkpt>
      <trkpt lat="45.31549" lon="1.19699">
        <ele>220.100006</ele>
        <time>2011-05-02T13:08:46Z</time>
      </trkpt>
      <trkpt lat="45.31558" lon="1.197">
        <ele>220.399994</ele>
        <time>2011-05-02T13:08:48Z</time>
      </trkpt>
      <trkpt lat="45.31566" lon="1.19702">
        <ele>220.300003</ele>
        <time>2011-05-02T13:08:50Z</time>
      </trkpt>
      <trkpt lat="45.31574" lon="1.19701">
        <ele>220.300003</ele>
        <time>2011-05-02T13:08:52Z</time>
      </trkpt>
      <trkpt lat="45.31581" lon="1.19699">
        <ele>220.100006</ele>
        <time>2011-05-02T13:08:54Z</time>
      </trkpt>
      <trkpt lat="45.31588" lon="1.19697">
        <ele>220.300003</ele>
        <time>2011-05-02T13:08:56Z</time>
      </trkpt>
      <trkpt lat="45.31595" lon="1.19695">
        <ele>221.100006</ele>
        <time>2011-05-02T13:08:58Z</time>
      </trkpt>
      <trkpt lat="45.31603" lon="1.19692">
        <ele>222.5</ele>
        <time>2011-05-02T13:09:01Z</time>
      </trkpt>
      <trkpt lat="45.31609" lon="1.1969">
        <ele>223.100006</ele>
        <time>2011-05-02T13:09:03Z</time>
      </trkpt>
      <trkpt lat="45.31615" lon="1.19687">
        <ele>222.800003</ele>
        <time>2011-05-02T13:09:05Z</time>
      </trkpt>
      <trkpt lat="45.31621" lon="1.19684">
        <ele>222.300003</ele>
        <time>2011-05-02T13:09:07Z</time>
      </trkpt>
      <trkpt lat="45.31628" lon="1.19678">
        <ele>223</ele>
        <time>2011-05-02T13:09:10Z</time>
      </trkpt>
      <trkpt lat="45.31635" lon="1.19672">
        <ele>224</ele>
        <time>2011-05-02T13:09:13Z</time>
      </trkpt>
      <trkpt lat="45.31637" lon="1.19671">
        <ele>224.800003</ele>
        <time>2011-05-02T13:09:14Z</time>
      </trkpt>
      <trkpt lat="45.31648" lon="1.19678">
        <ele>225.300003</ele>
        <time>2011-05-02T13:09:19Z</time>
      </trkpt>
      <trkpt lat="45.31654" lon="1.19683">
        <ele>226.199997</ele>
        <time>2011-05-02T13:09:22Z</time>
      </trkpt>
      <trkpt lat="45.3166" lon="1.19689">
        <ele>226.800003</ele>
        <time>2011-05-02T13:09:25Z</time>
      </trkpt>
      <trkpt lat="45.31667" lon="1.19693">
        <ele>227</ele>
        <time>2011-05-02T13:09:28Z</time>
      </trkpt>
      <trkpt lat="45.31674" lon="1.19694">
        <ele>227.699997</ele>
        <time>2011-05-02T13:09:31Z</time>
      </trkpt>
      <trkpt lat="45.31682" lon="1.19696">
        <ele>228.300003</ele>
        <time>2011-05-02T13:09:34Z</time>
      </trkpt>
      <trkpt lat="45.31689" lon="1.19698">
        <ele>228.699997</ele>
        <time>2011-05-02T13:09:37Z</time>
      </trkpt>
      <trkpt lat="45.31697" lon="1.19703">
        <ele>229.300003</ele>
        <time>2011-05-02T13:09:40Z</time>
      </trkpt>
      <trkpt lat="45.31705" lon="1.19708">
        <ele>229.800003</ele>
        <time>2011-05-02T13:09:43Z</time>
      </trkpt>
      <trkpt lat="45.31712" lon="1.19714">
        <ele>229.899994</ele>
        <time>2011-05-02T13:09:46Z</time>
      </trkpt>
      <trkpt lat="45.31718" lon="1.1972">
        <ele>229.899994</ele>
        <time>2011-05-02T13:09:49Z</time>
      </trkpt>
      <trkpt lat="45.31724" lon="1.19728">
        <ele>230.5</ele>
        <time>2011-05-02T13:09:53Z</time>
      </trkpt>
      <trkpt lat="45.3173" lon="1.19734">
        <ele>231.699997</ele>
        <time>2011-05-02T13:09:57Z</time>
      </trkpt>
      <trkpt lat="45.31736" lon="1.19739">
        <ele>232.5</ele>
        <time>2011-05-02T13:10:01Z</time>
      </trkpt>
      <trkpt lat="45.31744" lon="1.19743">
        <ele>233.600006</ele>
        <time>2011-05-02T13:10:06Z</time>
      </trkpt>
      <trkpt lat="45.31753" lon="1.19743">
        <ele>234.300003</ele>
        <time>2011-05-02T13:10:11Z</time>
      </trkpt>
      <trkpt lat="45.31761" lon="1.19738">
        <ele>236.5</ele>
        <time>2011-05-02T13:10:17Z</time>
      </trkpt>
      <trkpt lat="45.31761" lon="1.19737">
        <ele>236.699997</ele>
        <time>2011-05-02T13:10:18Z</time>
      </trkpt>
      <trkpt lat="45.31768" lon="1.19718">
        <ele>238.800003</ele>
        <time>2011-05-02T13:10:29Z</time>
      </trkpt>
      <trkpt lat="45.31771" lon="1.19708">
        <ele>240.100006</ele>
        <time>2011-05-02T13:10:35Z</time>
      </trkpt>
      <trkpt lat="45.31777" lon="1.19699">
        <ele>242.5</ele>
        <time>2011-05-02T13:10:42Z</time>
      </trkpt>
      <trkpt lat="45.31782" lon="1.19689">
        <ele>244</ele>
        <time>2011-05-02T13:10:49Z</time>
      </trkpt>
      <trkpt lat="45.31787" lon="1.19679">
        <ele>244.800003</ele>
        <time>2011-05-02T13:10:56Z</time>
      </trkpt>
      <trkpt lat="45.31792" lon="1.1967">
        <ele>246.800003</ele>
        <time>2011-05-02T13:11:03Z</time>
      </trkpt>
      <trkpt lat="45.31797" lon="1.19661">
        <ele>248.199997</ele>
        <time>2011-05-02T13:11:10Z</time>
      </trkpt>
      <trkpt lat="45.31803" lon="1.19652">
        <ele>249.600006</ele>
        <time>2011-05-02T13:11:17Z</time>
      </trkpt>
      <trkpt lat="45.3181" lon="1.19645">
        <ele>250.800003</ele>
        <time>2011-05-02T13:11:24Z</time>
      </trkpt>
      <trkpt lat="45.31811" lon="1.19644">
        <ele>251.199997</ele>
        <time>2011-05-02T13:11:25Z</time>
      </trkpt>
      <trkpt lat="45.31821" lon="1.19627">
        <ele>254.300003</ele>
        <time>2011-05-02T13:11:38Z</time>
      </trkpt>
      <trkpt lat="45.31825" lon="1.19617">
        <ele>255.800003</ele>
        <time>2011-05-02T13:11:45Z</time>
      </trkpt>
      <trkpt lat="45.31828" lon="1.19606">
        <ele>257.700012</ele>
        <time>2011-05-02T13:11:52Z</time>
      </trkpt>
      <trkpt lat="45.31831" lon="1.19595">
        <ele>259.399994</ele>
        <time>2011-05-02T13:11:59Z</time>
      </trkpt>
      <trkpt lat="45.31835" lon="1.19584">
        <ele>261.600006</ele>
        <time>2011-05-02T13:12:06Z</time>
      </trkpt>
      <trkpt lat="45.31837" lon="1.19573">
        <ele>262.399994</ele>
        <time>2011-05-02T13:12:13Z</time>
      </trkpt>
      <trkpt lat="45.3184" lon="1.19563">
        <ele>263.600006</ele>
        <time>2011-05-02T13:12:19Z</time>
      </trkpt>
      <trkpt lat="45.31843" lon="1.19552">
        <ele>263.899994</ele>
        <time>2011-05-02T13:12:25Z</time>
      </trkpt>
      <trkpt lat="45.31844" lon="1.1955">
        <ele>263.899994</ele>
        <time>2011-05-02T13:12:26Z</time>
      </trkpt>
      <trkpt lat="45.3185" lon="1.1953">
        <ele>266.100006</ele>
        <time>2011-05-02T13:12:37Z</time>
      </trkpt>
      <trkpt lat="45.31852" lon="1.1952">
        <ele>266.600006</ele>
        <time>2011-05-02T13:12:42Z</time>
      </trkpt>
      <trkpt lat="45.31856" lon="1.19509">
        <ele>267.399994</ele>
        <time>2011-05-02T13:12:47Z</time>
      </trkpt>
      <trkpt lat="45.31861" lon="1.19499">
        <ele>269</ele>
        <time>2011-05-02T13:12:52Z</time>
      </trkpt>
      <trkpt lat="45.31866" lon="1.19489">
        <ele>269.200012</ele>
        <time>2011-05-02T13:12:57Z</time>
      </trkpt>
      <trkpt lat="45.3187" lon="1.19481">
        <ele>270</ele>
        <time>2011-05-02T13:13:01Z</time>
      </trkpt>
      <trkpt lat="45.31874" lon="1.19471">
        <ele>270.700012</ele>
        <time>2011-05-02T13:13:05Z</time>
      </trkpt>
      <trkpt lat="45.31877" lon="1.19462">
        <ele>271.100006</ele>
        <time>2011-05-02T13:13:09Z</time>
      </trkpt>
      <trkpt lat="45.31881" lon="1.19452">
        <ele>272.200012</ele>
        <time>2011-05-02T13:13:13Z</time>
      </trkpt>
      <trkpt lat="45.31885" lon="1.19442">
        <ele>272.600006</ele>
        <time>2011-05-02T13:13:17Z</time>
      </trkpt>
      <trkpt lat="45.31889" lon="1.19432">
        <ele>273.200012</ele>
        <time>2011-05-02T13:13:21Z</time>
      </trkpt>
      <trkpt lat="45.31892" lon="1.19421">
        <ele>273.5</ele>
        <time>2011-05-02T13:13:25Z</time>
      </trkpt>
      <trkpt lat="45.31896" lon="1.1941">
        <ele>274.399994</ele>
        <time>2011-05-02T13:13:29Z</time>
      </trkpt>
      <trkpt lat="45.31897" lon="1.19408">
        <ele>274.700012</ele>
        <time>2011-05-02T13:13:30Z</time>
      </trkpt>
      <trkpt lat="45.31904" lon="1.19389">
        <ele>274.899994</ele>
        <time>2011-05-02T13:13:37Z</time>
      </trkpt>
      <trkpt lat="45.31908" lon="1.19379">
        <ele>276.600006</ele>
        <time>2011-05-02T13:13:41Z</time>
      </trkpt>
      <trkpt lat="45.31912" lon="1.19368">
        <ele>277.100006</ele>
        <time>2011-05-02T13:13:45Z</time>
      </trkpt>
      <trkpt lat="45.31917" lon="1.19357">
        <ele>277.299988</ele>
        <time>2011-05-02T13:13:49Z</time>
      </trkpt>
      <trkpt lat="45.3192" lon="1.19348">
        <ele>277.799988</ele>
        <time>2011-05-02T13:13:52Z</time>
      </trkpt>
      <trkpt lat="45.31923" lon="1.19338">
        <ele>277.600006</ele>
        <time>2011-05-02T13:13:55Z</time>
      </trkpt>
      <trkpt lat="45.31925" lon="1.1933">
        <ele>277.700012</ele>
        <time>2011-05-02T13:13:57Z</time>
      </trkpt>
      <trkpt lat="45.31927" lon="1.19321">
        <ele>278.100006</ele>
        <time>2011-05-02T13:13:59Z</time>
      </trkpt>
      <trkpt lat="45.3193" lon="1.19313">
        <ele>278.100006</ele>
        <time>2011-05-02T13:14:01Z</time>
      </trkpt>
      <trkpt lat="45.31932" lon="1.19304">
        <ele>277.700012</ele>
        <time>2011-05-02T13:14:03Z</time>
      </trkpt>
      <trkpt lat="45.31935" lon="1.19295">
        <ele>277.100006</ele>
        <time>2011-05-02T13:14:05Z</time>
      </trkpt>
      <trkpt lat="45.31938" lon="1.19286">
        <ele>276.5</ele>
        <time>2011-05-02T13:14:07Z</time>
      </trkpt>
      <trkpt lat="45.3194" lon="1.19277">
        <ele>276.700012</ele>
        <time>2011-05-02T13:14:09Z</time>
      </trkpt>
      <trkpt lat="45.31943" lon="1.19268">
        <ele>277.200012</ele>
        <time>2011-05-02T13:14:11Z</time>
      </trkpt>
      <trkpt lat="45.31946" lon="1.19258">
        <ele>277</ele>
        <time>2011-05-02T13:14:13Z</time>
      </trkpt>
      <trkpt lat="45.31948" lon="1.19249">
        <ele>276.899994</ele>
        <time>2011-05-02T13:14:15Z</time>
      </trkpt>
      <trkpt lat="45.31951" lon="1.1924">
        <ele>276.899994</ele>
        <time>2011-05-02T13:14:17Z</time>
      </trkpt>
      <trkpt lat="45.31954" lon="1.19231">
        <ele>277.399994</ele>
        <time>2011-05-02T13:14:19Z</time>
      </trkpt>
      <trkpt lat="45.31956" lon="1.19223">
        <ele>278</ele>
        <time>2011-05-02T13:14:21Z</time>
      </trkpt>
      <trkpt lat="45.3196" lon="1.19211">
        <ele>278.5</ele>
        <time>2011-05-02T13:14:24Z</time>
      </trkpt>
      <trkpt lat="45.31963" lon="1.192">
        <ele>279</ele>
        <time>2011-05-02T13:14:27Z</time>
      </trkpt>
      <trkpt lat="45.31966" lon="1.1919">
        <ele>279.700012</ele>
        <time>2011-05-02T13:14:30Z</time>
      </trkpt>
      <trkpt lat="45.31967" lon="1.19186">
        <ele>279.700012</ele>
        <time>2011-05-02T13:14:31Z</time>
      </trkpt>
      <trkpt lat="45.31972" lon="1.19168">
        <ele>281.200012</ele>
        <time>2011-05-02T13:14:36Z</time>
      </trkpt>
      <trkpt lat="45.31975" lon="1.19156">
        <ele>281.600006</ele>
        <time>2011-05-02T13:14:39Z</time>
      </trkpt>
      <trkpt lat="45.31979" lon="1.19146">
        <ele>282.399994</ele>
        <time>2011-05-02T13:14:42Z</time>
      </trkpt>
      <trkpt lat="45.31982" lon="1.19135">
        <ele>282.700012</ele>
        <time>2011-05-02T13:14:45Z</time>
      </trkpt>
      <trkpt lat="45.31985" lon="1.19126">
        <ele>283.399994</ele>
        <time>2011-05-02T13:14:48Z</time>
      </trkpt>
      <trkpt lat="45.31988" lon="1.19116">
        <ele>284</ele>
        <time>2011-05-02T13:14:51Z</time>
      </trkpt>
      <trkpt lat="45.31991" lon="1.19106">
        <ele>284.899994</ele>
        <time>2011-05-02T13:14:54Z</time>
      </trkpt>
      <trkpt lat="45.31995" lon="1.19097">
        <ele>285.200012</ele>
        <time>2011-05-02T13:14:57Z</time>
      </trkpt>
      <trkpt lat="45.31998" lon="1.19088">
        <ele>285.799988</ele>
        <time>2011-05-02T13:15:00Z</time>
      </trkpt>
      <trkpt lat="45.32002" lon="1.19079">
        <ele>286.399994</ele>
        <time>2011-05-02T13:15:03Z</time>
      </trkpt>
      <trkpt lat="45.32006" lon="1.1907">
        <ele>287.100006</ele>
        <time>2011-05-02T13:15:06Z</time>
      </trkpt>
      <trkpt lat="45.32011" lon="1.19062">
        <ele>287.700012</ele>
        <time>2011-05-02T13:15:09Z</time>
      </trkpt>
      <trkpt lat="45.32015" lon="1.19053">
        <ele>288</ele>
        <time>2011-05-02T13:15:12Z</time>
      </trkpt>
      <trkpt lat="45.3202" lon="1.19045">
        <ele>289.5</ele>
        <time>2011-05-02T13:15:15Z</time>
      </trkpt>
      <trkpt lat="45.32024" lon="1.19037">
        <ele>289.799988</ele>
        <time>2011-05-02T13:15:18Z</time>
      </trkpt>
      <trkpt lat="45.32029" lon="1.1903">
        <ele>290.600006</ele>
        <time>2011-05-02T13:15:21Z</time>
      </trkpt>
      <trkpt lat="45.32033" lon="1.19021">
        <ele>291.399994</ele>
        <time>2011-05-02T13:15:24Z</time>
      </trkpt>
      <trkpt lat="45.32038" lon="1.19013">
        <ele>292.5</ele>
        <time>2011-05-02T13:15:27Z</time>
      </trkpt>
      <trkpt lat="45.32042" lon="1.19004">
        <ele>292.700012</ele>
        <time>2011-05-02T13:15:30Z</time>
      </trkpt>
      <trkpt lat="45.32047" lon="1.18995">
        <ele>292.600006</ele>
        <time>2011-05-02T13:15:33Z</time>
      </trkpt>
      <trkpt lat="45.32048" lon="1.18992">
        <ele>292.5</ele>
        <time>2011-05-02T13:15:34Z</time>
      </trkpt>
      <trkpt lat="45.32056" lon="1.18979">
        <ele>294</ele>
        <time>2011-05-02T13:15:39Z</time>
      </trkpt>
      <trkpt lat="45.32061" lon="1.1897">
        <ele>294.700012</ele>
        <time>2011-05-02T13:15:42Z</time>
      </trkpt>
      <trkpt lat="45.32066" lon="1.18963">
        <ele>295.299988</ele>
        <time>2011-05-02T13:15:45Z</time>
      </trkpt>
      <trkpt lat="45.32073" lon="1.18958">
        <ele>295.299988</ele>
        <time>2011-05-02T13:15:48Z</time>
      </trkpt>
      <trkpt lat="45.3208" lon="1.18955">
        <ele>295.799988</ele>
        <time>2011-05-02T13:15:51Z</time>
      </trkpt>
      <trkpt lat="45.32088" lon="1.18953">
        <ele>296.100006</ele>
        <time>2011-05-02T13:15:54Z</time>
      </trkpt>
      <trkpt lat="45.32096" lon="1.18951">
        <ele>296.899994</ele>
        <time>2011-05-02T13:15:57Z</time>
      </trkpt>
      <trkpt lat="45.32104" lon="1.18949">
        <ele>296.899994</ele>
        <time>2011-05-02T13:16:00Z</time>
      </trkpt>
      <trkpt lat="45.32112" lon="1.18944">
        <ele>297.600006</ele>
        <time>2011-05-02T13:16:03Z</time>
      </trkpt>
      <trkpt lat="45.3212" lon="1.18937">
        <ele>297.5</ele>
        <time>2011-05-02T13:16:06Z</time>
      </trkpt>
      <trkpt lat="45.32125" lon="1.18932">
        <ele>297.700012</ele>
        <time>2011-05-02T13:16:08Z</time>
      </trkpt>
      <trkpt lat="45.3213" lon="1.18926">
        <ele>298.100006</ele>
        <time>2011-05-02T13:16:10Z</time>
      </trkpt>
      <trkpt lat="45.32135" lon="1.18921">
        <ele>298.299988</ele>
        <time>2011-05-02T13:16:12Z</time>
      </trkpt>
      <trkpt lat="45.3214" lon="1.18914">
        <ele>298.799988</ele>
        <time>2011-05-02T13:16:14Z</time>
      </trkpt>
      <trkpt lat="45.32145" lon="1.18908">
        <ele>298.399994</ele>
        <time>2011-05-02T13:16:16Z</time>
      </trkpt>
      <trkpt lat="45.32149" lon="1.189">
        <ele>298.700012</ele>
        <time>2011-05-02T13:16:18Z</time>
      </trkpt>
      <trkpt lat="45.32154" lon="1.18892">
        <ele>299</ele>
        <time>2011-05-02T13:16:20Z</time>
      </trkpt>
      <trkpt lat="45.32158" lon="1.18883">
        <ele>299.200012</ele>
        <time>2011-05-02T13:16:22Z</time>
      </trkpt>
      <trkpt lat="45.32162" lon="1.18875">
        <ele>299.100006</ele>
        <time>2011-05-02T13:16:24Z</time>
      </trkpt>
      <trkpt lat="45.32167" lon="1.18867">
        <ele>298.899994</ele>
        <time>2011-05-02T13:16:26Z</time>
      </trkpt>
      <trkpt lat="45.32171" lon="1.18858">
        <ele>299.100006</ele>
        <time>2011-05-02T13:16:28Z</time>
      </trkpt>
      <trkpt lat="45.32176" lon="1.1885">
        <ele>299</ele>
        <time>2011-05-02T13:16:30Z</time>
      </trkpt>
      <trkpt lat="45.3218" lon="1.18842">
        <ele>299.200012</ele>
        <time>2011-05-02T13:16:32Z</time>
      </trkpt>
      <trkpt lat="45.32184" lon="1.18834">
        <ele>299.600006</ele>
        <time>2011-05-02T13:16:34Z</time>
      </trkpt>
      <trkpt lat="45.32186" lon="1.1883">
        <ele>299.700012</ele>
        <time>2011-05-02T13:16:35Z</time>
      </trkpt>
      <trkpt lat="45.32191" lon="1.18817">
        <ele>300.200012</ele>
        <time>2011-05-02T13:16:38Z</time>
      </trkpt>
      <trkpt lat="45.32195" lon="1.18809">
        <ele>300.399994</ele>
        <time>2011-05-02T13:16:40Z</time>
      </trkpt>
      <trkpt lat="45.32198" lon="1.18799">
        <ele>299.5</ele>
        <time>2011-05-02T13:16:42Z</time>
      </trkpt>
      <trkpt lat="45.322" lon="1.18789">
        <ele>300</ele>
        <time>2011-05-02T13:16:44Z</time>
      </trkpt>
      <trkpt lat="45.32203" lon="1.18778">
        <ele>300.600006</ele>
        <time>2011-05-02T13:16:46Z</time>
      </trkpt>
      <trkpt lat="45.32205" lon="1.18767">
        <ele>301.100006</ele>
        <time>2011-05-02T13:16:48Z</time>
      </trkpt>
      <trkpt lat="45.32207" lon="1.18756">
        <ele>301.399994</ele>
        <time>2011-05-02T13:16:50Z</time>
      </trkpt>
      <trkpt lat="45.3221" lon="1.18746">
        <ele>301.100006</ele>
        <time>2011-05-02T13:16:52Z</time>
      </trkpt>
      <trkpt lat="45.32214" lon="1.18735">
        <ele>300.899994</ele>
        <time>2011-05-02T13:16:54Z</time>
      </trkpt>
      <trkpt lat="45.32217" lon="1.18724">
        <ele>301.299988</ele>
        <time>2011-05-02T13:16:56Z</time>
      </trkpt>
      <trkpt lat="45.32222" lon="1.18714">
        <ele>301.399994</ele>
        <time>2011-05-02T13:16:58Z</time>
      </trkpt>
      <trkpt lat="45.32226" lon="1.18704">
        <ele>301.100006</ele>
        <time>2011-05-02T13:17:00Z</time>
      </trkpt>
      <trkpt lat="45.32232" lon="1.18694">
        <ele>300.899994</ele>
        <time>2011-05-02T13:17:02Z</time>
      </trkpt>
      <trkpt lat="45.32237" lon="1.18684">
        <ele>300.899994</ele>
        <time>2011-05-02T13:17:04Z</time>
      </trkpt>
      <trkpt lat="45.3224" lon="1.18679">
        <ele>301.100006</ele>
        <time>2011-05-02T13:17:05Z</time>
      </trkpt>
      <trkpt lat="45.32243" lon="1.18674">
        <ele>301.299988</ele>
        <time>2011-05-02T13:17:06Z</time>
      </trkpt>
      <trkpt lat="45.32248" lon="1.18664">
        <ele>301.200012</ele>
        <time>2011-05-02T13:17:08Z</time>
      </trkpt>
      <trkpt lat="45.32251" lon="1.1866">
        <ele>301.299988</ele>
        <time>2011-05-02T13:17:09Z</time>
      </trkpt>
      <trkpt lat="45.32255" lon="1.18655">
        <ele>301.299988</ele>
        <time>2011-05-02T13:17:10Z</time>
      </trkpt>
      <trkpt lat="45.32258" lon="1.1865">
        <ele>301.299988</ele>
        <time>2011-05-02T13:17:11Z</time>
      </trkpt>
      <trkpt lat="45.32261" lon="1.18645">
        <ele>301.200012</ele>
        <time>2011-05-02T13:17:12Z</time>
      </trkpt>
      <trkpt lat="45.32264" lon="1.1864">
        <ele>301.100006</ele>
        <time>2011-05-02T13:17:13Z</time>
      </trkpt>
      <trkpt lat="45.32268" lon="1.18636">
        <ele>301.600006</ele>
        <time>2011-05-02T13:17:14Z</time>
      </trkpt>
      <trkpt lat="45.32271" lon="1.18632">
        <ele>301.899994</ele>
        <time>2011-05-02T13:17:15Z</time>
      </trkpt>
      <trkpt lat="45.32275" lon="1.18627">
        <ele>302.100006</ele>
        <time>2011-05-02T13:17:16Z</time>
      </trkpt>
      <trkpt lat="45.32279" lon="1.18623">
        <ele>301.899994</ele>
        <time>2011-05-02T13:17:17Z</time>
      </trkpt>
      <trkpt lat="45.32283" lon="1.18619">
        <ele>301.700012</ele>
        <time>2011-05-02T13:17:18Z</time>
      </trkpt>
      <trkpt lat="45.32286" lon="1.18615">
        <ele>301.600006</ele>
        <time>2011-05-02T13:17:19Z</time>
      </trkpt>
      <trkpt lat="45.3229" lon="1.18611">
        <ele>301.600006</ele>
        <time>2011-05-02T13:17:20Z</time>
      </trkpt>
      <trkpt lat="45.32294" lon="1.18607">
        <ele>301.5</ele>
        <time>2011-05-02T13:17:21Z</time>
      </trkpt>
      <trkpt lat="45.32298" lon="1.18603">
        <ele>301.5</ele>
        <time>2011-05-02T13:17:22Z</time>
      </trkpt>
      <trkpt lat="45.32301" lon="1.18599">
        <ele>301.5</ele>
        <time>2011-05-02T13:17:23Z</time>
      </trkpt>
      <trkpt lat="45.32305" lon="1.18595">
        <ele>301.200012</ele>
        <time>2011-05-02T13:17:24Z</time>
      </trkpt>
      <trkpt lat="45.32309" lon="1.18591">
        <ele>301</ele>
        <time>2011-05-02T13:17:25Z</time>
      </trkpt>
      <trkpt lat="45.32313" lon="1.18587">
        <ele>301</ele>
        <time>2011-05-02T13:17:26Z</time>
      </trkpt>
      <trkpt lat="45.32316" lon="1.18583">
        <ele>301.100006</ele>
        <time>2011-05-02T13:17:27Z</time>
      </trkpt>
      <trkpt lat="45.3232" lon="1.18578">
        <ele>301.100006</ele>
        <time>2011-05-02T13:17:28Z</time>
      </trkpt>
      <trkpt lat="45.32326" lon="1.18569">
        <ele>301.700012</ele>
        <time>2011-05-02T13:17:30Z</time>
      </trkpt>
      <trkpt lat="45.32331" lon="1.18559">
        <ele>301.399994</ele>
        <time>2011-05-02T13:17:32Z</time>
      </trkpt>
      <trkpt lat="45.32335" lon="1.18549">
        <ele>302.200012</ele>
        <time>2011-05-02T13:17:34Z</time>
      </trkpt>
      <trkpt lat="45.32341" lon="1.1854">
        <ele>302.100006</ele>
        <time>2011-05-02T13:17:36Z</time>
      </trkpt>
      <trkpt lat="45.32344" lon="1.18537">
        <ele>301.899994</ele>
        <time>2011-05-02T13:17:37Z</time>
      </trkpt>
      <trkpt lat="45.32357" lon="1.18536">
        <ele>302.100006</ele>
        <time>2011-05-02T13:17:40Z</time>
      </trkpt>
      <trkpt lat="45.32365" lon="1.18537">
        <ele>302</ele>
        <time>2011-05-02T13:17:42Z</time>
      </trkpt>
      <trkpt lat="45.32374" lon="1.18538">
        <ele>302.200012</ele>
        <time>2011-05-02T13:17:44Z</time>
      </trkpt>
      <trkpt lat="45.32382" lon="1.18539">
        <ele>301.899994</ele>
        <time>2011-05-02T13:17:46Z</time>
      </trkpt>
      <trkpt lat="45.32391" lon="1.1854">
        <ele>302.299988</ele>
        <time>2011-05-02T13:17:48Z</time>
      </trkpt>
      <trkpt lat="45.324" lon="1.18541">
        <ele>302.399994</ele>
        <time>2011-05-02T13:17:50Z</time>
      </trkpt>
      <trkpt lat="45.32407" lon="1.18542">
        <ele>302.700012</ele>
        <time>2011-05-02T13:17:52Z</time>
      </trkpt>
      <trkpt lat="45.32413" lon="1.18546">
        <ele>303.100006</ele>
        <time>2011-05-02T13:17:54Z</time>
      </trkpt>
      <trkpt lat="45.32417" lon="1.18554">
        <ele>302.799988</ele>
        <time>2011-05-02T13:17:56Z</time>
      </trkpt>
      <trkpt lat="45.32421" lon="1.18564">
        <ele>302.700012</ele>
        <time>2011-05-02T13:17:58Z</time>
      </trkpt>
      <trkpt lat="45.32426" lon="1.18574">
        <ele>303.200012</ele>
        <time>2011-05-02T13:18:00Z</time>
      </trkpt>
      <trkpt lat="45.32429" lon="1.18579">
        <ele>303.299988</ele>
        <time>2011-05-02T13:18:01Z</time>
      </trkpt>
      <trkpt lat="45.32431" lon="1.18584">
        <ele>303.299988</ele>
        <time>2011-05-02T13:18:02Z</time>
      </trkpt>
      <trkpt lat="45.32434" lon="1.18589">
        <ele>303.299988</ele>
        <time>2011-05-02T13:18:03Z</time>
      </trkpt>
      <trkpt lat="45.32437" lon="1.18595">
        <ele>302.899994</ele>
        <time>2011-05-02T13:18:04Z</time>
      </trkpt>
      <trkpt lat="45.32442" lon="1.18605">
        <ele>302.200012</ele>
        <time>2011-05-02T13:18:06Z</time>
      </trkpt>
      <trkpt lat="45.32447" lon="1.18615">
        <ele>301.700012</ele>
        <time>2011-05-02T13:18:08Z</time>
      </trkpt>
      <trkpt lat="45.32451" lon="1.18625">
        <ele>301.600006</ele>
        <time>2011-05-02T13:18:10Z</time>
      </trkpt>
      <trkpt lat="45.32455" lon="1.18635">
        <ele>302</ele>
        <time>2011-05-02T13:18:12Z</time>
      </trkpt>
      <trkpt lat="45.32459" lon="1.18645">
        <ele>301.899994</ele>
        <time>2011-05-02T13:18:14Z</time>
      </trkpt>
      <trkpt lat="45.32463" lon="1.18655">
        <ele>301.299988</ele>
        <time>2011-05-02T13:18:16Z</time>
      </trkpt>
      <trkpt lat="45.32466" lon="1.18665">
        <ele>301.399994</ele>
        <time>2011-05-02T13:18:18Z</time>
      </trkpt>
      <trkpt lat="45.32469" lon="1.18673">
        <ele>301.899994</ele>
        <time>2011-05-02T13:18:20Z</time>
      </trkpt>
      <trkpt lat="45.32473" lon="1.18685">
        <ele>302.200012</ele>
        <time>2011-05-02T13:18:23Z</time>
      </trkpt>
      <trkpt lat="45.32478" lon="1.18695">
        <ele>303.299988</ele>
        <time>2011-05-02T13:18:26Z</time>
      </trkpt>
      <trkpt lat="45.32483" lon="1.18704">
        <ele>303.299988</ele>
        <time>2011-05-02T13:18:29Z</time>
      </trkpt>
      <trkpt lat="45.32487" lon="1.18711">
        <ele>303.600006</ele>
        <time>2011-05-02T13:18:31Z</time>
      </trkpt>
      <trkpt lat="45.32492" lon="1.18716">
        <ele>303.399994</ele>
        <time>2011-05-02T13:18:33Z</time>
      </trkpt>
      <trkpt lat="45.32498" lon="1.18721">
        <ele>302.899994</ele>
        <time>2011-05-02T13:18:35Z</time>
      </trkpt>
      <trkpt lat="45.32503" lon="1.18726">
        <ele>302.399994</ele>
        <time>2011-05-02T13:18:37Z</time>
      </trkpt>
      <trkpt lat="45.32506" lon="1.18727">
        <ele>302.200012</ele>
        <time>2011-05-02T13:18:38Z</time>
      </trkpt>
      <trkpt lat="45.32515" lon="1.18732">
        <ele>302</ele>
        <time>2011-05-02T13:18:41Z</time>
      </trkpt>
      <trkpt lat="45.32521" lon="1.18735">
        <ele>302.299988</ele>
        <time>2011-05-02T13:18:43Z</time>
      </trkpt>
      <trkpt lat="45.32528" lon="1.18738">
        <ele>302.299988</ele>
        <time>2011-05-02T13:18:45Z</time>
      </trkpt>
      <trkpt lat="45.32535" lon="1.1874">
        <ele>302.600006</ele>
        <time>2011-05-02T13:18:47Z</time>
      </trkpt>
      <trkpt lat="45.32541" lon="1.18743">
        <ele>303.100006</ele>
        <time>2011-05-02T13:18:49Z</time>
      </trkpt>
      <trkpt lat="45.32547" lon="1.18747">
        <ele>303.5</ele>
        <time>2011-05-02T13:18:51Z</time>
      </trkpt>
      <trkpt lat="45.32554" lon="1.18755">
        <ele>302.600006</ele>
        <time>2011-05-02T13:18:54Z</time>
      </trkpt>
      <trkpt lat="45.32556" lon="1.18763">
        <ele>302.299988</ele>
        <time>2011-05-02T13:18:56Z</time>
      </trkpt>
      <trkpt lat="45.32557" lon="1.18773">
        <ele>302.399994</ele>
        <time>2011-05-02T13:18:58Z</time>
      </trkpt>
      <trkpt lat="45.32559" lon="1.18783">
        <ele>301.799988</ele>
        <time>2011-05-02T13:19:00Z</time>
      </trkpt>
      <trkpt lat="45.32562" lon="1.18792">
        <ele>302.299988</ele>
        <time>2011-05-02T13:19:02Z</time>
      </trkpt>
      <trkpt lat="45.32562" lon="1.18805">
        <ele>302.100006</ele>
        <time>2011-05-02T13:19:05Z</time>
      </trkpt>
      <trkpt lat="45.3256" lon="1.18817">
        <ele>302.600006</ele>
        <time>2011-05-02T13:19:08Z</time>
      </trkpt>
      <trkpt lat="45.32558" lon="1.18825">
        <ele>302.600006</ele>
        <time>2011-05-02T13:19:10Z</time>
      </trkpt>
      <trkpt lat="45.32555" lon="1.18836">
        <ele>303.799988</ele>
        <time>2011-05-02T13:19:13Z</time>
      </trkpt>
      <trkpt lat="45.32552" lon="1.18846">
        <ele>304.399994</ele>
        <time>2011-05-02T13:19:16Z</time>
      </trkpt>
      <trkpt lat="45.32549" lon="1.18855">
        <ele>305.100006</ele>
        <time>2011-05-02T13:19:19Z</time>
      </trkpt>
      <trkpt lat="45.32551" lon="1.18867">
        <ele>306.600006</ele>
        <time>2011-05-02T13:19:23Z</time>
      </trkpt>
      <trkpt lat="45.32554" lon="1.18877">
        <ele>307.200012</ele>
        <time>2011-05-02T13:19:27Z</time>
      </trkpt>
      <trkpt lat="45.32559" lon="1.18884">
        <ele>307.899994</ele>
        <time>2011-05-02T13:19:31Z</time>
      </trkpt>
      <trkpt lat="45.32565" lon="1.18893">
        <ele>308</ele>
        <time>2011-05-02T13:19:35Z</time>
      </trkpt>
      <trkpt lat="45.3257" lon="1.189">
        <ele>308.100006</ele>
        <time>2011-05-02T13:19:38Z</time>
      </trkpt>
      <trkpt lat="45.32572" lon="1.18903">
        <ele>308</ele>
        <time>2011-05-02T13:19:39Z</time>
      </trkpt>
      <trkpt lat="45.32578" lon="1.18917">
        <ele>309.399994</ele>
        <time>2011-05-02T13:19:44Z</time>
      </trkpt>
      <trkpt lat="45.32581" lon="1.18928">
        <ele>309.799988</ele>
        <time>2011-05-02T13:19:48Z</time>
      </trkpt>
      <trkpt lat="45.32583" lon="1.18939">
        <ele>310.299988</ele>
        <time>2011-05-02T13:19:53Z</time>
      </trkpt>
      <trkpt lat="45.32587" lon="1.18951">
        <ele>311.899994</ele>
        <time>2011-05-02T13:19:59Z</time>
      </trkpt>
      <trkpt lat="45.32593" lon="1.18959">
        <ele>313.899994</ele>
        <time>2011-05-02T13:20:05Z</time>
      </trkpt>
      <trkpt lat="45.32601" lon="1.18964">
        <ele>314.899994</ele>
        <time>2011-05-02T13:20:11Z</time>
      </trkpt>
      <trkpt lat="45.32608" lon="1.18969">
        <ele>316</ele>
        <time>2011-05-02T13:20:17Z</time>
      </trkpt>
      <trkpt lat="45.32615" lon="1.18973">
        <ele>317.600006</ele>
        <time>2011-05-02T13:20:22Z</time>
      </trkpt>
      <trkpt lat="45.32623" lon="1.18976">
        <ele>318.399994</ele>
        <time>2011-05-02T13:20:27Z</time>
      </trkpt>
      <trkpt lat="45.32631" lon="1.18981">
        <ele>318.899994</ele>
        <time>2011-05-02T13:20:32Z</time>
      </trkpt>
      <trkpt lat="45.32638" lon="1.18986">
        <ele>319.899994</ele>
        <time>2011-05-02T13:20:37Z</time>
      </trkpt>
      <trkpt lat="45.32644" lon="1.18993">
        <ele>320.899994</ele>
        <time>2011-05-02T13:20:42Z</time>
      </trkpt>
      <trkpt lat="45.32646" lon="1.18995">
        <ele>321.100006</ele>
        <time>2011-05-02T13:20:43Z</time>
      </trkpt>
      <trkpt lat="45.32656" lon="1.19011">
        <ele>323.799988</ele>
        <time>2011-05-02T13:20:52Z</time>
      </trkpt>
      <trkpt lat="45.32661" lon="1.19021">
        <ele>324.399994</ele>
        <time>2011-05-02T13:20:57Z</time>
      </trkpt>
      <trkpt lat="45.32665" lon="1.1903">
        <ele>325.399994</ele>
        <time>2011-05-02T13:21:01Z</time>
      </trkpt>
      <trkpt lat="45.32667" lon="1.19041">
        <ele>325.399994</ele>
        <time>2011-05-02T13:21:05Z</time>
      </trkpt>
      <trkpt lat="45.32668" lon="1.19052">
        <ele>326.600006</ele>
        <time>2011-05-02T13:21:09Z</time>
      </trkpt>
      <trkpt lat="45.32668" lon="1.19064">
        <ele>327.600006</ele>
        <time>2011-05-02T13:21:13Z</time>
      </trkpt>
      <trkpt lat="45.32669" lon="1.19076">
        <ele>328.100006</ele>
        <time>2011-05-02T13:21:17Z</time>
      </trkpt>
      <trkpt lat="45.32669" lon="1.19087">
        <ele>328.5</ele>
        <time>2011-05-02T13:21:21Z</time>
      </trkpt>
      <trkpt lat="45.32669" lon="1.191">
        <ele>327.899994</ele>
        <time>2011-05-02T13:21:25Z</time>
      </trkpt>
      <trkpt lat="45.32669" lon="1.19112">
        <ele>328.399994</ele>
        <time>2011-05-02T13:21:29Z</time>
      </trkpt>
      <trkpt lat="45.3267" lon="1.19122">
        <ele>328.899994</ele>
        <time>2011-05-02T13:21:32Z</time>
      </trkpt>
      <trkpt lat="45.3267" lon="1.19134">
        <ele>328</ele>
        <time>2011-05-02T13:21:35Z</time>
      </trkpt>
      <trkpt lat="45.3267" lon="1.19144">
        <ele>327.5</ele>
        <time>2011-05-02T13:21:37Z</time>
      </trkpt>
      <trkpt lat="45.32671" lon="1.19154">
        <ele>327.700012</ele>
        <time>2011-05-02T13:21:39Z</time>
      </trkpt>
      <trkpt lat="45.32671" lon="1.19165">
        <ele>326.600006</ele>
        <time>2011-05-02T13:21:41Z</time>
      </trkpt>
      <trkpt lat="45.32672" lon="1.19175">
        <ele>325.799988</ele>
        <time>2011-05-02T13:21:43Z</time>
      </trkpt>
      <trkpt lat="45.32672" lon="1.1918">
        <ele>325.600006</ele>
        <time>2011-05-02T13:21:44Z</time>
      </trkpt>
      <trkpt lat="45.32682" lon="1.19187">
        <ele>323</ele>
        <time>2011-05-02T13:21:49Z</time>
      </trkpt>
      <trkpt lat="45.3269" lon="1.19187">
        <ele>322.100006</ele>
        <time>2011-05-02T13:21:52Z</time>
      </trkpt>
      <trkpt lat="45.32699" lon="1.19186">
        <ele>322.799988</ele>
        <time>2011-05-02T13:21:55Z</time>
      </trkpt>
      <trkpt lat="45.32706" lon="1.19186">
        <ele>323.200012</ele>
        <time>2011-05-02T13:21:58Z</time>
      </trkpt>
      <trkpt lat="45.32713" lon="1.19184">
        <ele>324.399994</ele>
        <time>2011-05-02T13:22:01Z</time>
      </trkpt>
      <trkpt lat="45.32719" lon="1.19181">
        <ele>324.799988</ele>
        <time>2011-05-02T13:22:04Z</time>
      </trkpt>
      <trkpt lat="45.32727" lon="1.19176">
        <ele>326.799988</ele>
        <time>2011-05-02T13:22:08Z</time>
      </trkpt>
      <trkpt lat="45.32734" lon="1.19175">
        <ele>327.100006</ele>
        <time>2011-05-02T13:22:11Z</time>
      </trkpt>
      <trkpt lat="45.32743" lon="1.19175">
        <ele>328.600006</ele>
        <time>2011-05-02T13:22:15Z</time>
      </trkpt>
      <trkpt lat="45.3275" lon="1.19176">
        <ele>328.700012</ele>
        <time>2011-05-02T13:22:18Z</time>
      </trkpt>
      <trkpt lat="45.32757" lon="1.19176">
        <ele>329.200012</ele>
        <time>2011-05-02T13:22:21Z</time>
      </trkpt>
      <trkpt lat="45.32765" lon="1.19177">
        <ele>329.799988</ele>
        <time>2011-05-02T13:22:24Z</time>
      </trkpt>
      <trkpt lat="45.32772" lon="1.19179">
        <ele>329.799988</ele>
        <time>2011-05-02T13:22:27Z</time>
      </trkpt>
      <trkpt lat="45.32779" lon="1.1918">
        <ele>330.100006</ele>
        <time>2011-05-02T13:22:30Z</time>
      </trkpt>
      <trkpt lat="45.32786" lon="1.19181">
        <ele>330.799988</ele>
        <time>2011-05-02T13:22:33Z</time>
      </trkpt>
      <trkpt lat="45.32795" lon="1.1918">
        <ele>331.600006</ele>
        <time>2011-05-02T13:22:37Z</time>
      </trkpt>
      <trkpt lat="45.32804" lon="1.19178">
        <ele>333.5</ele>
        <time>2011-05-02T13:22:41Z</time>
      </trkpt>
      <trkpt lat="45.32812" lon="1.19174">
        <ele>334.399994</ele>
        <time>2011-05-02T13:22:45Z</time>
      </trkpt>
      <trkpt lat="45.32815" lon="1.19174">
        <ele>334.299988</ele>
        <time>2011-05-02T13:22:46Z</time>
      </trkpt>
      <trkpt lat="45.32828" lon="1.19175">
        <ele>334.200012</ele>
        <time>2011-05-02T13:22:52Z</time>
      </trkpt>
      <trkpt lat="45.32834" lon="1.19179">
        <ele>334.799988</ele>
        <time>2011-05-02T13:22:55Z</time>
      </trkpt>
      <trkpt lat="45.32841" lon="1.19183">
        <ele>335</ele>
        <time>2011-05-02T13:22:58Z</time>
      </trkpt>
      <trkpt lat="45.32849" lon="1.19185">
        <ele>335.600006</ele>
        <time>2011-05-02T13:23:01Z</time>
      </trkpt>
      <trkpt lat="45.32857" lon="1.19187">
        <ele>335.700012</ele>
        <time>2011-05-02T13:23:04Z</time>
      </trkpt>
      <trkpt lat="45.32865" lon="1.19188">
        <ele>336.200012</ele>
        <time>2011-05-02T13:23:07Z</time>
      </trkpt>
      <trkpt lat="45.32873" lon="1.19189">
        <ele>336.799988</ele>
        <time>2011-05-02T13:23:10Z</time>
      </trkpt>
      <trkpt lat="45.32882" lon="1.19191">
        <ele>336.600006</ele>
        <time>2011-05-02T13:23:13Z</time>
      </trkpt>
      <trkpt lat="45.32891" lon="1.19192">
        <ele>336.600006</ele>
        <time>2011-05-02T13:23:16Z</time>
      </trkpt>
      <trkpt lat="45.32897" lon="1.19193">
        <ele>336.200012</ele>
        <time>2011-05-02T13:23:18Z</time>
      </trkpt>
      <trkpt lat="45.32903" lon="1.19194">
        <ele>336</ele>
        <time>2011-05-02T13:23:20Z</time>
      </trkpt>
      <trkpt lat="45.32909" lon="1.19195">
        <ele>335.899994</ele>
        <time>2011-05-02T13:23:22Z</time>
      </trkpt>
      <trkpt lat="45.32915" lon="1.19188">
        <ele>335</ele>
        <time>2011-05-02T13:23:25Z</time>
      </trkpt>
      <trkpt lat="45.32916" lon="1.19177">
        <ele>335.799988</ele>
        <time>2011-05-02T13:23:28Z</time>
      </trkpt>
      <trkpt lat="45.32916" lon="1.19165">
        <ele>335.600006</ele>
        <time>2011-05-02T13:23:31Z</time>
      </trkpt>
      <trkpt lat="45.32919" lon="1.19154">
        <ele>336.5</ele>
        <time>2011-05-02T13:23:34Z</time>
      </trkpt>
      <trkpt lat="45.32924" lon="1.19148">
        <ele>336.399994</ele>
        <time>2011-05-02T13:23:36Z</time>
      </trkpt>
      <trkpt lat="45.32931" lon="1.19142">
        <ele>336</ele>
        <time>2011-05-02T13:23:38Z</time>
      </trkpt>
      <trkpt lat="45.32937" lon="1.19136">
        <ele>335.899994</ele>
        <time>2011-05-02T13:23:40Z</time>
      </trkpt>
      <trkpt lat="45.32944" lon="1.1913">
        <ele>336.200012</ele>
        <time>2011-05-02T13:23:42Z</time>
      </trkpt>
      <trkpt lat="45.32952" lon="1.19124">
        <ele>336.399994</ele>
        <time>2011-05-02T13:23:44Z</time>
      </trkpt>
      <trkpt lat="45.32959" lon="1.19118">
        <ele>336.600006</ele>
        <time>2011-05-02T13:23:46Z</time>
      </trkpt>
      <trkpt lat="45.32962" lon="1.19115">
        <ele>336.799988</ele>
        <time>2011-05-02T13:23:47Z</time>
      </trkpt>
      <trkpt lat="45.32973" lon="1.19105">
        <ele>336.799988</ele>
        <time>2011-05-02T13:23:50Z</time>
      </trkpt>
      <trkpt lat="45.32979" lon="1.19099">
        <ele>336.899994</ele>
        <time>2011-05-02T13:23:52Z</time>
      </trkpt>
      <trkpt lat="45.32985" lon="1.19092">
        <ele>337.299988</ele>
        <time>2011-05-02T13:23:54Z</time>
      </trkpt>
      <trkpt lat="45.3299" lon="1.19085">
        <ele>337.200012</ele>
        <time>2011-05-02T13:23:56Z</time>
      </trkpt>
      <trkpt lat="45.32995" lon="1.19078">
        <ele>337.799988</ele>
        <time>2011-05-02T13:23:58Z</time>
      </trkpt>
      <trkpt lat="45.33" lon="1.19072">
        <ele>338.299988</ele>
        <time>2011-05-02T13:24:00Z</time>
      </trkpt>
      <trkpt lat="45.33004" lon="1.19066">
        <ele>338.700012</ele>
        <time>2011-05-02T13:24:02Z</time>
      </trkpt>
      <trkpt lat="45.33009" lon="1.19056">
        <ele>339.700012</ele>
        <time>2011-05-02T13:24:05Z</time>
      </trkpt>
      <trkpt lat="45.33014" lon="1.19048">
        <ele>340.5</ele>
        <time>2011-05-02T13:24:08Z</time>
      </trkpt>
      <trkpt lat="45.33019" lon="1.19038">
        <ele>341.600006</ele>
        <time>2011-05-02T13:24:12Z</time>
      </trkpt>
      <trkpt lat="45.33027" lon="1.19037">
        <ele>341.799988</ele>
        <time>2011-05-02T13:24:17Z</time>
      </trkpt>
      <trkpt lat="45.33033" lon="1.19039">
        <ele>341.799988</ele>
        <time>2011-05-02T13:24:19Z</time>
      </trkpt>
      <trkpt lat="45.33041" lon="1.19042">
        <ele>341.600006</ele>
        <time>2011-05-02T13:24:21Z</time>
      </trkpt>
      <trkpt lat="45.33045" lon="1.19044">
        <ele>341.5</ele>
        <time>2011-05-02T13:24:22Z</time>
      </trkpt>
      <trkpt lat="45.3305" lon="1.19046">
        <ele>341.399994</ele>
        <time>2011-05-02T13:24:23Z</time>
      </trkpt>
      <trkpt lat="45.33054" lon="1.19048">
        <ele>341.200012</ele>
        <time>2011-05-02T13:24:24Z</time>
      </trkpt>
      <trkpt lat="45.33059" lon="1.1905">
        <ele>341.100006</ele>
        <time>2011-05-02T13:24:25Z</time>
      </trkpt>
      <trkpt lat="45.33063" lon="1.19053">
        <ele>341</ele>
        <time>2011-05-02T13:24:26Z</time>
      </trkpt>
      <trkpt lat="45.33071" lon="1.19057">
        <ele>340.799988</ele>
        <time>2011-05-02T13:24:28Z</time>
      </trkpt>
      <trkpt lat="45.33078" lon="1.19062">
        <ele>340.799988</ele>
        <time>2011-05-02T13:24:30Z</time>
      </trkpt>
      <trkpt lat="45.33086" lon="1.19068">
        <ele>339.200012</ele>
        <time>2011-05-02T13:24:32Z</time>
      </trkpt>
      <trkpt lat="45.3309" lon="1.19071">
        <ele>338.5</ele>
        <time>2011-05-02T13:24:33Z</time>
      </trkpt>
      <trkpt lat="45.33094" lon="1.19074">
        <ele>337.899994</ele>
        <time>2011-05-02T13:24:34Z</time>
      </trkpt>
      <trkpt lat="45.33099" lon="1.19078">
        <ele>337.5</ele>
        <time>2011-05-02T13:24:35Z</time>
      </trkpt>
      <trkpt lat="45.33103" lon="1.19081">
        <ele>337.5</ele>
        <time>2011-05-02T13:24:36Z</time>
      </trkpt>
      <trkpt lat="45.33107" lon="1.19085">
        <ele>337.5</ele>
        <time>2011-05-02T13:24:37Z</time>
      </trkpt>
      <trkpt lat="45.33112" lon="1.19089">
        <ele>336.899994</ele>
        <time>2011-05-02T13:24:38Z</time>
      </trkpt>
      <trkpt lat="45.33117" lon="1.19092">
        <ele>336.399994</ele>
        <time>2011-05-02T13:24:39Z</time>
      </trkpt>
      <trkpt lat="45.33121" lon="1.19096">
        <ele>336.200012</ele>
        <time>2011-05-02T13:24:40Z</time>
      </trkpt>
      <trkpt lat="45.33126" lon="1.191">
        <ele>336</ele>
        <time>2011-05-02T13:24:41Z</time>
      </trkpt>
      <trkpt lat="45.33131" lon="1.19104">
        <ele>335.899994</ele>
        <time>2011-05-02T13:24:42Z</time>
      </trkpt>
      <trkpt lat="45.33136" lon="1.19107">
        <ele>335.799988</ele>
        <time>2011-05-02T13:24:43Z</time>
      </trkpt>
      <trkpt lat="45.33141" lon="1.19112">
        <ele>335.700012</ele>
        <time>2011-05-02T13:24:44Z</time>
      </trkpt>
      <trkpt lat="45.33146" lon="1.19116">
        <ele>335.299988</ele>
        <time>2011-05-02T13:24:45Z</time>
      </trkpt>
      <trkpt lat="45.33151" lon="1.1912">
        <ele>335.100006</ele>
        <time>2011-05-02T13:24:46Z</time>
      </trkpt>
      <trkpt lat="45.33156" lon="1.19125">
        <ele>334.600006</ele>
        <time>2011-05-02T13:24:47Z</time>
      </trkpt>
      <trkpt lat="45.33162" lon="1.19129">
        <ele>334.299988</ele>
        <time>2011-05-02T13:24:48Z</time>
      </trkpt>
      <trkpt lat="45.33168" lon="1.19134">
        <ele>334</ele>
        <time>2011-05-02T13:24:49Z</time>
      </trkpt>
      <trkpt lat="45.33174" lon="1.19138">
        <ele>333</ele>
        <time>2011-05-02T13:24:50Z</time>
      </trkpt>
      <trkpt lat="45.33179" lon="1.19142">
        <ele>332.299988</ele>
        <time>2011-05-02T13:24:51Z</time>
      </trkpt>
      <trkpt lat="45.33185" lon="1.19146">
        <ele>331</ele>
        <time>2011-05-02T13:24:52Z</time>
      </trkpt>
      <trkpt lat="45.33191" lon="1.19149">
        <ele>330.100006</ele>
        <time>2011-05-02T13:24:53Z</time>
      </trkpt>
      <trkpt lat="45.33196" lon="1.19152">
        <ele>329.399994</ele>
        <time>2011-05-02T13:24:54Z</time>
      </trkpt>
      <trkpt lat="45.33202" lon="1.19152">
        <ele>328.899994</ele>
        <time>2011-05-02T13:24:55Z</time>
      </trkpt>
      <trkpt lat="45.33208" lon="1.1915">
        <ele>328.600006</ele>
        <time>2011-05-02T13:24:56Z</time>
      </trkpt>
      <trkpt lat="45.33214" lon="1.19149">
        <ele>327.899994</ele>
        <time>2011-05-02T13:24:57Z</time>
      </trkpt>
      <trkpt lat="45.33221" lon="1.19147">
        <ele>327.399994</ele>
        <time>2011-05-02T13:24:58Z</time>
      </trkpt>
      <trkpt lat="45.33228" lon="1.19147">
        <ele>325.799988</ele>
        <time>2011-05-02T13:24:59Z</time>
      </trkpt>
      <trkpt lat="45.33236" lon="1.19148">
        <ele>324.700012</ele>
        <time>2011-05-02T13:25:00Z</time>
      </trkpt>
      <trkpt lat="45.33243" lon="1.19149">
        <ele>323.799988</ele>
        <time>2011-05-02T13:25:01Z</time>
      </trkpt>
      <trkpt lat="45.33249" lon="1.19151">
        <ele>322.799988</ele>
        <time>2011-05-02T13:25:02Z</time>
      </trkpt>
      <trkpt lat="45.33255" lon="1.19153">
        <ele>322</ele>
        <time>2011-05-02T13:25:03Z</time>
      </trkpt>
      <trkpt lat="45.3326" lon="1.19154">
        <ele>321.799988</ele>
        <time>2011-05-02T13:25:04Z</time>
      </trkpt>
      <trkpt lat="45.33265" lon="1.19155">
        <ele>321.5</ele>
        <time>2011-05-02T13:25:05Z</time>
      </trkpt>
      <trkpt lat="45.33271" lon="1.19154">
        <ele>321.200012</ele>
        <time>2011-05-02T13:25:06Z</time>
      </trkpt>
      <trkpt lat="45.33277" lon="1.19154">
        <ele>320.899994</ele>
        <time>2011-05-02T13:25:07Z</time>
      </trkpt>
      <trkpt lat="45.33282" lon="1.19153">
        <ele>320.700012</ele>
        <time>2011-05-02T13:25:08Z</time>
      </trkpt>
      <trkpt lat="45.33289" lon="1.19153">
        <ele>319.700012</ele>
        <time>2011-05-02T13:25:09Z</time>
      </trkpt>
      <trkpt lat="45.33295" lon="1.19152">
        <ele>319</ele>
        <time>2011-05-02T13:25:10Z</time>
      </trkpt>
      <trkpt lat="45.33302" lon="1.19152">
        <ele>318.200012</ele>
        <time>2011-05-02T13:25:11Z</time>
      </trkpt>
      <trkpt lat="45.33309" lon="1.19151">
        <ele>317.600006</ele>
        <time>2011-05-02T13:25:12Z</time>
      </trkpt>
      <trkpt lat="45.33316" lon="1.1915">
        <ele>317.200012</ele>
        <time>2011-05-02T13:25:13Z</time>
      </trkpt>
      <trkpt lat="45.33323" lon="1.19148">
        <ele>316.899994</ele>
        <time>2011-05-02T13:25:14Z</time>
      </trkpt>
      <trkpt lat="45.3333" lon="1.19146">
        <ele>316.799988</ele>
        <time>2011-05-02T13:25:15Z</time>
      </trkpt>
      <trkpt lat="45.33336" lon="1.19142">
        <ele>316.200012</ele>
        <time>2011-05-02T13:25:16Z</time>
      </trkpt>
      <trkpt lat="45.33343" lon="1.19137">
        <ele>315.799988</ele>
        <time>2011-05-02T13:25:17Z</time>
      </trkpt>
      <trkpt lat="45.33349" lon="1.1913">
        <ele>315.700012</ele>
        <time>2011-05-02T13:25:18Z</time>
      </trkpt>
      <trkpt lat="45.33354" lon="1.19123">
        <ele>315.600006</ele>
        <time>2011-05-02T13:25:19Z</time>
      </trkpt>
      <trkpt lat="45.33358" lon="1.19115">
        <ele>315.5</ele>
        <time>2011-05-02T13:25:20Z</time>
      </trkpt>
      <trkpt lat="45.33363" lon="1.19109">
        <ele>315</ele>
        <time>2011-05-02T13:25:21Z</time>
      </trkpt>
      <trkpt lat="45.33368" lon="1.19105">
        <ele>314.600006</ele>
        <time>2011-05-02T13:25:22Z</time>
      </trkpt>
      <trkpt lat="45.33372" lon="1.19104">
        <ele>314.200012</ele>
        <time>2011-05-02T13:25:23Z</time>
      </trkpt>
      <trkpt lat="45.33377" lon="1.19107">
        <ele>313.799988</ele>
        <time>2011-05-02T13:25:24Z</time>
      </trkpt>
      <trkpt lat="45.3338" lon="1.19112">
        <ele>313.5</ele>
        <time>2011-05-02T13:25:25Z</time>
      </trkpt>
      <trkpt lat="45.33384" lon="1.19117">
        <ele>313.299988</ele>
        <time>2011-05-02T13:25:26Z</time>
      </trkpt>
      <trkpt lat="45.33388" lon="1.19123">
        <ele>313.200012</ele>
        <time>2011-05-02T13:25:27Z</time>
      </trkpt>
      <trkpt lat="45.33393" lon="1.19128">
        <ele>312.799988</ele>
        <time>2011-05-02T13:25:28Z</time>
      </trkpt>
      <trkpt lat="45.33399" lon="1.19133">
        <ele>312.5</ele>
        <time>2011-05-02T13:25:29Z</time>
      </trkpt>
      <trkpt lat="45.33405" lon="1.19138">
        <ele>311.799988</ele>
        <time>2011-05-02T13:25:30Z</time>
      </trkpt>
      <trkpt lat="45.33413" lon="1.19141">
        <ele>311.299988</ele>
        <time>2011-05-02T13:25:31Z</time>
      </trkpt>
      <trkpt lat="45.3342" lon="1.19144">
        <ele>310.899994</ele>
        <time>2011-05-02T13:25:32Z</time>
      </trkpt>
      <trkpt lat="45.33429" lon="1.19146">
        <ele>310.5</ele>
        <time>2011-05-02T13:25:33Z</time>
      </trkpt>
      <trkpt lat="45.33437" lon="1.19148">
        <ele>310.200012</ele>
        <time>2011-05-02T13:25:34Z</time>
      </trkpt>
      <trkpt lat="45.33446" lon="1.1915">
        <ele>309.799988</ele>
        <time>2011-05-02T13:25:35Z</time>
      </trkpt>
      <trkpt lat="45.33456" lon="1.19152">
        <ele>309.600006</ele>
        <time>2011-05-02T13:25:36Z</time>
      </trkpt>
      <trkpt lat="45.33465" lon="1.19154">
        <ele>309.100006</ele>
        <time>2011-05-02T13:25:37Z</time>
      </trkpt>
      <trkpt lat="45.33475" lon="1.19156">
        <ele>308.700012</ele>
        <time>2011-05-02T13:25:38Z</time>
      </trkpt>
      <trkpt lat="45.33485" lon="1.19159">
        <ele>308.399994</ele>
        <time>2011-05-02T13:25:39Z</time>
      </trkpt>
      <trkpt lat="45.33495" lon="1.1916">
        <ele>307.5</ele>
        <time>2011-05-02T13:25:40Z</time>
      </trkpt>
      <trkpt lat="45.33506" lon="1.19162">
        <ele>306.799988</ele>
        <time>2011-05-02T13:25:41Z</time>
      </trkpt>
      <trkpt lat="45.33516" lon="1.19164">
        <ele>305.799988</ele>
        <time>2011-05-02T13:25:42Z</time>
      </trkpt>
      <trkpt lat="45.33526" lon="1.19166">
        <ele>305</ele>
        <time>2011-05-02T13:25:43Z</time>
      </trkpt>
      <trkpt lat="45.33535" lon="1.19168">
        <ele>304.299988</ele>
        <time>2011-05-02T13:25:44Z</time>
      </trkpt>
      <trkpt lat="45.33543" lon="1.19169">
        <ele>303.799988</ele>
        <time>2011-05-02T13:25:45Z</time>
      </trkpt>
      <trkpt lat="45.33551" lon="1.19168">
        <ele>303.399994</ele>
        <time>2011-05-02T13:25:46Z</time>
      </trkpt>
      <trkpt lat="45.33558" lon="1.19165">
        <ele>302.299988</ele>
        <time>2011-05-02T13:25:47Z</time>
      </trkpt>
      <trkpt lat="45.33564" lon="1.19163">
        <ele>301.399994</ele>
        <time>2011-05-02T13:25:48Z</time>
      </trkpt>
      <trkpt lat="45.3357" lon="1.19162">
        <ele>301.100006</ele>
        <time>2011-05-02T13:25:49Z</time>
      </trkpt>
      <trkpt lat="45.33577" lon="1.19162">
        <ele>300.899994</ele>
        <time>2011-05-02T13:25:50Z</time>
      </trkpt>
      <trkpt lat="45.33583" lon="1.19162">
        <ele>300.700012</ele>
        <time>2011-05-02T13:25:51Z</time>
      </trkpt>
      <trkpt lat="45.3359" lon="1.19162">
        <ele>299.799988</ele>
        <time>2011-05-02T13:25:52Z</time>
      </trkpt>
      <trkpt lat="45.33597" lon="1.19162">
        <ele>299.100006</ele>
        <time>2011-05-02T13:25:53Z</time>
      </trkpt>
      <trkpt lat="45.33604" lon="1.19162">
        <ele>298.5</ele>
        <time>2011-05-02T13:25:54Z</time>
      </trkpt>
      <trkpt lat="45.3361" lon="1.19163">
        <ele>298.100006</ele>
        <time>2011-05-02T13:25:55Z</time>
      </trkpt>
      <trkpt lat="45.33617" lon="1.19162">
        <ele>297.899994</ele>
        <time>2011-05-02T13:25:56Z</time>
      </trkpt>
      <trkpt lat="45.33624" lon="1.1916">
        <ele>297.700012</ele>
        <time>2011-05-02T13:25:57Z</time>
      </trkpt>
      <trkpt lat="45.33631" lon="1.19158">
        <ele>297.5</ele>
        <time>2011-05-02T13:25:58Z</time>
      </trkpt>
      <trkpt lat="45.33638" lon="1.19153">
        <ele>296.5</ele>
        <time>2011-05-02T13:25:59Z</time>
      </trkpt>
      <trkpt lat="45.33645" lon="1.19148">
        <ele>295.799988</ele>
        <time>2011-05-02T13:26:00Z</time>
      </trkpt>
      <trkpt lat="45.33652" lon="1.19148">
        <ele>295</ele>
        <time>2011-05-02T13:26:01Z</time>
      </trkpt>
      <trkpt lat="45.33658" lon="1.19151">
        <ele>294.399994</ele>
        <time>2011-05-02T13:26:02Z</time>
      </trkpt>
      <trkpt lat="45.33664" lon="1.19157">
        <ele>293.200012</ele>
        <time>2011-05-02T13:26:03Z</time>
      </trkpt>
      <trkpt lat="45.33669" lon="1.19166">
        <ele>292.299988</ele>
        <time>2011-05-02T13:26:04Z</time>
      </trkpt>
      <trkpt lat="45.33674" lon="1.19176">
        <ele>291.700012</ele>
        <time>2011-05-02T13:26:05Z</time>
      </trkpt>
      <trkpt lat="45.33678" lon="1.19187">
        <ele>290.399994</ele>
        <time>2011-05-02T13:26:06Z</time>
      </trkpt>
      <trkpt lat="45.33683" lon="1.19196">
        <ele>289.399994</ele>
        <time>2011-05-02T13:26:07Z</time>
      </trkpt>
      <trkpt lat="45.33689" lon="1.19203">
        <ele>287.799988</ele>
        <time>2011-05-02T13:26:08Z</time>
      </trkpt>
      <trkpt lat="45.33695" lon="1.19209">
        <ele>286.600006</ele>
        <time>2011-05-02T13:26:09Z</time>
      </trkpt>
      <trkpt lat="45.33701" lon="1.19213">
        <ele>285.600006</ele>
        <time>2011-05-02T13:26:10Z</time>
      </trkpt>
      <trkpt lat="45.33709" lon="1.19216">
        <ele>284.600006</ele>
        <time>2011-05-02T13:26:11Z</time>
      </trkpt>
      <trkpt lat="45.33717" lon="1.19219">
        <ele>283.899994</ele>
        <time>2011-05-02T13:26:12Z</time>
      </trkpt>
      <trkpt lat="45.33725" lon="1.19221">
        <ele>282.5</ele>
        <time>2011-05-02T13:26:13Z</time>
      </trkpt>
      <trkpt lat="45.33732" lon="1.19223">
        <ele>281.399994</ele>
        <time>2011-05-02T13:26:14Z</time>
      </trkpt>
      <trkpt lat="45.33737" lon="1.19225">
        <ele>280.200012</ele>
        <time>2011-05-02T13:26:15Z</time>
      </trkpt>
      <trkpt lat="45.33742" lon="1.19234">
        <ele>278.600006</ele>
        <time>2011-05-02T13:26:17Z</time>
      </trkpt>
      <trkpt lat="45.33742" lon="1.19241">
        <ele>277.5</ele>
        <time>2011-05-02T13:26:18Z</time>
      </trkpt>
      <trkpt lat="45.33742" lon="1.19248">
        <ele>276.700012</ele>
        <time>2011-05-02T13:26:19Z</time>
      </trkpt>
      <trkpt lat="45.33742" lon="1.19257">
        <ele>276</ele>
        <time>2011-05-02T13:26:20Z</time>
      </trkpt>
      <trkpt lat="45.33742" lon="1.19264">
        <ele>275.399994</ele>
        <time>2011-05-02T13:26:21Z</time>
      </trkpt>
      <trkpt lat="45.33749" lon="1.19272">
        <ele>273.100006</ele>
        <time>2011-05-02T13:26:23Z</time>
      </trkpt>
      <trkpt lat="45.33754" lon="1.19274">
        <ele>272.299988</ele>
        <time>2011-05-02T13:26:24Z</time>
      </trkpt>
      <trkpt lat="45.3376" lon="1.19276">
        <ele>271.700012</ele>
        <time>2011-05-02T13:26:25Z</time>
      </trkpt>
      <trkpt lat="45.33767" lon="1.19279">
        <ele>271.299988</ele>
        <time>2011-05-02T13:26:26Z</time>
      </trkpt>
      <trkpt lat="45.33774" lon="1.1928">
        <ele>270.100006</ele>
        <time>2011-05-02T13:26:27Z</time>
      </trkpt>
      <trkpt lat="45.33781" lon="1.19283">
        <ele>269.200012</ele>
        <time>2011-05-02T13:26:28Z</time>
      </trkpt>
      <trkpt lat="45.33787" lon="1.19287">
        <ele>268.600006</ele>
        <time>2011-05-02T13:26:29Z</time>
      </trkpt>
      <trkpt lat="45.33792" lon="1.19289">
        <ele>267.600006</ele>
        <time>2011-05-02T13:26:30Z</time>
      </trkpt>
      <trkpt lat="45.33797" lon="1.19287">
        <ele>266.799988</ele>
        <time>2011-05-02T13:26:31Z</time>
      </trkpt>
      <trkpt lat="45.33803" lon="1.19285">
        <ele>265.700012</ele>
        <time>2011-05-02T13:26:32Z</time>
      </trkpt>
      <trkpt lat="45.3381" lon="1.19283">
        <ele>264.899994</ele>
        <time>2011-05-02T13:26:33Z</time>
      </trkpt>
      <trkpt lat="45.33816" lon="1.19281">
        <ele>263.600006</ele>
        <time>2011-05-02T13:26:34Z</time>
      </trkpt>
      <trkpt lat="45.33821" lon="1.19279">
        <ele>262.600006</ele>
        <time>2011-05-02T13:26:35Z</time>
      </trkpt>
      <trkpt lat="45.33828" lon="1.19275">
        <ele>261.899994</ele>
        <time>2011-05-02T13:26:36Z</time>
      </trkpt>
      <trkpt lat="45.33834" lon="1.19269">
        <ele>260.799988</ele>
        <time>2011-05-02T13:26:37Z</time>
      </trkpt>
      <trkpt lat="45.3384" lon="1.19261">
        <ele>259.899994</ele>
        <time>2011-05-02T13:26:38Z</time>
      </trkpt>
      <trkpt lat="45.33847" lon="1.19253">
        <ele>258.899994</ele>
        <time>2011-05-02T13:26:39Z</time>
      </trkpt>
      <trkpt lat="45.33853" lon="1.19245">
        <ele>258.200012</ele>
        <time>2011-05-02T13:26:40Z</time>
      </trkpt>
      <trkpt lat="45.33857" lon="1.19236">
        <ele>257.100006</ele>
        <time>2011-05-02T13:26:41Z</time>
      </trkpt>
      <trkpt lat="45.33861" lon="1.19228">
        <ele>256.299988</ele>
        <time>2011-05-02T13:26:42Z</time>
      </trkpt>
      <trkpt lat="45.33864" lon="1.1922">
        <ele>255.699997</ele>
        <time>2011-05-02T13:26:43Z</time>
      </trkpt>
      <trkpt lat="45.33865" lon="1.19207">
        <ele>254.100006</ele>
        <time>2011-05-02T13:26:45Z</time>
      </trkpt>
      <trkpt lat="45.33868" lon="1.19196">
        <ele>251.300003</ele>
        <time>2011-05-02T13:26:50Z</time>
      </trkpt>
      <trkpt lat="45.33869" lon="1.19196">
        <ele>250.899994</ele>
        <time>2011-05-02T13:26:51Z</time>
      </trkpt>
      <trkpt lat="45.33883" lon="1.19203">
        <ele>246.899994</ele>
        <time>2011-05-02T13:27:01Z</time>
      </trkpt>
      <trkpt lat="45.33888" lon="1.19212">
        <ele>246.100006</ele>
        <time>2011-05-02T13:27:05Z</time>
      </trkpt>
      <trkpt lat="45.33891" lon="1.19222">
        <ele>245.699997</ele>
        <time>2011-05-02T13:27:07Z</time>
      </trkpt>
      <trkpt lat="45.33892" lon="1.19233">
        <ele>245.300003</ele>
        <time>2011-05-02T13:27:09Z</time>
      </trkpt>
      <trkpt lat="45.33896" lon="1.19243">
        <ele>244.5</ele>
        <time>2011-05-02T13:27:11Z</time>
      </trkpt>
      <trkpt lat="45.33898" lon="1.1925">
        <ele>243.600006</ele>
        <time>2011-05-02T13:27:12Z</time>
      </trkpt>
      <trkpt lat="45.339" lon="1.19257">
        <ele>242.899994</ele>
        <time>2011-05-02T13:27:13Z</time>
      </trkpt>
      <trkpt lat="45.339" lon="1.19265">
        <ele>242.399994</ele>
        <time>2011-05-02T13:27:14Z</time>
      </trkpt>
      <trkpt lat="45.339" lon="1.19272">
        <ele>241.5</ele>
        <time>2011-05-02T13:27:15Z</time>
      </trkpt>
      <trkpt lat="45.33898" lon="1.19285">
        <ele>239.699997</ele>
        <time>2011-05-02T13:27:17Z</time>
      </trkpt>
      <trkpt lat="45.33899" lon="1.19297">
        <ele>238.199997</ele>
        <time>2011-05-02T13:27:19Z</time>
      </trkpt>
      <trkpt lat="45.339" lon="1.19304">
        <ele>237.600006</ele>
        <time>2011-05-02T13:27:20Z</time>
      </trkpt>
      <trkpt lat="45.33899" lon="1.19313">
        <ele>237.199997</ele>
        <time>2011-05-02T13:27:21Z</time>
      </trkpt>
      <trkpt lat="45.33898" lon="1.19321">
        <ele>236.100006</ele>
        <time>2011-05-02T13:27:22Z</time>
      </trkpt>
      <trkpt lat="45.33896" lon="1.19331">
        <ele>235.399994</ele>
        <time>2011-05-02T13:27:23Z</time>
      </trkpt>
      <trkpt lat="45.33894" lon="1.19341">
        <ele>234.399994</ele>
        <time>2011-05-02T13:27:24Z</time>
      </trkpt>
      <trkpt lat="45.33892" lon="1.19349">
        <ele>233.699997</ele>
        <time>2011-05-02T13:27:25Z</time>
      </trkpt>
      <trkpt lat="45.33889" lon="1.19361">
        <ele>231.199997</ele>
        <time>2011-05-02T13:27:28Z</time>
      </trkpt>
      <trkpt lat="45.33891" lon="1.1937">
        <ele>227.899994</ele>
        <time>2011-05-02T13:27:34Z</time>
      </trkpt>
      <trkpt lat="45.33896" lon="1.19379">
        <ele>227.199997</ele>
        <time>2011-05-02T13:27:37Z</time>
      </trkpt>
      <trkpt lat="45.33904" lon="1.19379">
        <ele>226.800003</ele>
        <time>2011-05-02T13:27:40Z</time>
      </trkpt>
      <trkpt lat="45.33909" lon="1.19375">
        <ele>225.399994</ele>
        <time>2011-05-02T13:27:42Z</time>
      </trkpt>
      <trkpt lat="45.33916" lon="1.19371">
        <ele>223.699997</ele>
        <time>2011-05-02T13:27:44Z</time>
      </trkpt>
      <trkpt lat="45.33921" lon="1.19369">
        <ele>223</ele>
        <time>2011-05-02T13:27:45Z</time>
      </trkpt>
      <trkpt lat="45.3393" lon="1.19364">
        <ele>222</ele>
        <time>2011-05-02T13:27:47Z</time>
      </trkpt>
      <trkpt lat="45.33933" lon="1.1936">
        <ele>220.800003</ele>
        <time>2011-05-02T13:27:48Z</time>
      </trkpt>
      <trkpt lat="45.33937" lon="1.19354">
        <ele>220</ele>
        <time>2011-05-02T13:27:49Z</time>
      </trkpt>
      <trkpt lat="45.33942" lon="1.19348">
        <ele>218.199997</ele>
        <time>2011-05-02T13:27:50Z</time>
      </trkpt>
      <trkpt lat="45.33948" lon="1.19341">
        <ele>216.899994</ele>
        <time>2011-05-02T13:27:51Z</time>
      </trkpt>
      <trkpt lat="45.33953" lon="1.19333">
        <ele>216</ele>
        <time>2011-05-02T13:27:52Z</time>
      </trkpt>
      <trkpt lat="45.33957" lon="1.19324">
        <ele>215.199997</ele>
        <time>2011-05-02T13:27:53Z</time>
      </trkpt>
      <trkpt lat="45.3396" lon="1.19315">
        <ele>214.600006</ele>
        <time>2011-05-02T13:27:54Z</time>
      </trkpt>
      <trkpt lat="45.33963" lon="1.19307">
        <ele>213.5</ele>
        <time>2011-05-02T13:27:55Z</time>
      </trkpt>
      <trkpt lat="45.33965" lon="1.19299">
        <ele>212.699997</ele>
        <time>2011-05-02T13:27:56Z</time>
      </trkpt>
      <trkpt lat="45.33966" lon="1.19291">
        <ele>211.699997</ele>
        <time>2011-05-02T13:27:57Z</time>
      </trkpt>
      <trkpt lat="45.33967" lon="1.19279">
        <ele>211</ele>
        <time>2011-05-02T13:27:58Z</time>
      </trkpt>
      <trkpt lat="45.33968" lon="1.19269">
        <ele>210.399994</ele>
        <time>2011-05-02T13:27:59Z</time>
      </trkpt>
      <trkpt lat="45.33969" lon="1.1926">
        <ele>209.5</ele>
        <time>2011-05-02T13:28:00Z</time>
      </trkpt>
      <trkpt lat="45.33971" lon="1.1925">
        <ele>208.800003</ele>
        <time>2011-05-02T13:28:01Z</time>
      </trkpt>
      <trkpt lat="45.33973" lon="1.19241">
        <ele>207.399994</ele>
        <time>2011-05-02T13:28:02Z</time>
      </trkpt>
      <trkpt lat="45.33976" lon="1.19232">
        <ele>206.300003</ele>
        <time>2011-05-02T13:28:03Z</time>
      </trkpt>
      <trkpt lat="45.33978" lon="1.19222">
        <ele>205</ele>
        <time>2011-05-02T13:28:04Z</time>
      </trkpt>
      <trkpt lat="45.3398" lon="1.19214">
        <ele>204</ele>
        <time>2011-05-02T13:28:05Z</time>
      </trkpt>
      <trkpt lat="45.33982" lon="1.19207">
        <ele>203.199997</ele>
        <time>2011-05-02T13:28:06Z</time>
      </trkpt>
      <trkpt lat="45.33982" lon="1.192">
        <ele>202.300003</ele>
        <time>2011-05-02T13:28:07Z</time>
      </trkpt>
      <trkpt lat="45.33981" lon="1.19193">
        <ele>201.699997</ele>
        <time>2011-05-02T13:28:08Z</time>
      </trkpt>
      <trkpt lat="45.33979" lon="1.19181">
        <ele>201.300003</ele>
        <time>2011-05-02T13:28:10Z</time>
      </trkpt>
      <trkpt lat="45.33978" lon="1.1917">
        <ele>201.300003</ele>
        <time>2011-05-02T13:28:13Z</time>
      </trkpt>
      <trkpt lat="45.33976" lon="1.19159">
        <ele>202.5</ele>
        <time>2011-05-02T13:28:17Z</time>
      </trkpt>
      <trkpt lat="45.33977" lon="1.19146">
        <ele>202.100006</ele>
        <time>2011-05-02T13:28:25Z</time>
      </trkpt>
      <trkpt lat="45.33978" lon="1.19134">
        <ele>201.300003</ele>
        <time>2011-05-02T13:28:38Z</time>
      </trkpt>
      <trkpt lat="45.33978" lon="1.19121">
        <ele>201.699997</ele>
        <time>2011-05-02T13:29:18Z</time>
      </trkpt>
      <trkpt lat="45.33978" lon="1.19121">
        <ele>201.800003</ele>
        <time>2011-05-02T13:29:19Z</time>
      </trkpt>
      <trkpt lat="45.33969" lon="1.19101">
        <ele>205.399994</ele>
        <time>2011-05-02T13:30:15Z</time>
      </trkpt>
      <trkpt lat="45.33963" lon="1.19091">
        <ele>206.800003</ele>
        <time>2011-05-02T13:30:23Z</time>
      </trkpt>
      <trkpt lat="45.33963" lon="1.1909">
        <ele>207.199997</ele>
        <time>2011-05-02T13:30:24Z</time>
      </trkpt>
      <trkpt lat="45.33952" lon="1.19073">
        <ele>208.600006</ele>
        <time>2011-05-02T13:30:36Z</time>
      </trkpt>
      <trkpt lat="45.33947" lon="1.19064">
        <ele>208.699997</ele>
        <time>2011-05-02T13:30:41Z</time>
      </trkpt>
      <trkpt lat="45.33945" lon="1.19052">
        <ele>207.600006</ele>
        <time>2011-05-02T13:30:47Z</time>
      </trkpt>
      <trkpt lat="45.33947" lon="1.1904">
        <ele>206.199997</ele>
        <time>2011-05-02T13:30:52Z</time>
      </trkpt>
      <trkpt lat="45.3395" lon="1.19028">
        <ele>205.5</ele>
        <time>2011-05-02T13:30:56Z</time>
      </trkpt>
      <trkpt lat="45.33954" lon="1.19018">
        <ele>206.699997</ele>
        <time>2011-05-02T13:31:01Z</time>
      </trkpt>
      <trkpt lat="45.33959" lon="1.19009">
        <ele>207.399994</ele>
        <time>2011-05-02T13:31:05Z</time>
      </trkpt>
      <trkpt lat="45.33963" lon="1.19">
        <ele>207.399994</ele>
        <time>2011-05-02T13:31:09Z</time>
      </trkpt>
      <trkpt lat="45.33967" lon="1.18989">
        <ele>207.899994</ele>
        <time>2011-05-02T13:31:16Z</time>
      </trkpt>
      <trkpt lat="45.33971" lon="1.18979">
        <ele>208.300003</ele>
        <time>2011-05-02T13:31:22Z</time>
      </trkpt>
      <trkpt lat="45.33974" lon="1.18971">
        <ele>208.199997</ele>
        <time>2011-05-02T13:31:24Z</time>
      </trkpt>
      <trkpt lat="45.33975" lon="1.18967">
        <ele>208.100006</ele>
        <time>2011-05-02T13:31:25Z</time>
      </trkpt>
      <trkpt lat="45.3398" lon="1.18952">
        <ele>208.199997</ele>
        <time>2011-05-02T13:31:28Z</time>
      </trkpt>
      <trkpt lat="45.33983" lon="1.18942">
        <ele>207.600006</ele>
        <time>2011-05-02T13:31:30Z</time>
      </trkpt>
      <trkpt lat="45.33984" lon="1.1893">
        <ele>206.899994</ele>
        <time>2011-05-02T13:31:32Z</time>
      </trkpt>
      <trkpt lat="45.33984" lon="1.18918">
        <ele>206</ele>
        <time>2011-05-02T13:31:34Z</time>
      </trkpt>
      <trkpt lat="45.33984" lon="1.18908">
        <ele>205.5</ele>
        <time>2011-05-02T13:31:36Z</time>
      </trkpt>
      <trkpt lat="45.33985" lon="1.18897">
        <ele>205.100006</ele>
        <time>2011-05-02T13:31:38Z</time>
      </trkpt>
      <trkpt lat="45.33987" lon="1.18889">
        <ele>205</ele>
        <time>2011-05-02T13:31:39Z</time>
      </trkpt>
      <trkpt lat="45.33987" lon="1.18882">
        <ele>204.600006</ele>
        <time>2011-05-02T13:31:40Z</time>
      </trkpt>
      <trkpt lat="45.33988" lon="1.18874">
        <ele>204.399994</ele>
        <time>2011-05-02T13:31:41Z</time>
      </trkpt>
      <trkpt lat="45.33988" lon="1.18867">
        <ele>204.199997</ele>
        <time>2011-05-02T13:31:42Z</time>
      </trkpt>
      <trkpt lat="45.33988" lon="1.18859">
        <ele>203.899994</ele>
        <time>2011-05-02T13:31:43Z</time>
      </trkpt>
      <trkpt lat="45.33989" lon="1.18853">
        <ele>203.699997</ele>
        <time>2011-05-02T13:31:44Z</time>
      </trkpt>
      <trkpt lat="45.3399" lon="1.18846">
        <ele>203</ele>
        <time>2011-05-02T13:31:45Z</time>
      </trkpt>
      <trkpt lat="45.33991" lon="1.18839">
        <ele>202.399994</ele>
        <time>2011-05-02T13:31:46Z</time>
      </trkpt>
      <trkpt lat="45.33993" lon="1.18829">
        <ele>201.199997</ele>
        <time>2011-05-02T13:31:48Z</time>
      </trkpt>
      <trkpt lat="45.33993" lon="1.18818">
        <ele>200.199997</ele>
        <time>2011-05-02T13:31:50Z</time>
      </trkpt>
      <trkpt lat="45.33994" lon="1.18806">
        <ele>199.399994</ele>
        <time>2011-05-02T13:31:52Z</time>
      </trkpt>
      <trkpt lat="45.33994" lon="1.18794">
        <ele>198.800003</ele>
        <time>2011-05-02T13:31:54Z</time>
      </trkpt>
      <trkpt lat="45.33995" lon="1.18787">
        <ele>198.300003</ele>
        <time>2011-05-02T13:31:55Z</time>
      </trkpt>
      <trkpt lat="45.33996" lon="1.18781">
        <ele>197.899994</ele>
        <time>2011-05-02T13:31:56Z</time>
      </trkpt>
      <trkpt lat="45.33997" lon="1.18773">
        <ele>197.300003</ele>
        <time>2011-05-02T13:31:57Z</time>
      </trkpt>
      <trkpt lat="45.33998" lon="1.18765">
        <ele>196.800003</ele>
        <time>2011-05-02T13:31:58Z</time>
      </trkpt>
      <trkpt lat="45.34" lon="1.18758">
        <ele>196.800003</ele>
        <time>2011-05-02T13:31:59Z</time>
      </trkpt>
      <trkpt lat="45.34001" lon="1.18749">
        <ele>196.800003</ele>
        <time>2011-05-02T13:32:00Z</time>
      </trkpt>
      <trkpt lat="45.34002" lon="1.18742">
        <ele>196.800003</ele>
        <time>2011-05-02T13:32:01Z</time>
      </trkpt>
      <trkpt lat="45.34004" lon="1.18736">
        <ele>196.100006</ele>
        <time>2011-05-02T13:32:02Z</time>
      </trkpt>
      <trkpt lat="45.34005" lon="1.18729">
        <ele>195.699997</ele>
        <time>2011-05-02T13:32:03Z</time>
      </trkpt>
      <trkpt lat="45.34007" lon="1.18722">
        <ele>195.5</ele>
        <time>2011-05-02T13:32:04Z</time>
      </trkpt>
      <trkpt lat="45.34009" lon="1.1871">
        <ele>195.300003</ele>
        <time>2011-05-02T13:32:06Z</time>
      </trkpt>
      <trkpt lat="45.34009" lon="1.18698">
        <ele>195.199997</ele>
        <time>2011-05-02T13:32:08Z</time>
      </trkpt>
      <trkpt lat="45.34009" lon="1.18688">
        <ele>195.300003</ele>
        <time>2011-05-02T13:32:10Z</time>
      </trkpt>
      <trkpt lat="45.3401" lon="1.18677">
        <ele>194.800003</ele>
        <time>2011-05-02T13:32:12Z</time>
      </trkpt>
      <trkpt lat="45.34012" lon="1.18668">
        <ele>194.699997</ele>
        <time>2011-05-02T13:32:14Z</time>
      </trkpt>
      <trkpt lat="45.34012" lon="1.1866">
        <ele>194.5</ele>
        <time>2011-05-02T13:32:16Z</time>
      </trkpt>
      <trkpt lat="45.34014" lon="1.1865">
        <ele>193.800003</ele>
        <time>2011-05-02T13:32:18Z</time>
      </trkpt>
      <trkpt lat="45.34017" lon="1.18639">
        <ele>193.100006</ele>
        <time>2011-05-02T13:32:20Z</time>
      </trkpt>
      <trkpt lat="45.3402" lon="1.18629">
        <ele>191.699997</ele>
        <time>2011-05-02T13:32:22Z</time>
      </trkpt>
      <trkpt lat="45.3402" lon="1.18622">
        <ele>191.100006</ele>
        <time>2011-05-02T13:32:23Z</time>
      </trkpt>
      <trkpt lat="45.34021" lon="1.18616">
        <ele>190.600006</ele>
        <time>2011-05-02T13:32:24Z</time>
      </trkpt>
      <trkpt lat="45.34021" lon="1.18609">
        <ele>190</ele>
        <time>2011-05-02T13:32:25Z</time>
      </trkpt>
      <trkpt lat="45.34021" lon="1.18602">
        <ele>189.600006</ele>
        <time>2011-05-02T13:32:26Z</time>
      </trkpt>
      <trkpt lat="45.34021" lon="1.18595">
        <ele>189.300003</ele>
        <time>2011-05-02T13:32:27Z</time>
      </trkpt>
      <trkpt lat="45.3402" lon="1.18587">
        <ele>188.699997</ele>
        <time>2011-05-02T13:32:28Z</time>
      </trkpt>
      <trkpt lat="45.34019" lon="1.1858">
        <ele>188.199997</ele>
        <time>2011-05-02T13:32:29Z</time>
      </trkpt>
      <trkpt lat="45.34017" lon="1.18568">
        <ele>186.199997</ele>
        <time>2011-05-02T13:32:31Z</time>
      </trkpt>
      <trkpt lat="45.34016" lon="1.18557">
        <ele>185</ele>
        <time>2011-05-02T13:32:33Z</time>
      </trkpt>
      <trkpt lat="45.34011" lon="1.18546">
        <ele>183.899994</ele>
        <time>2011-05-02T13:32:35Z</time>
      </trkpt>
      <trkpt lat="45.34006" lon="1.18536">
        <ele>182.899994</ele>
        <time>2011-05-02T13:32:37Z</time>
      </trkpt>
      <trkpt lat="45.34001" lon="1.18526">
        <ele>181.899994</ele>
        <time>2011-05-02T13:32:40Z</time>
      </trkpt>
      <trkpt lat="45.33997" lon="1.18516">
        <ele>182.100006</ele>
        <time>2011-05-02T13:32:43Z</time>
      </trkpt>
      <trkpt lat="45.33992" lon="1.18505">
        <ele>181</ele>
        <time>2011-05-02T13:32:46Z</time>
      </trkpt>
      <trkpt lat="45.33988" lon="1.18495">
        <ele>182.199997</ele>
        <time>2011-05-02T13:32:49Z</time>
      </trkpt>
      <trkpt lat="45.33984" lon="1.18484">
        <ele>182.899994</ele>
        <time>2011-05-02T13:32:52Z</time>
      </trkpt>
      <trkpt lat="45.33981" lon="1.18474">
        <ele>183.100006</ele>
        <time>2011-05-02T13:32:55Z</time>
      </trkpt>
      <trkpt lat="45.33979" lon="1.18465">
        <ele>182.300003</ele>
        <time>2011-05-02T13:32:57Z</time>
      </trkpt>
      <trkpt lat="45.33976" lon="1.18456">
        <ele>182.199997</ele>
        <time>2011-05-02T13:32:59Z</time>
      </trkpt>
      <trkpt lat="45.33974" lon="1.18447">
        <ele>182.699997</ele>
        <time>2011-05-02T13:33:01Z</time>
      </trkpt>
      <trkpt lat="45.33971" lon="1.18439">
        <ele>183.199997</ele>
        <time>2011-05-02T13:33:03Z</time>
      </trkpt>
      <trkpt lat="45.33969" lon="1.1843">
        <ele>183.5</ele>
        <time>2011-05-02T13:33:05Z</time>
      </trkpt>
      <trkpt lat="45.33966" lon="1.1842">
        <ele>183.5</ele>
        <time>2011-05-02T13:33:08Z</time>
      </trkpt>
      <trkpt lat="45.33963" lon="1.1841">
        <ele>183.5</ele>
        <time>2011-05-02T13:33:11Z</time>
      </trkpt>
      <trkpt lat="45.33959" lon="1.184">
        <ele>183.800003</ele>
        <time>2011-05-02T13:33:14Z</time>
      </trkpt>
      <trkpt lat="45.33956" lon="1.18387">
        <ele>184.100006</ele>
        <time>2011-05-02T13:33:17Z</time>
      </trkpt>
      <trkpt lat="45.33955" lon="1.18379">
        <ele>184</ele>
        <time>2011-05-02T13:33:19Z</time>
      </trkpt>
      <trkpt lat="45.33954" lon="1.1837">
        <ele>183.600006</ele>
        <time>2011-05-02T13:33:21Z</time>
      </trkpt>
      <trkpt lat="45.33952" lon="1.1836">
        <ele>183.5</ele>
        <time>2011-05-02T13:33:23Z</time>
      </trkpt>
      <trkpt lat="45.33951" lon="1.18352">
        <ele>183.800003</ele>
        <time>2011-05-02T13:33:25Z</time>
      </trkpt>
      <trkpt lat="45.33949" lon="1.18343">
        <ele>183.800003</ele>
        <time>2011-05-02T13:33:27Z</time>
      </trkpt>
      <trkpt lat="45.33948" lon="1.18339">
        <ele>183.600006</ele>
        <time>2011-05-02T13:33:28Z</time>
      </trkpt>
      <trkpt lat="45.33947" lon="1.18324">
        <ele>184.100006</ele>
        <time>2011-05-02T13:33:31Z</time>
      </trkpt>
      <trkpt lat="45.33947" lon="1.18314">
        <ele>184</ele>
        <time>2011-05-02T13:33:33Z</time>
      </trkpt>
      <trkpt lat="45.33948" lon="1.18304">
        <ele>183.699997</ele>
        <time>2011-05-02T13:33:35Z</time>
      </trkpt>
      <trkpt lat="45.33949" lon="1.18294">
        <ele>183.800003</ele>
        <time>2011-05-02T13:33:37Z</time>
      </trkpt>
      <trkpt lat="45.33949" lon="1.18283">
        <ele>184.199997</ele>
        <time>2011-05-02T13:33:39Z</time>
      </trkpt>
      <trkpt lat="45.3395" lon="1.18274">
        <ele>184.800003</ele>
        <time>2011-05-02T13:33:41Z</time>
      </trkpt>
      <trkpt lat="45.33951" lon="1.18262">
        <ele>185.199997</ele>
        <time>2011-05-02T13:33:44Z</time>
      </trkpt>
      <trkpt lat="45.33952" lon="1.18253">
        <ele>186.5</ele>
        <time>2011-05-02T13:33:47Z</time>
      </trkpt>
      <trkpt lat="45.33953" lon="1.18242">
        <ele>187.399994</ele>
        <time>2011-05-02T13:33:50Z</time>
      </trkpt>
      <trkpt lat="45.33956" lon="1.18232">
        <ele>187.100006</ele>
        <time>2011-05-02T13:33:52Z</time>
      </trkpt>
      <trkpt lat="45.33957" lon="1.18226">
        <ele>187.199997</ele>
        <time>2011-05-02T13:33:53Z</time>
      </trkpt>
      <trkpt lat="45.33958" lon="1.18219">
        <ele>187.300003</ele>
        <time>2011-05-02T13:33:54Z</time>
      </trkpt>
      <trkpt lat="45.3396" lon="1.18212">
        <ele>187.300003</ele>
        <time>2011-05-02T13:33:55Z</time>
      </trkpt>
      <trkpt lat="45.33962" lon="1.18204">
        <ele>187</ele>
        <time>2011-05-02T13:33:56Z</time>
      </trkpt>
      <trkpt lat="45.33963" lon="1.18197">
        <ele>186.699997</ele>
        <time>2011-05-02T13:33:57Z</time>
      </trkpt>
      <trkpt lat="45.33965" lon="1.18191">
        <ele>186.399994</ele>
        <time>2011-05-02T13:33:58Z</time>
      </trkpt>
      <trkpt lat="45.33966" lon="1.18184">
        <ele>186.199997</ele>
        <time>2011-05-02T13:33:59Z</time>
      </trkpt>
      <trkpt lat="45.33968" lon="1.18178">
        <ele>186.100006</ele>
        <time>2011-05-02T13:34:00Z</time>
      </trkpt>
      <trkpt lat="45.3397" lon="1.18172">
        <ele>186</ele>
        <time>2011-05-02T13:34:01Z</time>
      </trkpt>
      <trkpt lat="45.33971" lon="1.18165">
        <ele>185.899994</ele>
        <time>2011-05-02T13:34:02Z</time>
      </trkpt>
      <trkpt lat="45.33973" lon="1.18158">
        <ele>185.699997</ele>
        <time>2011-05-02T13:34:03Z</time>
      </trkpt>
      <trkpt lat="45.33974" lon="1.18151">
        <ele>185.5</ele>
        <time>2011-05-02T13:34:04Z</time>
      </trkpt>
      <trkpt lat="45.33976" lon="1.18145">
        <ele>184.800003</ele>
        <time>2011-05-02T13:34:05Z</time>
      </trkpt>
      <trkpt lat="45.33978" lon="1.18139">
        <ele>184.199997</ele>
        <time>2011-05-02T13:34:06Z</time>
      </trkpt>
      <trkpt lat="45.33979" lon="1.18132">
        <ele>183.800003</ele>
        <time>2011-05-02T13:34:07Z</time>
      </trkpt>
      <trkpt lat="45.33981" lon="1.18124">
        <ele>184.199997</ele>
        <time>2011-05-02T13:34:08Z</time>
      </trkpt>
      <trkpt lat="45.33983" lon="1.18117">
        <ele>184.399994</ele>
        <time>2011-05-02T13:34:09Z</time>
      </trkpt>
      <trkpt lat="45.33984" lon="1.18109">
        <ele>184.199997</ele>
        <time>2011-05-02T13:34:10Z</time>
      </trkpt>
      <trkpt lat="45.33986" lon="1.18103">
        <ele>184</ele>
        <time>2011-05-02T13:34:11Z</time>
      </trkpt>
      <trkpt lat="45.33988" lon="1.18095">
        <ele>183.699997</ele>
        <time>2011-05-02T13:34:12Z</time>
      </trkpt>
      <trkpt lat="45.33991" lon="1.18088">
        <ele>183.600006</ele>
        <time>2011-05-02T13:34:13Z</time>
      </trkpt>
      <trkpt lat="45.33993" lon="1.18082">
        <ele>183.399994</ele>
        <time>2011-05-02T13:34:14Z</time>
      </trkpt>
      <trkpt lat="45.33996" lon="1.18077">
        <ele>182.699997</ele>
        <time>2011-05-02T13:34:15Z</time>
      </trkpt>
      <trkpt lat="45.33998" lon="1.1807">
        <ele>182.199997</ele>
        <time>2011-05-02T13:34:16Z</time>
      </trkpt>
      <trkpt lat="45.34004" lon="1.1806">
        <ele>181.800003</ele>
        <time>2011-05-02T13:34:18Z</time>
      </trkpt>
      <trkpt lat="45.34009" lon="1.1805">
        <ele>181.300003</ele>
        <time>2011-05-02T13:34:20Z</time>
      </trkpt>
      <trkpt lat="45.34014" lon="1.18043">
        <ele>180.600006</ele>
        <time>2011-05-02T13:34:22Z</time>
      </trkpt>
      <trkpt lat="45.34018" lon="1.18036">
        <ele>180.600006</ele>
        <time>2011-05-02T13:34:24Z</time>
      </trkpt>
      <trkpt lat="45.34021" lon="1.18025">
        <ele>181.600006</ele>
        <time>2011-05-02T13:34:29Z</time>
      </trkpt>
      <trkpt lat="45.34022" lon="1.18024">
        <ele>181.399994</ele>
        <time>2011-05-02T13:34:30Z</time>
      </trkpt>
      <trkpt lat="45.3403" lon="1.18007">
        <ele>180.899994</ele>
        <time>2011-05-02T13:34:41Z</time>
      </trkpt>
      <trkpt lat="45.34036" lon="1.17998">
        <ele>181.199997</ele>
        <time>2011-05-02T13:34:46Z</time>
      </trkpt>
      <trkpt lat="45.34043" lon="1.1799">
        <ele>181.100006</ele>
        <time>2011-05-02T13:34:49Z</time>
      </trkpt>
      <trkpt lat="45.34049" lon="1.17983">
        <ele>180.899994</ele>
        <time>2011-05-02T13:34:52Z</time>
      </trkpt>
      <trkpt lat="45.34056" lon="1.17975">
        <ele>181.600006</ele>
        <time>2011-05-02T13:34:55Z</time>
      </trkpt>
      <trkpt lat="45.3406" lon="1.17969">
        <ele>181.699997</ele>
        <time>2011-05-02T13:34:57Z</time>
      </trkpt>
      <trkpt lat="45.34065" lon="1.17963">
        <ele>181.300003</ele>
        <time>2011-05-02T13:34:59Z</time>
      </trkpt>
      <trkpt lat="45.34072" lon="1.17955">
        <ele>180.800003</ele>
        <time>2011-05-02T13:35:02Z</time>
      </trkpt>
      <trkpt lat="45.34076" lon="1.17948">
        <ele>180.600006</ele>
        <time>2011-05-02T13:35:04Z</time>
      </trkpt>
      <trkpt lat="45.34081" lon="1.17942">
        <ele>180.800003</ele>
        <time>2011-05-02T13:35:06Z</time>
      </trkpt>
      <trkpt lat="45.34087" lon="1.17933">
        <ele>180.800003</ele>
        <time>2011-05-02T13:35:09Z</time>
      </trkpt>
      <trkpt lat="45.34093" lon="1.17924">
        <ele>180.800003</ele>
        <time>2011-05-02T13:35:12Z</time>
      </trkpt>
      <trkpt lat="45.34098" lon="1.17919">
        <ele>181</ele>
        <time>2011-05-02T13:35:14Z</time>
      </trkpt>
      <trkpt lat="45.34104" lon="1.17909">
        <ele>180.399994</ele>
        <time>2011-05-02T13:35:17Z</time>
      </trkpt>
      <trkpt lat="45.34109" lon="1.17903">
        <ele>180.300003</ele>
        <time>2011-05-02T13:35:19Z</time>
      </trkpt>
      <trkpt lat="45.34115" lon="1.17897">
        <ele>180.699997</ele>
        <time>2011-05-02T13:35:21Z</time>
      </trkpt>
      <trkpt lat="45.3412" lon="1.17891">
        <ele>181.100006</ele>
        <time>2011-05-02T13:35:23Z</time>
      </trkpt>
      <trkpt lat="45.34128" lon="1.17884">
        <ele>181.100006</ele>
        <time>2011-05-02T13:35:26Z</time>
      </trkpt>
      <trkpt lat="45.34132" lon="1.17879">
        <ele>180.600006</ele>
        <time>2011-05-02T13:35:28Z</time>
      </trkpt>
      <trkpt lat="45.34137" lon="1.17873">
        <ele>180.399994</ele>
        <time>2011-05-02T13:35:30Z</time>
      </trkpt>
      <trkpt lat="45.3414" lon="1.1787">
        <ele>180.800003</ele>
        <time>2011-05-02T13:35:31Z</time>
      </trkpt>
      <trkpt lat="45.34151" lon="1.17862">
        <ele>181.300003</ele>
        <time>2011-05-02T13:35:35Z</time>
      </trkpt>
      <trkpt lat="45.34156" lon="1.17858">
        <ele>181.699997</ele>
        <time>2011-05-02T13:35:37Z</time>
      </trkpt>
      <trkpt lat="45.34162" lon="1.17853">
        <ele>181.399994</ele>
        <time>2011-05-02T13:35:39Z</time>
      </trkpt>
      <trkpt lat="45.34169" lon="1.1785">
        <ele>181.600006</ele>
        <time>2011-05-02T13:35:41Z</time>
      </trkpt>
      <trkpt lat="45.34177" lon="1.17847">
        <ele>181.399994</ele>
        <time>2011-05-02T13:35:43Z</time>
      </trkpt>
      <trkpt lat="45.34184" lon="1.17844">
        <ele>181.300003</ele>
        <time>2011-05-02T13:35:45Z</time>
      </trkpt>
      <trkpt lat="45.34192" lon="1.17841">
        <ele>181.199997</ele>
        <time>2011-05-02T13:35:47Z</time>
      </trkpt>
      <trkpt lat="45.342" lon="1.17839">
        <ele>181.199997</ele>
        <time>2011-05-02T13:35:49Z</time>
      </trkpt>
      <trkpt lat="45.34207" lon="1.17836">
        <ele>181.399994</ele>
        <time>2011-05-02T13:35:51Z</time>
      </trkpt>
      <trkpt lat="45.34214" lon="1.17833">
        <ele>181.699997</ele>
        <time>2011-05-02T13:35:53Z</time>
      </trkpt>
      <trkpt lat="45.34223" lon="1.17833">
        <ele>181.899994</ele>
        <time>2011-05-02T13:35:55Z</time>
      </trkpt>
      <trkpt lat="45.34231" lon="1.17833">
        <ele>182</ele>
        <time>2011-05-02T13:35:57Z</time>
      </trkpt>
      <trkpt lat="45.34238" lon="1.17834">
        <ele>181.800003</ele>
        <time>2011-05-02T13:35:59Z</time>
      </trkpt>
      <trkpt lat="45.34246" lon="1.17836">
        <ele>182</ele>
        <time>2011-05-02T13:36:01Z</time>
      </trkpt>
      <trkpt lat="45.34254" lon="1.17837">
        <ele>182.399994</ele>
        <time>2011-05-02T13:36:03Z</time>
      </trkpt>
      <trkpt lat="45.34261" lon="1.17838">
        <ele>181.899994</ele>
        <time>2011-05-02T13:36:05Z</time>
      </trkpt>
      <trkpt lat="45.34269" lon="1.1784">
        <ele>181.399994</ele>
        <time>2011-05-02T13:36:07Z</time>
      </trkpt>
      <trkpt lat="45.34277" lon="1.17843">
        <ele>180.800003</ele>
        <time>2011-05-02T13:36:09Z</time>
      </trkpt>
      <trkpt lat="45.34284" lon="1.17846">
        <ele>180.399994</ele>
        <time>2011-05-02T13:36:11Z</time>
      </trkpt>
      <trkpt lat="45.3429" lon="1.1785">
        <ele>180.600006</ele>
        <time>2011-05-02T13:36:13Z</time>
      </trkpt>
      <trkpt lat="45.34295" lon="1.17855">
        <ele>180.699997</ele>
        <time>2011-05-02T13:36:15Z</time>
      </trkpt>
      <trkpt lat="45.34302" lon="1.17864">
        <ele>181.600006</ele>
        <time>2011-05-02T13:36:18Z</time>
      </trkpt>
      <trkpt lat="45.34306" lon="1.17875">
        <ele>181.399994</ele>
        <time>2011-05-02T13:36:21Z</time>
      </trkpt>
      <trkpt lat="45.34309" lon="1.17882">
        <ele>181.399994</ele>
        <time>2011-05-02T13:36:23Z</time>
      </trkpt>
      <trkpt lat="45.34312" lon="1.17893">
        <ele>182.399994</ele>
        <time>2011-05-02T13:36:26Z</time>
      </trkpt>
      <trkpt lat="45.34313" lon="1.17902">
        <ele>183</ele>
        <time>2011-05-02T13:36:29Z</time>
      </trkpt>
      <trkpt lat="45.34315" lon="1.17914">
        <ele>183.600006</ele>
        <time>2011-05-02T13:36:32Z</time>
      </trkpt>
      <trkpt lat="45.34315" lon="1.17918">
        <ele>183.800003</ele>
        <time>2011-05-02T13:36:33Z</time>
      </trkpt>
      <trkpt lat="45.34314" lon="1.17934">
        <ele>182.899994</ele>
        <time>2011-05-02T13:36:36Z</time>
      </trkpt>
      <trkpt lat="45.34315" lon="1.17943">
        <ele>182.800003</ele>
        <time>2011-05-02T13:36:38Z</time>
      </trkpt>
      <trkpt lat="45.34321" lon="1.17953">
        <ele>181.199997</ele>
        <time>2011-05-02T13:36:42Z</time>
      </trkpt>
      <trkpt lat="45.34328" lon="1.17958">
        <ele>180.399994</ele>
        <time>2011-05-02T13:36:46Z</time>
      </trkpt>
      <trkpt lat="45.34337" lon="1.17963">
        <ele>181.699997</ele>
        <time>2011-05-02T13:36:50Z</time>
      </trkpt>
      <trkpt lat="45.34345" lon="1.17967">
        <ele>181.899994</ele>
        <time>2011-05-02T13:36:54Z</time>
      </trkpt>
      <trkpt lat="45.34353" lon="1.17972">
        <ele>183.399994</ele>
        <time>2011-05-02T13:36:58Z</time>
      </trkpt>
      <trkpt lat="45.3436" lon="1.17973">
        <ele>184.199997</ele>
        <time>2011-05-02T13:37:01Z</time>
      </trkpt>
      <trkpt lat="45.34368" lon="1.17973">
        <ele>184.600006</ele>
        <time>2011-05-02T13:37:04Z</time>
      </trkpt>
      <trkpt lat="45.34375" lon="1.17971">
        <ele>184.699997</ele>
        <time>2011-05-02T13:37:07Z</time>
      </trkpt>
      <trkpt lat="45.34383" lon="1.17969">
        <ele>185.399994</ele>
        <time>2011-05-02T13:37:11Z</time>
      </trkpt>
      <trkpt lat="45.34391" lon="1.17968">
        <ele>185.300003</ele>
        <time>2011-05-02T13:37:15Z</time>
      </trkpt>
      <trkpt lat="45.34399" lon="1.17967">
        <ele>185.199997</ele>
        <time>2011-05-02T13:37:18Z</time>
      </trkpt>
      <trkpt lat="45.34406" lon="1.17971">
        <ele>185.300003</ele>
        <time>2011-05-02T13:37:21Z</time>
      </trkpt>
      <trkpt lat="45.3441" lon="1.17979">
        <ele>184.800003</ele>
        <time>2011-05-02T13:37:23Z</time>
      </trkpt>
      <trkpt lat="45.3441" lon="1.17989">
        <ele>184.399994</ele>
        <time>2011-05-02T13:37:25Z</time>
      </trkpt>
      <trkpt lat="45.34408" lon="1.17999">
        <ele>184</ele>
        <time>2011-05-02T13:37:27Z</time>
      </trkpt>
      <trkpt lat="45.34406" lon="1.18009">
        <ele>183.199997</ele>
        <time>2011-05-02T13:37:29Z</time>
      </trkpt>
      <trkpt lat="45.34404" lon="1.18018">
        <ele>182.399994</ele>
        <time>2011-05-02T13:37:31Z</time>
      </trkpt>
      <trkpt lat="45.34402" lon="1.18027">
        <ele>183.199997</ele>
        <time>2011-05-02T13:37:33Z</time>
      </trkpt>
      <trkpt lat="45.34402" lon="1.18031">
        <ele>183.199997</ele>
        <time>2011-05-02T13:37:34Z</time>
      </trkpt>
      <trkpt lat="45.34399" lon="1.18044">
        <ele>182.399994</ele>
        <time>2011-05-02T13:37:37Z</time>
      </trkpt>
      <trkpt lat="45.34397" lon="1.18052">
        <ele>182.100006</ele>
        <time>2011-05-02T13:37:39Z</time>
      </trkpt>
      <trkpt lat="45.34395" lon="1.18061">
        <ele>182.5</ele>
        <time>2011-05-02T13:37:41Z</time>
      </trkpt>
      <trkpt lat="45.34394" lon="1.1807">
        <ele>182.899994</ele>
        <time>2011-05-02T13:37:43Z</time>
      </trkpt>
      <trkpt lat="45.34392" lon="1.18078">
        <ele>183.100006</ele>
        <time>2011-05-02T13:37:45Z</time>
      </trkpt>
      <trkpt lat="45.3439" lon="1.18087">
        <ele>183</ele>
        <time>2011-05-02T13:37:47Z</time>
      </trkpt>
      <trkpt lat="45.34388" lon="1.18099">
        <ele>182.800003</ele>
        <time>2011-05-02T13:37:50Z</time>
      </trkpt>
      <trkpt lat="45.34385" lon="1.18111">
        <ele>182.800003</ele>
        <time>2011-05-02T13:37:53Z</time>
      </trkpt>
      <trkpt lat="45.34382" lon="1.18122">
        <ele>183</ele>
        <time>2011-05-02T13:37:56Z</time>
      </trkpt>
      <trkpt lat="45.34376" lon="1.1813">
        <ele>183.399994</ele>
        <time>2011-05-02T13:38:00Z</time>
      </trkpt>
      <trkpt lat="45.34368" lon="1.18131">
        <ele>184.199997</ele>
        <time>2011-05-02T13:38:04Z</time>
      </trkpt>
      <trkpt lat="45.3436" lon="1.18129">
        <ele>184.899994</ele>
        <time>2011-05-02T13:38:08Z</time>
      </trkpt>
      <trkpt lat="45.34353" lon="1.18128">
        <ele>185.600006</ele>
        <time>2011-05-02T13:38:12Z</time>
      </trkpt>
      <trkpt lat="45.34345" lon="1.18126">
        <ele>186.699997</ele>
        <time>2011-05-02T13:38:16Z</time>
      </trkpt>
      <trkpt lat="45.34338" lon="1.18126">
        <ele>188</ele>
        <time>2011-05-02T13:38:20Z</time>
      </trkpt>
      <trkpt lat="45.3433" lon="1.18125">
        <ele>188.300003</ele>
        <time>2011-05-02T13:38:24Z</time>
      </trkpt>
      <trkpt lat="45.34323" lon="1.18125">
        <ele>188.399994</ele>
        <time>2011-05-02T13:38:28Z</time>
      </trkpt>
      <trkpt lat="45.34315" lon="1.18122">
        <ele>189.699997</ele>
        <time>2011-05-02T13:38:32Z</time>
      </trkpt>
      <trkpt lat="45.34308" lon="1.18123">
        <ele>190.800003</ele>
        <time>2011-05-02T13:38:36Z</time>
      </trkpt>
      <trkpt lat="45.34306" lon="1.18123">
        <ele>191</ele>
        <time>2011-05-02T13:38:37Z</time>
      </trkpt>
      <trkpt lat="45.34292" lon="1.18125">
        <ele>192.800003</ele>
        <time>2011-05-02T13:38:45Z</time>
      </trkpt>
      <trkpt lat="45.34284" lon="1.18126">
        <ele>193.199997</ele>
        <time>2011-05-02T13:38:49Z</time>
      </trkpt>
      <trkpt lat="45.34276" lon="1.18127">
        <ele>193.699997</ele>
        <time>2011-05-02T13:38:53Z</time>
      </trkpt>
      <trkpt lat="45.34269" lon="1.18129">
        <ele>194.399994</ele>
        <time>2011-05-02T13:38:57Z</time>
      </trkpt>
      <trkpt lat="45.34261" lon="1.18129">
        <ele>195.800003</ele>
        <time>2011-05-02T13:39:01Z</time>
      </trkpt>
      <trkpt lat="45.34254" lon="1.18129">
        <ele>196.399994</ele>
        <time>2011-05-02T13:39:05Z</time>
      </trkpt>
      <trkpt lat="45.34247" lon="1.1813">
        <ele>197.100006</ele>
        <time>2011-05-02T13:39:09Z</time>
      </trkpt>
      <trkpt lat="45.34238" lon="1.18131">
        <ele>197.699997</ele>
        <time>2011-05-02T13:39:14Z</time>
      </trkpt>
      <trkpt lat="45.3423" lon="1.18131">
        <ele>198.699997</ele>
        <time>2011-05-02T13:39:19Z</time>
      </trkpt>
      <trkpt lat="45.34221" lon="1.18131">
        <ele>200.100006</ele>
        <time>2011-05-02T13:39:24Z</time>
      </trkpt>
      <trkpt lat="45.34213" lon="1.18132">
        <ele>200.800003</ele>
        <time>2011-05-02T13:39:29Z</time>
      </trkpt>
      <trkpt lat="45.3421" lon="1.18143">
        <ele>202.399994</ele>
        <time>2011-05-02T13:39:41Z</time>
      </trkpt>
      <trkpt lat="45.34211" lon="1.18144">
        <ele>202.699997</ele>
        <time>2011-05-02T13:39:42Z</time>
      </trkpt>
      <trkpt lat="45.34222" lon="1.1816">
        <ele>205.5</ele>
        <time>2011-05-02T13:39:57Z</time>
      </trkpt>
      <trkpt lat="45.34228" lon="1.18169">
        <ele>208.399994</ele>
        <time>2011-05-02T13:40:06Z</time>
      </trkpt>
      <trkpt lat="45.34235" lon="1.18174">
        <ele>209.600006</ele>
        <time>2011-05-02T13:40:13Z</time>
      </trkpt>
      <trkpt lat="45.34242" lon="1.1818">
        <ele>210.600006</ele>
        <time>2011-05-02T13:40:19Z</time>
      </trkpt>
      <trkpt lat="45.34249" lon="1.18187">
        <ele>210.699997</ele>
        <time>2011-05-02T13:40:25Z</time>
      </trkpt>
      <trkpt lat="45.34255" lon="1.18195">
        <ele>212.300003</ele>
        <time>2011-05-02T13:40:31Z</time>
      </trkpt>
      <trkpt lat="45.34262" lon="1.18202">
        <ele>213.899994</ele>
        <time>2011-05-02T13:40:37Z</time>
      </trkpt>
      <trkpt lat="45.34268" lon="1.1821">
        <ele>215</ele>
        <time>2011-05-02T13:40:43Z</time>
      </trkpt>
      <trkpt lat="45.34269" lon="1.18211">
        <ele>215.199997</ele>
        <time>2011-05-02T13:40:44Z</time>
      </trkpt>
      <trkpt lat="45.34279" lon="1.18228">
        <ele>218.5</ele>
        <time>2011-05-02T13:40:56Z</time>
      </trkpt>
      <trkpt lat="45.34283" lon="1.18238">
        <ele>220.100006</ele>
        <time>2011-05-02T13:41:04Z</time>
      </trkpt>
      <trkpt lat="45.34289" lon="1.18247">
        <ele>222.100006</ele>
        <time>2011-05-02T13:41:12Z</time>
      </trkpt>
      <trkpt lat="45.34295" lon="1.18254">
        <ele>223.800003</ele>
        <time>2011-05-02T13:41:20Z</time>
      </trkpt>
      <trkpt lat="45.34302" lon="1.18261">
        <ele>225.100006</ele>
        <time>2011-05-02T13:41:28Z</time>
      </trkpt>
      <trkpt lat="45.3431" lon="1.18267">
        <ele>226.600006</ele>
        <time>2011-05-02T13:41:36Z</time>
      </trkpt>
      <trkpt lat="45.34317" lon="1.18271">
        <ele>228.699997</ele>
        <time>2011-05-02T13:41:43Z</time>
      </trkpt>
      <trkpt lat="45.34325" lon="1.18277">
        <ele>230.199997</ele>
        <time>2011-05-02T13:41:50Z</time>
      </trkpt>
      <trkpt lat="45.34326" lon="1.18278">
        <ele>230.100006</ele>
        <time>2011-05-02T13:41:51Z</time>
      </trkpt>
      <trkpt lat="45.3434" lon="1.18288">
        <ele>233.100006</ele>
        <time>2011-05-02T13:42:05Z</time>
      </trkpt>
      <trkpt lat="45.34347" lon="1.18294">
        <ele>235.100006</ele>
        <time>2011-05-02T13:42:11Z</time>
      </trkpt>
      <trkpt lat="45.34355" lon="1.18299">
        <ele>236</ele>
        <time>2011-05-02T13:42:18Z</time>
      </trkpt>
      <trkpt lat="45.34362" lon="1.18304">
        <ele>237.699997</ele>
        <time>2011-05-02T13:42:24Z</time>
      </trkpt>
      <trkpt lat="45.3437" lon="1.18308">
        <ele>239.199997</ele>
        <time>2011-05-02T13:42:31Z</time>
      </trkpt>
      <trkpt lat="45.34378" lon="1.18313">
        <ele>240</ele>
        <time>2011-05-02T13:42:37Z</time>
      </trkpt>
      <trkpt lat="45.34386" lon="1.18317">
        <ele>242.199997</ele>
        <time>2011-05-02T13:42:42Z</time>
      </trkpt>
      <trkpt lat="45.34394" lon="1.18321">
        <ele>243.300003</ele>
        <time>2011-05-02T13:42:49Z</time>
      </trkpt>
      <trkpt lat="45.34402" lon="1.18325">
        <ele>244.899994</ele>
        <time>2011-05-02T13:42:57Z</time>
      </trkpt>
      <trkpt lat="45.34403" lon="1.18326">
        <ele>245.300003</ele>
        <time>2011-05-02T13:42:58Z</time>
      </trkpt>
      <trkpt lat="45.34416" lon="1.18339">
        <ele>248</ele>
        <time>2011-05-02T13:43:12Z</time>
      </trkpt>
      <trkpt lat="45.34422" lon="1.18348">
        <ele>248.5</ele>
        <time>2011-05-02T13:43:19Z</time>
      </trkpt>
      <trkpt lat="45.34431" lon="1.18352">
        <ele>250.899994</ele>
        <time>2011-05-02T13:43:27Z</time>
      </trkpt>
      <trkpt lat="45.34438" lon="1.18355">
        <ele>252.199997</ele>
        <time>2011-05-02T13:43:33Z</time>
      </trkpt>
      <trkpt lat="45.34445" lon="1.18361">
        <ele>253.300003</ele>
        <time>2011-05-02T13:43:39Z</time>
      </trkpt>
      <trkpt lat="45.34451" lon="1.18368">
        <ele>254.399994</ele>
        <time>2011-05-02T13:43:45Z</time>
      </trkpt>
      <trkpt lat="45.34457" lon="1.18378">
        <ele>256.5</ele>
        <time>2011-05-02T13:43:54Z</time>
      </trkpt>
      <trkpt lat="45.34462" lon="1.18387">
        <ele>257.600006</ele>
        <time>2011-05-02T13:44:01Z</time>
      </trkpt>
      <trkpt lat="45.34464" lon="1.18388">
        <ele>257.700012</ele>
        <time>2011-05-02T13:44:02Z</time>
      </trkpt>
      <trkpt lat="45.34474" lon="1.18402">
        <ele>260.200012</ele>
        <time>2011-05-02T13:44:13Z</time>
      </trkpt>
      <trkpt lat="45.34482" lon="1.18404">
        <ele>260.200012</ele>
        <time>2011-05-02T13:44:19Z</time>
      </trkpt>
      <trkpt lat="45.3449" lon="1.18398">
        <ele>261.5</ele>
        <time>2011-05-02T13:44:25Z</time>
      </trkpt>
      <trkpt lat="45.34497" lon="1.18393">
        <ele>261.899994</ele>
        <time>2011-05-02T13:44:32Z</time>
      </trkpt>
      <trkpt lat="45.34505" lon="1.18388">
        <ele>263.100006</ele>
        <time>2011-05-02T13:44:38Z</time>
      </trkpt>
      <trkpt lat="45.34512" lon="1.18382">
        <ele>264.700012</ele>
        <time>2011-05-02T13:44:46Z</time>
      </trkpt>
      <trkpt lat="45.34519" lon="1.18376">
        <ele>265.299988</ele>
        <time>2011-05-02T13:44:52Z</time>
      </trkpt>
      <trkpt lat="45.34527" lon="1.18371">
        <ele>266.700012</ele>
        <time>2011-05-02T13:44:58Z</time>
      </trkpt>
      <trkpt lat="45.34535" lon="1.18365">
        <ele>267</ele>
        <time>2011-05-02T13:45:05Z</time>
      </trkpt>
      <trkpt lat="45.34536" lon="1.18364">
        <ele>267.100006</ele>
        <time>2011-05-02T13:45:06Z</time>
      </trkpt>
      <trkpt lat="45.34551" lon="1.18377">
        <ele>273</ele>
        <time>2011-05-02T13:45:27Z</time>
      </trkpt>
      <trkpt lat="45.34557" lon="1.18385">
        <ele>275.399994</ele>
        <time>2011-05-02T13:45:40Z</time>
      </trkpt>
      <trkpt lat="45.34563" lon="1.18394">
        <ele>276.299988</ele>
        <time>2011-05-02T13:45:57Z</time>
      </trkpt>
      <trkpt lat="45.34566" lon="1.18404">
        <ele>275.799988</ele>
        <time>2011-05-02T13:46:03Z</time>
      </trkpt>
      <trkpt lat="45.34571" lon="1.18414">
        <ele>275.899994</ele>
        <time>2011-05-02T13:46:08Z</time>
      </trkpt>
      <trkpt lat="45.34572" lon="1.18417">
        <ele>275.899994</ele>
        <time>2011-05-02T13:46:09Z</time>
      </trkpt>
      <trkpt lat="45.34587" lon="1.18417">
        <ele>278.100006</ele>
        <time>2011-05-02T13:46:19Z</time>
      </trkpt>
      <trkpt lat="45.34596" lon="1.18418">
        <ele>279.100006</ele>
        <time>2011-05-02T13:46:25Z</time>
      </trkpt>
      <trkpt lat="45.34604" lon="1.18424">
        <ele>280.100006</ele>
        <time>2011-05-02T13:46:30Z</time>
      </trkpt>
      <trkpt lat="45.34611" lon="1.18429">
        <ele>280.200012</ele>
        <time>2011-05-02T13:46:36Z</time>
      </trkpt>
      <trkpt lat="45.34617" lon="1.18434">
        <ele>280.899994</ele>
        <time>2011-05-02T13:46:40Z</time>
      </trkpt>
      <trkpt lat="45.34625" lon="1.1844">
        <ele>281.700012</ele>
        <time>2011-05-02T13:46:45Z</time>
      </trkpt>
      <trkpt lat="45.34632" lon="1.18447">
        <ele>282.899994</ele>
        <time>2011-05-02T13:46:50Z</time>
      </trkpt>
      <trkpt lat="45.3464" lon="1.18453">
        <ele>283</ele>
        <time>2011-05-02T13:46:55Z</time>
      </trkpt>
      <trkpt lat="45.34647" lon="1.18457">
        <ele>284.200012</ele>
        <time>2011-05-02T13:47:00Z</time>
      </trkpt>
      <trkpt lat="45.34656" lon="1.18462">
        <ele>284.600006</ele>
        <time>2011-05-02T13:47:04Z</time>
      </trkpt>
      <trkpt lat="45.34661" lon="1.18467">
        <ele>284.100006</ele>
        <time>2011-05-02T13:47:07Z</time>
      </trkpt>
      <trkpt lat="45.34668" lon="1.18474">
        <ele>285.100006</ele>
        <time>2011-05-02T13:47:10Z</time>
      </trkpt>
      <trkpt lat="45.34669" lon="1.18475">
        <ele>284.899994</ele>
        <time>2011-05-02T13:47:11Z</time>
      </trkpt>
      <trkpt lat="45.34683" lon="1.18483">
        <ele>284.799988</ele>
        <time>2011-05-02T13:47:28Z</time>
      </trkpt>
      <trkpt lat="45.3469" lon="1.18489">
        <ele>285</ele>
        <time>2011-05-02T13:47:32Z</time>
      </trkpt>
      <trkpt lat="45.34698" lon="1.18496">
        <ele>283.899994</ele>
        <time>2011-05-02T13:47:36Z</time>
      </trkpt>
      <trkpt lat="45.34704" lon="1.18501">
        <ele>283.399994</ele>
        <time>2011-05-02T13:47:39Z</time>
      </trkpt>
      <trkpt lat="45.34711" lon="1.18506">
        <ele>282.899994</ele>
        <time>2011-05-02T13:47:42Z</time>
      </trkpt>
      <trkpt lat="45.34717" lon="1.18516">
        <ele>282.600006</ele>
        <time>2011-05-02T13:47:45Z</time>
      </trkpt>
      <trkpt lat="45.34722" lon="1.18524">
        <ele>281.899994</ele>
        <time>2011-05-02T13:47:48Z</time>
      </trkpt>
      <trkpt lat="45.3473" lon="1.18527">
        <ele>282</ele>
        <time>2011-05-02T13:47:52Z</time>
      </trkpt>
      <trkpt lat="45.34738" lon="1.18527">
        <ele>282.5</ele>
        <time>2011-05-02T13:47:56Z</time>
      </trkpt>
      <trkpt lat="45.34747" lon="1.18527">
        <ele>282.200012</ele>
        <time>2011-05-02T13:48:00Z</time>
      </trkpt>
      <trkpt lat="45.34754" lon="1.18526">
        <ele>282.799988</ele>
        <time>2011-05-02T13:48:04Z</time>
      </trkpt>
      <trkpt lat="45.34763" lon="1.18525">
        <ele>283.799988</ele>
        <time>2011-05-02T13:48:09Z</time>
      </trkpt>
      <trkpt lat="45.34771" lon="1.18524">
        <ele>285</ele>
        <time>2011-05-02T13:48:13Z</time>
      </trkpt>
      <trkpt lat="45.34773" lon="1.18523">
        <ele>285.299988</ele>
        <time>2011-05-02T13:48:14Z</time>
      </trkpt>
      <trkpt lat="45.34786" lon="1.18525">
        <ele>287.600006</ele>
        <time>2011-05-02T13:48:21Z</time>
      </trkpt>
      <trkpt lat="45.34794" lon="1.18525">
        <ele>288</ele>
        <time>2011-05-02T13:48:26Z</time>
      </trkpt>
      <trkpt lat="45.34802" lon="1.18525">
        <ele>287.799988</ele>
        <time>2011-05-02T13:48:30Z</time>
      </trkpt>
      <trkpt lat="45.34811" lon="1.18526">
        <ele>288.700012</ele>
        <time>2011-05-02T13:48:35Z</time>
      </trkpt>
      <trkpt lat="45.34817" lon="1.18532">
        <ele>288.5</ele>
        <time>2011-05-02T13:48:39Z</time>
      </trkpt>
      <trkpt lat="45.34824" lon="1.18533">
        <ele>288.399994</ele>
        <time>2011-05-02T13:48:42Z</time>
      </trkpt>
      <trkpt lat="45.34832" lon="1.18533">
        <ele>288.5</ele>
        <time>2011-05-02T13:48:45Z</time>
      </trkpt>
      <trkpt lat="45.34839" lon="1.18532">
        <ele>289</ele>
        <time>2011-05-02T13:48:48Z</time>
      </trkpt>
      <trkpt lat="45.34848" lon="1.18532">
        <ele>288.899994</ele>
        <time>2011-05-02T13:48:51Z</time>
      </trkpt>
      <trkpt lat="45.34855" lon="1.18532">
        <ele>288.899994</ele>
        <time>2011-05-02T13:48:54Z</time>
      </trkpt>
      <trkpt lat="45.34862" lon="1.18531">
        <ele>288</ele>
        <time>2011-05-02T13:48:56Z</time>
      </trkpt>
      <trkpt lat="45.3487" lon="1.18533">
        <ele>287.899994</ele>
        <time>2011-05-02T13:48:58Z</time>
      </trkpt>
      <trkpt lat="45.34879" lon="1.18534">
        <ele>287.200012</ele>
        <time>2011-05-02T13:49:00Z</time>
      </trkpt>
      <trkpt lat="45.34883" lon="1.18534">
        <ele>286.799988</ele>
        <time>2011-05-02T13:49:01Z</time>
      </trkpt>
      <trkpt lat="45.34888" lon="1.18533">
        <ele>286.299988</ele>
        <time>2011-05-02T13:49:02Z</time>
      </trkpt>
      <trkpt lat="45.34894" lon="1.18532">
        <ele>285.899994</ele>
        <time>2011-05-02T13:49:03Z</time>
      </trkpt>
      <trkpt lat="45.349" lon="1.18532">
        <ele>285.5</ele>
        <time>2011-05-02T13:49:04Z</time>
      </trkpt>
      <trkpt lat="45.34907" lon="1.18532">
        <ele>285.100006</ele>
        <time>2011-05-02T13:49:05Z</time>
      </trkpt>
      <trkpt lat="45.34914" lon="1.18531">
        <ele>284.899994</ele>
        <time>2011-05-02T13:49:06Z</time>
      </trkpt>
      <trkpt lat="45.3492" lon="1.1853">
        <ele>284.5</ele>
        <time>2011-05-02T13:49:07Z</time>
      </trkpt>
      <trkpt lat="45.34927" lon="1.1853">
        <ele>284.299988</ele>
        <time>2011-05-02T13:49:08Z</time>
      </trkpt>
      <trkpt lat="45.34935" lon="1.18531">
        <ele>283.600006</ele>
        <time>2011-05-02T13:49:09Z</time>
      </trkpt>
      <trkpt lat="45.34942" lon="1.18532">
        <ele>283.100006</ele>
        <time>2011-05-02T13:49:10Z</time>
      </trkpt>
      <trkpt lat="45.34951" lon="1.18533">
        <ele>282.700012</ele>
        <time>2011-05-02T13:49:11Z</time>
      </trkpt>
      <trkpt lat="45.3496" lon="1.18532">
        <ele>281.799988</ele>
        <time>2011-05-02T13:49:12Z</time>
      </trkpt>
      <trkpt lat="45.34968" lon="1.18532">
        <ele>281.100006</ele>
        <time>2011-05-02T13:49:13Z</time>
      </trkpt>
      <trkpt lat="45.34976" lon="1.18532">
        <ele>280.799988</ele>
        <time>2011-05-02T13:49:14Z</time>
      </trkpt>
      <trkpt lat="45.34983" lon="1.18533">
        <ele>280.5</ele>
        <time>2011-05-02T13:49:15Z</time>
      </trkpt>
      <trkpt lat="45.34991" lon="1.18533">
        <ele>279.899994</ele>
        <time>2011-05-02T13:49:16Z</time>
      </trkpt>
      <trkpt lat="45.34999" lon="1.18534">
        <ele>279.5</ele>
        <time>2011-05-02T13:49:17Z</time>
      </trkpt>
      <trkpt lat="45.35006" lon="1.18535">
        <ele>279.100006</ele>
        <time>2011-05-02T13:49:18Z</time>
      </trkpt>
      <trkpt lat="45.35014" lon="1.18536">
        <ele>279.200012</ele>
        <time>2011-05-02T13:49:19Z</time>
      </trkpt>
      <trkpt lat="45.35021" lon="1.18538">
        <ele>279.200012</ele>
        <time>2011-05-02T13:49:20Z</time>
      </trkpt>
      <trkpt lat="45.35029" lon="1.18541">
        <ele>278.799988</ele>
        <time>2011-05-02T13:49:21Z</time>
      </trkpt>
      <trkpt lat="45.35036" lon="1.18543">
        <ele>278.5</ele>
        <time>2011-05-02T13:49:22Z</time>
      </trkpt>
      <trkpt lat="45.35043" lon="1.18546">
        <ele>277.399994</ele>
        <time>2011-05-02T13:49:23Z</time>
      </trkpt>
      <trkpt lat="45.35051" lon="1.18549">
        <ele>276.5</ele>
        <time>2011-05-02T13:49:24Z</time>
      </trkpt>
      <trkpt lat="45.35058" lon="1.1855">
        <ele>275.899994</ele>
        <time>2011-05-02T13:49:25Z</time>
      </trkpt>
      <trkpt lat="45.35066" lon="1.18552">
        <ele>276.399994</ele>
        <time>2011-05-02T13:49:26Z</time>
      </trkpt>
      <trkpt lat="45.35072" lon="1.18553">
        <ele>276.700012</ele>
        <time>2011-05-02T13:49:27Z</time>
      </trkpt>
      <trkpt lat="45.35079" lon="1.18553">
        <ele>276.200012</ele>
        <time>2011-05-02T13:49:28Z</time>
      </trkpt>
      <trkpt lat="45.35085" lon="1.18554">
        <ele>275.899994</ele>
        <time>2011-05-02T13:49:29Z</time>
      </trkpt>
      <trkpt lat="45.3509" lon="1.18554">
        <ele>275.600006</ele>
        <time>2011-05-02T13:49:30Z</time>
      </trkpt>
      <trkpt lat="45.35096" lon="1.18554">
        <ele>275.799988</ele>
        <time>2011-05-02T13:49:31Z</time>
      </trkpt>
      <trkpt lat="45.35101" lon="1.18554">
        <ele>275.899994</ele>
        <time>2011-05-02T13:49:32Z</time>
      </trkpt>
      <trkpt lat="45.35106" lon="1.18553">
        <ele>276.100006</ele>
        <time>2011-05-02T13:49:33Z</time>
      </trkpt>
      <trkpt lat="45.35115" lon="1.18549">
        <ele>276.200012</ele>
        <time>2011-05-02T13:49:35Z</time>
      </trkpt>
      <trkpt lat="45.35119" lon="1.18548">
        <ele>276.200012</ele>
        <time>2011-05-02T13:49:36Z</time>
      </trkpt>
      <trkpt lat="45.35124" lon="1.18545">
        <ele>276.200012</ele>
        <time>2011-05-02T13:49:37Z</time>
      </trkpt>
      <trkpt lat="45.35129" lon="1.18543">
        <ele>276.5</ele>
        <time>2011-05-02T13:49:38Z</time>
      </trkpt>
      <trkpt lat="45.35134" lon="1.1854">
        <ele>276.700012</ele>
        <time>2011-05-02T13:49:39Z</time>
      </trkpt>
      <trkpt lat="45.35139" lon="1.18537">
        <ele>276.600006</ele>
        <time>2011-05-02T13:49:40Z</time>
      </trkpt>
      <trkpt lat="45.35145" lon="1.18534">
        <ele>276.5</ele>
        <time>2011-05-02T13:49:41Z</time>
      </trkpt>
      <trkpt lat="45.3515" lon="1.1853">
        <ele>276.399994</ele>
        <time>2011-05-02T13:49:42Z</time>
      </trkpt>
      <trkpt lat="45.35157" lon="1.18525">
        <ele>276.299988</ele>
        <time>2011-05-02T13:49:44Z</time>
      </trkpt>
      <trkpt lat="45.35162" lon="1.18521">
        <ele>276</ele>
        <time>2011-05-02T13:49:45Z</time>
      </trkpt>
      <trkpt lat="45.35168" lon="1.18521">
        <ele>275.799988</ele>
        <time>2011-05-02T13:49:46Z</time>
      </trkpt>
      <trkpt lat="45.35174" lon="1.18521">
        <ele>275.299988</ele>
        <time>2011-05-02T13:49:47Z</time>
      </trkpt>
      <trkpt lat="45.35179" lon="1.18522">
        <ele>274.899994</ele>
        <time>2011-05-02T13:49:48Z</time>
      </trkpt>
      <trkpt lat="45.35187" lon="1.18522">
        <ele>274.5</ele>
        <time>2011-05-02T13:49:50Z</time>
      </trkpt>
      <trkpt lat="45.35193" lon="1.18523">
        <ele>274.799988</ele>
        <time>2011-05-02T13:49:52Z</time>
      </trkpt>
      <trkpt lat="45.352" lon="1.18525">
        <ele>275.200012</ele>
        <time>2011-05-02T13:49:54Z</time>
      </trkpt>
      <trkpt lat="45.35207" lon="1.18532">
        <ele>275.600006</ele>
        <time>2011-05-02T13:49:56Z</time>
      </trkpt>
      <trkpt lat="45.35211" lon="1.18541">
        <ele>275.5</ele>
        <time>2011-05-02T13:49:58Z</time>
      </trkpt>
      <trkpt lat="45.35214" lon="1.18549">
        <ele>275.200012</ele>
        <time>2011-05-02T13:50:00Z</time>
      </trkpt>
      <trkpt lat="45.35216" lon="1.18558">
        <ele>276.399994</ele>
        <time>2011-05-02T13:50:02Z</time>
      </trkpt>
      <trkpt lat="45.35219" lon="1.18567">
        <ele>276.799988</ele>
        <time>2011-05-02T13:50:04Z</time>
      </trkpt>
      <trkpt lat="45.35222" lon="1.18575">
        <ele>277</ele>
        <time>2011-05-02T13:50:06Z</time>
      </trkpt>
      <trkpt lat="45.35225" lon="1.18584">
        <ele>277.399994</ele>
        <time>2011-05-02T13:50:08Z</time>
      </trkpt>
      <trkpt lat="45.3523" lon="1.18591">
        <ele>277.899994</ele>
        <time>2011-05-02T13:50:10Z</time>
      </trkpt>
      <trkpt lat="45.35235" lon="1.18599">
        <ele>278.399994</ele>
        <time>2011-05-02T13:50:12Z</time>
      </trkpt>
      <trkpt lat="45.35239" lon="1.18606">
        <ele>278.399994</ele>
        <time>2011-05-02T13:50:14Z</time>
      </trkpt>
      <trkpt lat="45.35243" lon="1.18614">
        <ele>278.299988</ele>
        <time>2011-05-02T13:50:16Z</time>
      </trkpt>
      <trkpt lat="45.35245" lon="1.18618">
        <ele>278.299988</ele>
        <time>2011-05-02T13:50:17Z</time>
      </trkpt>
      <trkpt lat="45.3525" lon="1.1863">
        <ele>278.100006</ele>
        <time>2011-05-02T13:50:20Z</time>
      </trkpt>
      <trkpt lat="45.35256" lon="1.18638">
        <ele>278.299988</ele>
        <time>2011-05-02T13:50:22Z</time>
      </trkpt>
      <trkpt lat="45.35261" lon="1.18646">
        <ele>278</ele>
        <time>2011-05-02T13:50:24Z</time>
      </trkpt>
      <trkpt lat="45.35265" lon="1.18654">
        <ele>278.600006</ele>
        <time>2011-05-02T13:50:26Z</time>
      </trkpt>
      <trkpt lat="45.35268" lon="1.1866">
        <ele>278.799988</ele>
        <time>2011-05-02T13:50:27Z</time>
      </trkpt>
      <trkpt lat="45.35271" lon="1.18665">
        <ele>278.700012</ele>
        <time>2011-05-02T13:50:28Z</time>
      </trkpt>
      <trkpt lat="45.35274" lon="1.1867">
        <ele>278.700012</ele>
        <time>2011-05-02T13:50:29Z</time>
      </trkpt>
      <trkpt lat="45.35279" lon="1.18675">
        <ele>278</ele>
        <time>2011-05-02T13:50:30Z</time>
      </trkpt>
      <trkpt lat="45.35284" lon="1.18678">
        <ele>277.5</ele>
        <time>2011-05-02T13:50:31Z</time>
      </trkpt>
      <trkpt lat="45.35288" lon="1.18683">
        <ele>277.100006</ele>
        <time>2011-05-02T13:50:32Z</time>
      </trkpt>
      <trkpt lat="45.35292" lon="1.18688">
        <ele>276.799988</ele>
        <time>2011-05-02T13:50:33Z</time>
      </trkpt>
      <trkpt lat="45.35294" lon="1.18694">
        <ele>276.600006</ele>
        <time>2011-05-02T13:50:34Z</time>
      </trkpt>
      <trkpt lat="45.35297" lon="1.18699">
        <ele>275.5</ele>
        <time>2011-05-02T13:50:35Z</time>
      </trkpt>
      <trkpt lat="45.35301" lon="1.18704">
        <ele>274.700012</ele>
        <time>2011-05-02T13:50:36Z</time>
      </trkpt>
      <trkpt lat="45.35306" lon="1.18708">
        <ele>273.700012</ele>
        <time>2011-05-02T13:50:37Z</time>
      </trkpt>
      <trkpt lat="45.35312" lon="1.18712">
        <ele>272.899994</ele>
        <time>2011-05-02T13:50:38Z</time>
      </trkpt>
      <trkpt lat="45.35318" lon="1.18715">
        <ele>272.200012</ele>
        <time>2011-05-02T13:50:39Z</time>
      </trkpt>
      <trkpt lat="45.35323" lon="1.18718">
        <ele>271.600006</ele>
        <time>2011-05-02T13:50:40Z</time>
      </trkpt>
      <trkpt lat="45.35328" lon="1.18721">
        <ele>271.200012</ele>
        <time>2011-05-02T13:50:41Z</time>
      </trkpt>
      <trkpt lat="45.35333" lon="1.18723">
        <ele>270.200012</ele>
        <time>2011-05-02T13:50:42Z</time>
      </trkpt>
      <trkpt lat="45.35338" lon="1.18725">
        <ele>269.399994</ele>
        <time>2011-05-02T13:50:43Z</time>
      </trkpt>
      <trkpt lat="45.35342" lon="1.18726">
        <ele>268.5</ele>
        <time>2011-05-02T13:50:44Z</time>
      </trkpt>
      <trkpt lat="45.35347" lon="1.18726">
        <ele>267.799988</ele>
        <time>2011-05-02T13:50:45Z</time>
      </trkpt>
      <trkpt lat="45.35356" lon="1.18729">
        <ele>265.700012</ele>
        <time>2011-05-02T13:50:48Z</time>
      </trkpt>
      <trkpt lat="45.35351" lon="1.18736">
        <ele>263.700012</ele>
        <time>2011-05-02T13:50:52Z</time>
      </trkpt>
      <trkpt lat="45.35344" lon="1.1874">
        <ele>263</ele>
        <time>2011-05-02T13:50:54Z</time>
      </trkpt>
      <trkpt lat="45.3534" lon="1.18743">
        <ele>262.5</ele>
        <time>2011-05-02T13:50:55Z</time>
      </trkpt>
      <trkpt lat="45.35336" lon="1.18746">
        <ele>261.899994</ele>
        <time>2011-05-02T13:50:56Z</time>
      </trkpt>
      <trkpt lat="45.35328" lon="1.18752">
        <ele>260.799988</ele>
        <time>2011-05-02T13:50:58Z</time>
      </trkpt>
      <trkpt lat="45.35323" lon="1.18761">
        <ele>259.799988</ele>
        <time>2011-05-02T13:51:01Z</time>
      </trkpt>
      <trkpt lat="45.35318" lon="1.18769">
        <ele>259.399994</ele>
        <time>2011-05-02T13:51:04Z</time>
      </trkpt>
      <trkpt lat="45.35313" lon="1.18779">
        <ele>259.600006</ele>
        <time>2011-05-02T13:51:09Z</time>
      </trkpt>
      <trkpt lat="45.35308" lon="1.18787">
        <ele>261.700012</ele>
        <time>2011-05-02T13:51:15Z</time>
      </trkpt>
      <trkpt lat="45.353" lon="1.18794">
        <ele>263.5</ele>
        <time>2011-05-02T13:51:21Z</time>
      </trkpt>
      <trkpt lat="45.35299" lon="1.18795">
        <ele>263.299988</ele>
        <time>2011-05-02T13:51:22Z</time>
      </trkpt>
      <trkpt lat="45.35284" lon="1.188">
        <ele>265.399994</ele>
        <time>2011-05-02T13:51:34Z</time>
      </trkpt>
      <trkpt lat="45.35276" lon="1.18805">
        <ele>267.299988</ele>
        <time>2011-05-02T13:51:41Z</time>
      </trkpt>
      <trkpt lat="45.35273" lon="1.18817">
        <ele>270.899994</ele>
        <time>2011-05-02T13:51:51Z</time>
      </trkpt>
      <trkpt lat="45.35273" lon="1.1883">
        <ele>272</ele>
        <time>2011-05-02T13:51:59Z</time>
      </trkpt>
      <trkpt lat="45.35272" lon="1.18842">
        <ele>273.5</ele>
        <time>2011-05-02T13:52:06Z</time>
      </trkpt>
      <trkpt lat="45.35272" lon="1.18853">
        <ele>274.600006</ele>
        <time>2011-05-02T13:52:12Z</time>
      </trkpt>
      <trkpt lat="45.35271" lon="1.18864">
        <ele>275.799988</ele>
        <time>2011-05-02T13:52:18Z</time>
      </trkpt>
      <trkpt lat="45.35271" lon="1.18877">
        <ele>277.100006</ele>
        <time>2011-05-02T13:52:25Z</time>
      </trkpt>
      <trkpt lat="45.35271" lon="1.18878">
        <ele>277.200012</ele>
        <time>2011-05-02T13:52:26Z</time>
      </trkpt>
      <trkpt lat="45.35271" lon="1.189">
        <ele>278.399994</ele>
        <time>2011-05-02T13:52:36Z</time>
      </trkpt>
      <trkpt lat="45.3527" lon="1.18911">
        <ele>278.799988</ele>
        <time>2011-05-02T13:52:41Z</time>
      </trkpt>
      <trkpt lat="45.35268" lon="1.18922">
        <ele>280.100006</ele>
        <time>2011-05-02T13:52:46Z</time>
      </trkpt>
      <trkpt lat="45.35266" lon="1.18933">
        <ele>281.5</ele>
        <time>2011-05-02T13:52:51Z</time>
      </trkpt>
      <trkpt lat="45.35265" lon="1.18944">
        <ele>282</ele>
        <time>2011-05-02T13:52:56Z</time>
      </trkpt>
      <trkpt lat="45.35263" lon="1.18957">
        <ele>283.5</ele>
        <time>2011-05-02T13:53:04Z</time>
      </trkpt>
      <trkpt lat="45.35263" lon="1.18968">
        <ele>284.299988</ele>
        <time>2011-05-02T13:53:11Z</time>
      </trkpt>
      <trkpt lat="45.35263" lon="1.18981">
        <ele>285.600006</ele>
        <time>2011-05-02T13:53:18Z</time>
      </trkpt>
      <trkpt lat="45.35262" lon="1.18993">
        <ele>286.899994</ele>
        <time>2011-05-02T13:53:24Z</time>
      </trkpt>
      <trkpt lat="45.35262" lon="1.19004">
        <ele>287.5</ele>
        <time>2011-05-02T13:53:29Z</time>
      </trkpt>
      <trkpt lat="45.35262" lon="1.19007">
        <ele>287.399994</ele>
        <time>2011-05-02T13:53:30Z</time>
      </trkpt>
      <trkpt lat="45.35259" lon="1.19028">
        <ele>287.799988</ele>
        <time>2011-05-02T13:53:37Z</time>
      </trkpt>
      <trkpt lat="45.35256" lon="1.19039">
        <ele>288.299988</ele>
        <time>2011-05-02T13:53:40Z</time>
      </trkpt>
      <trkpt lat="45.35253" lon="1.1905">
        <ele>288.600006</ele>
        <time>2011-05-02T13:53:43Z</time>
      </trkpt>
      <trkpt lat="45.35249" lon="1.19061">
        <ele>288.799988</ele>
        <time>2011-05-02T13:53:46Z</time>
      </trkpt>
      <trkpt lat="45.35246" lon="1.19072">
        <ele>289.299988</ele>
        <time>2011-05-02T13:53:49Z</time>
      </trkpt>
      <trkpt lat="45.35245" lon="1.19084">
        <ele>289.700012</ele>
        <time>2011-05-02T13:53:52Z</time>
      </trkpt>
      <trkpt lat="45.35244" lon="1.19097">
        <ele>289.100006</ele>
        <time>2011-05-02T13:53:55Z</time>
      </trkpt>
      <trkpt lat="45.35243" lon="1.19109">
        <ele>289.299988</ele>
        <time>2011-05-02T13:53:58Z</time>
      </trkpt>
      <trkpt lat="45.35243" lon="1.19122">
        <ele>289.799988</ele>
        <time>2011-05-02T13:54:01Z</time>
      </trkpt>
      <trkpt lat="45.35244" lon="1.19133">
        <ele>290.700012</ele>
        <time>2011-05-02T13:54:04Z</time>
      </trkpt>
      <trkpt lat="45.35245" lon="1.19145">
        <ele>291.799988</ele>
        <time>2011-05-02T13:54:07Z</time>
      </trkpt>
      <trkpt lat="45.35246" lon="1.19157">
        <ele>291.700012</ele>
        <time>2011-05-02T13:54:10Z</time>
      </trkpt>
      <trkpt lat="45.35247" lon="1.19169">
        <ele>291.799988</ele>
        <time>2011-05-02T13:54:13Z</time>
      </trkpt>
      <trkpt lat="45.35248" lon="1.1918">
        <ele>291.799988</ele>
        <time>2011-05-02T13:54:16Z</time>
      </trkpt>
      <trkpt lat="45.3525" lon="1.19191">
        <ele>292.299988</ele>
        <time>2011-05-02T13:54:19Z</time>
      </trkpt>
      <trkpt lat="45.35253" lon="1.19201">
        <ele>293.299988</ele>
        <time>2011-05-02T13:54:22Z</time>
      </trkpt>
      <trkpt lat="45.35257" lon="1.1921">
        <ele>294.399994</ele>
        <time>2011-05-02T13:54:25Z</time>
      </trkpt>
      <trkpt lat="45.35262" lon="1.19218">
        <ele>295.100006</ele>
        <time>2011-05-02T13:54:28Z</time>
      </trkpt>
      <trkpt lat="45.35267" lon="1.19226">
        <ele>295.100006</ele>
        <time>2011-05-02T13:54:31Z</time>
      </trkpt>
      <trkpt lat="45.35269" lon="1.19228">
        <ele>295.399994</ele>
        <time>2011-05-02T13:54:32Z</time>
      </trkpt>
      <trkpt lat="45.35277" lon="1.19241">
        <ele>296.899994</ele>
        <time>2011-05-02T13:54:37Z</time>
      </trkpt>
      <trkpt lat="45.35281" lon="1.1925">
        <ele>297.100006</ele>
        <time>2011-05-02T13:54:40Z</time>
      </trkpt>
      <trkpt lat="45.35284" lon="1.19259">
        <ele>298.100006</ele>
        <time>2011-05-02T13:54:43Z</time>
      </trkpt>
      <trkpt lat="45.35288" lon="1.19267">
        <ele>298.200012</ele>
        <time>2011-05-02T13:54:46Z</time>
      </trkpt>
      <trkpt lat="45.35291" lon="1.19276">
        <ele>298.5</ele>
        <time>2011-05-02T13:54:49Z</time>
      </trkpt>
      <trkpt lat="45.35293" lon="1.19289">
        <ele>298.799988</ele>
        <time>2011-05-02T13:54:53Z</time>
      </trkpt>
      <trkpt lat="45.35297" lon="1.19299">
        <ele>299.5</ele>
        <time>2011-05-02T13:54:57Z</time>
      </trkpt>
      <trkpt lat="45.35304" lon="1.19306">
        <ele>300.200012</ele>
        <time>2011-05-02T13:55:01Z</time>
      </trkpt>
      <trkpt lat="45.35311" lon="1.19309">
        <ele>300.200012</ele>
        <time>2011-05-02T13:55:04Z</time>
      </trkpt>
      <trkpt lat="45.35319" lon="1.19313">
        <ele>300.200012</ele>
        <time>2011-05-02T13:55:07Z</time>
      </trkpt>
      <trkpt lat="45.35326" lon="1.19318">
        <ele>301.100006</ele>
        <time>2011-05-02T13:55:10Z</time>
      </trkpt>
      <trkpt lat="45.35332" lon="1.19324">
        <ele>300.899994</ele>
        <time>2011-05-02T13:55:13Z</time>
      </trkpt>
      <trkpt lat="45.35338" lon="1.19331">
        <ele>301.200012</ele>
        <time>2011-05-02T13:55:16Z</time>
      </trkpt>
      <trkpt lat="45.35343" lon="1.1934">
        <ele>301.299988</ele>
        <time>2011-05-02T13:55:19Z</time>
      </trkpt>
      <trkpt lat="45.35351" lon="1.19345">
        <ele>301.5</ele>
        <time>2011-05-02T13:55:22Z</time>
      </trkpt>
      <trkpt lat="45.35358" lon="1.19344">
        <ele>301.100006</ele>
        <time>2011-05-02T13:55:24Z</time>
      </trkpt>
      <trkpt lat="45.35365" lon="1.19344">
        <ele>300.600006</ele>
        <time>2011-05-02T13:55:26Z</time>
      </trkpt>
      <trkpt lat="45.35374" lon="1.19343">
        <ele>300.700012</ele>
        <time>2011-05-02T13:55:28Z</time>
      </trkpt>
      <trkpt lat="45.35378" lon="1.19343">
        <ele>300.299988</ele>
        <time>2011-05-02T13:55:29Z</time>
      </trkpt>
      <trkpt lat="45.35383" lon="1.19343">
        <ele>300</ele>
        <time>2011-05-02T13:55:30Z</time>
      </trkpt>
      <trkpt lat="45.35387" lon="1.19343">
        <ele>299.700012</ele>
        <time>2011-05-02T13:55:31Z</time>
      </trkpt>
      <trkpt lat="45.35392" lon="1.19342">
        <ele>299.5</ele>
        <time>2011-05-02T13:55:32Z</time>
      </trkpt>
      <trkpt lat="45.35397" lon="1.19342">
        <ele>299.299988</ele>
        <time>2011-05-02T13:55:33Z</time>
      </trkpt>
      <trkpt lat="45.35402" lon="1.19342">
        <ele>299.299988</ele>
        <time>2011-05-02T13:55:34Z</time>
      </trkpt>
      <trkpt lat="45.35407" lon="1.19342">
        <ele>299.399994</ele>
        <time>2011-05-02T13:55:35Z</time>
      </trkpt>
      <trkpt lat="45.35412" lon="1.19341">
        <ele>299.299988</ele>
        <time>2011-05-02T13:55:36Z</time>
      </trkpt>
      <trkpt lat="45.35417" lon="1.19341">
        <ele>299.200012</ele>
        <time>2011-05-02T13:55:37Z</time>
      </trkpt>
      <trkpt lat="45.35421" lon="1.19341">
        <ele>299.200012</ele>
        <time>2011-05-02T13:55:38Z</time>
      </trkpt>
      <trkpt lat="45.35426" lon="1.19341">
        <ele>299.200012</ele>
        <time>2011-05-02T13:55:39Z</time>
      </trkpt>
      <trkpt lat="45.35431" lon="1.19341">
        <ele>299.200012</ele>
        <time>2011-05-02T13:55:40Z</time>
      </trkpt>
      <trkpt lat="45.3544" lon="1.19342">
        <ele>299.600006</ele>
        <time>2011-05-02T13:55:42Z</time>
      </trkpt>
      <trkpt lat="45.35448" lon="1.19342">
        <ele>300</ele>
        <time>2011-05-02T13:55:44Z</time>
      </trkpt>
      <trkpt lat="45.35457" lon="1.19343">
        <ele>300.100006</ele>
        <time>2011-05-02T13:55:46Z</time>
      </trkpt>
      <trkpt lat="45.35466" lon="1.19343">
        <ele>300.100006</ele>
        <time>2011-05-02T13:55:48Z</time>
      </trkpt>
      <trkpt lat="45.35474" lon="1.19344">
        <ele>300.100006</ele>
        <time>2011-05-02T13:55:50Z</time>
      </trkpt>
      <trkpt lat="45.35482" lon="1.19345">
        <ele>300.100006</ele>
        <time>2011-05-02T13:55:52Z</time>
      </trkpt>
      <trkpt lat="45.3549" lon="1.19346">
        <ele>301.200012</ele>
        <time>2011-05-02T13:55:54Z</time>
      </trkpt>
      <trkpt lat="45.35497" lon="1.19347">
        <ele>301.200012</ele>
        <time>2011-05-02T13:55:56Z</time>
      </trkpt>
      <trkpt lat="45.35505" lon="1.19348">
        <ele>301.600006</ele>
        <time>2011-05-02T13:55:58Z</time>
      </trkpt>
      <trkpt lat="45.35512" lon="1.19348">
        <ele>301.600006</ele>
        <time>2011-05-02T13:56:00Z</time>
      </trkpt>
      <trkpt lat="45.3552" lon="1.19349">
        <ele>301.5</ele>
        <time>2011-05-02T13:56:02Z</time>
      </trkpt>
      <trkpt lat="45.35527" lon="1.1935">
        <ele>302</ele>
        <time>2011-05-02T13:56:04Z</time>
      </trkpt>
      <trkpt lat="45.35534" lon="1.1935">
        <ele>302.600006</ele>
        <time>2011-05-02T13:56:06Z</time>
      </trkpt>
      <trkpt lat="45.35541" lon="1.1935">
        <ele>303</ele>
        <time>2011-05-02T13:56:08Z</time>
      </trkpt>
      <trkpt lat="45.35548" lon="1.19351">
        <ele>303.799988</ele>
        <time>2011-05-02T13:56:10Z</time>
      </trkpt>
      <trkpt lat="45.35554" lon="1.19352">
        <ele>304.100006</ele>
        <time>2011-05-02T13:56:12Z</time>
      </trkpt>
      <trkpt lat="45.35562" lon="1.19355">
        <ele>304.299988</ele>
        <time>2011-05-02T13:56:15Z</time>
      </trkpt>
      <trkpt lat="45.3557" lon="1.19359">
        <ele>304.799988</ele>
        <time>2011-05-02T13:56:18Z</time>
      </trkpt>
      <trkpt lat="45.35578" lon="1.19362">
        <ele>305.799988</ele>
        <time>2011-05-02T13:56:21Z</time>
      </trkpt>
      <trkpt lat="45.35586" lon="1.19365">
        <ele>306.700012</ele>
        <time>2011-05-02T13:56:24Z</time>
      </trkpt>
      <trkpt lat="45.35593" lon="1.19369">
        <ele>307</ele>
        <time>2011-05-02T13:56:27Z</time>
      </trkpt>
      <trkpt lat="45.35601" lon="1.19372">
        <ele>306.700012</ele>
        <time>2011-05-02T13:56:30Z</time>
      </trkpt>
      <trkpt lat="45.35608" lon="1.19376">
        <ele>307.899994</ele>
        <time>2011-05-02T13:56:33Z</time>
      </trkpt>
      <trkpt lat="45.3561" lon="1.19377">
        <ele>308</ele>
        <time>2011-05-02T13:56:34Z</time>
      </trkpt>
      <trkpt lat="45.35622" lon="1.19383">
        <ele>309.799988</ele>
        <time>2011-05-02T13:56:39Z</time>
      </trkpt>
      <trkpt lat="45.35628" lon="1.19386">
        <ele>310.399994</ele>
        <time>2011-05-02T13:56:42Z</time>
      </trkpt>
      <trkpt lat="45.35635" lon="1.1939">
        <ele>311</ele>
        <time>2011-05-02T13:56:45Z</time>
      </trkpt>
      <trkpt lat="45.35641" lon="1.19394">
        <ele>312</ele>
        <time>2011-05-02T13:56:48Z</time>
      </trkpt>
      <trkpt lat="45.35647" lon="1.19398">
        <ele>312.100006</ele>
        <time>2011-05-02T13:56:51Z</time>
      </trkpt>
      <trkpt lat="45.35653" lon="1.19402">
        <ele>313.399994</ele>
        <time>2011-05-02T13:56:54Z</time>
      </trkpt>
      <trkpt lat="45.35662" lon="1.19408">
        <ele>314.700012</ele>
        <time>2011-05-02T13:56:58Z</time>
      </trkpt>
      <trkpt lat="45.35669" lon="1.19413">
        <ele>315.700012</ele>
        <time>2011-05-02T13:57:02Z</time>
      </trkpt>
      <trkpt lat="45.35677" lon="1.19419">
        <ele>316.399994</ele>
        <time>2011-05-02T13:57:06Z</time>
      </trkpt>
      <trkpt lat="45.35683" lon="1.19423">
        <ele>316.600006</ele>
        <time>2011-05-02T13:57:09Z</time>
      </trkpt>
      <trkpt lat="45.35689" lon="1.19428">
        <ele>317</ele>
        <time>2011-05-02T13:57:12Z</time>
      </trkpt>
      <trkpt lat="45.35696" lon="1.19433">
        <ele>317.799988</ele>
        <time>2011-05-02T13:57:15Z</time>
      </trkpt>
      <trkpt lat="45.35702" lon="1.19438">
        <ele>318.299988</ele>
        <time>2011-05-02T13:57:18Z</time>
      </trkpt>
      <trkpt lat="45.35708" lon="1.19443">
        <ele>318.899994</ele>
        <time>2011-05-02T13:57:21Z</time>
      </trkpt>
      <trkpt lat="45.35715" lon="1.19449">
        <ele>319.100006</ele>
        <time>2011-05-02T13:57:24Z</time>
      </trkpt>
      <trkpt lat="45.35722" lon="1.19456">
        <ele>319.600006</ele>
        <time>2011-05-02T13:57:27Z</time>
      </trkpt>
      <trkpt lat="45.35727" lon="1.19461">
        <ele>319.899994</ele>
        <time>2011-05-02T13:57:29Z</time>
      </trkpt>
      <trkpt lat="45.35732" lon="1.19466">
        <ele>319.899994</ele>
        <time>2011-05-02T13:57:31Z</time>
      </trkpt>
      <trkpt lat="45.35738" lon="1.19471">
        <ele>319.799988</ele>
        <time>2011-05-02T13:57:33Z</time>
      </trkpt>
      <trkpt lat="45.35743" lon="1.19477">
        <ele>319.799988</ele>
        <time>2011-05-02T13:57:35Z</time>
      </trkpt>
      <trkpt lat="45.35746" lon="1.1948">
        <ele>319.799988</ele>
        <time>2011-05-02T13:57:36Z</time>
      </trkpt>
      <trkpt lat="45.35755" lon="1.19488">
        <ele>320</ele>
        <time>2011-05-02T13:57:39Z</time>
      </trkpt>
      <trkpt lat="45.35761" lon="1.19494">
        <ele>320.200012</ele>
        <time>2011-05-02T13:57:41Z</time>
      </trkpt>
      <trkpt lat="45.35766" lon="1.195">
        <ele>320.299988</ele>
        <time>2011-05-02T13:57:43Z</time>
      </trkpt>
      <trkpt lat="45.35772" lon="1.19506">
        <ele>320.299988</ele>
        <time>2011-05-02T13:57:45Z</time>
      </trkpt>
      <trkpt lat="45.35778" lon="1.19511">
        <ele>320.799988</ele>
        <time>2011-05-02T13:57:47Z</time>
      </trkpt>
      <trkpt lat="45.35784" lon="1.19518">
        <ele>321.299988</ele>
        <time>2011-05-02T13:57:49Z</time>
      </trkpt>
      <trkpt lat="45.3579" lon="1.19524">
        <ele>321.299988</ele>
        <time>2011-05-02T13:57:51Z</time>
      </trkpt>
      <trkpt lat="45.35795" lon="1.1953">
        <ele>321.200012</ele>
        <time>2011-05-02T13:57:53Z</time>
      </trkpt>
      <trkpt lat="45.35801" lon="1.19536">
        <ele>321.899994</ele>
        <time>2011-05-02T13:57:55Z</time>
      </trkpt>
      <trkpt lat="45.35807" lon="1.19542">
        <ele>321.799988</ele>
        <time>2011-05-02T13:57:57Z</time>
      </trkpt>
      <trkpt lat="45.35812" lon="1.19548">
        <ele>322.100006</ele>
        <time>2011-05-02T13:57:59Z</time>
      </trkpt>
      <trkpt lat="45.35818" lon="1.19554">
        <ele>322.600006</ele>
        <time>2011-05-02T13:58:01Z</time>
      </trkpt>
      <trkpt lat="45.35822" lon="1.1956">
        <ele>323</ele>
        <time>2011-05-02T13:58:03Z</time>
      </trkpt>
      <trkpt lat="45.35827" lon="1.19566">
        <ele>323.100006</ele>
        <time>2011-05-02T13:58:05Z</time>
      </trkpt>
      <trkpt lat="45.35831" lon="1.19571">
        <ele>323.600006</ele>
        <time>2011-05-02T13:58:07Z</time>
      </trkpt>
      <trkpt lat="45.35837" lon="1.19577">
        <ele>323.200012</ele>
        <time>2011-05-02T13:58:09Z</time>
      </trkpt>
      <trkpt lat="45.35843" lon="1.19583">
        <ele>324.100006</ele>
        <time>2011-05-02T13:58:11Z</time>
      </trkpt>
      <trkpt lat="45.35849" lon="1.19588">
        <ele>324.399994</ele>
        <time>2011-05-02T13:58:13Z</time>
      </trkpt>
      <trkpt lat="45.35855" lon="1.19592">
        <ele>324.799988</ele>
        <time>2011-05-02T13:58:15Z</time>
      </trkpt>
      <trkpt lat="45.35861" lon="1.19596">
        <ele>325.399994</ele>
        <time>2011-05-02T13:58:17Z</time>
      </trkpt>
      <trkpt lat="45.35868" lon="1.19598">
        <ele>326</ele>
        <time>2011-05-02T13:58:19Z</time>
      </trkpt>
      <trkpt lat="45.35874" lon="1.19599">
        <ele>325.899994</ele>
        <time>2011-05-02T13:58:21Z</time>
      </trkpt>
      <trkpt lat="45.35881" lon="1.19601">
        <ele>326</ele>
        <time>2011-05-02T13:58:23Z</time>
      </trkpt>
      <trkpt lat="45.35888" lon="1.19601">
        <ele>326.600006</ele>
        <time>2011-05-02T13:58:25Z</time>
      </trkpt>
      <trkpt lat="45.35894" lon="1.19602">
        <ele>327.299988</ele>
        <time>2011-05-02T13:58:27Z</time>
      </trkpt>
      <trkpt lat="45.35901" lon="1.19602">
        <ele>328</ele>
        <time>2011-05-02T13:58:29Z</time>
      </trkpt>
      <trkpt lat="45.35908" lon="1.19602">
        <ele>328.399994</ele>
        <time>2011-05-02T13:58:31Z</time>
      </trkpt>
      <trkpt lat="45.35915" lon="1.19602">
        <ele>328.299988</ele>
        <time>2011-05-02T13:58:33Z</time>
      </trkpt>
      <trkpt lat="45.35922" lon="1.19601">
        <ele>328.799988</ele>
        <time>2011-05-02T13:58:35Z</time>
      </trkpt>
      <trkpt lat="45.35929" lon="1.19601">
        <ele>329.5</ele>
        <time>2011-05-02T13:58:37Z</time>
      </trkpt>
      <trkpt lat="45.35933" lon="1.19601">
        <ele>329.700012</ele>
        <time>2011-05-02T13:58:38Z</time>
      </trkpt>
      <trkpt lat="45.35943" lon="1.19601">
        <ele>329.700012</ele>
        <time>2011-05-02T13:58:41Z</time>
      </trkpt>
      <trkpt lat="45.35949" lon="1.19601">
        <ele>330.100006</ele>
        <time>2011-05-02T13:58:43Z</time>
      </trkpt>
      <trkpt lat="45.35956" lon="1.196">
        <ele>330.700012</ele>
        <time>2011-05-02T13:58:45Z</time>
      </trkpt>
      <trkpt lat="45.35962" lon="1.196">
        <ele>330.700012</ele>
        <time>2011-05-02T13:58:47Z</time>
      </trkpt>
      <trkpt lat="45.35969" lon="1.196">
        <ele>330.600006</ele>
        <time>2011-05-02T13:58:49Z</time>
      </trkpt>
      <trkpt lat="45.35975" lon="1.196">
        <ele>331</ele>
        <time>2011-05-02T13:58:51Z</time>
      </trkpt>
      <trkpt lat="45.35982" lon="1.196">
        <ele>331.5</ele>
        <time>2011-05-02T13:58:53Z</time>
      </trkpt>
      <trkpt lat="45.35989" lon="1.196">
        <ele>331.299988</ele>
        <time>2011-05-02T13:58:55Z</time>
      </trkpt>
      <trkpt lat="45.35997" lon="1.196">
        <ele>331.100006</ele>
        <time>2011-05-02T13:58:57Z</time>
      </trkpt>
      <trkpt lat="45.36004" lon="1.19601">
        <ele>331.5</ele>
        <time>2011-05-02T13:58:59Z</time>
      </trkpt>
      <trkpt lat="45.36012" lon="1.19602">
        <ele>331.600006</ele>
        <time>2011-05-02T13:59:01Z</time>
      </trkpt>
      <trkpt lat="45.36019" lon="1.19603">
        <ele>331.399994</ele>
        <time>2011-05-02T13:59:03Z</time>
      </trkpt>
      <trkpt lat="45.36027" lon="1.19605">
        <ele>331.700012</ele>
        <time>2011-05-02T13:59:05Z</time>
      </trkpt>
      <trkpt lat="45.36035" lon="1.19606">
        <ele>332.299988</ele>
        <time>2011-05-02T13:59:07Z</time>
      </trkpt>
      <trkpt lat="45.36044" lon="1.19607">
        <ele>332.600006</ele>
        <time>2011-05-02T13:59:09Z</time>
      </trkpt>
      <trkpt lat="45.36052" lon="1.19607">
        <ele>332.200012</ele>
        <time>2011-05-02T13:59:11Z</time>
      </trkpt>
      <trkpt lat="45.3606" lon="1.19608">
        <ele>332.5</ele>
        <time>2011-05-02T13:59:13Z</time>
      </trkpt>
      <trkpt lat="45.36068" lon="1.19608">
        <ele>333</ele>
        <time>2011-05-02T13:59:15Z</time>
      </trkpt>
      <trkpt lat="45.36076" lon="1.19609">
        <ele>332.700012</ele>
        <time>2011-05-02T13:59:17Z</time>
      </trkpt>
      <trkpt lat="45.36084" lon="1.19609">
        <ele>332.399994</ele>
        <time>2011-05-02T13:59:19Z</time>
      </trkpt>
      <trkpt lat="45.36092" lon="1.19609">
        <ele>332.299988</ele>
        <time>2011-05-02T13:59:21Z</time>
      </trkpt>
      <trkpt lat="45.361" lon="1.19609">
        <ele>332</ele>
        <time>2011-05-02T13:59:23Z</time>
      </trkpt>
      <trkpt lat="45.36109" lon="1.19609">
        <ele>331.899994</ele>
        <time>2011-05-02T13:59:25Z</time>
      </trkpt>
      <trkpt lat="45.36116" lon="1.19609">
        <ele>332.100006</ele>
        <time>2011-05-02T13:59:27Z</time>
      </trkpt>
      <trkpt lat="45.36125" lon="1.19609">
        <ele>332.200012</ele>
        <time>2011-05-02T13:59:29Z</time>
      </trkpt>
      <trkpt lat="45.36133" lon="1.19609">
        <ele>332.399994</ele>
        <time>2011-05-02T13:59:31Z</time>
      </trkpt>
      <trkpt lat="45.36138" lon="1.19609">
        <ele>332.600006</ele>
        <time>2011-05-02T13:59:32Z</time>
      </trkpt>
      <trkpt lat="45.36142" lon="1.19609">
        <ele>332</ele>
        <time>2011-05-02T13:59:33Z</time>
      </trkpt>
      <trkpt lat="45.36147" lon="1.1961">
        <ele>331.5</ele>
        <time>2011-05-02T13:59:34Z</time>
      </trkpt>
      <trkpt lat="45.36152" lon="1.1961">
        <ele>331.100006</ele>
        <time>2011-05-02T13:59:35Z</time>
      </trkpt>
      <trkpt lat="45.36157" lon="1.19611">
        <ele>330.600006</ele>
        <time>2011-05-02T13:59:36Z</time>
      </trkpt>
      <trkpt lat="45.36162" lon="1.19612">
        <ele>330.200012</ele>
        <time>2011-05-02T13:59:37Z</time>
      </trkpt>
      <trkpt lat="45.36168" lon="1.19613">
        <ele>330.299988</ele>
        <time>2011-05-02T13:59:38Z</time>
      </trkpt>
      <trkpt lat="45.36173" lon="1.19614">
        <ele>330.399994</ele>
        <time>2011-05-02T13:59:39Z</time>
      </trkpt>
      <trkpt lat="45.36179" lon="1.19615">
        <ele>330.399994</ele>
        <time>2011-05-02T13:59:40Z</time>
      </trkpt>
      <trkpt lat="45.36184" lon="1.19617">
        <ele>330.5</ele>
        <time>2011-05-02T13:59:41Z</time>
      </trkpt>
      <trkpt lat="45.3619" lon="1.19619">
        <ele>330.600006</ele>
        <time>2011-05-02T13:59:42Z</time>
      </trkpt>
      <trkpt lat="45.36195" lon="1.19621">
        <ele>330.5</ele>
        <time>2011-05-02T13:59:43Z</time>
      </trkpt>
      <trkpt lat="45.36201" lon="1.19623">
        <ele>330.399994</ele>
        <time>2011-05-02T13:59:44Z</time>
      </trkpt>
      <trkpt lat="45.36207" lon="1.19626">
        <ele>330</ele>
        <time>2011-05-02T13:59:45Z</time>
      </trkpt>
      <trkpt lat="45.36213" lon="1.19629">
        <ele>329.700012</ele>
        <time>2011-05-02T13:59:46Z</time>
      </trkpt>
      <trkpt lat="45.36218" lon="1.19632">
        <ele>329.399994</ele>
        <time>2011-05-02T13:59:47Z</time>
      </trkpt>
      <trkpt lat="45.36224" lon="1.19635">
        <ele>329.299988</ele>
        <time>2011-05-02T13:59:48Z</time>
      </trkpt>
      <trkpt lat="45.36229" lon="1.19638">
        <ele>329.299988</ele>
        <time>2011-05-02T13:59:49Z</time>
      </trkpt>
      <trkpt lat="45.36235" lon="1.1964">
        <ele>329.100006</ele>
        <time>2011-05-02T13:59:50Z</time>
      </trkpt>
      <trkpt lat="45.3624" lon="1.19642">
        <ele>329.100006</ele>
        <time>2011-05-02T13:59:51Z</time>
      </trkpt>
      <trkpt lat="45.36244" lon="1.19644">
        <ele>328.899994</ele>
        <time>2011-05-02T13:59:52Z</time>
      </trkpt>
      <trkpt lat="45.36249" lon="1.19647">
        <ele>328.799988</ele>
        <time>2011-05-02T13:59:53Z</time>
      </trkpt>
      <trkpt lat="45.36254" lon="1.1965">
        <ele>328.700012</ele>
        <time>2011-05-02T13:59:54Z</time>
      </trkpt>
      <trkpt lat="45.36258" lon="1.19652">
        <ele>328.5</ele>
        <time>2011-05-02T13:59:55Z</time>
      </trkpt>
      <trkpt lat="45.36263" lon="1.19655">
        <ele>328.399994</ele>
        <time>2011-05-02T13:59:56Z</time>
      </trkpt>
      <trkpt lat="45.36268" lon="1.19657">
        <ele>328.399994</ele>
        <time>2011-05-02T13:59:57Z</time>
      </trkpt>
      <trkpt lat="45.36273" lon="1.1966">
        <ele>328.399994</ele>
        <time>2011-05-02T13:59:58Z</time>
      </trkpt>
      <trkpt lat="45.36277" lon="1.19662">
        <ele>328.600006</ele>
        <time>2011-05-02T13:59:59Z</time>
      </trkpt>
      <trkpt lat="45.36282" lon="1.19664">
        <ele>328.799988</ele>
        <time>2011-05-02T14:00:00Z</time>
      </trkpt>
      <trkpt lat="45.36286" lon="1.19666">
        <ele>328.899994</ele>
        <time>2011-05-02T14:00:01Z</time>
      </trkpt>
      <trkpt lat="45.36294" lon="1.19671">
        <ele>329.200012</ele>
        <time>2011-05-02T14:00:03Z</time>
      </trkpt>
      <trkpt lat="45.36299" lon="1.19673">
        <ele>329.399994</ele>
        <time>2011-05-02T14:00:04Z</time>
      </trkpt>
      <trkpt lat="45.36304" lon="1.19676">
        <ele>329.600006</ele>
        <time>2011-05-02T14:00:05Z</time>
      </trkpt>
      <trkpt lat="45.36308" lon="1.19678">
        <ele>329.899994</ele>
        <time>2011-05-02T14:00:06Z</time>
      </trkpt>
      <trkpt lat="45.36313" lon="1.1968">
        <ele>330</ele>
        <time>2011-05-02T14:00:07Z</time>
      </trkpt>
      <trkpt lat="45.36317" lon="1.19683">
        <ele>330.200012</ele>
        <time>2011-05-02T14:00:08Z</time>
      </trkpt>
      <trkpt lat="45.36326" lon="1.19687">
        <ele>330.600006</ele>
        <time>2011-05-02T14:00:10Z</time>
      </trkpt>
      <trkpt lat="45.36334" lon="1.19691">
        <ele>331.700012</ele>
        <time>2011-05-02T14:00:12Z</time>
      </trkpt>
      <trkpt lat="45.36342" lon="1.19694">
        <ele>331.799988</ele>
        <time>2011-05-02T14:00:14Z</time>
      </trkpt>
      <trkpt lat="45.3635" lon="1.19698">
        <ele>331.600006</ele>
        <time>2011-05-02T14:00:16Z</time>
      </trkpt>
      <trkpt lat="45.36358" lon="1.19702">
        <ele>332.100006</ele>
        <time>2011-05-02T14:00:18Z</time>
      </trkpt>
      <trkpt lat="45.36366" lon="1.19706">
        <ele>332.399994</ele>
        <time>2011-05-02T14:00:20Z</time>
      </trkpt>
      <trkpt lat="45.36373" lon="1.1971">
        <ele>332.799988</ele>
        <time>2011-05-02T14:00:22Z</time>
      </trkpt>
      <trkpt lat="45.3638" lon="1.19714">
        <ele>333.399994</ele>
        <time>2011-05-02T14:00:24Z</time>
      </trkpt>
      <trkpt lat="45.36387" lon="1.19718">
        <ele>334</ele>
        <time>2011-05-02T14:00:26Z</time>
      </trkpt>
      <trkpt lat="45.36395" lon="1.19721">
        <ele>334.399994</ele>
        <time>2011-05-02T14:00:28Z</time>
      </trkpt>
      <trkpt lat="45.36403" lon="1.19725">
        <ele>334.200012</ele>
        <time>2011-05-02T14:00:30Z</time>
      </trkpt>
      <trkpt lat="45.36411" lon="1.19729">
        <ele>333.899994</ele>
        <time>2011-05-02T14:00:32Z</time>
      </trkpt>
      <trkpt lat="45.36419" lon="1.19732">
        <ele>334.299988</ele>
        <time>2011-05-02T14:00:34Z</time>
      </trkpt>
      <trkpt lat="45.36424" lon="1.19734">
        <ele>334.299988</ele>
        <time>2011-05-02T14:00:35Z</time>
      </trkpt>
      <trkpt lat="45.36428" lon="1.19736">
        <ele>334.299988</ele>
        <time>2011-05-02T14:00:36Z</time>
      </trkpt>
      <trkpt lat="45.36433" lon="1.19737">
        <ele>334.200012</ele>
        <time>2011-05-02T14:00:37Z</time>
      </trkpt>
      <trkpt lat="45.36438" lon="1.19739">
        <ele>334.200012</ele>
        <time>2011-05-02T14:00:38Z</time>
      </trkpt>
      <trkpt lat="45.36443" lon="1.1974">
        <ele>334.200012</ele>
        <time>2011-05-02T14:00:39Z</time>
      </trkpt>
      <trkpt lat="45.36448" lon="1.19741">
        <ele>334.299988</ele>
        <time>2011-05-02T14:00:40Z</time>
      </trkpt>
      <trkpt lat="45.36453" lon="1.19741">
        <ele>334.299988</ele>
        <time>2011-05-02T14:00:41Z</time>
      </trkpt>
      <trkpt lat="45.36458" lon="1.19742">
        <ele>334</ele>
        <time>2011-05-02T14:00:42Z</time>
      </trkpt>
      <trkpt lat="45.36464" lon="1.19742">
        <ele>333.799988</ele>
        <time>2011-05-02T14:00:43Z</time>
      </trkpt>
      <trkpt lat="45.36469" lon="1.19742">
        <ele>333.700012</ele>
        <time>2011-05-02T14:00:44Z</time>
      </trkpt>
      <trkpt lat="45.36475" lon="1.19742">
        <ele>333.700012</ele>
        <time>2011-05-02T14:00:45Z</time>
      </trkpt>
      <trkpt lat="45.36481" lon="1.19741">
        <ele>333.600006</ele>
        <time>2011-05-02T14:00:46Z</time>
      </trkpt>
      <trkpt lat="45.36487" lon="1.19741">
        <ele>333.700012</ele>
        <time>2011-05-02T14:00:47Z</time>
      </trkpt>
      <trkpt lat="45.36492" lon="1.1974">
        <ele>333.700012</ele>
        <time>2011-05-02T14:00:48Z</time>
      </trkpt>
      <trkpt lat="45.36498" lon="1.19739">
        <ele>333.799988</ele>
        <time>2011-05-02T14:00:49Z</time>
      </trkpt>
      <trkpt lat="45.36503" lon="1.19739">
        <ele>333.899994</ele>
        <time>2011-05-02T14:00:50Z</time>
      </trkpt>
      <trkpt lat="45.36509" lon="1.19738">
        <ele>333.899994</ele>
        <time>2011-05-02T14:00:51Z</time>
      </trkpt>
      <trkpt lat="45.36514" lon="1.19738">
        <ele>333.600006</ele>
        <time>2011-05-02T14:00:52Z</time>
      </trkpt>
      <trkpt lat="45.36519" lon="1.19737">
        <ele>333.399994</ele>
        <time>2011-05-02T14:00:53Z</time>
      </trkpt>
      <trkpt lat="45.36524" lon="1.19736">
        <ele>333.399994</ele>
        <time>2011-05-02T14:00:54Z</time>
      </trkpt>
      <trkpt lat="45.36529" lon="1.19735">
        <ele>333.399994</ele>
        <time>2011-05-02T14:00:55Z</time>
      </trkpt>
      <trkpt lat="45.36534" lon="1.19735">
        <ele>333.600006</ele>
        <time>2011-05-02T14:00:56Z</time>
      </trkpt>
      <trkpt lat="45.36539" lon="1.19734">
        <ele>333.799988</ele>
        <time>2011-05-02T14:00:57Z</time>
      </trkpt>
      <trkpt lat="45.36544" lon="1.19733">
        <ele>334</ele>
        <time>2011-05-02T14:00:58Z</time>
      </trkpt>
      <trkpt lat="45.36549" lon="1.19733">
        <ele>334</ele>
        <time>2011-05-02T14:00:59Z</time>
      </trkpt>
      <trkpt lat="45.36554" lon="1.19732">
        <ele>334</ele>
        <time>2011-05-02T14:01:00Z</time>
      </trkpt>
      <trkpt lat="45.36559" lon="1.19731">
        <ele>334</ele>
        <time>2011-05-02T14:01:01Z</time>
      </trkpt>
      <trkpt lat="45.36564" lon="1.1973">
        <ele>334</ele>
        <time>2011-05-02T14:01:02Z</time>
      </trkpt>
      <trkpt lat="45.36569" lon="1.19729">
        <ele>334.299988</ele>
        <time>2011-05-02T14:01:03Z</time>
      </trkpt>
      <trkpt lat="45.36573" lon="1.19729">
        <ele>334.600006</ele>
        <time>2011-05-02T14:01:04Z</time>
      </trkpt>
      <trkpt lat="45.36578" lon="1.19728">
        <ele>334.799988</ele>
        <time>2011-05-02T14:01:05Z</time>
      </trkpt>
      <trkpt lat="45.36583" lon="1.19727">
        <ele>335.100006</ele>
        <time>2011-05-02T14:01:06Z</time>
      </trkpt>
      <trkpt lat="45.36587" lon="1.19727">
        <ele>335.399994</ele>
        <time>2011-05-02T14:01:07Z</time>
      </trkpt>
      <trkpt lat="45.36592" lon="1.19726">
        <ele>335.899994</ele>
        <time>2011-05-02T14:01:08Z</time>
      </trkpt>
      <trkpt lat="45.366" lon="1.19726">
        <ele>336.600006</ele>
        <time>2011-05-02T14:01:10Z</time>
      </trkpt>
      <trkpt lat="45.36609" lon="1.19725">
        <ele>336.700012</ele>
        <time>2011-05-02T14:01:12Z</time>
      </trkpt>
      <trkpt lat="45.36617" lon="1.19725">
        <ele>336.600006</ele>
        <time>2011-05-02T14:01:14Z</time>
      </trkpt>
      <trkpt lat="45.36626" lon="1.19724">
        <ele>336.799988</ele>
        <time>2011-05-02T14:01:16Z</time>
      </trkpt>
      <trkpt lat="45.36634" lon="1.19724">
        <ele>337</ele>
        <time>2011-05-02T14:01:18Z</time>
      </trkpt>
      <trkpt lat="45.36641" lon="1.19725">
        <ele>337.100006</ele>
        <time>2011-05-02T14:01:20Z</time>
      </trkpt>
      <trkpt lat="45.3665" lon="1.19725">
        <ele>337.100006</ele>
        <time>2011-05-02T14:01:22Z</time>
      </trkpt>
      <trkpt lat="45.36655" lon="1.19726">
        <ele>337.100006</ele>
        <time>2011-05-02T14:01:23Z</time>
      </trkpt>
      <trkpt lat="45.3666" lon="1.19726">
        <ele>337.100006</ele>
        <time>2011-05-02T14:01:24Z</time>
      </trkpt>
      <trkpt lat="45.36665" lon="1.19727">
        <ele>336.600006</ele>
        <time>2011-05-02T14:01:25Z</time>
      </trkpt>
      <trkpt lat="45.36671" lon="1.19728">
        <ele>336.299988</ele>
        <time>2011-05-02T14:01:26Z</time>
      </trkpt>
      <trkpt lat="45.36677" lon="1.19728">
        <ele>335.799988</ele>
        <time>2011-05-02T14:01:27Z</time>
      </trkpt>
      <trkpt lat="45.36683" lon="1.19729">
        <ele>335.399994</ele>
        <time>2011-05-02T14:01:28Z</time>
      </trkpt>
      <trkpt lat="45.3669" lon="1.1973">
        <ele>335.200012</ele>
        <time>2011-05-02T14:01:29Z</time>
      </trkpt>
      <trkpt lat="45.36697" lon="1.19731">
        <ele>334.799988</ele>
        <time>2011-05-02T14:01:30Z</time>
      </trkpt>
      <trkpt lat="45.36704" lon="1.19732">
        <ele>334.600006</ele>
        <time>2011-05-02T14:01:31Z</time>
      </trkpt>
      <trkpt lat="45.36712" lon="1.19733">
        <ele>334.299988</ele>
        <time>2011-05-02T14:01:32Z</time>
      </trkpt>
      <trkpt lat="45.3672" lon="1.19734">
        <ele>334.100006</ele>
        <time>2011-05-02T14:01:33Z</time>
      </trkpt>
      <trkpt lat="45.36727" lon="1.19736">
        <ele>333.799988</ele>
        <time>2011-05-02T14:01:34Z</time>
      </trkpt>
      <trkpt lat="45.36735" lon="1.19739">
        <ele>333.600006</ele>
        <time>2011-05-02T14:01:35Z</time>
      </trkpt>
      <trkpt lat="45.36743" lon="1.19742">
        <ele>333.399994</ele>
        <time>2011-05-02T14:01:36Z</time>
      </trkpt>
      <trkpt lat="45.3675" lon="1.19747">
        <ele>332.799988</ele>
        <time>2011-05-02T14:01:37Z</time>
      </trkpt>
      <trkpt lat="45.36757" lon="1.19753">
        <ele>332.299988</ele>
        <time>2011-05-02T14:01:38Z</time>
      </trkpt>
      <trkpt lat="45.36763" lon="1.1976">
        <ele>331.600006</ele>
        <time>2011-05-02T14:01:39Z</time>
      </trkpt>
      <trkpt lat="45.3677" lon="1.19768">
        <ele>331</ele>
        <time>2011-05-02T14:01:40Z</time>
      </trkpt>
      <trkpt lat="45.36776" lon="1.19777">
        <ele>330.399994</ele>
        <time>2011-05-02T14:01:41Z</time>
      </trkpt>
      <trkpt lat="45.36782" lon="1.19785">
        <ele>330</ele>
        <time>2011-05-02T14:01:42Z</time>
      </trkpt>
      <trkpt lat="45.36787" lon="1.19792">
        <ele>329.700012</ele>
        <time>2011-05-02T14:01:43Z</time>
      </trkpt>
      <trkpt lat="45.36791" lon="1.19798">
        <ele>329.299988</ele>
        <time>2011-05-02T14:01:44Z</time>
      </trkpt>
      <trkpt lat="45.36795" lon="1.19803">
        <ele>329</ele>
        <time>2011-05-02T14:01:45Z</time>
      </trkpt>
      <trkpt lat="45.36795" lon="1.19815">
        <ele>327.399994</ele>
        <time>2011-05-02T14:01:48Z</time>
      </trkpt>
      <trkpt lat="45.36789" lon="1.19818">
        <ele>327.100006</ele>
        <time>2011-05-02T14:01:50Z</time>
      </trkpt>
      <trkpt lat="45.36783" lon="1.19824">
        <ele>326.299988</ele>
        <time>2011-05-02T14:01:52Z</time>
      </trkpt>
      <trkpt lat="45.36777" lon="1.1983">
        <ele>325.600006</ele>
        <time>2011-05-02T14:01:54Z</time>
      </trkpt>
      <trkpt lat="45.36773" lon="1.19834">
        <ele>325.399994</ele>
        <time>2011-05-02T14:01:55Z</time>
      </trkpt>
      <trkpt lat="45.36769" lon="1.19838">
        <ele>325.600006</ele>
        <time>2011-05-02T14:01:56Z</time>
      </trkpt>
      <trkpt lat="45.36766" lon="1.19843">
        <ele>325.700012</ele>
        <time>2011-05-02T14:01:57Z</time>
      </trkpt>
      <trkpt lat="45.36762" lon="1.19846">
        <ele>325.299988</ele>
        <time>2011-05-02T14:01:58Z</time>
      </trkpt>
      <trkpt lat="45.36758" lon="1.19851">
        <ele>324.899994</ele>
        <time>2011-05-02T14:01:59Z</time>
      </trkpt>
      <trkpt lat="45.36754" lon="1.19855">
        <ele>324.5</ele>
        <time>2011-05-02T14:02:00Z</time>
      </trkpt>
      <trkpt lat="45.36746" lon="1.19859">
        <ele>323.899994</ele>
        <time>2011-05-02T14:02:02Z</time>
      </trkpt>
      <trkpt lat="45.36742" lon="1.19861">
        <ele>324</ele>
        <time>2011-05-02T14:02:03Z</time>
      </trkpt>
      <trkpt lat="45.36737" lon="1.19862">
        <ele>324</ele>
        <time>2011-05-02T14:02:04Z</time>
      </trkpt>
      <trkpt lat="45.36732" lon="1.19864">
        <ele>323.600006</ele>
        <time>2011-05-02T14:02:05Z</time>
      </trkpt>
      <trkpt lat="45.36727" lon="1.19865">
        <ele>323.200012</ele>
        <time>2011-05-02T14:02:06Z</time>
      </trkpt>
      <trkpt lat="45.36722" lon="1.19868">
        <ele>322.899994</ele>
        <time>2011-05-02T14:02:07Z</time>
      </trkpt>
      <trkpt lat="45.36718" lon="1.19872">
        <ele>322.799988</ele>
        <time>2011-05-02T14:02:08Z</time>
      </trkpt>
      <trkpt lat="45.36713" lon="1.19875">
        <ele>322.700012</ele>
        <time>2011-05-02T14:02:09Z</time>
      </trkpt>
      <trkpt lat="45.36708" lon="1.19879">
        <ele>322.299988</ele>
        <time>2011-05-02T14:02:10Z</time>
      </trkpt>
      <trkpt lat="45.36703" lon="1.19884">
        <ele>322</ele>
        <time>2011-05-02T14:02:11Z</time>
      </trkpt>
      <trkpt lat="45.36698" lon="1.19889">
        <ele>322.100006</ele>
        <time>2011-05-02T14:02:12Z</time>
      </trkpt>
      <trkpt lat="45.36693" lon="1.19894">
        <ele>322.100006</ele>
        <time>2011-05-02T14:02:13Z</time>
      </trkpt>
      <trkpt lat="45.36689" lon="1.19899">
        <ele>322.200012</ele>
        <time>2011-05-02T14:02:14Z</time>
      </trkpt>
      <trkpt lat="45.36684" lon="1.19906">
        <ele>321.5</ele>
        <time>2011-05-02T14:02:15Z</time>
      </trkpt>
      <trkpt lat="45.36679" lon="1.19913">
        <ele>321.100006</ele>
        <time>2011-05-02T14:02:16Z</time>
      </trkpt>
      <trkpt lat="45.36675" lon="1.19919">
        <ele>320.5</ele>
        <time>2011-05-02T14:02:17Z</time>
      </trkpt>
      <trkpt lat="45.3667" lon="1.19925">
        <ele>320</ele>
        <time>2011-05-02T14:02:18Z</time>
      </trkpt>
      <trkpt lat="45.36666" lon="1.19931">
        <ele>319.700012</ele>
        <time>2011-05-02T14:02:19Z</time>
      </trkpt>
      <trkpt lat="45.36661" lon="1.19936">
        <ele>319.399994</ele>
        <time>2011-05-02T14:02:20Z</time>
      </trkpt>
      <trkpt lat="45.36657" lon="1.19941">
        <ele>319.200012</ele>
        <time>2011-05-02T14:02:21Z</time>
      </trkpt>
      <trkpt lat="45.36653" lon="1.19947">
        <ele>319.100006</ele>
        <time>2011-05-02T14:02:22Z</time>
      </trkpt>
      <trkpt lat="45.36649" lon="1.19954">
        <ele>319.100006</ele>
        <time>2011-05-02T14:02:23Z</time>
      </trkpt>
      <trkpt lat="45.36645" lon="1.19961">
        <ele>318.100006</ele>
        <time>2011-05-02T14:02:24Z</time>
      </trkpt>
      <trkpt lat="45.3664" lon="1.19968">
        <ele>317.299988</ele>
        <time>2011-05-02T14:02:25Z</time>
      </trkpt>
      <trkpt lat="45.36635" lon="1.19975">
        <ele>316.799988</ele>
        <time>2011-05-02T14:02:26Z</time>
      </trkpt>
      <trkpt lat="45.3663" lon="1.19982">
        <ele>317.100006</ele>
        <time>2011-05-02T14:02:27Z</time>
      </trkpt>
      <trkpt lat="45.36626" lon="1.19988">
        <ele>317.299988</ele>
        <time>2011-05-02T14:02:28Z</time>
      </trkpt>
      <trkpt lat="45.36622" lon="1.19995">
        <ele>317</ele>
        <time>2011-05-02T14:02:29Z</time>
      </trkpt>
      <trkpt lat="45.36619" lon="1.20001">
        <ele>316.799988</ele>
        <time>2011-05-02T14:02:30Z</time>
      </trkpt>
      <trkpt lat="45.36618" lon="1.20008">
        <ele>316.399994</ele>
        <time>2011-05-02T14:02:31Z</time>
      </trkpt>
      <trkpt lat="45.36616" lon="1.20016">
        <ele>316.200012</ele>
        <time>2011-05-02T14:02:32Z</time>
      </trkpt>
      <trkpt lat="45.36614" lon="1.20022">
        <ele>316</ele>
        <time>2011-05-02T14:02:33Z</time>
      </trkpt>
      <trkpt lat="45.36611" lon="1.20028">
        <ele>315.700012</ele>
        <time>2011-05-02T14:02:34Z</time>
      </trkpt>
      <trkpt lat="45.36607" lon="1.20033">
        <ele>315.5</ele>
        <time>2011-05-02T14:02:35Z</time>
      </trkpt>
      <trkpt lat="45.36602" lon="1.20042">
        <ele>315.399994</ele>
        <time>2011-05-02T14:02:37Z</time>
      </trkpt>
      <trkpt lat="45.36599" lon="1.20048">
        <ele>315.100006</ele>
        <time>2011-05-02T14:02:38Z</time>
      </trkpt>
      <trkpt lat="45.36596" lon="1.20054">
        <ele>314.799988</ele>
        <time>2011-05-02T14:02:39Z</time>
      </trkpt>
      <trkpt lat="45.36593" lon="1.20061">
        <ele>314.700012</ele>
        <time>2011-05-02T14:02:40Z</time>
      </trkpt>
      <trkpt lat="45.36592" lon="1.20068">
        <ele>314.5</ele>
        <time>2011-05-02T14:02:41Z</time>
      </trkpt>
      <trkpt lat="45.3659" lon="1.20076">
        <ele>314.299988</ele>
        <time>2011-05-02T14:02:42Z</time>
      </trkpt>
      <trkpt lat="45.36589" lon="1.20084">
        <ele>313.899994</ele>
        <time>2011-05-02T14:02:43Z</time>
      </trkpt>
      <trkpt lat="45.36587" lon="1.20093">
        <ele>313.600006</ele>
        <time>2011-05-02T14:02:44Z</time>
      </trkpt>
      <trkpt lat="45.36586" lon="1.20102">
        <ele>313.100006</ele>
        <time>2011-05-02T14:02:45Z</time>
      </trkpt>
      <trkpt lat="45.36585" lon="1.2011">
        <ele>312.700012</ele>
        <time>2011-05-02T14:02:46Z</time>
      </trkpt>
      <trkpt lat="45.36584" lon="1.20119">
        <ele>312.399994</ele>
        <time>2011-05-02T14:02:47Z</time>
      </trkpt>
      <trkpt lat="45.36583" lon="1.20128">
        <ele>312</ele>
        <time>2011-05-02T14:02:48Z</time>
      </trkpt>
      <trkpt lat="45.36582" lon="1.20137">
        <ele>311.600006</ele>
        <time>2011-05-02T14:02:49Z</time>
      </trkpt>
      <trkpt lat="45.36581" lon="1.20147">
        <ele>311.399994</ele>
        <time>2011-05-02T14:02:50Z</time>
      </trkpt>
      <trkpt lat="45.3658" lon="1.20157">
        <ele>311.200012</ele>
        <time>2011-05-02T14:02:51Z</time>
      </trkpt>
      <trkpt lat="45.36579" lon="1.20166">
        <ele>311</ele>
        <time>2011-05-02T14:02:52Z</time>
      </trkpt>
      <trkpt lat="45.36579" lon="1.20175">
        <ele>310</ele>
        <time>2011-05-02T14:02:53Z</time>
      </trkpt>
      <trkpt lat="45.36579" lon="1.20183">
        <ele>309.200012</ele>
        <time>2011-05-02T14:02:54Z</time>
      </trkpt>
      <trkpt lat="45.36579" lon="1.20192">
        <ele>308.899994</ele>
        <time>2011-05-02T14:02:55Z</time>
      </trkpt>
      <trkpt lat="45.36579" lon="1.20199">
        <ele>308.700012</ele>
        <time>2011-05-02T14:02:56Z</time>
      </trkpt>
      <trkpt lat="45.36579" lon="1.20206">
        <ele>308.399994</ele>
        <time>2011-05-02T14:02:57Z</time>
      </trkpt>
      <trkpt lat="45.36578" lon="1.20214">
        <ele>308.200012</ele>
        <time>2011-05-02T14:02:58Z</time>
      </trkpt>
      <trkpt lat="45.36577" lon="1.20225">
        <ele>308</ele>
        <time>2011-05-02T14:02:59Z</time>
      </trkpt>
      <trkpt lat="45.36575" lon="1.20235">
        <ele>307.5</ele>
        <time>2011-05-02T14:03:00Z</time>
      </trkpt>
      <trkpt lat="45.36574" lon="1.20245">
        <ele>307.100006</ele>
        <time>2011-05-02T14:03:01Z</time>
      </trkpt>
      <trkpt lat="45.36573" lon="1.20256">
        <ele>306.5</ele>
        <time>2011-05-02T14:03:02Z</time>
      </trkpt>
      <trkpt lat="45.36571" lon="1.20266">
        <ele>306.200012</ele>
        <time>2011-05-02T14:03:03Z</time>
      </trkpt>
      <trkpt lat="45.36569" lon="1.20277">
        <ele>305.299988</ele>
        <time>2011-05-02T14:03:04Z</time>
      </trkpt>
      <trkpt lat="45.36567" lon="1.20288">
        <ele>304.700012</ele>
        <time>2011-05-02T14:03:05Z</time>
      </trkpt>
      <trkpt lat="45.36566" lon="1.20299">
        <ele>304.299988</ele>
        <time>2011-05-02T14:03:06Z</time>
      </trkpt>
      <trkpt lat="45.36565" lon="1.20311">
        <ele>303.700012</ele>
        <time>2011-05-02T14:03:07Z</time>
      </trkpt>
      <trkpt lat="45.36564" lon="1.20322">
        <ele>303.299988</ele>
        <time>2011-05-02T14:03:08Z</time>
      </trkpt>
      <trkpt lat="45.36563" lon="1.20334">
        <ele>302.899994</ele>
        <time>2011-05-02T14:03:09Z</time>
      </trkpt>
      <trkpt lat="45.36562" lon="1.20346">
        <ele>302.600006</ele>
        <time>2011-05-02T14:03:10Z</time>
      </trkpt>
      <trkpt lat="45.3656" lon="1.20357">
        <ele>302.399994</ele>
        <time>2011-05-02T14:03:11Z</time>
      </trkpt>
      <trkpt lat="45.36559" lon="1.2037">
        <ele>302</ele>
        <time>2011-05-02T14:03:12Z</time>
      </trkpt>
      <trkpt lat="45.36557" lon="1.20382">
        <ele>301.700012</ele>
        <time>2011-05-02T14:03:13Z</time>
      </trkpt>
      <trkpt lat="45.36555" lon="1.20394">
        <ele>302</ele>
        <time>2011-05-02T14:03:14Z</time>
      </trkpt>
      <trkpt lat="45.36553" lon="1.20407">
        <ele>302.200012</ele>
        <time>2011-05-02T14:03:15Z</time>
      </trkpt>
      <trkpt lat="45.36552" lon="1.20419">
        <ele>301.899994</ele>
        <time>2011-05-02T14:03:16Z</time>
      </trkpt>
      <trkpt lat="45.3655" lon="1.20431">
        <ele>301.700012</ele>
        <time>2011-05-02T14:03:17Z</time>
      </trkpt>
      <trkpt lat="45.36548" lon="1.20443">
        <ele>301.5</ele>
        <time>2011-05-02T14:03:18Z</time>
      </trkpt>
      <trkpt lat="45.36547" lon="1.20454">
        <ele>301</ele>
        <time>2011-05-02T14:03:19Z</time>
      </trkpt>
      <trkpt lat="45.36545" lon="1.20464">
        <ele>300.5</ele>
        <time>2011-05-02T14:03:20Z</time>
      </trkpt>
      <trkpt lat="45.36543" lon="1.20473">
        <ele>299.799988</ele>
        <time>2011-05-02T14:03:21Z</time>
      </trkpt>
      <trkpt lat="45.36539" lon="1.20481">
        <ele>299.299988</ele>
        <time>2011-05-02T14:03:22Z</time>
      </trkpt>
      <trkpt lat="45.36535" lon="1.20487">
        <ele>298.899994</ele>
        <time>2011-05-02T14:03:23Z</time>
      </trkpt>
      <trkpt lat="45.3653" lon="1.20492">
        <ele>298.600006</ele>
        <time>2011-05-02T14:03:24Z</time>
      </trkpt>
      <trkpt lat="45.36525" lon="1.20496">
        <ele>298.399994</ele>
        <time>2011-05-02T14:03:25Z</time>
      </trkpt>
      <trkpt lat="45.3652" lon="1.20501">
        <ele>298.100006</ele>
        <time>2011-05-02T14:03:26Z</time>
      </trkpt>
      <trkpt lat="45.36516" lon="1.20505">
        <ele>297.899994</ele>
        <time>2011-05-02T14:03:27Z</time>
      </trkpt>
      <trkpt lat="45.36511" lon="1.2051">
        <ele>297.899994</ele>
        <time>2011-05-02T14:03:28Z</time>
      </trkpt>
      <trkpt lat="45.36507" lon="1.20515">
        <ele>297.899994</ele>
        <time>2011-05-02T14:03:29Z</time>
      </trkpt>
      <trkpt lat="45.36504" lon="1.2052">
        <ele>297.899994</ele>
        <time>2011-05-02T14:03:30Z</time>
      </trkpt>
      <trkpt lat="45.36502" lon="1.20527">
        <ele>298.100006</ele>
        <time>2011-05-02T14:03:31Z</time>
      </trkpt>
      <trkpt lat="45.365" lon="1.20535">
        <ele>298.200012</ele>
        <time>2011-05-02T14:03:32Z</time>
      </trkpt>
      <trkpt lat="45.36499" lon="1.20542">
        <ele>298.299988</ele>
        <time>2011-05-02T14:03:33Z</time>
      </trkpt>
      <trkpt lat="45.36498" lon="1.2055">
        <ele>298.399994</ele>
        <time>2011-05-02T14:03:34Z</time>
      </trkpt>
      <trkpt lat="45.36498" lon="1.20558">
        <ele>298.299988</ele>
        <time>2011-05-02T14:03:35Z</time>
      </trkpt>
      <trkpt lat="45.36497" lon="1.20566">
        <ele>298.200012</ele>
        <time>2011-05-02T14:03:36Z</time>
      </trkpt>
      <trkpt lat="45.36496" lon="1.20574">
        <ele>298.200012</ele>
        <time>2011-05-02T14:03:37Z</time>
      </trkpt>
      <trkpt lat="45.36495" lon="1.20582">
        <ele>297.799988</ele>
        <time>2011-05-02T14:03:38Z</time>
      </trkpt>
      <trkpt lat="45.36494" lon="1.2059">
        <ele>297.5</ele>
        <time>2011-05-02T14:03:39Z</time>
      </trkpt>
      <trkpt lat="45.36493" lon="1.20598">
        <ele>297.5</ele>
        <time>2011-05-02T14:03:40Z</time>
      </trkpt>
      <trkpt lat="45.36492" lon="1.20606">
        <ele>297.600006</ele>
        <time>2011-05-02T14:03:41Z</time>
      </trkpt>
      <trkpt lat="45.36491" lon="1.20614">
        <ele>297.100006</ele>
        <time>2011-05-02T14:03:42Z</time>
      </trkpt>
      <trkpt lat="45.3649" lon="1.20622">
        <ele>296.700012</ele>
        <time>2011-05-02T14:03:43Z</time>
      </trkpt>
      <trkpt lat="45.3649" lon="1.20631">
        <ele>296.399994</ele>
        <time>2011-05-02T14:03:44Z</time>
      </trkpt>
      <trkpt lat="45.36489" lon="1.20639">
        <ele>296.200012</ele>
        <time>2011-05-02T14:03:45Z</time>
      </trkpt>
      <trkpt lat="45.36488" lon="1.20647">
        <ele>296</ele>
        <time>2011-05-02T14:03:46Z</time>
      </trkpt>
      <trkpt lat="45.36487" lon="1.20656">
        <ele>296.100006</ele>
        <time>2011-05-02T14:03:47Z</time>
      </trkpt>
      <trkpt lat="45.36485" lon="1.20664">
        <ele>296.200012</ele>
        <time>2011-05-02T14:03:48Z</time>
      </trkpt>
      <trkpt lat="45.36484" lon="1.20672">
        <ele>296.299988</ele>
        <time>2011-05-02T14:03:49Z</time>
      </trkpt>
      <trkpt lat="45.36483" lon="1.20681">
        <ele>296.200012</ele>
        <time>2011-05-02T14:03:50Z</time>
      </trkpt>
      <trkpt lat="45.36482" lon="1.20689">
        <ele>296.200012</ele>
        <time>2011-05-02T14:03:51Z</time>
      </trkpt>
      <trkpt lat="45.36481" lon="1.20697">
        <ele>295.5</ele>
        <time>2011-05-02T14:03:52Z</time>
      </trkpt>
      <trkpt lat="45.3648" lon="1.20706">
        <ele>295</ele>
        <time>2011-05-02T14:03:53Z</time>
      </trkpt>
      <trkpt lat="45.36478" lon="1.20715">
        <ele>294.600006</ele>
        <time>2011-05-02T14:03:54Z</time>
      </trkpt>
      <trkpt lat="45.36477" lon="1.20724">
        <ele>294.299988</ele>
        <time>2011-05-02T14:03:55Z</time>
      </trkpt>
      <trkpt lat="45.36476" lon="1.20733">
        <ele>294.100006</ele>
        <time>2011-05-02T14:03:56Z</time>
      </trkpt>
      <trkpt lat="45.36474" lon="1.20743">
        <ele>293.799988</ele>
        <time>2011-05-02T14:03:57Z</time>
      </trkpt>
      <trkpt lat="45.36472" lon="1.20753">
        <ele>293.600006</ele>
        <time>2011-05-02T14:03:58Z</time>
      </trkpt>
      <trkpt lat="45.3647" lon="1.20763">
        <ele>292.899994</ele>
        <time>2011-05-02T14:03:59Z</time>
      </trkpt>
      <trkpt lat="45.36468" lon="1.20773">
        <ele>292.399994</ele>
        <time>2011-05-02T14:04:00Z</time>
      </trkpt>
      <trkpt lat="45.36465" lon="1.20781">
        <ele>291.600006</ele>
        <time>2011-05-02T14:04:01Z</time>
      </trkpt>
      <trkpt lat="45.36463" lon="1.20791">
        <ele>291.100006</ele>
        <time>2011-05-02T14:04:02Z</time>
      </trkpt>
      <trkpt lat="45.3646" lon="1.20801">
        <ele>290.700012</ele>
        <time>2011-05-02T14:04:03Z</time>
      </trkpt>
      <trkpt lat="45.36457" lon="1.20812">
        <ele>290.299988</ele>
        <time>2011-05-02T14:04:04Z</time>
      </trkpt>
      <trkpt lat="45.36454" lon="1.20823">
        <ele>290.100006</ele>
        <time>2011-05-02T14:04:05Z</time>
      </trkpt>
      <trkpt lat="45.36455" lon="1.20835">
        <ele>289.299988</ele>
        <time>2011-05-02T14:04:06Z</time>
      </trkpt>
      <trkpt lat="45.36456" lon="1.20847">
        <ele>288.700012</ele>
        <time>2011-05-02T14:04:07Z</time>
      </trkpt>
      <trkpt lat="45.36458" lon="1.20858">
        <ele>288.200012</ele>
        <time>2011-05-02T14:04:08Z</time>
      </trkpt>
      <trkpt lat="45.36459" lon="1.20869">
        <ele>287.299988</ele>
        <time>2011-05-02T14:04:09Z</time>
      </trkpt>
      <trkpt lat="45.36461" lon="1.20881">
        <ele>286.600006</ele>
        <time>2011-05-02T14:04:10Z</time>
      </trkpt>
      <trkpt lat="45.36463" lon="1.20894">
        <ele>285.700012</ele>
        <time>2011-05-02T14:04:11Z</time>
      </trkpt>
      <trkpt lat="45.36464" lon="1.20906">
        <ele>285.100006</ele>
        <time>2011-05-02T14:04:12Z</time>
      </trkpt>
      <trkpt lat="45.36465" lon="1.20919">
        <ele>284</ele>
        <time>2011-05-02T14:04:13Z</time>
      </trkpt>
      <trkpt lat="45.36468" lon="1.20932">
        <ele>283.200012</ele>
        <time>2011-05-02T14:04:14Z</time>
      </trkpt>
      <trkpt lat="45.3647" lon="1.20945">
        <ele>282.600006</ele>
        <time>2011-05-02T14:04:15Z</time>
      </trkpt>
      <trkpt lat="45.36472" lon="1.20958">
        <ele>282.100006</ele>
        <time>2011-05-02T14:04:16Z</time>
      </trkpt>
      <trkpt lat="45.36472" lon="1.2097">
        <ele>281.799988</ele>
        <time>2011-05-02T14:04:17Z</time>
      </trkpt>
      <trkpt lat="45.36472" lon="1.20983">
        <ele>281.200012</ele>
        <time>2011-05-02T14:04:18Z</time>
      </trkpt>
      <trkpt lat="45.36473" lon="1.20997">
        <ele>280.799988</ele>
        <time>2011-05-02T14:04:19Z</time>
      </trkpt>
      <trkpt lat="45.36474" lon="1.2101">
        <ele>280.299988</ele>
        <time>2011-05-02T14:04:20Z</time>
      </trkpt>
      <trkpt lat="45.36475" lon="1.21023">
        <ele>280</ele>
        <time>2011-05-02T14:04:21Z</time>
      </trkpt>
      <trkpt lat="45.36477" lon="1.21036">
        <ele>279.700012</ele>
        <time>2011-05-02T14:04:22Z</time>
      </trkpt>
      <trkpt lat="45.36478" lon="1.21048">
        <ele>279.5</ele>
        <time>2011-05-02T14:04:23Z</time>
      </trkpt>
      <trkpt lat="45.36479" lon="1.21059">
        <ele>279.200012</ele>
        <time>2011-05-02T14:04:24Z</time>
      </trkpt>
      <trkpt lat="45.36483" lon="1.2107">
        <ele>278.700012</ele>
        <time>2011-05-02T14:04:25Z</time>
      </trkpt>
      <trkpt lat="45.36486" lon="1.21082">
        <ele>278.299988</ele>
        <time>2011-05-02T14:04:26Z</time>
      </trkpt>
      <trkpt lat="45.3649" lon="1.21092">
        <ele>277.899994</ele>
        <time>2011-05-02T14:04:27Z</time>
      </trkpt>
      <trkpt lat="45.36493" lon="1.21102">
        <ele>277.299988</ele>
        <time>2011-05-02T14:04:28Z</time>
      </trkpt>
      <trkpt lat="45.36494" lon="1.21111">
        <ele>276.799988</ele>
        <time>2011-05-02T14:04:29Z</time>
      </trkpt>
      <trkpt lat="45.36494" lon="1.21121">
        <ele>276.299988</ele>
        <time>2011-05-02T14:04:30Z</time>
      </trkpt>
      <trkpt lat="45.36494" lon="1.21131">
        <ele>275.899994</ele>
        <time>2011-05-02T14:04:31Z</time>
      </trkpt>
      <trkpt lat="45.36494" lon="1.21142">
        <ele>274.899994</ele>
        <time>2011-05-02T14:04:32Z</time>
      </trkpt>
      <trkpt lat="45.36493" lon="1.21153">
        <ele>274.100006</ele>
        <time>2011-05-02T14:04:33Z</time>
      </trkpt>
      <trkpt lat="45.36492" lon="1.21164">
        <ele>273.5</ele>
        <time>2011-05-02T14:04:34Z</time>
      </trkpt>
      <trkpt lat="45.3649" lon="1.21174">
        <ele>272.200012</ele>
        <time>2011-05-02T14:04:35Z</time>
      </trkpt>
      <trkpt lat="45.36488" lon="1.21183">
        <ele>271.200012</ele>
        <time>2011-05-02T14:04:36Z</time>
      </trkpt>
      <trkpt lat="45.36484" lon="1.2119">
        <ele>270.299988</ele>
        <time>2011-05-02T14:04:37Z</time>
      </trkpt>
      <trkpt lat="45.36481" lon="1.21197">
        <ele>269.700012</ele>
        <time>2011-05-02T14:04:38Z</time>
      </trkpt>
      <trkpt lat="45.36477" lon="1.21202">
        <ele>268.299988</ele>
        <time>2011-05-02T14:04:39Z</time>
      </trkpt>
      <trkpt lat="45.36474" lon="1.21207">
        <ele>267.299988</ele>
        <time>2011-05-02T14:04:40Z</time>
      </trkpt>
      <trkpt lat="45.36472" lon="1.21213">
        <ele>266.600006</ele>
        <time>2011-05-02T14:04:41Z</time>
      </trkpt>
      <trkpt lat="45.36472" lon="1.21221">
        <ele>265.799988</ele>
        <time>2011-05-02T14:04:42Z</time>
      </trkpt>
      <trkpt lat="45.36474" lon="1.21228">
        <ele>265.200012</ele>
        <time>2011-05-02T14:04:43Z</time>
      </trkpt>
      <trkpt lat="45.36476" lon="1.21236">
        <ele>264.600006</ele>
        <time>2011-05-02T14:04:44Z</time>
      </trkpt>
      <trkpt lat="45.36478" lon="1.21243">
        <ele>264.100006</ele>
        <time>2011-05-02T14:04:45Z</time>
      </trkpt>
      <trkpt lat="45.36481" lon="1.21249">
        <ele>263.700012</ele>
        <time>2011-05-02T14:04:46Z</time>
      </trkpt>
      <trkpt lat="45.36486" lon="1.21259">
        <ele>262.399994</ele>
        <time>2011-05-02T14:04:49Z</time>
      </trkpt>
      <trkpt lat="45.36488" lon="1.21271">
        <ele>260.899994</ele>
        <time>2011-05-02T14:04:58Z</time>
      </trkpt>
      <trkpt lat="45.36488" lon="1.21283">
        <ele>260.600006</ele>
        <time>2011-05-02T14:05:10Z</time>
      </trkpt>
      <trkpt lat="45.36487" lon="1.21295">
        <ele>261.399994</ele>
        <time>2011-05-02T14:05:27Z</time>
      </trkpt>
      <trkpt lat="45.36494" lon="1.21304">
        <ele>261.100006</ele>
        <time>2011-05-02T14:06:01Z</time>
      </trkpt>
      <trkpt lat="45.36494" lon="1.21304">
        <ele>261</ele>
        <time>2011-05-02T14:06:02Z</time>
      </trkpt>
      <trkpt lat="45.36501" lon="1.21322">
        <ele>260.399994</ele>
        <time>2011-05-02T14:06:35Z</time>
      </trkpt>
      <trkpt lat="45.36505" lon="1.2133">
        <ele>260.399994</ele>
        <time>2011-05-02T14:06:38Z</time>
      </trkpt>
      <trkpt lat="45.36509" lon="1.21342">
        <ele>260.399994</ele>
        <time>2011-05-02T14:06:42Z</time>
      </trkpt>
      <trkpt lat="45.36506" lon="1.21352">
        <ele>260.299988</ele>
        <time>2011-05-02T14:06:45Z</time>
      </trkpt>
      <trkpt lat="45.365" lon="1.21361">
        <ele>260.200012</ele>
        <time>2011-05-02T14:06:51Z</time>
      </trkpt>
      <trkpt lat="45.36497" lon="1.21371">
        <ele>260.200012</ele>
        <time>2011-05-02T14:06:54Z</time>
      </trkpt>
      <trkpt lat="45.36494" lon="1.21381">
        <ele>259.700012</ele>
        <time>2011-05-02T14:06:56Z</time>
      </trkpt>
      <trkpt lat="45.36491" lon="1.21387">
        <ele>259.100006</ele>
        <time>2011-05-02T14:06:57Z</time>
      </trkpt>
      <trkpt lat="45.3649" lon="1.21393">
        <ele>258.600006</ele>
        <time>2011-05-02T14:06:58Z</time>
      </trkpt>
      <trkpt lat="45.36487" lon="1.21399">
        <ele>258.299988</ele>
        <time>2011-05-02T14:06:59Z</time>
      </trkpt>
      <trkpt lat="45.36484" lon="1.21406">
        <ele>258</ele>
        <time>2011-05-02T14:07:00Z</time>
      </trkpt>
      <trkpt lat="45.36481" lon="1.21413">
        <ele>257.899994</ele>
        <time>2011-05-02T14:07:01Z</time>
      </trkpt>
      <trkpt lat="45.36477" lon="1.21421">
        <ele>257</ele>
        <time>2011-05-02T14:07:02Z</time>
      </trkpt>
      <trkpt lat="45.36473" lon="1.21428">
        <ele>256.299988</ele>
        <time>2011-05-02T14:07:03Z</time>
      </trkpt>
      <trkpt lat="45.36469" lon="1.21434">
        <ele>255.399994</ele>
        <time>2011-05-02T14:07:04Z</time>
      </trkpt>
      <trkpt lat="45.36466" lon="1.2144">
        <ele>254.600006</ele>
        <time>2011-05-02T14:07:05Z</time>
      </trkpt>
      <trkpt lat="45.36463" lon="1.21446">
        <ele>254.100006</ele>
        <time>2011-05-02T14:07:06Z</time>
      </trkpt>
      <trkpt lat="45.36463" lon="1.21453">
        <ele>253.5</ele>
        <time>2011-05-02T14:07:07Z</time>
      </trkpt>
      <trkpt lat="45.36461" lon="1.21461">
        <ele>253.100006</ele>
        <time>2011-05-02T14:07:08Z</time>
      </trkpt>
      <trkpt lat="45.36463" lon="1.21468">
        <ele>252.5</ele>
        <time>2011-05-02T14:07:09Z</time>
      </trkpt>
      <trkpt lat="45.36467" lon="1.21474">
        <ele>252</ele>
        <time>2011-05-02T14:07:10Z</time>
      </trkpt>
      <trkpt lat="45.36472" lon="1.21479">
        <ele>251.399994</ele>
        <time>2011-05-02T14:07:11Z</time>
      </trkpt>
      <trkpt lat="45.36477" lon="1.21482">
        <ele>251</ele>
        <time>2011-05-02T14:07:12Z</time>
      </trkpt>
      <trkpt lat="45.36482" lon="1.21485">
        <ele>250.699997</ele>
        <time>2011-05-02T14:07:13Z</time>
      </trkpt>
      <trkpt lat="45.36488" lon="1.21486">
        <ele>249.800003</ele>
        <time>2011-05-02T14:07:14Z</time>
      </trkpt>
      <trkpt lat="45.36496" lon="1.21489">
        <ele>248</ele>
        <time>2011-05-02T14:07:16Z</time>
      </trkpt>
      <trkpt lat="45.36494" lon="1.21499">
        <ele>245.300003</ele>
        <time>2011-05-02T14:07:21Z</time>
      </trkpt>
      <trkpt lat="45.36488" lon="1.21502">
        <ele>244.5</ele>
        <time>2011-05-02T14:07:23Z</time>
      </trkpt>
      <trkpt lat="45.3648" lon="1.21506">
        <ele>243.699997</ele>
        <time>2011-05-02T14:07:25Z</time>
      </trkpt>
      <trkpt lat="45.36472" lon="1.21508">
        <ele>242.800003</ele>
        <time>2011-05-02T14:07:27Z</time>
      </trkpt>
      <trkpt lat="45.36473" lon="1.2152">
        <ele>239.800003</ele>
        <time>2011-05-02T14:07:34Z</time>
      </trkpt>
      <trkpt lat="45.36481" lon="1.21524">
        <ele>239.399994</ele>
        <time>2011-05-02T14:07:36Z</time>
      </trkpt>
      <trkpt lat="45.36489" lon="1.21527">
        <ele>238.5</ele>
        <time>2011-05-02T14:07:38Z</time>
      </trkpt>
      <trkpt lat="45.36495" lon="1.21534">
        <ele>237.600006</ele>
        <time>2011-05-02T14:07:41Z</time>
      </trkpt>
      <trkpt lat="45.36492" lon="1.21542">
        <ele>237</ele>
        <time>2011-05-02T14:07:43Z</time>
      </trkpt>
      <trkpt lat="45.36488" lon="1.2155">
        <ele>235.899994</ele>
        <time>2011-05-02T14:07:45Z</time>
      </trkpt>
      <trkpt lat="45.36487" lon="1.21561">
        <ele>235.100006</ele>
        <time>2011-05-02T14:07:48Z</time>
      </trkpt>
      <trkpt lat="45.36487" lon="1.21573">
        <ele>234.300003</ele>
        <time>2011-05-02T14:07:52Z</time>
      </trkpt>
      <trkpt lat="45.36487" lon="1.21585">
        <ele>235.199997</ele>
        <time>2011-05-02T14:07:56Z</time>
      </trkpt>
      <trkpt lat="45.36487" lon="1.21595">
        <ele>234.899994</ele>
        <time>2011-05-02T14:07:59Z</time>
      </trkpt>
      <trkpt lat="45.3648" lon="1.21601">
        <ele>234</ele>
        <time>2011-05-02T14:08:04Z</time>
      </trkpt>
      <trkpt lat="45.36478" lon="1.21602">
        <ele>233.899994</ele>
        <time>2011-05-02T14:08:05Z</time>
      </trkpt>
      <trkpt lat="45.36465" lon="1.21607">
        <ele>233.800003</ele>
        <time>2011-05-02T14:08:11Z</time>
      </trkpt>
      <trkpt lat="45.36457" lon="1.21607">
        <ele>233.699997</ele>
        <time>2011-05-02T14:08:16Z</time>
      </trkpt>
      <trkpt lat="45.36449" lon="1.21603">
        <ele>233.800003</ele>
        <time>2011-05-02T14:08:20Z</time>
      </trkpt>
      <trkpt lat="45.36442" lon="1.216">
        <ele>234.100006</ele>
        <time>2011-05-02T14:08:23Z</time>
      </trkpt>
      <trkpt lat="45.36434" lon="1.21596">
        <ele>233.5</ele>
        <time>2011-05-02T14:08:28Z</time>
      </trkpt>
      <trkpt lat="45.36425" lon="1.21592">
        <ele>235.699997</ele>
        <time>2011-05-02T14:08:36Z</time>
      </trkpt>
      <trkpt lat="45.36417" lon="1.21588">
        <ele>237.399994</ele>
        <time>2011-05-02T14:08:43Z</time>
      </trkpt>
      <trkpt lat="45.36411" lon="1.2158">
        <ele>240.100006</ele>
        <time>2011-05-02T14:08:57Z</time>
      </trkpt>
      <trkpt lat="45.36406" lon="1.21571">
        <ele>240.800003</ele>
        <time>2011-05-02T14:09:06Z</time>
      </trkpt>
      <trkpt lat="45.36405" lon="1.21569">
        <ele>240.800003</ele>
        <time>2011-05-02T14:09:07Z</time>
      </trkpt>
      <trkpt lat="45.36394" lon="1.21556">
        <ele>240.699997</ele>
        <time>2011-05-02T14:09:16Z</time>
      </trkpt>
      <trkpt lat="45.3639" lon="1.21547">
        <ele>240</ele>
        <time>2011-05-02T14:09:19Z</time>
      </trkpt>
      <trkpt lat="45.36384" lon="1.21539">
        <ele>239.199997</ele>
        <time>2011-05-02T14:09:23Z</time>
      </trkpt>
      <trkpt lat="45.36375" lon="1.21538">
        <ele>239.199997</ele>
        <time>2011-05-02T14:09:30Z</time>
      </trkpt>
      <trkpt lat="45.36369" lon="1.2153">
        <ele>239.600006</ele>
        <time>2011-05-02T14:09:35Z</time>
      </trkpt>
      <trkpt lat="45.36362" lon="1.21523">
        <ele>237.699997</ele>
        <time>2011-05-02T14:09:38Z</time>
      </trkpt>
      <trkpt lat="45.36355" lon="1.21521">
        <ele>237.100006</ele>
        <time>2011-05-02T14:09:40Z</time>
      </trkpt>
      <trkpt lat="45.36348" lon="1.21521">
        <ele>234.800003</ele>
        <time>2011-05-02T14:09:42Z</time>
      </trkpt>
      <trkpt lat="45.36341" lon="1.21525">
        <ele>234.800003</ele>
        <time>2011-05-02T14:09:45Z</time>
      </trkpt>
      <trkpt lat="45.36333" lon="1.2153">
        <ele>235.300003</ele>
        <time>2011-05-02T14:09:49Z</time>
      </trkpt>
      <trkpt lat="45.36325" lon="1.21533">
        <ele>236.100006</ele>
        <time>2011-05-02T14:09:54Z</time>
      </trkpt>
      <trkpt lat="45.36317" lon="1.21537">
        <ele>237.5</ele>
        <time>2011-05-02T14:09:58Z</time>
      </trkpt>
      <trkpt lat="45.36309" lon="1.21542">
        <ele>238.100006</ele>
        <time>2011-05-02T14:10:02Z</time>
      </trkpt>
      <trkpt lat="45.36302" lon="1.21546">
        <ele>239.100006</ele>
        <time>2011-05-02T14:10:07Z</time>
      </trkpt>
      <trkpt lat="45.36295" lon="1.21554">
        <ele>240.100006</ele>
        <time>2011-05-02T14:10:14Z</time>
      </trkpt>
      <trkpt lat="45.36294" lon="1.21556">
        <ele>240</ele>
        <time>2011-05-02T14:10:15Z</time>
      </trkpt>
      <trkpt lat="45.36281" lon="1.21567">
        <ele>240.800003</ele>
        <time>2011-05-02T14:10:24Z</time>
      </trkpt>
      <trkpt lat="45.36274" lon="1.21572">
        <ele>241.699997</ele>
        <time>2011-05-02T14:10:28Z</time>
      </trkpt>
      <trkpt lat="45.36269" lon="1.21579">
        <ele>242.5</ele>
        <time>2011-05-02T14:10:32Z</time>
      </trkpt>
      <trkpt lat="45.36263" lon="1.21586">
        <ele>243.199997</ele>
        <time>2011-05-02T14:10:36Z</time>
      </trkpt>
      <trkpt lat="45.36258" lon="1.21593">
        <ele>243.600006</ele>
        <time>2011-05-02T14:10:40Z</time>
      </trkpt>
      <trkpt lat="45.36253" lon="1.21601">
        <ele>244.199997</ele>
        <time>2011-05-02T14:10:44Z</time>
      </trkpt>
      <trkpt lat="45.36248" lon="1.21609">
        <ele>245.699997</ele>
        <time>2011-05-02T14:10:48Z</time>
      </trkpt>
      <trkpt lat="45.36243" lon="1.21618">
        <ele>246.300003</ele>
        <time>2011-05-02T14:10:53Z</time>
      </trkpt>
      <trkpt lat="45.36238" lon="1.21627">
        <ele>247.5</ele>
        <time>2011-05-02T14:10:58Z</time>
      </trkpt>
      <trkpt lat="45.36233" lon="1.21637">
        <ele>248.600006</ele>
        <time>2011-05-02T14:11:03Z</time>
      </trkpt>
      <trkpt lat="45.3623" lon="1.21647">
        <ele>249</ele>
        <time>2011-05-02T14:11:08Z</time>
      </trkpt>
      <trkpt lat="45.36229" lon="1.2166">
        <ele>250.600006</ele>
        <time>2011-05-02T14:11:14Z</time>
      </trkpt>
      <trkpt lat="45.36232" lon="1.21671">
        <ele>252.399994</ele>
        <time>2011-05-02T14:11:20Z</time>
      </trkpt>
      <trkpt lat="45.36233" lon="1.21672">
        <ele>252.5</ele>
        <time>2011-05-02T14:11:21Z</time>
      </trkpt>
      <trkpt lat="45.36248" lon="1.21671">
        <ele>254.600006</ele>
        <time>2011-05-02T14:11:32Z</time>
      </trkpt>
      <trkpt lat="45.36256" lon="1.21667">
        <ele>255.800003</ele>
        <time>2011-05-02T14:11:38Z</time>
      </trkpt>
      <trkpt lat="45.36264" lon="1.21666">
        <ele>257.299988</ele>
        <time>2011-05-02T14:11:43Z</time>
      </trkpt>
      <trkpt lat="45.36272" lon="1.21664">
        <ele>258.399994</ele>
        <time>2011-05-02T14:11:48Z</time>
      </trkpt>
      <trkpt lat="45.36281" lon="1.21662">
        <ele>258.600006</ele>
        <time>2011-05-02T14:11:53Z</time>
      </trkpt>
      <trkpt lat="45.3629" lon="1.2166">
        <ele>259.5</ele>
        <time>2011-05-02T14:11:58Z</time>
      </trkpt>
      <trkpt lat="45.36299" lon="1.21659">
        <ele>260.899994</ele>
        <time>2011-05-02T14:12:03Z</time>
      </trkpt>
      <trkpt lat="45.36307" lon="1.2166">
        <ele>261.700012</ele>
        <time>2011-05-02T14:12:08Z</time>
      </trkpt>
      <trkpt lat="45.36314" lon="1.21667">
        <ele>263.299988</ele>
        <time>2011-05-02T14:12:13Z</time>
      </trkpt>
      <trkpt lat="45.36317" lon="1.21677">
        <ele>265.200012</ele>
        <time>2011-05-02T14:12:18Z</time>
      </trkpt>
      <trkpt lat="45.3632" lon="1.21687">
        <ele>266.399994</ele>
        <time>2011-05-02T14:12:23Z</time>
      </trkpt>
      <trkpt lat="45.3632" lon="1.21689">
        <ele>266.600006</ele>
        <time>2011-05-02T14:12:24Z</time>
      </trkpt>
      <trkpt lat="45.36326" lon="1.2171">
        <ele>268.399994</ele>
        <time>2011-05-02T14:12:33Z</time>
      </trkpt>
      <trkpt lat="45.36329" lon="1.21721">
        <ele>267.799988</ele>
        <time>2011-05-02T14:12:38Z</time>
      </trkpt>
      <trkpt lat="45.36333" lon="1.21732">
        <ele>269.299988</ele>
        <time>2011-05-02T14:12:43Z</time>
      </trkpt>
      <trkpt lat="45.36336" lon="1.21744">
        <ele>270.299988</ele>
        <time>2011-05-02T14:12:48Z</time>
      </trkpt>
      <trkpt lat="45.36341" lon="1.21755">
        <ele>271.799988</ele>
        <time>2011-05-02T14:12:53Z</time>
      </trkpt>
      <trkpt lat="45.36347" lon="1.21762">
        <ele>272.5</ele>
        <time>2011-05-02T14:12:58Z</time>
      </trkpt>
      <trkpt lat="45.36352" lon="1.2177">
        <ele>272.5</ele>
        <time>2011-05-02T14:13:02Z</time>
      </trkpt>
      <trkpt lat="45.36358" lon="1.21779">
        <ele>274</ele>
        <time>2011-05-02T14:13:07Z</time>
      </trkpt>
      <trkpt lat="45.36363" lon="1.21789">
        <ele>275.200012</ele>
        <time>2011-05-02T14:13:12Z</time>
      </trkpt>
      <trkpt lat="45.36369" lon="1.21798">
        <ele>277.100006</ele>
        <time>2011-05-02T14:13:17Z</time>
      </trkpt>
      <trkpt lat="45.36374" lon="1.21808">
        <ele>278.799988</ele>
        <time>2011-05-02T14:13:22Z</time>
      </trkpt>
      <trkpt lat="45.36378" lon="1.21818">
        <ele>279.200012</ele>
        <time>2011-05-02T14:13:27Z</time>
      </trkpt>
      <trkpt lat="45.36379" lon="1.2182">
        <ele>279.200012</ele>
        <time>2011-05-02T14:13:28Z</time>
      </trkpt>
      <trkpt lat="45.36387" lon="1.21839">
        <ele>280.200012</ele>
        <time>2011-05-02T14:13:37Z</time>
      </trkpt>
      <trkpt lat="45.36389" lon="1.21851">
        <ele>281.299988</ele>
        <time>2011-05-02T14:13:42Z</time>
      </trkpt>
      <trkpt lat="45.36395" lon="1.21858">
        <ele>282.200012</ele>
        <time>2011-05-02T14:13:47Z</time>
      </trkpt>
      <trkpt lat="45.36403" lon="1.21861">
        <ele>282.5</ele>
        <time>2011-05-02T14:13:50Z</time>
      </trkpt>
      <trkpt lat="45.3641" lon="1.21864">
        <ele>282.200012</ele>
        <time>2011-05-02T14:13:52Z</time>
      </trkpt>
      <trkpt lat="45.36418" lon="1.21866">
        <ele>281.600006</ele>
        <time>2011-05-02T14:13:54Z</time>
      </trkpt>
      <trkpt lat="45.36426" lon="1.21869">
        <ele>281.399994</ele>
        <time>2011-05-02T14:13:56Z</time>
      </trkpt>
      <trkpt lat="45.36433" lon="1.21872">
        <ele>281.399994</ele>
        <time>2011-05-02T14:13:58Z</time>
      </trkpt>
      <trkpt lat="45.36441" lon="1.21874">
        <ele>281.200012</ele>
        <time>2011-05-02T14:14:00Z</time>
      </trkpt>
      <trkpt lat="45.36448" lon="1.21875">
        <ele>281.100006</ele>
        <time>2011-05-02T14:14:02Z</time>
      </trkpt>
      <trkpt lat="45.36455" lon="1.21875">
        <ele>281.200012</ele>
        <time>2011-05-02T14:14:04Z</time>
      </trkpt>
      <trkpt lat="45.36461" lon="1.21875">
        <ele>281.299988</ele>
        <time>2011-05-02T14:14:06Z</time>
      </trkpt>
      <trkpt lat="45.36469" lon="1.21874">
        <ele>282</ele>
        <time>2011-05-02T14:14:09Z</time>
      </trkpt>
      <trkpt lat="45.36475" lon="1.21874">
        <ele>282.100006</ele>
        <time>2011-05-02T14:14:11Z</time>
      </trkpt>
      <trkpt lat="45.36483" lon="1.21876">
        <ele>282.799988</ele>
        <time>2011-05-02T14:14:14Z</time>
      </trkpt>
      <trkpt lat="45.3649" lon="1.21878">
        <ele>283.799988</ele>
        <time>2011-05-02T14:14:17Z</time>
      </trkpt>
      <trkpt lat="45.36499" lon="1.21881">
        <ele>284.600006</ele>
        <time>2011-05-02T14:14:21Z</time>
      </trkpt>
      <trkpt lat="45.36506" lon="1.21883">
        <ele>285.100006</ele>
        <time>2011-05-02T14:14:24Z</time>
      </trkpt>
      <trkpt lat="45.36514" lon="1.21886">
        <ele>285.700012</ele>
        <time>2011-05-02T14:14:28Z</time>
      </trkpt>
      <trkpt lat="45.36522" lon="1.21889">
        <ele>287.299988</ele>
        <time>2011-05-02T14:14:32Z</time>
      </trkpt>
      <trkpt lat="45.36524" lon="1.2189">
        <ele>287.299988</ele>
        <time>2011-05-02T14:14:33Z</time>
      </trkpt>
      <trkpt lat="45.36533" lon="1.21904">
        <ele>289.600006</ele>
        <time>2011-05-02T14:14:40Z</time>
      </trkpt>
      <trkpt lat="45.36536" lon="1.21914">
        <ele>289.899994</ele>
        <time>2011-05-02T14:14:44Z</time>
      </trkpt>
      <trkpt lat="45.3654" lon="1.21925">
        <ele>291.200012</ele>
        <time>2011-05-02T14:14:49Z</time>
      </trkpt>
      <trkpt lat="45.36544" lon="1.21934">
        <ele>291.899994</ele>
        <time>2011-05-02T14:14:53Z</time>
      </trkpt>
      <trkpt lat="45.36547" lon="1.21943">
        <ele>293.299988</ele>
        <time>2011-05-02T14:14:57Z</time>
      </trkpt>
      <trkpt lat="45.36551" lon="1.21952">
        <ele>293.700012</ele>
        <time>2011-05-02T14:15:01Z</time>
      </trkpt>
      <trkpt lat="45.36555" lon="1.21961">
        <ele>293.700012</ele>
        <time>2011-05-02T14:15:05Z</time>
      </trkpt>
      <trkpt lat="45.36559" lon="1.21971">
        <ele>295.100006</ele>
        <time>2011-05-02T14:15:09Z</time>
      </trkpt>
      <trkpt lat="45.36563" lon="1.21981">
        <ele>295.299988</ele>
        <time>2011-05-02T14:15:13Z</time>
      </trkpt>
      <trkpt lat="45.36566" lon="1.21991">
        <ele>295.799988</ele>
        <time>2011-05-02T14:15:17Z</time>
      </trkpt>
      <trkpt lat="45.36568" lon="1.22001">
        <ele>295.799988</ele>
        <time>2011-05-02T14:15:21Z</time>
      </trkpt>
      <trkpt lat="45.36571" lon="1.22013">
        <ele>297.100006</ele>
        <time>2011-05-02T14:15:26Z</time>
      </trkpt>
      <trkpt lat="45.36578" lon="1.22013">
        <ele>296.399994</ele>
        <time>2011-05-02T14:15:31Z</time>
      </trkpt>
      <trkpt lat="45.36585" lon="1.22011">
        <ele>296.600006</ele>
        <time>2011-05-02T14:15:34Z</time>
      </trkpt>
      <trkpt lat="45.36588" lon="1.22011">
        <ele>296.799988</ele>
        <time>2011-05-02T14:15:35Z</time>
      </trkpt>
      <trkpt lat="45.366" lon="1.22008">
        <ele>296.799988</ele>
        <time>2011-05-02T14:15:39Z</time>
      </trkpt>
      <trkpt lat="45.36604" lon="1.22006">
        <ele>296.899994</ele>
        <time>2011-05-02T14:15:40Z</time>
      </trkpt>
      <trkpt lat="45.36609" lon="1.22004">
        <ele>296.299988</ele>
        <time>2011-05-02T14:15:41Z</time>
      </trkpt>
      <trkpt lat="45.36614" lon="1.22003">
        <ele>295.799988</ele>
        <time>2011-05-02T14:15:42Z</time>
      </trkpt>
      <trkpt lat="45.36619" lon="1.22001">
        <ele>295.5</ele>
        <time>2011-05-02T14:15:43Z</time>
      </trkpt>
      <trkpt lat="45.36625" lon="1.22">
        <ele>295.200012</ele>
        <time>2011-05-02T14:15:44Z</time>
      </trkpt>
      <trkpt lat="45.3663" lon="1.21998">
        <ele>295.100006</ele>
        <time>2011-05-02T14:15:45Z</time>
      </trkpt>
      <trkpt lat="45.36636" lon="1.21996">
        <ele>295</ele>
        <time>2011-05-02T14:15:46Z</time>
      </trkpt>
      <trkpt lat="45.36642" lon="1.21996">
        <ele>294.899994</ele>
        <time>2011-05-02T14:15:47Z</time>
      </trkpt>
      <trkpt lat="45.36648" lon="1.21996">
        <ele>294.799988</ele>
        <time>2011-05-02T14:15:48Z</time>
      </trkpt>
      <trkpt lat="45.36654" lon="1.21998">
        <ele>294.5</ele>
        <time>2011-05-02T14:15:49Z</time>
      </trkpt>
      <trkpt lat="45.3666" lon="1.22001">
        <ele>294.200012</ele>
        <time>2011-05-02T14:15:50Z</time>
      </trkpt>
      <trkpt lat="45.36666" lon="1.22005">
        <ele>294</ele>
        <time>2011-05-02T14:15:51Z</time>
      </trkpt>
      <trkpt lat="45.36672" lon="1.2201">
        <ele>293.799988</ele>
        <time>2011-05-02T14:15:52Z</time>
      </trkpt>
      <trkpt lat="45.36678" lon="1.22015">
        <ele>293.899994</ele>
        <time>2011-05-02T14:15:53Z</time>
      </trkpt>
      <trkpt lat="45.36684" lon="1.2202">
        <ele>293.899994</ele>
        <time>2011-05-02T14:15:54Z</time>
      </trkpt>
      <trkpt lat="45.3669" lon="1.22026">
        <ele>293.899994</ele>
        <time>2011-05-02T14:15:55Z</time>
      </trkpt>
      <trkpt lat="45.36697" lon="1.22031">
        <ele>293.600006</ele>
        <time>2011-05-02T14:15:56Z</time>
      </trkpt>
      <trkpt lat="45.36704" lon="1.22037">
        <ele>293.299988</ele>
        <time>2011-05-02T14:15:57Z</time>
      </trkpt>
      <trkpt lat="45.36711" lon="1.22043">
        <ele>292.5</ele>
        <time>2011-05-02T14:15:58Z</time>
      </trkpt>
      <trkpt lat="45.36717" lon="1.22048">
        <ele>291.899994</ele>
        <time>2011-05-02T14:15:59Z</time>
      </trkpt>
      <trkpt lat="45.36723" lon="1.22053">
        <ele>291.100006</ele>
        <time>2011-05-02T14:16:00Z</time>
      </trkpt>
      <trkpt lat="45.3673" lon="1.22058">
        <ele>290.600006</ele>
        <time>2011-05-02T14:16:01Z</time>
      </trkpt>
      <trkpt lat="45.36736" lon="1.22063">
        <ele>290.100006</ele>
        <time>2011-05-02T14:16:02Z</time>
      </trkpt>
      <trkpt lat="45.3674" lon="1.22068">
        <ele>289.799988</ele>
        <time>2011-05-02T14:16:03Z</time>
      </trkpt>
      <trkpt lat="45.36746" lon="1.22075">
        <ele>289.299988</ele>
        <time>2011-05-02T14:16:05Z</time>
      </trkpt>
      <trkpt lat="45.36749" lon="1.22081">
        <ele>289.100006</ele>
        <time>2011-05-02T14:16:06Z</time>
      </trkpt>
      <trkpt lat="45.36752" lon="1.22087">
        <ele>288.899994</ele>
        <time>2011-05-02T14:16:07Z</time>
      </trkpt>
      <trkpt lat="45.36756" lon="1.22094">
        <ele>289</ele>
        <time>2011-05-02T14:16:08Z</time>
      </trkpt>
      <trkpt lat="45.36759" lon="1.22101">
        <ele>289.100006</ele>
        <time>2011-05-02T14:16:09Z</time>
      </trkpt>
      <trkpt lat="45.36762" lon="1.22109">
        <ele>288.600006</ele>
        <time>2011-05-02T14:16:10Z</time>
      </trkpt>
      <trkpt lat="45.36764" lon="1.22117">
        <ele>288.299988</ele>
        <time>2011-05-02T14:16:11Z</time>
      </trkpt>
      <trkpt lat="45.36767" lon="1.22126">
        <ele>288.100006</ele>
        <time>2011-05-02T14:16:12Z</time>
      </trkpt>
      <trkpt lat="45.36768" lon="1.22136">
        <ele>288</ele>
        <time>2011-05-02T14:16:13Z</time>
      </trkpt>
      <trkpt lat="45.3677" lon="1.22145">
        <ele>287.899994</ele>
        <time>2011-05-02T14:16:14Z</time>
      </trkpt>
      <trkpt lat="45.36772" lon="1.22153">
        <ele>287</ele>
        <time>2011-05-02T14:16:15Z</time>
      </trkpt>
      <trkpt lat="45.36775" lon="1.22161">
        <ele>286.200012</ele>
        <time>2011-05-02T14:16:16Z</time>
      </trkpt>
      <trkpt lat="45.36779" lon="1.22169">
        <ele>285.200012</ele>
        <time>2011-05-02T14:16:17Z</time>
      </trkpt>
      <trkpt lat="45.36782" lon="1.22178">
        <ele>284.5</ele>
        <time>2011-05-02T14:16:18Z</time>
      </trkpt>
      <trkpt lat="45.36785" lon="1.22187">
        <ele>283.600006</ele>
        <time>2011-05-02T14:16:19Z</time>
      </trkpt>
      <trkpt lat="45.36788" lon="1.22195">
        <ele>283</ele>
        <time>2011-05-02T14:16:20Z</time>
      </trkpt>
      <trkpt lat="45.36789" lon="1.22204">
        <ele>282.5</ele>
        <time>2011-05-02T14:16:21Z</time>
      </trkpt>
      <trkpt lat="45.36791" lon="1.22212">
        <ele>281.899994</ele>
        <time>2011-05-02T14:16:22Z</time>
      </trkpt>
      <trkpt lat="45.36794" lon="1.22222">
        <ele>281.399994</ele>
        <time>2011-05-02T14:16:23Z</time>
      </trkpt>
      <trkpt lat="45.36795" lon="1.22232">
        <ele>280.700012</ele>
        <time>2011-05-02T14:16:24Z</time>
      </trkpt>
      <trkpt lat="45.36797" lon="1.22243">
        <ele>280.200012</ele>
        <time>2011-05-02T14:16:25Z</time>
      </trkpt>
      <trkpt lat="45.36799" lon="1.22254">
        <ele>279.799988</ele>
        <time>2011-05-02T14:16:26Z</time>
      </trkpt>
      <trkpt lat="45.36802" lon="1.22264">
        <ele>279.399994</ele>
        <time>2011-05-02T14:16:27Z</time>
      </trkpt>
      <trkpt lat="45.36806" lon="1.22273">
        <ele>279</ele>
        <time>2011-05-02T14:16:28Z</time>
      </trkpt>
      <trkpt lat="45.3681" lon="1.22281">
        <ele>278.100006</ele>
        <time>2011-05-02T14:16:29Z</time>
      </trkpt>
      <trkpt lat="45.36814" lon="1.22289">
        <ele>277.399994</ele>
        <time>2011-05-02T14:16:30Z</time>
      </trkpt>
      <trkpt lat="45.36819" lon="1.22297">
        <ele>277</ele>
        <time>2011-05-02T14:16:31Z</time>
      </trkpt>
      <trkpt lat="45.36824" lon="1.22305">
        <ele>276.600006</ele>
        <time>2011-05-02T14:16:32Z</time>
      </trkpt>
      <trkpt lat="45.36828" lon="1.22313">
        <ele>276.299988</ele>
        <time>2011-05-02T14:16:33Z</time>
      </trkpt>
      <trkpt lat="45.36832" lon="1.2232">
        <ele>276</ele>
        <time>2011-05-02T14:16:34Z</time>
      </trkpt>
      <trkpt lat="45.36837" lon="1.22327">
        <ele>275.700012</ele>
        <time>2011-05-02T14:16:35Z</time>
      </trkpt>
      <trkpt lat="45.3684" lon="1.22334">
        <ele>275.100006</ele>
        <time>2011-05-02T14:16:36Z</time>
      </trkpt>
      <trkpt lat="45.36844" lon="1.22342">
        <ele>274.700012</ele>
        <time>2011-05-02T14:16:37Z</time>
      </trkpt>
      <trkpt lat="45.36846" lon="1.22349">
        <ele>274</ele>
        <time>2011-05-02T14:16:38Z</time>
      </trkpt>
      <trkpt lat="45.36848" lon="1.22357">
        <ele>273.5</ele>
        <time>2011-05-02T14:16:39Z</time>
      </trkpt>
      <trkpt lat="45.36851" lon="1.22364">
        <ele>273.200012</ele>
        <time>2011-05-02T14:16:40Z</time>
      </trkpt>
      <trkpt lat="45.36853" lon="1.22372">
        <ele>272.299988</ele>
        <time>2011-05-02T14:16:41Z</time>
      </trkpt>
      <trkpt lat="45.36855" lon="1.22379">
        <ele>271.700012</ele>
        <time>2011-05-02T14:16:42Z</time>
      </trkpt>
      <trkpt lat="45.36856" lon="1.22386">
        <ele>271.399994</ele>
        <time>2011-05-02T14:16:43Z</time>
      </trkpt>
      <trkpt lat="45.36856" lon="1.22394">
        <ele>271.100006</ele>
        <time>2011-05-02T14:16:44Z</time>
      </trkpt>
      <trkpt lat="45.36855" lon="1.22402">
        <ele>270.899994</ele>
        <time>2011-05-02T14:16:45Z</time>
      </trkpt>
      <trkpt lat="45.36853" lon="1.22409">
        <ele>270.600006</ele>
        <time>2011-05-02T14:16:46Z</time>
      </trkpt>
      <trkpt lat="45.36851" lon="1.22415">
        <ele>270.399994</ele>
        <time>2011-05-02T14:16:47Z</time>
      </trkpt>
      <trkpt lat="45.36846" lon="1.22423">
        <ele>269.799988</ele>
        <time>2011-05-02T14:16:49Z</time>
      </trkpt>
      <trkpt lat="45.3684" lon="1.2243">
        <ele>269.100006</ele>
        <time>2011-05-02T14:16:52Z</time>
      </trkpt>
      <trkpt lat="45.36839" lon="1.22442">
        <ele>268</ele>
        <time>2011-05-02T14:16:55Z</time>
      </trkpt>
      <trkpt lat="45.3684" lon="1.22454">
        <ele>266.399994</ele>
        <time>2011-05-02T14:16:58Z</time>
      </trkpt>
      <trkpt lat="45.36842" lon="1.22466">
        <ele>265.5</ele>
        <time>2011-05-02T14:17:01Z</time>
      </trkpt>
      <trkpt lat="45.36846" lon="1.22474">
        <ele>265.200012</ele>
        <time>2011-05-02T14:17:03Z</time>
      </trkpt>
      <trkpt lat="45.3685" lon="1.22483">
        <ele>264.899994</ele>
        <time>2011-05-02T14:17:05Z</time>
      </trkpt>
      <trkpt lat="45.36853" lon="1.22492">
        <ele>264.399994</ele>
        <time>2011-05-02T14:17:07Z</time>
      </trkpt>
      <trkpt lat="45.36857" lon="1.22501">
        <ele>264.299988</ele>
        <time>2011-05-02T14:17:09Z</time>
      </trkpt>
      <trkpt lat="45.36856" lon="1.22512">
        <ele>264.5</ele>
        <time>2011-05-02T14:17:11Z</time>
      </trkpt>
      <trkpt lat="45.36855" lon="1.22522">
        <ele>264.5</ele>
        <time>2011-05-02T14:17:13Z</time>
      </trkpt>
      <trkpt lat="45.36856" lon="1.22531">
        <ele>264.5</ele>
        <time>2011-05-02T14:17:15Z</time>
      </trkpt>
      <trkpt lat="45.36856" lon="1.22541">
        <ele>264</ele>
        <time>2011-05-02T14:17:17Z</time>
      </trkpt>
      <trkpt lat="45.36856" lon="1.22552">
        <ele>263.600006</ele>
        <time>2011-05-02T14:17:19Z</time>
      </trkpt>
      <trkpt lat="45.36855" lon="1.22564">
        <ele>263.200012</ele>
        <time>2011-05-02T14:17:21Z</time>
      </trkpt>
      <trkpt lat="45.36852" lon="1.22573">
        <ele>262.799988</ele>
        <time>2011-05-02T14:17:23Z</time>
      </trkpt>
      <trkpt lat="45.3685" lon="1.22579">
        <ele>263</ele>
        <time>2011-05-02T14:17:24Z</time>
      </trkpt>
      <trkpt lat="45.36848" lon="1.22586">
        <ele>263.100006</ele>
        <time>2011-05-02T14:17:25Z</time>
      </trkpt>
      <trkpt lat="45.36848" lon="1.22598">
        <ele>262.700012</ele>
        <time>2011-05-02T14:17:27Z</time>
      </trkpt>
      <trkpt lat="45.36849" lon="1.22605">
        <ele>262.799988</ele>
        <time>2011-05-02T14:17:28Z</time>
      </trkpt>
      <trkpt lat="45.36849" lon="1.22611">
        <ele>262.799988</ele>
        <time>2011-05-02T14:17:29Z</time>
      </trkpt>
      <trkpt lat="45.3685" lon="1.22618">
        <ele>262.899994</ele>
        <time>2011-05-02T14:17:30Z</time>
      </trkpt>
      <trkpt lat="45.3685" lon="1.22625">
        <ele>262.899994</ele>
        <time>2011-05-02T14:17:31Z</time>
      </trkpt>
      <trkpt lat="45.36851" lon="1.22631">
        <ele>263</ele>
        <time>2011-05-02T14:17:32Z</time>
      </trkpt>
      <trkpt lat="45.36851" lon="1.22639">
        <ele>262.399994</ele>
        <time>2011-05-02T14:17:33Z</time>
      </trkpt>
      <trkpt lat="45.36851" lon="1.22646">
        <ele>262</ele>
        <time>2011-05-02T14:17:34Z</time>
      </trkpt>
      <trkpt lat="45.36851" lon="1.22654">
        <ele>261.700012</ele>
        <time>2011-05-02T14:17:35Z</time>
      </trkpt>
      <trkpt lat="45.3685" lon="1.22664">
        <ele>261.5</ele>
        <time>2011-05-02T14:17:36Z</time>
      </trkpt>
      <trkpt lat="45.3685" lon="1.22673">
        <ele>261.399994</ele>
        <time>2011-05-02T14:17:37Z</time>
      </trkpt>
      <trkpt lat="45.36851" lon="1.22683">
        <ele>260.700012</ele>
        <time>2011-05-02T14:17:38Z</time>
      </trkpt>
      <trkpt lat="45.36852" lon="1.22692">
        <ele>260.200012</ele>
        <time>2011-05-02T14:17:39Z</time>
      </trkpt>
      <trkpt lat="45.36853" lon="1.22701">
        <ele>260.299988</ele>
        <time>2011-05-02T14:17:40Z</time>
      </trkpt>
      <trkpt lat="45.36854" lon="1.22709">
        <ele>260.299988</ele>
        <time>2011-05-02T14:17:41Z</time>
      </trkpt>
      <trkpt lat="45.36854" lon="1.22717">
        <ele>260.100006</ele>
        <time>2011-05-02T14:17:42Z</time>
      </trkpt>
      <trkpt lat="45.36856" lon="1.22726">
        <ele>259.899994</ele>
        <time>2011-05-02T14:17:43Z</time>
      </trkpt>
      <trkpt lat="45.36857" lon="1.22734">
        <ele>259.799988</ele>
        <time>2011-05-02T14:17:44Z</time>
      </trkpt>
      <trkpt lat="45.36858" lon="1.22743">
        <ele>259.600006</ele>
        <time>2011-05-02T14:17:45Z</time>
      </trkpt>
      <trkpt lat="45.36859" lon="1.22752">
        <ele>259.5</ele>
        <time>2011-05-02T14:17:46Z</time>
      </trkpt>
      <trkpt lat="45.3686" lon="1.2276">
        <ele>258.700012</ele>
        <time>2011-05-02T14:17:47Z</time>
      </trkpt>
      <trkpt lat="45.36861" lon="1.2277">
        <ele>258.200012</ele>
        <time>2011-05-02T14:17:48Z</time>
      </trkpt>
      <trkpt lat="45.36862" lon="1.22779">
        <ele>257.799988</ele>
        <time>2011-05-02T14:17:49Z</time>
      </trkpt>
      <trkpt lat="45.36862" lon="1.22788">
        <ele>257.799988</ele>
        <time>2011-05-02T14:17:50Z</time>
      </trkpt>
      <trkpt lat="45.36862" lon="1.22798">
        <ele>257.700012</ele>
        <time>2011-05-02T14:17:51Z</time>
      </trkpt>
      <trkpt lat="45.36862" lon="1.22806">
        <ele>257.799988</ele>
        <time>2011-05-02T14:17:52Z</time>
      </trkpt>
      <trkpt lat="45.36861" lon="1.22813">
        <ele>257.899994</ele>
        <time>2011-05-02T14:17:53Z</time>
      </trkpt>
      <trkpt lat="45.36859" lon="1.22821">
        <ele>258.200012</ele>
        <time>2011-05-02T14:17:54Z</time>
      </trkpt>
      <trkpt lat="45.36859" lon="1.22829">
        <ele>258.5</ele>
        <time>2011-05-02T14:17:55Z</time>
      </trkpt>
      <trkpt lat="45.36859" lon="1.22836">
        <ele>258.700012</ele>
        <time>2011-05-02T14:17:56Z</time>
      </trkpt>
      <trkpt lat="45.36861" lon="1.22844">
        <ele>258.600006</ele>
        <time>2011-05-02T14:17:57Z</time>
      </trkpt>
      <trkpt lat="45.36863" lon="1.22851">
        <ele>258.5</ele>
        <time>2011-05-02T14:17:58Z</time>
      </trkpt>
      <trkpt lat="45.36865" lon="1.22859">
        <ele>258.5</ele>
        <time>2011-05-02T14:17:59Z</time>
      </trkpt>
      <trkpt lat="45.36867" lon="1.22868">
        <ele>258.600006</ele>
        <time>2011-05-02T14:18:00Z</time>
      </trkpt>
      <trkpt lat="45.36869" lon="1.22876">
        <ele>258.299988</ele>
        <time>2011-05-02T14:18:01Z</time>
      </trkpt>
      <trkpt lat="45.36871" lon="1.22885">
        <ele>258.100006</ele>
        <time>2011-05-02T14:18:02Z</time>
      </trkpt>
      <trkpt lat="45.36872" lon="1.22893">
        <ele>257.899994</ele>
        <time>2011-05-02T14:18:03Z</time>
      </trkpt>
      <trkpt lat="45.36874" lon="1.22903">
        <ele>257.5</ele>
        <time>2011-05-02T14:18:04Z</time>
      </trkpt>
      <trkpt lat="45.36875" lon="1.22912">
        <ele>257.200012</ele>
        <time>2011-05-02T14:18:05Z</time>
      </trkpt>
      <trkpt lat="45.36878" lon="1.22922">
        <ele>256.799988</ele>
        <time>2011-05-02T14:18:06Z</time>
      </trkpt>
      <trkpt lat="45.3688" lon="1.2293">
        <ele>256.5</ele>
        <time>2011-05-02T14:18:07Z</time>
      </trkpt>
      <trkpt lat="45.36884" lon="1.22939">
        <ele>256.200012</ele>
        <time>2011-05-02T14:18:08Z</time>
      </trkpt>
      <trkpt lat="45.36888" lon="1.22949">
        <ele>255.5</ele>
        <time>2011-05-02T14:18:09Z</time>
      </trkpt>
      <trkpt lat="45.36893" lon="1.22959">
        <ele>254.899994</ele>
        <time>2011-05-02T14:18:10Z</time>
      </trkpt>
      <trkpt lat="45.36898" lon="1.22969">
        <ele>254.600006</ele>
        <time>2011-05-02T14:18:11Z</time>
      </trkpt>
      <trkpt lat="45.36904" lon="1.22979">
        <ele>254.399994</ele>
        <time>2011-05-02T14:18:12Z</time>
      </trkpt>
      <trkpt lat="45.36909" lon="1.2299">
        <ele>253.5</ele>
        <time>2011-05-02T14:18:13Z</time>
      </trkpt>
      <trkpt lat="45.36917" lon="1.23">
        <ele>252.899994</ele>
        <time>2011-05-02T14:18:14Z</time>
      </trkpt>
      <trkpt lat="45.36924" lon="1.23009">
        <ele>252.399994</ele>
        <time>2011-05-02T14:18:15Z</time>
      </trkpt>
      <trkpt lat="45.36932" lon="1.23018">
        <ele>251.800003</ele>
        <time>2011-05-02T14:18:16Z</time>
      </trkpt>
      <trkpt lat="45.3694" lon="1.23027">
        <ele>251.399994</ele>
        <time>2011-05-02T14:18:17Z</time>
      </trkpt>
      <trkpt lat="45.36947" lon="1.23035">
        <ele>250.300003</ele>
        <time>2011-05-02T14:18:18Z</time>
      </trkpt>
      <trkpt lat="45.36954" lon="1.23043">
        <ele>249.600006</ele>
        <time>2011-05-02T14:18:19Z</time>
      </trkpt>
      <trkpt lat="45.36957" lon="1.23051">
        <ele>248.699997</ele>
        <time>2011-05-02T14:18:20Z</time>
      </trkpt>
      <trkpt lat="45.3696" lon="1.23063">
        <ele>247.5</ele>
        <time>2011-05-02T14:18:22Z</time>
      </trkpt>
      <trkpt lat="45.36961" lon="1.23069">
        <ele>247</ele>
        <time>2011-05-02T14:18:23Z</time>
      </trkpt>
      <trkpt lat="45.36965" lon="1.23081">
        <ele>245.800003</ele>
        <time>2011-05-02T14:18:25Z</time>
      </trkpt>
      <trkpt lat="45.3697" lon="1.23086">
        <ele>245.300003</ele>
        <time>2011-05-02T14:18:26Z</time>
      </trkpt>
      <trkpt lat="45.36975" lon="1.23091">
        <ele>244.899994</ele>
        <time>2011-05-02T14:18:27Z</time>
      </trkpt>
      <trkpt lat="45.36979" lon="1.23097">
        <ele>244</ele>
        <time>2011-05-02T14:18:28Z</time>
      </trkpt>
      <trkpt lat="45.36984" lon="1.23103">
        <ele>243.399994</ele>
        <time>2011-05-02T14:18:29Z</time>
      </trkpt>
      <trkpt lat="45.36989" lon="1.23112">
        <ele>242.300003</ele>
        <time>2011-05-02T14:18:31Z</time>
      </trkpt>
      <trkpt lat="45.36995" lon="1.23122">
        <ele>242.5</ele>
        <time>2011-05-02T14:18:34Z</time>
      </trkpt>
      <trkpt lat="45.36999" lon="1.2313">
        <ele>242.5</ele>
        <time>2011-05-02T14:18:37Z</time>
      </trkpt>
      <trkpt lat="45.37003" lon="1.23139">
        <ele>243.699997</ele>
        <time>2011-05-02T14:18:41Z</time>
      </trkpt>
      <trkpt lat="45.37003" lon="1.23142">
        <ele>244.300003</ele>
        <time>2011-05-02T14:18:42Z</time>
      </trkpt>
      <trkpt lat="45.37008" lon="1.23162">
        <ele>247.100006</ele>
        <time>2011-05-02T14:18:51Z</time>
      </trkpt>
      <trkpt lat="45.37011" lon="1.23172">
        <ele>246.699997</ele>
        <time>2011-05-02T14:18:55Z</time>
      </trkpt>
      <trkpt lat="45.37014" lon="1.23183">
        <ele>247.399994</ele>
        <time>2011-05-02T14:18:59Z</time>
      </trkpt>
      <trkpt lat="45.37018" lon="1.23194">
        <ele>248.100006</ele>
        <time>2011-05-02T14:19:03Z</time>
      </trkpt>
      <trkpt lat="45.3702" lon="1.23204">
        <ele>248.5</ele>
        <time>2011-05-02T14:19:06Z</time>
      </trkpt>
      <trkpt lat="45.37021" lon="1.23214">
        <ele>248.699997</ele>
        <time>2011-05-02T14:19:09Z</time>
      </trkpt>
      <trkpt lat="45.37022" lon="1.23224">
        <ele>248.5</ele>
        <time>2011-05-02T14:19:12Z</time>
      </trkpt>
      <trkpt lat="45.37023" lon="1.23234">
        <ele>249.5</ele>
        <time>2011-05-02T14:19:15Z</time>
      </trkpt>
      <trkpt lat="45.37025" lon="1.23245">
        <ele>249.300003</ele>
        <time>2011-05-02T14:19:18Z</time>
      </trkpt>
      <trkpt lat="45.37026" lon="1.23256">
        <ele>250.300003</ele>
        <time>2011-05-02T14:19:21Z</time>
      </trkpt>
      <trkpt lat="45.37028" lon="1.23267">
        <ele>249.699997</ele>
        <time>2011-05-02T14:19:24Z</time>
      </trkpt>
      <trkpt lat="45.3703" lon="1.23277">
        <ele>250</ele>
        <time>2011-05-02T14:19:27Z</time>
      </trkpt>
      <trkpt lat="45.37032" lon="1.23287">
        <ele>250.5</ele>
        <time>2011-05-02T14:19:30Z</time>
      </trkpt>
      <trkpt lat="45.37034" lon="1.23297">
        <ele>250.699997</ele>
        <time>2011-05-02T14:19:33Z</time>
      </trkpt>
      <trkpt lat="45.37035" lon="1.23309">
        <ele>251.199997</ele>
        <time>2011-05-02T14:19:37Z</time>
      </trkpt>
      <trkpt lat="45.37035" lon="1.2332">
        <ele>252</ele>
        <time>2011-05-02T14:19:41Z</time>
      </trkpt>
      <trkpt lat="45.37036" lon="1.23332">
        <ele>253.399994</ele>
        <time>2011-05-02T14:19:46Z</time>
      </trkpt>
      <trkpt lat="45.37036" lon="1.23334">
        <ele>253.699997</ele>
        <time>2011-05-02T14:19:47Z</time>
      </trkpt>
      <trkpt lat="45.37042" lon="1.23353">
        <ele>255.600006</ele>
        <time>2011-05-02T14:19:57Z</time>
      </trkpt>
      <trkpt lat="45.37045" lon="1.23359">
        <ele>255.800003</ele>
        <time>2011-05-02T14:19:59Z</time>
      </trkpt>
      <trkpt lat="45.37049" lon="1.23366">
        <ele>255.199997</ele>
        <time>2011-05-02T14:20:01Z</time>
      </trkpt>
      <trkpt lat="45.37055" lon="1.23376">
        <ele>253.399994</ele>
        <time>2011-05-02T14:20:04Z</time>
      </trkpt>
      <trkpt lat="45.37061" lon="1.23384">
        <ele>252.399994</ele>
        <time>2011-05-02T14:20:06Z</time>
      </trkpt>
      <trkpt lat="45.37064" lon="1.23388">
        <ele>251.399994</ele>
        <time>2011-05-02T14:20:07Z</time>
      </trkpt>
      <trkpt lat="45.37068" lon="1.23393">
        <ele>250.600006</ele>
        <time>2011-05-02T14:20:08Z</time>
      </trkpt>
      <trkpt lat="45.37074" lon="1.23397">
        <ele>249.199997</ele>
        <time>2011-05-02T14:20:10Z</time>
      </trkpt>
      <trkpt lat="45.37081" lon="1.23402">
        <ele>248.100006</ele>
        <time>2011-05-02T14:20:12Z</time>
      </trkpt>
      <trkpt lat="45.37087" lon="1.2341">
        <ele>247.5</ele>
        <time>2011-05-02T14:20:14Z</time>
      </trkpt>
      <trkpt lat="45.3709" lon="1.23414">
        <ele>247.399994</ele>
        <time>2011-05-02T14:20:15Z</time>
      </trkpt>
      <trkpt lat="45.37096" lon="1.23424">
        <ele>247.300003</ele>
        <time>2011-05-02T14:20:17Z</time>
      </trkpt>
      <trkpt lat="45.37097" lon="1.23434">
        <ele>247.100006</ele>
        <time>2011-05-02T14:20:19Z</time>
      </trkpt>
      <trkpt lat="45.37098" lon="1.23443">
        <ele>246.899994</ele>
        <time>2011-05-02T14:20:21Z</time>
      </trkpt>
      <trkpt lat="45.371" lon="1.23452">
        <ele>246.899994</ele>
        <time>2011-05-02T14:20:23Z</time>
      </trkpt>
      <trkpt lat="45.37103" lon="1.23462">
        <ele>246.399994</ele>
        <time>2011-05-02T14:20:25Z</time>
      </trkpt>
      <trkpt lat="45.37106" lon="1.23473">
        <ele>246.100006</ele>
        <time>2011-05-02T14:20:27Z</time>
      </trkpt>
      <trkpt lat="45.3711" lon="1.23482">
        <ele>245.800003</ele>
        <time>2011-05-02T14:20:29Z</time>
      </trkpt>
      <trkpt lat="45.37112" lon="1.23492">
        <ele>245.699997</ele>
        <time>2011-05-02T14:20:31Z</time>
      </trkpt>
      <trkpt lat="45.37111" lon="1.23503">
        <ele>244.899994</ele>
        <time>2011-05-02T14:20:33Z</time>
      </trkpt>
      <trkpt lat="45.3711" lon="1.23514">
        <ele>243.199997</ele>
        <time>2011-05-02T14:20:36Z</time>
      </trkpt>
      <trkpt lat="45.37114" lon="1.23526">
        <ele>241.899994</ele>
        <time>2011-05-02T14:20:41Z</time>
      </trkpt>
      <trkpt lat="45.37119" lon="1.23534">
        <ele>241.100006</ele>
        <time>2011-05-02T14:20:45Z</time>
      </trkpt>
      <trkpt lat="45.37123" lon="1.23544">
        <ele>242.100006</ele>
        <time>2011-05-02T14:20:52Z</time>
      </trkpt>
      <trkpt lat="45.37124" lon="1.23546">
        <ele>242.300003</ele>
        <time>2011-05-02T14:20:53Z</time>
      </trkpt>
      <trkpt lat="45.37134" lon="1.23564">
        <ele>243.199997</ele>
        <time>2011-05-02T14:21:25Z</time>
      </trkpt>
      <trkpt lat="45.37136" lon="1.23575">
        <ele>244.600006</ele>
        <time>2011-05-02T14:21:43Z</time>
      </trkpt>
      <trkpt lat="45.37133" lon="1.23586">
        <ele>245.300003</ele>
        <time>2011-05-02T14:21:50Z</time>
      </trkpt>
      <trkpt lat="45.37129" lon="1.23596">
        <ele>246.899994</ele>
        <time>2011-05-02T14:21:56Z</time>
      </trkpt>
      <trkpt lat="45.37128" lon="1.23598">
        <ele>247.399994</ele>
        <time>2011-05-02T14:21:57Z</time>
      </trkpt>
      <trkpt lat="45.37122" lon="1.23619">
        <ele>249.399994</ele>
        <time>2011-05-02T14:22:09Z</time>
      </trkpt>
      <trkpt lat="45.37119" lon="1.2363">
        <ele>251.5</ele>
        <time>2011-05-02T14:22:15Z</time>
      </trkpt>
      <trkpt lat="45.37118" lon="1.23641">
        <ele>253.5</ele>
        <time>2011-05-02T14:22:22Z</time>
      </trkpt>
      <trkpt lat="45.37118" lon="1.23652">
        <ele>254.399994</ele>
        <time>2011-05-02T14:22:29Z</time>
      </trkpt>
      <trkpt lat="45.37118" lon="1.23664">
        <ele>255.399994</ele>
        <time>2011-05-02T14:22:35Z</time>
      </trkpt>
      <trkpt lat="45.37119" lon="1.23675">
        <ele>257.600006</ele>
        <time>2011-05-02T14:22:43Z</time>
      </trkpt>
      <trkpt lat="45.37117" lon="1.23687">
        <ele>258.600006</ele>
        <time>2011-05-02T14:22:49Z</time>
      </trkpt>
      <trkpt lat="45.37116" lon="1.237">
        <ele>259.899994</ele>
        <time>2011-05-02T14:22:56Z</time>
      </trkpt>
      <trkpt lat="45.37114" lon="1.23711">
        <ele>262.200012</ele>
        <time>2011-05-02T14:23:02Z</time>
      </trkpt>
      <trkpt lat="45.37114" lon="1.23713">
        <ele>262.399994</ele>
        <time>2011-05-02T14:23:03Z</time>
      </trkpt>
      <trkpt lat="45.37108" lon="1.23731">
        <ele>264.299988</ele>
        <time>2011-05-02T14:23:13Z</time>
      </trkpt>
      <trkpt lat="45.371" lon="1.23726">
        <ele>268.299988</ele>
        <time>2011-05-02T14:23:34Z</time>
      </trkpt>
      <trkpt lat="45.37095" lon="1.23716">
        <ele>269.600006</ele>
        <time>2011-05-02T14:23:42Z</time>
      </trkpt>
      <trkpt lat="45.37089" lon="1.23707">
        <ele>271.399994</ele>
        <time>2011-05-02T14:23:49Z</time>
      </trkpt>
      <trkpt lat="45.3708" lon="1.23706">
        <ele>274.200012</ele>
        <time>2011-05-02T14:23:58Z</time>
      </trkpt>
      <trkpt lat="45.37072" lon="1.23707">
        <ele>275.600006</ele>
        <time>2011-05-02T14:24:06Z</time>
      </trkpt>
      <trkpt lat="45.37071" lon="1.23707">
        <ele>275.799988</ele>
        <time>2011-05-02T14:24:07Z</time>
      </trkpt>
      <trkpt lat="45.37058" lon="1.23716">
        <ele>277.600006</ele>
        <time>2011-05-02T14:24:17Z</time>
      </trkpt>
      <trkpt lat="45.37051" lon="1.23721">
        <ele>278.200012</ele>
        <time>2011-05-02T14:24:21Z</time>
      </trkpt>
      <trkpt lat="45.37044" lon="1.23726">
        <ele>279.299988</ele>
        <time>2011-05-02T14:24:25Z</time>
      </trkpt>
      <trkpt lat="45.37038" lon="1.23732">
        <ele>280.5</ele>
        <time>2011-05-02T14:24:30Z</time>
      </trkpt>
      <trkpt lat="45.37031" lon="1.2374">
        <ele>282.100006</ele>
        <time>2011-05-02T14:24:36Z</time>
      </trkpt>
      <trkpt lat="45.37025" lon="1.23747">
        <ele>282.600006</ele>
        <time>2011-05-02T14:24:42Z</time>
      </trkpt>
      <trkpt lat="45.3702" lon="1.23756">
        <ele>284.700012</ele>
        <time>2011-05-02T14:24:47Z</time>
      </trkpt>
      <trkpt lat="45.37016" lon="1.23767">
        <ele>286.899994</ele>
        <time>2011-05-02T14:24:52Z</time>
      </trkpt>
      <trkpt lat="45.37013" lon="1.23778">
        <ele>288.200012</ele>
        <time>2011-05-02T14:24:58Z</time>
      </trkpt>
      <trkpt lat="45.3701" lon="1.23789">
        <ele>289.700012</ele>
        <time>2011-05-02T14:25:05Z</time>
      </trkpt>
      <trkpt lat="45.37009" lon="1.23802">
        <ele>291.700012</ele>
        <time>2011-05-02T14:25:11Z</time>
      </trkpt>
      <trkpt lat="45.37009" lon="1.23804">
        <ele>292</ele>
        <time>2011-05-02T14:25:12Z</time>
      </trkpt>
      <trkpt lat="45.37008" lon="1.23826">
        <ele>295</ele>
        <time>2011-05-02T14:25:24Z</time>
      </trkpt>
      <trkpt lat="45.37009" lon="1.23839">
        <ele>296.799988</ele>
        <time>2011-05-02T14:25:31Z</time>
      </trkpt>
      <trkpt lat="45.3701" lon="1.23851">
        <ele>297.899994</ele>
        <time>2011-05-02T14:25:37Z</time>
      </trkpt>
      <trkpt lat="45.37011" lon="1.23862">
        <ele>298.600006</ele>
        <time>2011-05-02T14:25:42Z</time>
      </trkpt>
      <trkpt lat="45.37012" lon="1.23874">
        <ele>299.600006</ele>
        <time>2011-05-02T14:25:48Z</time>
      </trkpt>
      <trkpt lat="45.37012" lon="1.23885">
        <ele>300.600006</ele>
        <time>2011-05-02T14:25:53Z</time>
      </trkpt>
      <trkpt lat="45.37011" lon="1.23896">
        <ele>302.600006</ele>
        <time>2011-05-02T14:25:58Z</time>
      </trkpt>
      <trkpt lat="45.3701" lon="1.23909">
        <ele>302.899994</ele>
        <time>2011-05-02T14:26:03Z</time>
      </trkpt>
      <trkpt lat="45.37009" lon="1.23921">
        <ele>303.100006</ele>
        <time>2011-05-02T14:26:08Z</time>
      </trkpt>
      <trkpt lat="45.37007" lon="1.23932">
        <ele>303.5</ele>
        <time>2011-05-02T14:26:14Z</time>
      </trkpt>
      <trkpt lat="45.37007" lon="1.23934">
        <ele>303.899994</ele>
        <time>2011-05-02T14:26:15Z</time>
      </trkpt>
      <trkpt lat="45.37005" lon="1.23957">
        <ele>306.200012</ele>
        <time>2011-05-02T14:26:28Z</time>
      </trkpt>
      <trkpt lat="45.37002" lon="1.23967">
        <ele>306.799988</ele>
        <time>2011-05-02T14:26:33Z</time>
      </trkpt>
      <trkpt lat="45.36999" lon="1.23977">
        <ele>307.399994</ele>
        <time>2011-05-02T14:26:38Z</time>
      </trkpt>
      <trkpt lat="45.36996" lon="1.23987">
        <ele>308.100006</ele>
        <time>2011-05-02T14:26:42Z</time>
      </trkpt>
      <trkpt lat="45.36994" lon="1.23999">
        <ele>309.200012</ele>
        <time>2011-05-02T14:26:47Z</time>
      </trkpt>
      <trkpt lat="45.3699" lon="1.2401">
        <ele>311</ele>
        <time>2011-05-02T14:26:51Z</time>
      </trkpt>
      <trkpt lat="45.36986" lon="1.24022">
        <ele>311.299988</ele>
        <time>2011-05-02T14:26:55Z</time>
      </trkpt>
      <trkpt lat="45.36984" lon="1.24031">
        <ele>311.600006</ele>
        <time>2011-05-02T14:26:58Z</time>
      </trkpt>
      <trkpt lat="45.36983" lon="1.24041">
        <ele>312.399994</ele>
        <time>2011-05-02T14:27:01Z</time>
      </trkpt>
      <trkpt lat="45.36984" lon="1.24051">
        <ele>313.600006</ele>
        <time>2011-05-02T14:27:04Z</time>
      </trkpt>
      <trkpt lat="45.36984" lon="1.24061">
        <ele>314.799988</ele>
        <time>2011-05-02T14:27:07Z</time>
      </trkpt>
      <trkpt lat="45.36984" lon="1.24071">
        <ele>315.899994</ele>
        <time>2011-05-02T14:27:10Z</time>
      </trkpt>
      <trkpt lat="45.36984" lon="1.24083">
        <ele>316.399994</ele>
        <time>2011-05-02T14:27:14Z</time>
      </trkpt>
      <trkpt lat="45.36982" lon="1.24094">
        <ele>317.600006</ele>
        <time>2011-05-02T14:27:18Z</time>
      </trkpt>
      <trkpt lat="45.36982" lon="1.24097">
        <ele>317.799988</ele>
        <time>2011-05-02T14:27:19Z</time>
      </trkpt>
      <trkpt lat="45.36978" lon="1.24115">
        <ele>320.100006</ele>
        <time>2011-05-02T14:27:27Z</time>
      </trkpt>
      <trkpt lat="45.36972" lon="1.24124">
        <ele>321.5</ele>
        <time>2011-05-02T14:27:33Z</time>
      </trkpt>
      <trkpt lat="45.36967" lon="1.24133">
        <ele>323.200012</ele>
        <time>2011-05-02T14:27:39Z</time>
      </trkpt>
      <trkpt lat="45.36961" lon="1.24142">
        <ele>323.700012</ele>
        <time>2011-05-02T14:27:46Z</time>
      </trkpt>
      <trkpt lat="45.36958" lon="1.24151">
        <ele>324.700012</ele>
        <time>2011-05-02T14:27:51Z</time>
      </trkpt>
      <trkpt lat="45.36956" lon="1.24162">
        <ele>325.899994</ele>
        <time>2011-05-02T14:27:56Z</time>
      </trkpt>
      <trkpt lat="45.36953" lon="1.24173">
        <ele>327.100006</ele>
        <time>2011-05-02T14:28:01Z</time>
      </trkpt>
      <trkpt lat="45.3695" lon="1.24184">
        <ele>327.799988</ele>
        <time>2011-05-02T14:28:06Z</time>
      </trkpt>
      <trkpt lat="45.3695" lon="1.24196">
        <ele>329.700012</ele>
        <time>2011-05-02T14:28:11Z</time>
      </trkpt>
      <trkpt lat="45.36953" lon="1.24206">
        <ele>330.899994</ele>
        <time>2011-05-02T14:28:16Z</time>
      </trkpt>
      <trkpt lat="45.36958" lon="1.24216">
        <ele>331.899994</ele>
        <time>2011-05-02T14:28:23Z</time>
      </trkpt>
      <trkpt lat="45.36958" lon="1.24218">
        <ele>331.899994</ele>
        <time>2011-05-02T14:28:24Z</time>
      </trkpt>
      <trkpt lat="45.36967" lon="1.24236">
        <ele>333</ele>
        <time>2011-05-02T14:28:36Z</time>
      </trkpt>
      <trkpt lat="45.36972" lon="1.24244">
        <ele>334.899994</ele>
        <time>2011-05-02T14:28:41Z</time>
      </trkpt>
      <trkpt lat="45.36978" lon="1.24249">
        <ele>335.799988</ele>
        <time>2011-05-02T14:28:45Z</time>
      </trkpt>
      <trkpt lat="45.36983" lon="1.2426">
        <ele>336.799988</ele>
        <time>2011-05-02T14:28:50Z</time>
      </trkpt>
      <trkpt lat="45.36984" lon="1.24272">
        <ele>338</ele>
        <time>2011-05-02T14:28:56Z</time>
      </trkpt>
      <trkpt lat="45.36987" lon="1.24284">
        <ele>338.299988</ele>
        <time>2011-05-02T14:29:01Z</time>
      </trkpt>
      <trkpt lat="45.36989" lon="1.24296">
        <ele>339.399994</ele>
        <time>2011-05-02T14:29:07Z</time>
      </trkpt>
      <trkpt lat="45.36991" lon="1.24306">
        <ele>340.299988</ele>
        <time>2011-05-02T14:29:12Z</time>
      </trkpt>
      <trkpt lat="45.36993" lon="1.24318">
        <ele>341.5</ele>
        <time>2011-05-02T14:29:18Z</time>
      </trkpt>
      <trkpt lat="45.36994" lon="1.24329">
        <ele>342.799988</ele>
        <time>2011-05-02T14:29:23Z</time>
      </trkpt>
      <trkpt lat="45.36996" lon="1.2434">
        <ele>344.100006</ele>
        <time>2011-05-02T14:29:28Z</time>
      </trkpt>
      <trkpt lat="45.36996" lon="1.24343">
        <ele>344.399994</ele>
        <time>2011-05-02T14:29:29Z</time>
      </trkpt>
      <trkpt lat="45.36998" lon="1.24362">
        <ele>345.200012</ele>
        <time>2011-05-02T14:29:36Z</time>
      </trkpt>
      <trkpt lat="45.36998" lon="1.24373">
        <ele>346.299988</ele>
        <time>2011-05-02T14:29:40Z</time>
      </trkpt>
      <trkpt lat="45.36998" lon="1.24383">
        <ele>347.700012</ele>
        <time>2011-05-02T14:29:44Z</time>
      </trkpt>
      <trkpt lat="45.36998" lon="1.24396">
        <ele>348.899994</ele>
        <time>2011-05-02T14:29:49Z</time>
      </trkpt>
      <trkpt lat="45.36998" lon="1.24408">
        <ele>349.700012</ele>
        <time>2011-05-02T14:29:54Z</time>
      </trkpt>
      <trkpt lat="45.36997" lon="1.24421">
        <ele>350.100006</ele>
        <time>2011-05-02T14:29:59Z</time>
      </trkpt>
      <trkpt lat="45.36996" lon="1.24432">
        <ele>350.600006</ele>
        <time>2011-05-02T14:30:03Z</time>
      </trkpt>
      <trkpt lat="45.36996" lon="1.24444">
        <ele>351</ele>
        <time>2011-05-02T14:30:07Z</time>
      </trkpt>
      <trkpt lat="45.36995" lon="1.24456">
        <ele>352.100006</ele>
        <time>2011-05-02T14:30:11Z</time>
      </trkpt>
      <trkpt lat="45.36994" lon="1.24467">
        <ele>352.200012</ele>
        <time>2011-05-02T14:30:14Z</time>
      </trkpt>
      <trkpt lat="45.36992" lon="1.24477">
        <ele>352</ele>
        <time>2011-05-02T14:30:17Z</time>
      </trkpt>
      <trkpt lat="45.36991" lon="1.24487">
        <ele>352.399994</ele>
        <time>2011-05-02T14:30:20Z</time>
      </trkpt>
      <trkpt lat="45.36989" lon="1.24497">
        <ele>352.799988</ele>
        <time>2011-05-02T14:30:23Z</time>
      </trkpt>
      <trkpt lat="45.36986" lon="1.24506">
        <ele>352.899994</ele>
        <time>2011-05-02T14:30:26Z</time>
      </trkpt>
      <trkpt lat="45.36984" lon="1.24518">
        <ele>353.700012</ele>
        <time>2011-05-02T14:30:30Z</time>
      </trkpt>
      <trkpt lat="45.36983" lon="1.24521">
        <ele>353.799988</ele>
        <time>2011-05-02T14:30:31Z</time>
      </trkpt>
      <trkpt lat="45.3698" lon="1.24537">
        <ele>353.899994</ele>
        <time>2011-05-02T14:30:36Z</time>
      </trkpt>
      <trkpt lat="45.36978" lon="1.24547">
        <ele>354.399994</ele>
        <time>2011-05-02T14:30:39Z</time>
      </trkpt>
      <trkpt lat="45.36977" lon="1.24556">
        <ele>354.5</ele>
        <time>2011-05-02T14:30:42Z</time>
      </trkpt>
      <trkpt lat="45.36975" lon="1.24568">
        <ele>355.299988</ele>
        <time>2011-05-02T14:30:46Z</time>
      </trkpt>
      <trkpt lat="45.36974" lon="1.2458">
        <ele>355.5</ele>
        <time>2011-05-02T14:30:50Z</time>
      </trkpt>
      <trkpt lat="45.36972" lon="1.24589">
        <ele>356.100006</ele>
        <time>2011-05-02T14:30:53Z</time>
      </trkpt>
      <trkpt lat="45.3697" lon="1.24601">
        <ele>356.399994</ele>
        <time>2011-05-02T14:30:57Z</time>
      </trkpt>
      <trkpt lat="45.36968" lon="1.24612">
        <ele>357.600006</ele>
        <time>2011-05-02T14:31:01Z</time>
      </trkpt>
      <trkpt lat="45.36965" lon="1.24624">
        <ele>358.299988</ele>
        <time>2011-05-02T14:31:05Z</time>
      </trkpt>
      <trkpt lat="45.36962" lon="1.24633">
        <ele>358.700012</ele>
        <time>2011-05-02T14:31:08Z</time>
      </trkpt>
      <trkpt lat="45.36959" lon="1.24645">
        <ele>359.700012</ele>
        <time>2011-05-02T14:31:12Z</time>
      </trkpt>
      <trkpt lat="45.36956" lon="1.24654">
        <ele>359.799988</ele>
        <time>2011-05-02T14:31:15Z</time>
      </trkpt>
      <trkpt lat="45.36953" lon="1.24664">
        <ele>360.600006</ele>
        <time>2011-05-02T14:31:18Z</time>
      </trkpt>
      <trkpt lat="45.3695" lon="1.24674">
        <ele>360.399994</ele>
        <time>2011-05-02T14:31:21Z</time>
      </trkpt>
      <trkpt lat="45.36947" lon="1.24684">
        <ele>360.899994</ele>
        <time>2011-05-02T14:31:24Z</time>
      </trkpt>
      <trkpt lat="45.36943" lon="1.24694">
        <ele>361.100006</ele>
        <time>2011-05-02T14:31:27Z</time>
      </trkpt>
      <trkpt lat="45.36941" lon="1.24703">
        <ele>361.899994</ele>
        <time>2011-05-02T14:31:30Z</time>
      </trkpt>
      <trkpt lat="45.36937" lon="1.24713">
        <ele>362.600006</ele>
        <time>2011-05-02T14:31:33Z</time>
      </trkpt>
      <trkpt lat="45.36936" lon="1.24716">
        <ele>362.600006</ele>
        <time>2011-05-02T14:31:34Z</time>
      </trkpt>
      <trkpt lat="45.36932" lon="1.24733">
        <ele>362.799988</ele>
        <time>2011-05-02T14:31:40Z</time>
      </trkpt>
      <trkpt lat="45.36927" lon="1.24742">
        <ele>363.200012</ele>
        <time>2011-05-02T14:31:44Z</time>
      </trkpt>
      <trkpt lat="45.3692" lon="1.24746">
        <ele>362.5</ele>
        <time>2011-05-02T14:31:47Z</time>
      </trkpt>
      <trkpt lat="45.36914" lon="1.24745">
        <ele>362.399994</ele>
        <time>2011-05-02T14:31:49Z</time>
      </trkpt>
      <trkpt lat="45.36908" lon="1.24747">
        <ele>361.899994</ele>
        <time>2011-05-02T14:31:51Z</time>
      </trkpt>
      <trkpt lat="45.36903" lon="1.24756">
        <ele>362.399994</ele>
        <time>2011-05-02T14:31:54Z</time>
      </trkpt>
      <trkpt lat="45.369" lon="1.24768">
        <ele>363.799988</ele>
        <time>2011-05-02T14:31:58Z</time>
      </trkpt>
      <trkpt lat="45.36896" lon="1.24776">
        <ele>364.600006</ele>
        <time>2011-05-02T14:32:02Z</time>
      </trkpt>
      <trkpt lat="45.36894" lon="1.24788">
        <ele>365.5</ele>
        <time>2011-05-02T14:32:06Z</time>
      </trkpt>
      <trkpt lat="45.36892" lon="1.248">
        <ele>366</ele>
        <time>2011-05-02T14:32:10Z</time>
      </trkpt>
      <trkpt lat="45.3689" lon="1.2481">
        <ele>366.299988</ele>
        <time>2011-05-02T14:32:13Z</time>
      </trkpt>
      <trkpt lat="45.36887" lon="1.24819">
        <ele>366.799988</ele>
        <time>2011-05-02T14:32:16Z</time>
      </trkpt>
      <trkpt lat="45.36884" lon="1.24828">
        <ele>366.600006</ele>
        <time>2011-05-02T14:32:19Z</time>
      </trkpt>
      <trkpt lat="45.36881" lon="1.24839">
        <ele>366.700012</ele>
        <time>2011-05-02T14:32:22Z</time>
      </trkpt>
      <trkpt lat="45.36878" lon="1.24851">
        <ele>367.700012</ele>
        <time>2011-05-02T14:32:26Z</time>
      </trkpt>
      <trkpt lat="45.36874" lon="1.24861">
        <ele>367.399994</ele>
        <time>2011-05-02T14:32:30Z</time>
      </trkpt>
      <trkpt lat="45.36869" lon="1.24868">
        <ele>368.200012</ele>
        <time>2011-05-02T14:32:33Z</time>
      </trkpt>
      <trkpt lat="45.36863" lon="1.24875">
        <ele>368.899994</ele>
        <time>2011-05-02T14:32:36Z</time>
      </trkpt>
      <trkpt lat="45.3686" lon="1.24878">
        <ele>369</ele>
        <time>2011-05-02T14:32:37Z</time>
      </trkpt>
      <trkpt lat="45.36849" lon="1.24887">
        <ele>369.100006</ele>
        <time>2011-05-02T14:32:42Z</time>
      </trkpt>
      <trkpt lat="45.36844" lon="1.24892">
        <ele>368.899994</ele>
        <time>2011-05-02T14:32:44Z</time>
      </trkpt>
      <trkpt lat="45.36838" lon="1.24897">
        <ele>368.899994</ele>
        <time>2011-05-02T14:32:46Z</time>
      </trkpt>
      <trkpt lat="45.36833" lon="1.24903">
        <ele>368.5</ele>
        <time>2011-05-02T14:32:48Z</time>
      </trkpt>
      <trkpt lat="45.36826" lon="1.24911">
        <ele>368.700012</ele>
        <time>2011-05-02T14:32:51Z</time>
      </trkpt>
      <trkpt lat="45.36821" lon="1.2492">
        <ele>368.299988</ele>
        <time>2011-05-02T14:32:54Z</time>
      </trkpt>
      <trkpt lat="45.36817" lon="1.24929">
        <ele>368.799988</ele>
        <time>2011-05-02T14:32:57Z</time>
      </trkpt>
      <trkpt lat="45.36813" lon="1.24938">
        <ele>369.100006</ele>
        <time>2011-05-02T14:33:00Z</time>
      </trkpt>
      <trkpt lat="45.36808" lon="1.24946">
        <ele>369.600006</ele>
        <time>2011-05-02T14:33:03Z</time>
      </trkpt>
      <trkpt lat="45.36803" lon="1.24956">
        <ele>370</ele>
        <time>2011-05-02T14:33:06Z</time>
      </trkpt>
      <trkpt lat="45.36798" lon="1.24966">
        <ele>370.700012</ele>
        <time>2011-05-02T14:33:09Z</time>
      </trkpt>
      <trkpt lat="45.36793" lon="1.24975">
        <ele>370.799988</ele>
        <time>2011-05-02T14:33:12Z</time>
      </trkpt>
      <trkpt lat="45.36788" lon="1.24984">
        <ele>371.899994</ele>
        <time>2011-05-02T14:33:15Z</time>
      </trkpt>
      <trkpt lat="45.36783" lon="1.24994">
        <ele>372.399994</ele>
        <time>2011-05-02T14:33:18Z</time>
      </trkpt>
      <trkpt lat="45.36778" lon="1.25003">
        <ele>372.399994</ele>
        <time>2011-05-02T14:33:21Z</time>
      </trkpt>
      <trkpt lat="45.36773" lon="1.25013">
        <ele>371.700012</ele>
        <time>2011-05-02T14:33:24Z</time>
      </trkpt>
      <trkpt lat="45.3677" lon="1.25021">
        <ele>371.5</ele>
        <time>2011-05-02T14:33:26Z</time>
      </trkpt>
      <trkpt lat="45.36767" lon="1.25029">
        <ele>371.899994</ele>
        <time>2011-05-02T14:33:28Z</time>
      </trkpt>
      <trkpt lat="45.36763" lon="1.25037">
        <ele>372.100006</ele>
        <time>2011-05-02T14:33:30Z</time>
      </trkpt>
      <trkpt lat="45.3676" lon="1.25045">
        <ele>372.299988</ele>
        <time>2011-05-02T14:33:32Z</time>
      </trkpt>
      <trkpt lat="45.36757" lon="1.25054">
        <ele>372.5</ele>
        <time>2011-05-02T14:33:34Z</time>
      </trkpt>
      <trkpt lat="45.36755" lon="1.25066">
        <ele>373.100006</ele>
        <time>2011-05-02T14:33:37Z</time>
      </trkpt>
      <trkpt lat="45.36754" lon="1.2507">
        <ele>373.200012</ele>
        <time>2011-05-02T14:33:38Z</time>
      </trkpt>
      <trkpt lat="45.36753" lon="1.25083">
        <ele>373.5</ele>
        <time>2011-05-02T14:33:41Z</time>
      </trkpt>
      <trkpt lat="45.36753" lon="1.25093">
        <ele>373.700012</ele>
        <time>2011-05-02T14:33:43Z</time>
      </trkpt>
      <trkpt lat="45.36754" lon="1.25102">
        <ele>374.100006</ele>
        <time>2011-05-02T14:33:45Z</time>
      </trkpt>
      <trkpt lat="45.36752" lon="1.25115">
        <ele>375.200012</ele>
        <time>2011-05-02T14:33:48Z</time>
      </trkpt>
      <trkpt lat="45.36752" lon="1.25123">
        <ele>375.799988</ele>
        <time>2011-05-02T14:33:50Z</time>
      </trkpt>
      <trkpt lat="45.36751" lon="1.25132">
        <ele>376.200012</ele>
        <time>2011-05-02T14:33:52Z</time>
      </trkpt>
      <trkpt lat="45.36751" lon="1.25142">
        <ele>376.700012</ele>
        <time>2011-05-02T14:33:54Z</time>
      </trkpt>
      <trkpt lat="45.3675" lon="1.25151">
        <ele>376.700012</ele>
        <time>2011-05-02T14:33:56Z</time>
      </trkpt>
      <trkpt lat="45.36748" lon="1.25162">
        <ele>377</ele>
        <time>2011-05-02T14:33:58Z</time>
      </trkpt>
      <trkpt lat="45.36746" lon="1.25173">
        <ele>377</ele>
        <time>2011-05-02T14:34:00Z</time>
      </trkpt>
      <trkpt lat="45.36743" lon="1.25183">
        <ele>376.600006</ele>
        <time>2011-05-02T14:34:02Z</time>
      </trkpt>
      <trkpt lat="45.3674" lon="1.25193">
        <ele>377.600006</ele>
        <time>2011-05-02T14:34:04Z</time>
      </trkpt>
      <trkpt lat="45.36737" lon="1.25203">
        <ele>377.100006</ele>
        <time>2011-05-02T14:34:06Z</time>
      </trkpt>
      <trkpt lat="45.36735" lon="1.25214">
        <ele>377.5</ele>
        <time>2011-05-02T14:34:08Z</time>
      </trkpt>
      <trkpt lat="45.36733" lon="1.25224">
        <ele>377.200012</ele>
        <time>2011-05-02T14:34:10Z</time>
      </trkpt>
      <trkpt lat="45.36731" lon="1.25234">
        <ele>377.200012</ele>
        <time>2011-05-02T14:34:12Z</time>
      </trkpt>
      <trkpt lat="45.3673" lon="1.25244">
        <ele>377.899994</ele>
        <time>2011-05-02T14:34:14Z</time>
      </trkpt>
      <trkpt lat="45.36728" lon="1.25253">
        <ele>378.700012</ele>
        <time>2011-05-02T14:34:16Z</time>
      </trkpt>
      <trkpt lat="45.36727" lon="1.25262">
        <ele>379.399994</ele>
        <time>2011-05-02T14:34:18Z</time>
      </trkpt>
      <trkpt lat="45.36725" lon="1.25273">
        <ele>380.299988</ele>
        <time>2011-05-02T14:34:21Z</time>
      </trkpt>
      <trkpt lat="45.36723" lon="1.25285">
        <ele>380.5</ele>
        <time>2011-05-02T14:34:24Z</time>
      </trkpt>
      <trkpt lat="45.36721" lon="1.25297">
        <ele>380.299988</ele>
        <time>2011-05-02T14:34:27Z</time>
      </trkpt>
      <trkpt lat="45.36717" lon="1.25307">
        <ele>379.899994</ele>
        <time>2011-05-02T14:34:30Z</time>
      </trkpt>
      <trkpt lat="45.36715" lon="1.25317">
        <ele>380.600006</ele>
        <time>2011-05-02T14:34:33Z</time>
      </trkpt>
      <trkpt lat="45.36713" lon="1.25328">
        <ele>380.700012</ele>
        <time>2011-05-02T14:34:36Z</time>
      </trkpt>
      <trkpt lat="45.36711" lon="1.25339">
        <ele>381</ele>
        <time>2011-05-02T14:34:39Z</time>
      </trkpt>
      <trkpt lat="45.3671" lon="1.25342">
        <ele>381.100006</ele>
        <time>2011-05-02T14:34:40Z</time>
      </trkpt>
      <trkpt lat="45.36706" lon="1.25359">
        <ele>382.399994</ele>
        <time>2011-05-02T14:34:46Z</time>
      </trkpt>
      <trkpt lat="45.36705" lon="1.2537">
        <ele>382.899994</ele>
        <time>2011-05-02T14:34:50Z</time>
      </trkpt>
      <trkpt lat="45.36708" lon="1.2538">
        <ele>382.799988</ele>
        <time>2011-05-02T14:34:55Z</time>
      </trkpt>
      <trkpt lat="45.36715" lon="1.25387">
        <ele>384.600006</ele>
        <time>2011-05-02T14:35:02Z</time>
      </trkpt>
      <trkpt lat="45.3672" lon="1.25397">
        <ele>385.5</ele>
        <time>2011-05-02T14:35:08Z</time>
      </trkpt>
      <trkpt lat="45.36725" lon="1.25406">
        <ele>387.200012</ele>
        <time>2011-05-02T14:35:13Z</time>
      </trkpt>
      <trkpt lat="45.3673" lon="1.25416">
        <ele>389</ele>
        <time>2011-05-02T14:35:19Z</time>
      </trkpt>
      <trkpt lat="45.36734" lon="1.25427">
        <ele>389.399994</ele>
        <time>2011-05-02T14:35:24Z</time>
      </trkpt>
      <trkpt lat="45.36735" lon="1.25438">
        <ele>390.299988</ele>
        <time>2011-05-02T14:35:28Z</time>
      </trkpt>
      <trkpt lat="45.36733" lon="1.2545">
        <ele>390.399994</ele>
        <time>2011-05-02T14:35:32Z</time>
      </trkpt>
      <trkpt lat="45.36732" lon="1.25463">
        <ele>391.100006</ele>
        <time>2011-05-02T14:35:36Z</time>
      </trkpt>
      <trkpt lat="45.36729" lon="1.25474">
        <ele>391.799988</ele>
        <time>2011-05-02T14:35:40Z</time>
      </trkpt>
      <trkpt lat="45.36728" lon="1.25477">
        <ele>392</ele>
        <time>2011-05-02T14:35:41Z</time>
      </trkpt>
      <trkpt lat="45.36724" lon="1.25494">
        <ele>391.899994</ele>
        <time>2011-05-02T14:35:47Z</time>
      </trkpt>
      <trkpt lat="45.3672" lon="1.25503">
        <ele>392.5</ele>
        <time>2011-05-02T14:35:50Z</time>
      </trkpt>
      <trkpt lat="45.36715" lon="1.25513">
        <ele>392</ele>
        <time>2011-05-02T14:35:53Z</time>
      </trkpt>
      <trkpt lat="45.36712" lon="1.2552">
        <ele>392.299988</ele>
        <time>2011-05-02T14:35:55Z</time>
      </trkpt>
      <trkpt lat="45.36709" lon="1.25527">
        <ele>392.5</ele>
        <time>2011-05-02T14:35:57Z</time>
      </trkpt>
      <trkpt lat="45.36705" lon="1.25536">
        <ele>392.5</ele>
        <time>2011-05-02T14:35:59Z</time>
      </trkpt>
      <trkpt lat="45.36703" lon="1.25544">
        <ele>392</ele>
        <time>2011-05-02T14:36:01Z</time>
      </trkpt>
      <trkpt lat="45.367" lon="1.25552">
        <ele>391.399994</ele>
        <time>2011-05-02T14:36:03Z</time>
      </trkpt>
      <trkpt lat="45.36697" lon="1.2556">
        <ele>391.600006</ele>
        <time>2011-05-02T14:36:05Z</time>
      </trkpt>
      <trkpt lat="45.36694" lon="1.25568">
        <ele>391.899994</ele>
        <time>2011-05-02T14:36:07Z</time>
      </trkpt>
      <trkpt lat="45.3669" lon="1.25579">
        <ele>392</ele>
        <time>2011-05-02T14:36:10Z</time>
      </trkpt>
      <trkpt lat="45.36686" lon="1.2559">
        <ele>392.700012</ele>
        <time>2011-05-02T14:36:13Z</time>
      </trkpt>
      <trkpt lat="45.36685" lon="1.25602">
        <ele>393.600006</ele>
        <time>2011-05-02T14:36:16Z</time>
      </trkpt>
      <trkpt lat="45.36683" lon="1.25614">
        <ele>394.200012</ele>
        <time>2011-05-02T14:36:19Z</time>
      </trkpt>
      <trkpt lat="45.36681" lon="1.25625">
        <ele>394.799988</ele>
        <time>2011-05-02T14:36:22Z</time>
      </trkpt>
      <trkpt lat="45.36677" lon="1.25634">
        <ele>395</ele>
        <time>2011-05-02T14:36:25Z</time>
      </trkpt>
      <trkpt lat="45.36672" lon="1.25645">
        <ele>395.5</ele>
        <time>2011-05-02T14:36:28Z</time>
      </trkpt>
      <trkpt lat="45.36668" lon="1.25656">
        <ele>396.200012</ele>
        <time>2011-05-02T14:36:31Z</time>
      </trkpt>
      <trkpt lat="45.36666" lon="1.25663">
        <ele>396.600006</ele>
        <time>2011-05-02T14:36:33Z</time>
      </trkpt>
      <trkpt lat="45.36663" lon="1.25671">
        <ele>396.700012</ele>
        <time>2011-05-02T14:36:35Z</time>
      </trkpt>
      <trkpt lat="45.3666" lon="1.2568">
        <ele>396.600006</ele>
        <time>2011-05-02T14:36:37Z</time>
      </trkpt>
      <trkpt lat="45.36658" lon="1.25688">
        <ele>396.899994</ele>
        <time>2011-05-02T14:36:39Z</time>
      </trkpt>
      <trkpt lat="45.36655" lon="1.25696">
        <ele>397.399994</ele>
        <time>2011-05-02T14:36:41Z</time>
      </trkpt>
      <trkpt lat="45.36654" lon="1.257">
        <ele>397.600006</ele>
        <time>2011-05-02T14:36:42Z</time>
      </trkpt>
      <trkpt lat="45.36651" lon="1.25713">
        <ele>397.799988</ele>
        <time>2011-05-02T14:36:45Z</time>
      </trkpt>
      <trkpt lat="45.36649" lon="1.25722">
        <ele>398.5</ele>
        <time>2011-05-02T14:36:47Z</time>
      </trkpt>
      <trkpt lat="45.36646" lon="1.2573">
        <ele>398.5</ele>
        <time>2011-05-02T14:36:49Z</time>
      </trkpt>
      <trkpt lat="45.36644" lon="1.25739">
        <ele>397.799988</ele>
        <time>2011-05-02T14:36:51Z</time>
      </trkpt>
      <trkpt lat="45.36642" lon="1.25748">
        <ele>397.5</ele>
        <time>2011-05-02T14:36:53Z</time>
      </trkpt>
      <trkpt lat="45.36638" lon="1.25756">
        <ele>397.700012</ele>
        <time>2011-05-02T14:36:55Z</time>
      </trkpt>
      <trkpt lat="45.36633" lon="1.25763">
        <ele>397.799988</ele>
        <time>2011-05-02T14:36:57Z</time>
      </trkpt>
      <trkpt lat="45.36629" lon="1.2577">
        <ele>397.100006</ele>
        <time>2011-05-02T14:36:59Z</time>
      </trkpt>
      <trkpt lat="45.36625" lon="1.25777">
        <ele>397.299988</ele>
        <time>2011-05-02T14:37:01Z</time>
      </trkpt>
      <trkpt lat="45.36621" lon="1.25788">
        <ele>397.899994</ele>
        <time>2011-05-02T14:37:04Z</time>
      </trkpt>
      <trkpt lat="45.36617" lon="1.25799">
        <ele>398.899994</ele>
        <time>2011-05-02T14:37:07Z</time>
      </trkpt>
      <trkpt lat="45.36613" lon="1.25809">
        <ele>399.299988</ele>
        <time>2011-05-02T14:37:10Z</time>
      </trkpt>
      <trkpt lat="45.36609" lon="1.25819">
        <ele>399.5</ele>
        <time>2011-05-02T14:37:13Z</time>
      </trkpt>
      <trkpt lat="45.36606" lon="1.25827">
        <ele>400</ele>
        <time>2011-05-02T14:37:15Z</time>
      </trkpt>
      <trkpt lat="45.36603" lon="1.25836">
        <ele>400.5</ele>
        <time>2011-05-02T14:37:17Z</time>
      </trkpt>
      <trkpt lat="45.366" lon="1.25845">
        <ele>400.899994</ele>
        <time>2011-05-02T14:37:19Z</time>
      </trkpt>
      <trkpt lat="45.36597" lon="1.25853">
        <ele>401.100006</ele>
        <time>2011-05-02T14:37:21Z</time>
      </trkpt>
      <trkpt lat="45.36593" lon="1.25861">
        <ele>400.899994</ele>
        <time>2011-05-02T14:37:23Z</time>
      </trkpt>
      <trkpt lat="45.36591" lon="1.25871">
        <ele>400.600006</ele>
        <time>2011-05-02T14:37:25Z</time>
      </trkpt>
      <trkpt lat="45.36588" lon="1.2588">
        <ele>401.200012</ele>
        <time>2011-05-02T14:37:27Z</time>
      </trkpt>
      <trkpt lat="45.36584" lon="1.25889">
        <ele>401.799988</ele>
        <time>2011-05-02T14:37:29Z</time>
      </trkpt>
      <trkpt lat="45.36579" lon="1.25899">
        <ele>401.799988</ele>
        <time>2011-05-02T14:37:31Z</time>
      </trkpt>
      <trkpt lat="45.36574" lon="1.25908">
        <ele>401.899994</ele>
        <time>2011-05-02T14:37:33Z</time>
      </trkpt>
      <trkpt lat="45.36572" lon="1.25914">
        <ele>401.899994</ele>
        <time>2011-05-02T14:37:34Z</time>
      </trkpt>
      <trkpt lat="45.36569" lon="1.25919">
        <ele>401.899994</ele>
        <time>2011-05-02T14:37:35Z</time>
      </trkpt>
      <trkpt lat="45.36567" lon="1.25925">
        <ele>401.899994</ele>
        <time>2011-05-02T14:37:36Z</time>
      </trkpt>
      <trkpt lat="45.36565" lon="1.25931">
        <ele>401.799988</ele>
        <time>2011-05-02T14:37:37Z</time>
      </trkpt>
      <trkpt lat="45.36562" lon="1.25936">
        <ele>401.799988</ele>
        <time>2011-05-02T14:37:38Z</time>
      </trkpt>
      <trkpt lat="45.3656" lon="1.25942">
        <ele>402.100006</ele>
        <time>2011-05-02T14:37:39Z</time>
      </trkpt>
      <trkpt lat="45.36555" lon="1.25952">
        <ele>402.100006</ele>
        <time>2011-05-02T14:37:41Z</time>
      </trkpt>
      <trkpt lat="45.36551" lon="1.25963">
        <ele>402.5</ele>
        <time>2011-05-02T14:37:43Z</time>
      </trkpt>
      <trkpt lat="45.3655" lon="1.25969">
        <ele>402.799988</ele>
        <time>2011-05-02T14:37:44Z</time>
      </trkpt>
      <trkpt lat="45.36545" lon="1.25986">
        <ele>402.799988</ele>
        <time>2011-05-02T14:37:47Z</time>
      </trkpt>
      <trkpt lat="45.36541" lon="1.25996">
        <ele>402.600006</ele>
        <time>2011-05-02T14:37:49Z</time>
      </trkpt>
      <trkpt lat="45.36537" lon="1.26006">
        <ele>402.399994</ele>
        <time>2011-05-02T14:37:51Z</time>
      </trkpt>
      <trkpt lat="45.36532" lon="1.26015">
        <ele>402.399994</ele>
        <time>2011-05-02T14:37:53Z</time>
      </trkpt>
      <trkpt lat="45.36528" lon="1.26026">
        <ele>403.100006</ele>
        <time>2011-05-02T14:37:55Z</time>
      </trkpt>
      <trkpt lat="45.36523" lon="1.26036">
        <ele>403.799988</ele>
        <time>2011-05-02T14:37:57Z</time>
      </trkpt>
      <trkpt lat="45.36519" lon="1.26046">
        <ele>403.899994</ele>
        <time>2011-05-02T14:37:59Z</time>
      </trkpt>
      <trkpt lat="45.36515" lon="1.26055">
        <ele>404.200012</ele>
        <time>2011-05-02T14:38:01Z</time>
      </trkpt>
      <trkpt lat="45.36511" lon="1.26065">
        <ele>403.399994</ele>
        <time>2011-05-02T14:38:03Z</time>
      </trkpt>
      <trkpt lat="45.36507" lon="1.26076">
        <ele>403.5</ele>
        <time>2011-05-02T14:38:05Z</time>
      </trkpt>
      <trkpt lat="45.36504" lon="1.26085">
        <ele>403.799988</ele>
        <time>2011-05-02T14:38:07Z</time>
      </trkpt>
      <trkpt lat="45.36501" lon="1.26096">
        <ele>404.100006</ele>
        <time>2011-05-02T14:38:09Z</time>
      </trkpt>
      <trkpt lat="45.36498" lon="1.26106">
        <ele>404.600006</ele>
        <time>2011-05-02T14:38:11Z</time>
      </trkpt>
      <trkpt lat="45.36494" lon="1.26116">
        <ele>404.700012</ele>
        <time>2011-05-02T14:38:13Z</time>
      </trkpt>
      <trkpt lat="45.3649" lon="1.26126">
        <ele>404.899994</ele>
        <time>2011-05-02T14:38:15Z</time>
      </trkpt>
      <trkpt lat="45.36488" lon="1.26135">
        <ele>405.100006</ele>
        <time>2011-05-02T14:38:17Z</time>
      </trkpt>
      <trkpt lat="45.36485" lon="1.26145">
        <ele>405.700012</ele>
        <time>2011-05-02T14:38:19Z</time>
      </trkpt>
      <trkpt lat="45.36482" lon="1.26155">
        <ele>405.799988</ele>
        <time>2011-05-02T14:38:21Z</time>
      </trkpt>
      <trkpt lat="45.36479" lon="1.26165">
        <ele>405.700012</ele>
        <time>2011-05-02T14:38:23Z</time>
      </trkpt>
      <trkpt lat="45.36476" lon="1.26174">
        <ele>405.700012</ele>
        <time>2011-05-02T14:38:25Z</time>
      </trkpt>
      <trkpt lat="45.36472" lon="1.26184">
        <ele>405.5</ele>
        <time>2011-05-02T14:38:27Z</time>
      </trkpt>
      <trkpt lat="45.36468" lon="1.26194">
        <ele>404.899994</ele>
        <time>2011-05-02T14:38:29Z</time>
      </trkpt>
      <trkpt lat="45.36463" lon="1.26204">
        <ele>404.700012</ele>
        <time>2011-05-02T14:38:31Z</time>
      </trkpt>
      <trkpt lat="45.36459" lon="1.26214">
        <ele>404.899994</ele>
        <time>2011-05-02T14:38:33Z</time>
      </trkpt>
      <trkpt lat="45.36455" lon="1.26226">
        <ele>405.100006</ele>
        <time>2011-05-02T14:38:35Z</time>
      </trkpt>
      <trkpt lat="45.36452" lon="1.26231">
        <ele>405.200012</ele>
        <time>2011-05-02T14:38:36Z</time>
      </trkpt>
      <trkpt lat="45.36448" lon="1.26242">
        <ele>405.299988</ele>
        <time>2011-05-02T14:38:38Z</time>
      </trkpt>
      <trkpt lat="45.36443" lon="1.26253">
        <ele>405.399994</ele>
        <time>2011-05-02T14:38:40Z</time>
      </trkpt>
      <trkpt lat="45.36439" lon="1.26263">
        <ele>405.399994</ele>
        <time>2011-05-02T14:38:42Z</time>
      </trkpt>
      <trkpt lat="45.36434" lon="1.26274">
        <ele>405.399994</ele>
        <time>2011-05-02T14:38:44Z</time>
      </trkpt>
      <trkpt lat="45.36432" lon="1.26279">
        <ele>405.5</ele>
        <time>2011-05-02T14:38:45Z</time>
      </trkpt>
      <trkpt lat="45.36424" lon="1.26295">
        <ele>406</ele>
        <time>2011-05-02T14:38:48Z</time>
      </trkpt>
      <trkpt lat="45.3642" lon="1.26306">
        <ele>406.600006</ele>
        <time>2011-05-02T14:38:50Z</time>
      </trkpt>
      <trkpt lat="45.36418" lon="1.26311">
        <ele>407</ele>
        <time>2011-05-02T14:38:51Z</time>
      </trkpt>
      <trkpt lat="45.36415" lon="1.26317">
        <ele>407</ele>
        <time>2011-05-02T14:38:52Z</time>
      </trkpt>
      <trkpt lat="45.36413" lon="1.26323">
        <ele>407</ele>
        <time>2011-05-02T14:38:53Z</time>
      </trkpt>
      <trkpt lat="45.3641" lon="1.26328">
        <ele>407.299988</ele>
        <time>2011-05-02T14:38:54Z</time>
      </trkpt>
      <trkpt lat="45.36408" lon="1.26334">
        <ele>407.5</ele>
        <time>2011-05-02T14:38:55Z</time>
      </trkpt>
      <trkpt lat="45.36406" lon="1.26339">
        <ele>407.600006</ele>
        <time>2011-05-02T14:38:56Z</time>
      </trkpt>
      <trkpt lat="45.36401" lon="1.2635">
        <ele>407.799988</ele>
        <time>2011-05-02T14:38:58Z</time>
      </trkpt>
      <trkpt lat="45.36397" lon="1.26361">
        <ele>407.600006</ele>
        <time>2011-05-02T14:39:00Z</time>
      </trkpt>
      <trkpt lat="45.36392" lon="1.26372">
        <ele>408</ele>
        <time>2011-05-02T14:39:02Z</time>
      </trkpt>
      <trkpt lat="45.36388" lon="1.26383">
        <ele>408.600006</ele>
        <time>2011-05-02T14:39:04Z</time>
      </trkpt>
      <trkpt lat="45.36384" lon="1.26395">
        <ele>408.899994</ele>
        <time>2011-05-02T14:39:06Z</time>
      </trkpt>
      <trkpt lat="45.3638" lon="1.26406">
        <ele>409</ele>
        <time>2011-05-02T14:39:08Z</time>
      </trkpt>
      <trkpt lat="45.36376" lon="1.26416">
        <ele>409.100006</ele>
        <time>2011-05-02T14:39:10Z</time>
      </trkpt>
      <trkpt lat="45.36371" lon="1.26426">
        <ele>409.600006</ele>
        <time>2011-05-02T14:39:12Z</time>
      </trkpt>
      <trkpt lat="45.36367" lon="1.26436">
        <ele>409.899994</ele>
        <time>2011-05-02T14:39:14Z</time>
      </trkpt>
      <trkpt lat="45.36362" lon="1.26446">
        <ele>410.200012</ele>
        <time>2011-05-02T14:39:16Z</time>
      </trkpt>
      <trkpt lat="45.36358" lon="1.26455">
        <ele>410.600006</ele>
        <time>2011-05-02T14:39:18Z</time>
      </trkpt>
      <trkpt lat="45.36354" lon="1.26464">
        <ele>410.799988</ele>
        <time>2011-05-02T14:39:20Z</time>
      </trkpt>
      <trkpt lat="45.3635" lon="1.26473">
        <ele>411.200012</ele>
        <time>2011-05-02T14:39:22Z</time>
      </trkpt>
      <trkpt lat="45.36347" lon="1.26481">
        <ele>411.299988</ele>
        <time>2011-05-02T14:39:24Z</time>
      </trkpt>
      <trkpt lat="45.36342" lon="1.26491">
        <ele>412</ele>
        <time>2011-05-02T14:39:27Z</time>
      </trkpt>
      <trkpt lat="45.36336" lon="1.26499">
        <ele>412.100006</ele>
        <time>2011-05-02T14:39:31Z</time>
      </trkpt>
      <trkpt lat="45.36329" lon="1.26505">
        <ele>412.700012</ele>
        <time>2011-05-02T14:39:36Z</time>
      </trkpt>
      <trkpt lat="45.36323" lon="1.26514">
        <ele>412.299988</ele>
        <time>2011-05-02T14:39:40Z</time>
      </trkpt>
      <trkpt lat="45.36318" lon="1.26521">
        <ele>412.299988</ele>
        <time>2011-05-02T14:39:44Z</time>
      </trkpt>
      <trkpt lat="45.36315" lon="1.26533">
        <ele>412</ele>
        <time>2011-05-02T14:39:49Z</time>
      </trkpt>
      <trkpt lat="45.36314" lon="1.26535">
        <ele>411.600006</ele>
        <time>2011-05-02T14:39:50Z</time>
      </trkpt>
      <trkpt lat="45.36305" lon="1.26551">
        <ele>411.799988</ele>
        <time>2011-05-02T14:39:57Z</time>
      </trkpt>
      <trkpt lat="45.36302" lon="1.26562">
        <ele>411.899994</ele>
        <time>2011-05-02T14:40:02Z</time>
      </trkpt>
      <trkpt lat="45.363" lon="1.26574">
        <ele>411.700012</ele>
        <time>2011-05-02T14:40:08Z</time>
      </trkpt>
      <trkpt lat="45.36297" lon="1.26584">
        <ele>411.299988</ele>
        <time>2011-05-02T14:40:12Z</time>
      </trkpt>
      <trkpt lat="45.36292" lon="1.26595">
        <ele>411.299988</ele>
        <time>2011-05-02T14:40:19Z</time>
      </trkpt>
      <trkpt lat="45.36291" lon="1.26607">
        <ele>411.399994</ele>
        <time>2011-05-02T14:42:05Z</time>
      </trkpt>
      <trkpt lat="45.36291" lon="1.26607">
        <ele>411.600006</ele>
        <time>2011-05-02T14:42:06Z</time>
      </trkpt>
      <trkpt lat="45.36279" lon="1.26623">
        <ele>412.299988</ele>
        <time>2011-05-02T14:42:18Z</time>
      </trkpt>
      <trkpt lat="45.36275" lon="1.26631">
        <ele>411.700012</ele>
        <time>2011-05-02T14:42:21Z</time>
      </trkpt>
      <trkpt lat="45.3627" lon="1.26639">
        <ele>411.399994</ele>
        <time>2011-05-02T14:42:24Z</time>
      </trkpt>
      <trkpt lat="45.36267" lon="1.26646">
        <ele>411.5</ele>
        <time>2011-05-02T14:42:26Z</time>
      </trkpt>
      <trkpt lat="45.36263" lon="1.26653">
        <ele>411.299988</ele>
        <time>2011-05-02T14:42:28Z</time>
      </trkpt>
      <trkpt lat="45.36259" lon="1.26661">
        <ele>411.100006</ele>
        <time>2011-05-02T14:42:30Z</time>
      </trkpt>
      <trkpt lat="45.36254" lon="1.26668">
        <ele>411</ele>
        <time>2011-05-02T14:42:32Z</time>
      </trkpt>
      <trkpt lat="45.3625" lon="1.26675">
        <ele>410.899994</ele>
        <time>2011-05-02T14:42:34Z</time>
      </trkpt>
      <trkpt lat="45.36247" lon="1.26683">
        <ele>411</ele>
        <time>2011-05-02T14:42:36Z</time>
      </trkpt>
      <trkpt lat="45.36243" lon="1.2669">
        <ele>411</ele>
        <time>2011-05-02T14:42:38Z</time>
      </trkpt>
      <trkpt lat="45.36238" lon="1.26701">
        <ele>411.5</ele>
        <time>2011-05-02T14:42:41Z</time>
      </trkpt>
      <trkpt lat="45.36235" lon="1.26708">
        <ele>411.799988</ele>
        <time>2011-05-02T14:42:43Z</time>
      </trkpt>
      <trkpt lat="45.36231" lon="1.26715">
        <ele>411.799988</ele>
        <time>2011-05-02T14:42:45Z</time>
      </trkpt>
      <trkpt lat="45.36228" lon="1.26722">
        <ele>411.799988</ele>
        <time>2011-05-02T14:42:47Z</time>
      </trkpt>
      <trkpt lat="45.36222" lon="1.26731">
        <ele>411</ele>
        <time>2011-05-02T14:42:50Z</time>
      </trkpt>
      <trkpt lat="45.36215" lon="1.26737">
        <ele>410.799988</ele>
        <time>2011-05-02T14:42:53Z</time>
      </trkpt>
      <trkpt lat="45.36207" lon="1.26741">
        <ele>411</ele>
        <time>2011-05-02T14:42:56Z</time>
      </trkpt>
      <trkpt lat="45.36201" lon="1.26743">
        <ele>411.299988</ele>
        <time>2011-05-02T14:42:58Z</time>
      </trkpt>
      <trkpt lat="45.36197" lon="1.26745">
        <ele>410.899994</ele>
        <time>2011-05-02T14:42:59Z</time>
      </trkpt>
      <trkpt lat="45.36192" lon="1.26747">
        <ele>410.600006</ele>
        <time>2011-05-02T14:43:00Z</time>
      </trkpt>
      <trkpt lat="45.36187" lon="1.26749">
        <ele>410.200012</ele>
        <time>2011-05-02T14:43:01Z</time>
      </trkpt>
      <trkpt lat="45.36182" lon="1.26751">
        <ele>409.799988</ele>
        <time>2011-05-02T14:43:02Z</time>
      </trkpt>
      <trkpt lat="45.36176" lon="1.26754">
        <ele>409.600006</ele>
        <time>2011-05-02T14:43:03Z</time>
      </trkpt>
      <trkpt lat="45.3617" lon="1.26757">
        <ele>408.799988</ele>
        <time>2011-05-02T14:43:04Z</time>
      </trkpt>
      <trkpt lat="45.36165" lon="1.26758">
        <ele>408.200012</ele>
        <time>2011-05-02T14:43:05Z</time>
      </trkpt>
      <trkpt lat="45.3616" lon="1.2676">
        <ele>407.100006</ele>
        <time>2011-05-02T14:43:06Z</time>
      </trkpt>
      <trkpt lat="45.36156" lon="1.26763">
        <ele>406.299988</ele>
        <time>2011-05-02T14:43:07Z</time>
      </trkpt>
      <trkpt lat="45.36145" lon="1.26765">
        <ele>404</ele>
        <time>2011-05-02T14:43:10Z</time>
      </trkpt>
      <trkpt lat="45.36139" lon="1.26756">
        <ele>403.5</ele>
        <time>2011-05-02T14:43:12Z</time>
      </trkpt>
      <trkpt lat="45.36133" lon="1.26748">
        <ele>403.399994</ele>
        <time>2011-05-02T14:43:14Z</time>
      </trkpt>
      <trkpt lat="45.3613" lon="1.26745">
        <ele>402.799988</ele>
        <time>2011-05-02T14:43:15Z</time>
      </trkpt>
      <trkpt lat="45.36126" lon="1.26741">
        <ele>402.299988</ele>
        <time>2011-05-02T14:43:16Z</time>
      </trkpt>
      <trkpt lat="45.36121" lon="1.26736">
        <ele>402</ele>
        <time>2011-05-02T14:43:17Z</time>
      </trkpt>
      <trkpt lat="45.36116" lon="1.26731">
        <ele>401.799988</ele>
        <time>2011-05-02T14:43:18Z</time>
      </trkpt>
      <trkpt lat="45.36113" lon="1.26726">
        <ele>401.600006</ele>
        <time>2011-05-02T14:43:19Z</time>
      </trkpt>
      <trkpt lat="45.36109" lon="1.26721">
        <ele>400.600006</ele>
        <time>2011-05-02T14:43:20Z</time>
      </trkpt>
      <trkpt lat="45.36105" lon="1.26715">
        <ele>399.799988</ele>
        <time>2011-05-02T14:43:21Z</time>
      </trkpt>
      <trkpt lat="45.36102" lon="1.2671">
        <ele>399.200012</ele>
        <time>2011-05-02T14:43:22Z</time>
      </trkpt>
      <trkpt lat="45.36097" lon="1.26705">
        <ele>399.100006</ele>
        <time>2011-05-02T14:43:23Z</time>
      </trkpt>
      <trkpt lat="45.36092" lon="1.26701">
        <ele>399</ele>
        <time>2011-05-02T14:43:24Z</time>
      </trkpt>
      <trkpt lat="45.36086" lon="1.26697">
        <ele>398.299988</ele>
        <time>2011-05-02T14:43:26Z</time>
      </trkpt>
      <trkpt lat="45.36078" lon="1.26698">
        <ele>396.5</ele>
        <time>2011-05-02T14:43:29Z</time>
      </trkpt>
      <trkpt lat="45.36071" lon="1.26698">
        <ele>396</ele>
        <time>2011-05-02T14:43:31Z</time>
      </trkpt>
      <trkpt lat="45.36065" lon="1.26694">
        <ele>395.399994</ele>
        <time>2011-05-02T14:43:33Z</time>
      </trkpt>
      <trkpt lat="45.36057" lon="1.26689">
        <ele>395.100006</ele>
        <time>2011-05-02T14:43:35Z</time>
      </trkpt>
      <trkpt lat="45.36053" lon="1.26686">
        <ele>395</ele>
        <time>2011-05-02T14:43:36Z</time>
      </trkpt>
      <trkpt lat="45.36049" lon="1.26682">
        <ele>394.899994</ele>
        <time>2011-05-02T14:43:37Z</time>
      </trkpt>
      <trkpt lat="45.36044" lon="1.26679">
        <ele>394.799988</ele>
        <time>2011-05-02T14:43:38Z</time>
      </trkpt>
      <trkpt lat="45.3604" lon="1.26675">
        <ele>394.700012</ele>
        <time>2011-05-02T14:43:39Z</time>
      </trkpt>
      <trkpt lat="45.36035" lon="1.26671">
        <ele>394.600006</ele>
        <time>2011-05-02T14:43:40Z</time>
      </trkpt>
      <trkpt lat="45.3603" lon="1.26667">
        <ele>394.600006</ele>
        <time>2011-05-02T14:43:41Z</time>
      </trkpt>
      <trkpt lat="45.36026" lon="1.26662">
        <ele>394.200012</ele>
        <time>2011-05-02T14:43:42Z</time>
      </trkpt>
      <trkpt lat="45.36022" lon="1.26656">
        <ele>393.899994</ele>
        <time>2011-05-02T14:43:43Z</time>
      </trkpt>
      <trkpt lat="45.36017" lon="1.26651">
        <ele>393.799988</ele>
        <time>2011-05-02T14:43:44Z</time>
      </trkpt>
      <trkpt lat="45.36012" lon="1.26646">
        <ele>393.799988</ele>
        <time>2011-05-02T14:43:45Z</time>
      </trkpt>
      <trkpt lat="45.36006" lon="1.26644">
        <ele>393.100006</ele>
        <time>2011-05-02T14:43:46Z</time>
      </trkpt>
      <trkpt lat="45.36" lon="1.26643">
        <ele>392.600006</ele>
        <time>2011-05-02T14:43:47Z</time>
      </trkpt>
      <trkpt lat="45.35993" lon="1.26642">
        <ele>392.100006</ele>
        <time>2011-05-02T14:43:48Z</time>
      </trkpt>
      <trkpt lat="45.35987" lon="1.2664">
        <ele>391.899994</ele>
        <time>2011-05-02T14:43:49Z</time>
      </trkpt>
      <trkpt lat="45.35982" lon="1.26637">
        <ele>391.799988</ele>
        <time>2011-05-02T14:43:50Z</time>
      </trkpt>
      <trkpt lat="45.35977" lon="1.26632">
        <ele>391.100006</ele>
        <time>2011-05-02T14:43:51Z</time>
      </trkpt>
      <trkpt lat="45.35974" lon="1.26627">
        <ele>390.600006</ele>
        <time>2011-05-02T14:43:52Z</time>
      </trkpt>
      <trkpt lat="45.35969" lon="1.26623">
        <ele>390.100006</ele>
        <time>2011-05-02T14:43:53Z</time>
      </trkpt>
      <trkpt lat="45.35966" lon="1.26618">
        <ele>389.799988</ele>
        <time>2011-05-02T14:43:54Z</time>
      </trkpt>
      <trkpt lat="45.35963" lon="1.26612">
        <ele>389.5</ele>
        <time>2011-05-02T14:43:55Z</time>
      </trkpt>
      <trkpt lat="45.35961" lon="1.26605">
        <ele>388.799988</ele>
        <time>2011-05-02T14:43:56Z</time>
      </trkpt>
      <trkpt lat="45.35959" lon="1.26599">
        <ele>388.299988</ele>
        <time>2011-05-02T14:43:57Z</time>
      </trkpt>
      <trkpt lat="45.35955" lon="1.26593">
        <ele>387.200012</ele>
        <time>2011-05-02T14:43:58Z</time>
      </trkpt>
      <trkpt lat="45.35951" lon="1.26587">
        <ele>386.399994</ele>
        <time>2011-05-02T14:43:59Z</time>
      </trkpt>
      <trkpt lat="45.35948" lon="1.26581">
        <ele>385.899994</ele>
        <time>2011-05-02T14:44:00Z</time>
      </trkpt>
      <trkpt lat="45.35944" lon="1.26574">
        <ele>385.5</ele>
        <time>2011-05-02T14:44:01Z</time>
      </trkpt>
      <trkpt lat="45.35942" lon="1.26568">
        <ele>385.200012</ele>
        <time>2011-05-02T14:44:02Z</time>
      </trkpt>
      <trkpt lat="45.3594" lon="1.26562">
        <ele>384.5</ele>
        <time>2011-05-02T14:44:03Z</time>
      </trkpt>
      <trkpt lat="45.35938" lon="1.26555">
        <ele>384</ele>
        <time>2011-05-02T14:44:04Z</time>
      </trkpt>
      <trkpt lat="45.35935" lon="1.26549">
        <ele>383.600006</ele>
        <time>2011-05-02T14:44:05Z</time>
      </trkpt>
      <trkpt lat="45.35931" lon="1.26543">
        <ele>383.299988</ele>
        <time>2011-05-02T14:44:06Z</time>
      </trkpt>
      <trkpt lat="45.35926" lon="1.26536">
        <ele>383.100006</ele>
        <time>2011-05-02T14:44:07Z</time>
      </trkpt>
      <trkpt lat="45.35922" lon="1.26528">
        <ele>382.799988</ele>
        <time>2011-05-02T14:44:08Z</time>
      </trkpt>
      <trkpt lat="45.35918" lon="1.26521">
        <ele>382.600006</ele>
        <time>2011-05-02T14:44:09Z</time>
      </trkpt>
      <trkpt lat="45.35913" lon="1.26514">
        <ele>381.5</ele>
        <time>2011-05-02T14:44:10Z</time>
      </trkpt>
      <trkpt lat="45.35908" lon="1.26507">
        <ele>380.799988</ele>
        <time>2011-05-02T14:44:11Z</time>
      </trkpt>
      <trkpt lat="45.35903" lon="1.26499">
        <ele>380.100006</ele>
        <time>2011-05-02T14:44:12Z</time>
      </trkpt>
      <trkpt lat="45.35899" lon="1.26494">
        <ele>379.600006</ele>
        <time>2011-05-02T14:44:13Z</time>
      </trkpt>
      <trkpt lat="45.35896" lon="1.26488">
        <ele>379.299988</ele>
        <time>2011-05-02T14:44:14Z</time>
      </trkpt>
      <trkpt lat="45.35892" lon="1.26482">
        <ele>377.700012</ele>
        <time>2011-05-02T14:44:15Z</time>
      </trkpt>
      <trkpt lat="45.35887" lon="1.26476">
        <ele>376.600006</ele>
        <time>2011-05-02T14:44:16Z</time>
      </trkpt>
      <trkpt lat="45.35882" lon="1.2647">
        <ele>375.200012</ele>
        <time>2011-05-02T14:44:17Z</time>
      </trkpt>
      <trkpt lat="45.35877" lon="1.26463">
        <ele>374.200012</ele>
        <time>2011-05-02T14:44:18Z</time>
      </trkpt>
      <trkpt lat="45.35872" lon="1.26458">
        <ele>373.5</ele>
        <time>2011-05-02T14:44:19Z</time>
      </trkpt>
      <trkpt lat="45.35867" lon="1.26452">
        <ele>372.200012</ele>
        <time>2011-05-02T14:44:20Z</time>
      </trkpt>
      <trkpt lat="45.35862" lon="1.26447">
        <ele>371.200012</ele>
        <time>2011-05-02T14:44:21Z</time>
      </trkpt>
      <trkpt lat="45.35856" lon="1.26441">
        <ele>370.5</ele>
        <time>2011-05-02T14:44:22Z</time>
      </trkpt>
      <trkpt lat="45.3585" lon="1.26435">
        <ele>369.899994</ele>
        <time>2011-05-02T14:44:23Z</time>
      </trkpt>
      <trkpt lat="45.35845" lon="1.26427">
        <ele>369.5</ele>
        <time>2011-05-02T14:44:24Z</time>
      </trkpt>
      <trkpt lat="45.35839" lon="1.2642">
        <ele>369.100006</ele>
        <time>2011-05-02T14:44:25Z</time>
      </trkpt>
      <trkpt lat="45.35833" lon="1.26413">
        <ele>368.899994</ele>
        <time>2011-05-02T14:44:26Z</time>
      </trkpt>
      <trkpt lat="45.35827" lon="1.26405">
        <ele>368.100006</ele>
        <time>2011-05-02T14:44:27Z</time>
      </trkpt>
      <trkpt lat="45.35821" lon="1.26397">
        <ele>367.5</ele>
        <time>2011-05-02T14:44:28Z</time>
      </trkpt>
      <trkpt lat="45.35816" lon="1.26389">
        <ele>367.100006</ele>
        <time>2011-05-02T14:44:29Z</time>
      </trkpt>
      <trkpt lat="45.35809" lon="1.26381">
        <ele>366.899994</ele>
        <time>2011-05-02T14:44:30Z</time>
      </trkpt>
      <trkpt lat="45.35803" lon="1.26373">
        <ele>366.399994</ele>
        <time>2011-05-02T14:44:31Z</time>
      </trkpt>
      <trkpt lat="45.35797" lon="1.26365">
        <ele>366.100006</ele>
        <time>2011-05-02T14:44:32Z</time>
      </trkpt>
      <trkpt lat="45.3579" lon="1.26356">
        <ele>365.799988</ele>
        <time>2011-05-02T14:44:33Z</time>
      </trkpt>
      <trkpt lat="45.35784" lon="1.26348">
        <ele>365.100006</ele>
        <time>2011-05-02T14:44:34Z</time>
      </trkpt>
      <trkpt lat="45.35778" lon="1.26339">
        <ele>364.600006</ele>
        <time>2011-05-02T14:44:35Z</time>
      </trkpt>
      <trkpt lat="45.35771" lon="1.26331">
        <ele>364.299988</ele>
        <time>2011-05-02T14:44:36Z</time>
      </trkpt>
      <trkpt lat="45.35765" lon="1.26322">
        <ele>364.100006</ele>
        <time>2011-05-02T14:44:37Z</time>
      </trkpt>
      <trkpt lat="45.35758" lon="1.26314">
        <ele>363.899994</ele>
        <time>2011-05-02T14:44:38Z</time>
      </trkpt>
      <trkpt lat="45.35752" lon="1.26306">
        <ele>363</ele>
        <time>2011-05-02T14:44:39Z</time>
      </trkpt>
      <trkpt lat="45.35746" lon="1.26298">
        <ele>362.299988</ele>
        <time>2011-05-02T14:44:40Z</time>
      </trkpt>
      <trkpt lat="45.35739" lon="1.2629">
        <ele>362</ele>
        <time>2011-05-02T14:44:41Z</time>
      </trkpt>
      <trkpt lat="45.35733" lon="1.26282">
        <ele>361.799988</ele>
        <time>2011-05-02T14:44:42Z</time>
      </trkpt>
      <trkpt lat="45.35726" lon="1.26273">
        <ele>361</ele>
        <time>2011-05-02T14:44:43Z</time>
      </trkpt>
      <trkpt lat="45.3572" lon="1.26265">
        <ele>360.5</ele>
        <time>2011-05-02T14:44:44Z</time>
      </trkpt>
      <trkpt lat="45.35713" lon="1.26256">
        <ele>360</ele>
        <time>2011-05-02T14:44:45Z</time>
      </trkpt>
      <trkpt lat="45.35707" lon="1.26248">
        <ele>359.299988</ele>
        <time>2011-05-02T14:44:46Z</time>
      </trkpt>
      <trkpt lat="45.357" lon="1.26239">
        <ele>358.700012</ele>
        <time>2011-05-02T14:44:47Z</time>
      </trkpt>
      <trkpt lat="45.35694" lon="1.26231">
        <ele>358.200012</ele>
        <time>2011-05-02T14:44:48Z</time>
      </trkpt>
      <trkpt lat="45.35688" lon="1.26222">
        <ele>357.799988</ele>
        <time>2011-05-02T14:44:49Z</time>
      </trkpt>
      <trkpt lat="45.35681" lon="1.26214">
        <ele>357.700012</ele>
        <time>2011-05-02T14:44:50Z</time>
      </trkpt>
      <trkpt lat="45.35675" lon="1.26206">
        <ele>357.600006</ele>
        <time>2011-05-02T14:44:51Z</time>
      </trkpt>
      <trkpt lat="45.35669" lon="1.26198">
        <ele>357.5</ele>
        <time>2011-05-02T14:44:52Z</time>
      </trkpt>
      <trkpt lat="45.35663" lon="1.26191">
        <ele>356.799988</ele>
        <time>2011-05-02T14:44:53Z</time>
      </trkpt>
      <trkpt lat="45.35658" lon="1.26184">
        <ele>356.200012</ele>
        <time>2011-05-02T14:44:54Z</time>
      </trkpt>
      <trkpt lat="45.35653" lon="1.26177">
        <ele>355.5</ele>
        <time>2011-05-02T14:44:55Z</time>
      </trkpt>
      <trkpt lat="45.35648" lon="1.26172">
        <ele>354.899994</ele>
        <time>2011-05-02T14:44:56Z</time>
      </trkpt>
      <trkpt lat="45.35643" lon="1.26165">
        <ele>354.200012</ele>
        <time>2011-05-02T14:44:57Z</time>
      </trkpt>
      <trkpt lat="45.35639" lon="1.26159">
        <ele>353.600006</ele>
        <time>2011-05-02T14:44:58Z</time>
      </trkpt>
      <trkpt lat="45.35634" lon="1.26152">
        <ele>353.200012</ele>
        <time>2011-05-02T14:44:59Z</time>
      </trkpt>
      <trkpt lat="45.35629" lon="1.26146">
        <ele>352.799988</ele>
        <time>2011-05-02T14:45:00Z</time>
      </trkpt>
      <trkpt lat="45.35624" lon="1.26139">
        <ele>352.5</ele>
        <time>2011-05-02T14:45:01Z</time>
      </trkpt>
      <trkpt lat="45.35619" lon="1.26133">
        <ele>352.100006</ele>
        <time>2011-05-02T14:45:02Z</time>
      </trkpt>
      <trkpt lat="45.35614" lon="1.26126">
        <ele>351.799988</ele>
        <time>2011-05-02T14:45:03Z</time>
      </trkpt>
      <trkpt lat="45.35609" lon="1.2612">
        <ele>351.5</ele>
        <time>2011-05-02T14:45:04Z</time>
      </trkpt>
      <trkpt lat="45.35604" lon="1.26114">
        <ele>351.299988</ele>
        <time>2011-05-02T14:45:05Z</time>
      </trkpt>
      <trkpt lat="45.356" lon="1.26108">
        <ele>351.100006</ele>
        <time>2011-05-02T14:45:06Z</time>
      </trkpt>
      <trkpt lat="45.35593" lon="1.261">
        <ele>350.100006</ele>
        <time>2011-05-02T14:45:08Z</time>
      </trkpt>
      <trkpt lat="45.35591" lon="1.26098">
        <ele>349.799988</ele>
        <time>2011-05-02T14:45:09Z</time>
      </trkpt>
      <trkpt lat="45.35581" lon="1.2611">
        <ele>349.700012</ele>
        <time>2011-05-02T14:45:14Z</time>
      </trkpt>
      <trkpt lat="45.35579" lon="1.26119">
        <ele>349.5</ele>
        <time>2011-05-02T14:45:16Z</time>
      </trkpt>
      <trkpt lat="45.35576" lon="1.26128">
        <ele>349.100006</ele>
        <time>2011-05-02T14:45:18Z</time>
      </trkpt>
      <trkpt lat="45.35573" lon="1.26138">
        <ele>349.200012</ele>
        <time>2011-05-02T14:45:20Z</time>
      </trkpt>
      <trkpt lat="45.35571" lon="1.26149">
        <ele>349.399994</ele>
        <time>2011-05-02T14:45:22Z</time>
      </trkpt>
      <trkpt lat="45.35568" lon="1.26159">
        <ele>349.5</ele>
        <time>2011-05-02T14:45:24Z</time>
      </trkpt>
      <trkpt lat="45.35565" lon="1.26169">
        <ele>349.200012</ele>
        <time>2011-05-02T14:45:26Z</time>
      </trkpt>
      <trkpt lat="45.35563" lon="1.2618">
        <ele>349</ele>
        <time>2011-05-02T14:45:28Z</time>
      </trkpt>
      <trkpt lat="45.3556" lon="1.26191">
        <ele>349</ele>
        <time>2011-05-02T14:45:30Z</time>
      </trkpt>
      <trkpt lat="45.35557" lon="1.26201">
        <ele>349.299988</ele>
        <time>2011-05-02T14:45:32Z</time>
      </trkpt>
      <trkpt lat="45.35555" lon="1.26213">
        <ele>348.700012</ele>
        <time>2011-05-02T14:45:34Z</time>
      </trkpt>
      <trkpt lat="45.35552" lon="1.26224">
        <ele>348.700012</ele>
        <time>2011-05-02T14:45:36Z</time>
      </trkpt>
      <trkpt lat="45.35549" lon="1.26235">
        <ele>348.799988</ele>
        <time>2011-05-02T14:45:38Z</time>
      </trkpt>
      <trkpt lat="45.35547" lon="1.26245">
        <ele>348.600006</ele>
        <time>2011-05-02T14:45:40Z</time>
      </trkpt>
      <trkpt lat="45.35544" lon="1.26257">
        <ele>348.200012</ele>
        <time>2011-05-02T14:45:42Z</time>
      </trkpt>
      <trkpt lat="45.35542" lon="1.26268">
        <ele>348.200012</ele>
        <time>2011-05-02T14:45:44Z</time>
      </trkpt>
      <trkpt lat="45.35539" lon="1.26278">
        <ele>347.899994</ele>
        <time>2011-05-02T14:45:46Z</time>
      </trkpt>
      <trkpt lat="45.35537" lon="1.26289">
        <ele>348.100006</ele>
        <time>2011-05-02T14:45:48Z</time>
      </trkpt>
      <trkpt lat="45.35535" lon="1.26299">
        <ele>348</ele>
        <time>2011-05-02T14:45:50Z</time>
      </trkpt>
      <trkpt lat="45.35533" lon="1.26308">
        <ele>347.5</ele>
        <time>2011-05-02T14:45:52Z</time>
      </trkpt>
      <trkpt lat="45.3553" lon="1.26318">
        <ele>347.299988</ele>
        <time>2011-05-02T14:45:54Z</time>
      </trkpt>
      <trkpt lat="45.35527" lon="1.26329">
        <ele>347.299988</ele>
        <time>2011-05-02T14:45:56Z</time>
      </trkpt>
      <trkpt lat="45.35523" lon="1.2634">
        <ele>346.899994</ele>
        <time>2011-05-02T14:45:58Z</time>
      </trkpt>
      <trkpt lat="45.3552" lon="1.2635">
        <ele>346.5</ele>
        <time>2011-05-02T14:46:00Z</time>
      </trkpt>
      <trkpt lat="45.35517" lon="1.26361">
        <ele>346.600006</ele>
        <time>2011-05-02T14:46:02Z</time>
      </trkpt>
      <trkpt lat="45.35513" lon="1.26372">
        <ele>346.5</ele>
        <time>2011-05-02T14:46:04Z</time>
      </trkpt>
      <trkpt lat="45.3551" lon="1.26383">
        <ele>346.399994</ele>
        <time>2011-05-02T14:46:06Z</time>
      </trkpt>
      <trkpt lat="45.35508" lon="1.26393">
        <ele>346.299988</ele>
        <time>2011-05-02T14:46:08Z</time>
      </trkpt>
      <trkpt lat="45.35505" lon="1.26403">
        <ele>345.899994</ele>
        <time>2011-05-02T14:46:10Z</time>
      </trkpt>
      <trkpt lat="45.35503" lon="1.26408">
        <ele>346</ele>
        <time>2011-05-02T14:46:11Z</time>
      </trkpt>
      <trkpt lat="45.355" lon="1.26424">
        <ele>345.799988</ele>
        <time>2011-05-02T14:46:14Z</time>
      </trkpt>
      <trkpt lat="45.35498" lon="1.26433">
        <ele>345.600006</ele>
        <time>2011-05-02T14:46:16Z</time>
      </trkpt>
      <trkpt lat="45.35495" lon="1.26443">
        <ele>345.5</ele>
        <time>2011-05-02T14:46:18Z</time>
      </trkpt>
      <trkpt lat="45.35493" lon="1.26452">
        <ele>345.5</ele>
        <time>2011-05-02T14:46:20Z</time>
      </trkpt>
      <trkpt lat="45.35491" lon="1.2646">
        <ele>346.100006</ele>
        <time>2011-05-02T14:46:22Z</time>
      </trkpt>
      <trkpt lat="45.35489" lon="1.26469">
        <ele>346.5</ele>
        <time>2011-05-02T14:46:24Z</time>
      </trkpt>
      <trkpt lat="45.35487" lon="1.26478">
        <ele>346.700012</ele>
        <time>2011-05-02T14:46:26Z</time>
      </trkpt>
      <trkpt lat="45.35484" lon="1.26487">
        <ele>346.5</ele>
        <time>2011-05-02T14:46:28Z</time>
      </trkpt>
      <trkpt lat="45.35481" lon="1.26495">
        <ele>345.899994</ele>
        <time>2011-05-02T14:46:30Z</time>
      </trkpt>
      <trkpt lat="45.35478" lon="1.26507">
        <ele>346</ele>
        <time>2011-05-02T14:46:33Z</time>
      </trkpt>
      <trkpt lat="45.35476" lon="1.26514">
        <ele>346.200012</ele>
        <time>2011-05-02T14:46:35Z</time>
      </trkpt>
      <trkpt lat="45.35473" lon="1.26523">
        <ele>346.700012</ele>
        <time>2011-05-02T14:46:37Z</time>
      </trkpt>
      <trkpt lat="45.35471" lon="1.26531">
        <ele>347</ele>
        <time>2011-05-02T14:46:39Z</time>
      </trkpt>
      <trkpt lat="45.35469" lon="1.26541">
        <ele>347.200012</ele>
        <time>2011-05-02T14:46:41Z</time>
      </trkpt>
      <trkpt lat="45.35467" lon="1.2655">
        <ele>347.5</ele>
        <time>2011-05-02T14:46:43Z</time>
      </trkpt>
      <trkpt lat="45.35465" lon="1.26558">
        <ele>347.700012</ele>
        <time>2011-05-02T14:46:45Z</time>
      </trkpt>
      <trkpt lat="45.35463" lon="1.26568">
        <ele>347.899994</ele>
        <time>2011-05-02T14:46:47Z</time>
      </trkpt>
      <trkpt lat="45.35461" lon="1.26578">
        <ele>348.299988</ele>
        <time>2011-05-02T14:46:49Z</time>
      </trkpt>
      <trkpt lat="45.35457" lon="1.26589">
        <ele>349</ele>
        <time>2011-05-02T14:46:52Z</time>
      </trkpt>
      <trkpt lat="45.35449" lon="1.26594">
        <ele>348.700012</ele>
        <time>2011-05-02T14:46:56Z</time>
      </trkpt>
      <trkpt lat="45.35444" lon="1.26592">
        <ele>348.700012</ele>
        <time>2011-05-02T14:46:58Z</time>
      </trkpt>
      <trkpt lat="45.35437" lon="1.26588">
        <ele>348.799988</ele>
        <time>2011-05-02T14:47:00Z</time>
      </trkpt>
      <trkpt lat="45.35431" lon="1.26583">
        <ele>348.799988</ele>
        <time>2011-05-02T14:47:02Z</time>
      </trkpt>
      <trkpt lat="45.35424" lon="1.26578">
        <ele>348.100006</ele>
        <time>2011-05-02T14:47:04Z</time>
      </trkpt>
      <trkpt lat="45.35417" lon="1.26571">
        <ele>348</ele>
        <time>2011-05-02T14:47:06Z</time>
      </trkpt>
      <trkpt lat="45.3541" lon="1.26564">
        <ele>347.899994</ele>
        <time>2011-05-02T14:47:08Z</time>
      </trkpt>
      <trkpt lat="45.35407" lon="1.2656">
        <ele>347.799988</ele>
        <time>2011-05-02T14:47:09Z</time>
      </trkpt>
      <trkpt lat="45.35403" lon="1.26556">
        <ele>347.100006</ele>
        <time>2011-05-02T14:47:10Z</time>
      </trkpt>
      <trkpt lat="45.35399" lon="1.26552">
        <ele>346.5</ele>
        <time>2011-05-02T14:47:11Z</time>
      </trkpt>
      <trkpt lat="45.35395" lon="1.26548">
        <ele>346.100006</ele>
        <time>2011-05-02T14:47:12Z</time>
      </trkpt>
      <trkpt lat="45.35391" lon="1.26544">
        <ele>345.299988</ele>
        <time>2011-05-02T14:47:13Z</time>
      </trkpt>
      <trkpt lat="45.35387" lon="1.26541">
        <ele>344.700012</ele>
        <time>2011-05-02T14:47:14Z</time>
      </trkpt>
      <trkpt lat="45.3538" lon="1.26534">
        <ele>344.799988</ele>
        <time>2011-05-02T14:47:16Z</time>
      </trkpt>
      <trkpt lat="45.35374" lon="1.26529">
        <ele>345.299988</ele>
        <time>2011-05-02T14:47:18Z</time>
      </trkpt>
      <trkpt lat="45.35366" lon="1.26523">
        <ele>345.200012</ele>
        <time>2011-05-02T14:47:20Z</time>
      </trkpt>
      <trkpt lat="45.35361" lon="1.26514">
        <ele>345.200012</ele>
        <time>2011-05-02T14:47:22Z</time>
      </trkpt>
      <trkpt lat="45.35355" lon="1.26506">
        <ele>345.5</ele>
        <time>2011-05-02T14:47:24Z</time>
      </trkpt>
      <trkpt lat="45.35351" lon="1.26501">
        <ele>344.799988</ele>
        <time>2011-05-02T14:47:25Z</time>
      </trkpt>
      <trkpt lat="45.35347" lon="1.26497">
        <ele>344.299988</ele>
        <time>2011-05-02T14:47:26Z</time>
      </trkpt>
      <trkpt lat="45.35343" lon="1.26494">
        <ele>344.100006</ele>
        <time>2011-05-02T14:47:27Z</time>
      </trkpt>
      <trkpt lat="45.35335" lon="1.26487">
        <ele>343.700012</ele>
        <time>2011-05-02T14:47:29Z</time>
      </trkpt>
      <trkpt lat="45.35327" lon="1.26482">
        <ele>343.399994</ele>
        <time>2011-05-02T14:47:31Z</time>
      </trkpt>
      <trkpt lat="45.35318" lon="1.26479">
        <ele>342.600006</ele>
        <time>2011-05-02T14:47:33Z</time>
      </trkpt>
      <trkpt lat="45.35314" lon="1.26478">
        <ele>342.299988</ele>
        <time>2011-05-02T14:47:34Z</time>
      </trkpt>
      <trkpt lat="45.35309" lon="1.26476">
        <ele>342.200012</ele>
        <time>2011-05-02T14:47:35Z</time>
      </trkpt>
      <trkpt lat="45.35304" lon="1.26475">
        <ele>342</ele>
        <time>2011-05-02T14:47:36Z</time>
      </trkpt>
      <trkpt lat="45.35297" lon="1.26472">
        <ele>341.399994</ele>
        <time>2011-05-02T14:47:38Z</time>
      </trkpt>
      <trkpt lat="45.35289" lon="1.26469">
        <ele>341.5</ele>
        <time>2011-05-02T14:47:40Z</time>
      </trkpt>
      <trkpt lat="45.35285" lon="1.26467">
        <ele>341.899994</ele>
        <time>2011-05-02T14:47:41Z</time>
      </trkpt>
      <trkpt lat="45.35276" lon="1.26463">
        <ele>342.399994</ele>
        <time>2011-05-02T14:47:43Z</time>
      </trkpt>
      <trkpt lat="45.35268" lon="1.26458">
        <ele>342.200012</ele>
        <time>2011-05-02T14:47:45Z</time>
      </trkpt>
      <trkpt lat="45.35264" lon="1.26455">
        <ele>341.899994</ele>
        <time>2011-05-02T14:47:46Z</time>
      </trkpt>
      <trkpt lat="45.35257" lon="1.26449">
        <ele>341.5</ele>
        <time>2011-05-02T14:47:48Z</time>
      </trkpt>
      <trkpt lat="45.35249" lon="1.26445">
        <ele>341.200012</ele>
        <time>2011-05-02T14:47:50Z</time>
      </trkpt>
      <trkpt lat="45.35245" lon="1.26442">
        <ele>341.200012</ele>
        <time>2011-05-02T14:47:51Z</time>
      </trkpt>
      <trkpt lat="45.3524" lon="1.2644">
        <ele>341.200012</ele>
        <time>2011-05-02T14:47:52Z</time>
      </trkpt>
      <trkpt lat="45.35235" lon="1.26438">
        <ele>340.600006</ele>
        <time>2011-05-02T14:47:53Z</time>
      </trkpt>
      <trkpt lat="45.3523" lon="1.26435">
        <ele>340.200012</ele>
        <time>2011-05-02T14:47:54Z</time>
      </trkpt>
      <trkpt lat="45.35225" lon="1.26431">
        <ele>340.200012</ele>
        <time>2011-05-02T14:47:55Z</time>
      </trkpt>
      <trkpt lat="45.3522" lon="1.26428">
        <ele>340.200012</ele>
        <time>2011-05-02T14:47:56Z</time>
      </trkpt>
      <trkpt lat="45.35214" lon="1.26424">
        <ele>340.200012</ele>
        <time>2011-05-02T14:47:57Z</time>
      </trkpt>
      <trkpt lat="45.35208" lon="1.26421">
        <ele>339.399994</ele>
        <time>2011-05-02T14:47:58Z</time>
      </trkpt>
      <trkpt lat="45.35202" lon="1.26418">
        <ele>338.700012</ele>
        <time>2011-05-02T14:47:59Z</time>
      </trkpt>
      <trkpt lat="45.35197" lon="1.26416">
        <ele>338.700012</ele>
        <time>2011-05-02T14:48:00Z</time>
      </trkpt>
      <trkpt lat="45.35191" lon="1.26413">
        <ele>338.700012</ele>
        <time>2011-05-02T14:48:01Z</time>
      </trkpt>
      <trkpt lat="45.35185" lon="1.26411">
        <ele>338.700012</ele>
        <time>2011-05-02T14:48:02Z</time>
      </trkpt>
      <trkpt lat="45.3518" lon="1.26409">
        <ele>338.100006</ele>
        <time>2011-05-02T14:48:03Z</time>
      </trkpt>
      <trkpt lat="45.35176" lon="1.26409">
        <ele>337.5</ele>
        <time>2011-05-02T14:48:04Z</time>
      </trkpt>
      <trkpt lat="45.35171" lon="1.2641">
        <ele>336.799988</ele>
        <time>2011-05-02T14:48:05Z</time>
      </trkpt>
      <trkpt lat="45.35163" lon="1.26414">
        <ele>335.600006</ele>
        <time>2011-05-02T14:48:07Z</time>
      </trkpt>
      <trkpt lat="45.35157" lon="1.26416">
        <ele>334.799988</ele>
        <time>2011-05-02T14:48:09Z</time>
      </trkpt>
      <trkpt lat="45.35148" lon="1.26417">
        <ele>334.799988</ele>
        <time>2011-05-02T14:48:12Z</time>
      </trkpt>
      <trkpt lat="45.35145" lon="1.26418">
        <ele>334.399994</ele>
        <time>2011-05-02T14:48:13Z</time>
      </trkpt>
      <trkpt lat="45.35135" lon="1.26418">
        <ele>334.5</ele>
        <time>2011-05-02T14:48:16Z</time>
      </trkpt>
      <trkpt lat="45.35129" lon="1.26418">
        <ele>335.200012</ele>
        <time>2011-05-02T14:48:18Z</time>
      </trkpt>
      <trkpt lat="45.3512" lon="1.26418">
        <ele>335.5</ele>
        <time>2011-05-02T14:48:21Z</time>
      </trkpt>
      <trkpt lat="45.35112" lon="1.26421">
        <ele>336</ele>
        <time>2011-05-02T14:48:24Z</time>
      </trkpt>
      <trkpt lat="45.35105" lon="1.26424">
        <ele>336.5</ele>
        <time>2011-05-02T14:48:27Z</time>
      </trkpt>
      <trkpt lat="45.35099" lon="1.26428">
        <ele>337</ele>
        <time>2011-05-02T14:48:30Z</time>
      </trkpt>
      <trkpt lat="45.35092" lon="1.26432">
        <ele>337.600006</ele>
        <time>2011-05-02T14:48:33Z</time>
      </trkpt>
      <trkpt lat="45.35084" lon="1.26437">
        <ele>337.299988</ele>
        <time>2011-05-02T14:48:37Z</time>
      </trkpt>
      <trkpt lat="45.35076" lon="1.26441">
        <ele>337.299988</ele>
        <time>2011-05-02T14:48:41Z</time>
      </trkpt>
      <trkpt lat="45.3507" lon="1.26444">
        <ele>338.5</ele>
        <time>2011-05-02T14:48:45Z</time>
      </trkpt>
      <trkpt lat="45.35062" lon="1.2645">
        <ele>339</ele>
        <time>2011-05-02T14:48:50Z</time>
      </trkpt>
      <trkpt lat="45.35056" lon="1.26459">
        <ele>339.700012</ele>
        <time>2011-05-02T14:48:55Z</time>
      </trkpt>
      <trkpt lat="45.35049" lon="1.26467">
        <ele>340.299988</ele>
        <time>2011-05-02T14:49:00Z</time>
      </trkpt>
      <trkpt lat="45.35044" lon="1.26474">
        <ele>340.899994</ele>
        <time>2011-05-02T14:49:04Z</time>
      </trkpt>
      <trkpt lat="45.35037" lon="1.26482">
        <ele>342.100006</ele>
        <time>2011-05-02T14:49:09Z</time>
      </trkpt>
      <trkpt lat="45.3503" lon="1.26487">
        <ele>342.399994</ele>
        <time>2011-05-02T14:49:13Z</time>
      </trkpt>
      <trkpt lat="45.35028" lon="1.26488">
        <ele>342.5</ele>
        <time>2011-05-02T14:49:14Z</time>
      </trkpt>
      <trkpt lat="45.35013" lon="1.26494">
        <ele>345.200012</ele>
        <time>2011-05-02T14:49:23Z</time>
      </trkpt>
      <trkpt lat="45.35004" lon="1.26495">
        <ele>346.299988</ele>
        <time>2011-05-02T14:49:29Z</time>
      </trkpt>
      <trkpt lat="45.34996" lon="1.26494">
        <ele>347.200012</ele>
        <time>2011-05-02T14:49:34Z</time>
      </trkpt>
      <trkpt lat="45.34988" lon="1.26491">
        <ele>348.5</ele>
        <time>2011-05-02T14:49:40Z</time>
      </trkpt>
      <trkpt lat="45.3498" lon="1.26486">
        <ele>349.5</ele>
        <time>2011-05-02T14:49:45Z</time>
      </trkpt>
      <trkpt lat="45.34971" lon="1.26485">
        <ele>349.700012</ele>
        <time>2011-05-02T14:49:49Z</time>
      </trkpt>
      <trkpt lat="45.34963" lon="1.26483">
        <ele>350.200012</ele>
        <time>2011-05-02T14:49:53Z</time>
      </trkpt>
      <trkpt lat="45.34955" lon="1.2648">
        <ele>350.5</ele>
        <time>2011-05-02T14:49:57Z</time>
      </trkpt>
      <trkpt lat="45.34947" lon="1.26477">
        <ele>351.200012</ele>
        <time>2011-05-02T14:50:01Z</time>
      </trkpt>
      <trkpt lat="45.3494" lon="1.26473">
        <ele>351.700012</ele>
        <time>2011-05-02T14:50:04Z</time>
      </trkpt>
      <trkpt lat="45.34933" lon="1.26468">
        <ele>351.200012</ele>
        <time>2011-05-02T14:50:07Z</time>
      </trkpt>
      <trkpt lat="45.34926" lon="1.26463">
        <ele>351.299988</ele>
        <time>2011-05-02T14:50:10Z</time>
      </trkpt>
      <trkpt lat="45.3492" lon="1.26458">
        <ele>351.399994</ele>
        <time>2011-05-02T14:50:13Z</time>
      </trkpt>
      <trkpt lat="45.34913" lon="1.26453">
        <ele>351.899994</ele>
        <time>2011-05-02T14:50:16Z</time>
      </trkpt>
      <trkpt lat="45.34911" lon="1.2645">
        <ele>352</ele>
        <time>2011-05-02T14:50:17Z</time>
      </trkpt>
      <trkpt lat="45.3491" lon="1.26434">
        <ele>352.200012</ele>
        <time>2011-05-02T14:50:22Z</time>
      </trkpt>
      <trkpt lat="45.34905" lon="1.26427">
        <ele>352.899994</ele>
        <time>2011-05-02T14:50:24Z</time>
      </trkpt>
      <trkpt lat="45.34899" lon="1.26421">
        <ele>353.399994</ele>
        <time>2011-05-02T14:50:26Z</time>
      </trkpt>
      <trkpt lat="45.34894" lon="1.26416">
        <ele>353.799988</ele>
        <time>2011-05-02T14:50:28Z</time>
      </trkpt>
      <trkpt lat="45.34887" lon="1.26413">
        <ele>353.799988</ele>
        <time>2011-05-02T14:50:30Z</time>
      </trkpt>
      <trkpt lat="45.3488" lon="1.26409">
        <ele>353.700012</ele>
        <time>2011-05-02T14:50:32Z</time>
      </trkpt>
      <trkpt lat="45.34873" lon="1.26407">
        <ele>353.899994</ele>
        <time>2011-05-02T14:50:34Z</time>
      </trkpt>
      <trkpt lat="45.34866" lon="1.26407">
        <ele>354.200012</ele>
        <time>2011-05-02T14:50:36Z</time>
      </trkpt>
      <trkpt lat="45.34859" lon="1.26409">
        <ele>354.700012</ele>
        <time>2011-05-02T14:50:38Z</time>
      </trkpt>
      <trkpt lat="45.34853" lon="1.26414">
        <ele>355.600006</ele>
        <time>2011-05-02T14:50:40Z</time>
      </trkpt>
      <trkpt lat="45.34847" lon="1.2642">
        <ele>355.5</ele>
        <time>2011-05-02T14:50:42Z</time>
      </trkpt>
      <trkpt lat="45.34842" lon="1.26426">
        <ele>355.200012</ele>
        <time>2011-05-02T14:50:44Z</time>
      </trkpt>
      <trkpt lat="45.34837" lon="1.26434">
        <ele>355.299988</ele>
        <time>2011-05-02T14:50:46Z</time>
      </trkpt>
      <trkpt lat="45.34833" lon="1.26441">
        <ele>355.299988</ele>
        <time>2011-05-02T14:50:48Z</time>
      </trkpt>
      <trkpt lat="45.34828" lon="1.26449">
        <ele>355.399994</ele>
        <time>2011-05-02T14:50:50Z</time>
      </trkpt>
      <trkpt lat="45.34825" lon="1.26457">
        <ele>355.100006</ele>
        <time>2011-05-02T14:50:52Z</time>
      </trkpt>
      <trkpt lat="45.34822" lon="1.26465">
        <ele>355.899994</ele>
        <time>2011-05-02T14:50:54Z</time>
      </trkpt>
      <trkpt lat="45.34819" lon="1.26474">
        <ele>356.100006</ele>
        <time>2011-05-02T14:50:56Z</time>
      </trkpt>
      <trkpt lat="45.34816" lon="1.26483">
        <ele>356.399994</ele>
        <time>2011-05-02T14:50:58Z</time>
      </trkpt>
      <trkpt lat="45.34812" lon="1.26492">
        <ele>357</ele>
        <time>2011-05-02T14:51:00Z</time>
      </trkpt>
      <trkpt lat="45.34806" lon="1.26501">
        <ele>356.299988</ele>
        <time>2011-05-02T14:51:02Z</time>
      </trkpt>
      <trkpt lat="45.34801" lon="1.2651">
        <ele>356.399994</ele>
        <time>2011-05-02T14:51:04Z</time>
      </trkpt>
      <trkpt lat="45.34795" lon="1.2652">
        <ele>355.700012</ele>
        <time>2011-05-02T14:51:06Z</time>
      </trkpt>
      <trkpt lat="45.34791" lon="1.26525">
        <ele>355.5</ele>
        <time>2011-05-02T14:51:07Z</time>
      </trkpt>
      <trkpt lat="45.34788" lon="1.2653">
        <ele>355</ele>
        <time>2011-05-02T14:51:08Z</time>
      </trkpt>
      <trkpt lat="45.34785" lon="1.26536">
        <ele>354.600006</ele>
        <time>2011-05-02T14:51:09Z</time>
      </trkpt>
      <trkpt lat="45.34781" lon="1.26542">
        <ele>354.700012</ele>
        <time>2011-05-02T14:51:10Z</time>
      </trkpt>
      <trkpt lat="45.34777" lon="1.26548">
        <ele>354.799988</ele>
        <time>2011-05-02T14:51:11Z</time>
      </trkpt>
      <trkpt lat="45.34774" lon="1.26553">
        <ele>354.700012</ele>
        <time>2011-05-02T14:51:12Z</time>
      </trkpt>
      <trkpt lat="45.3477" lon="1.26559">
        <ele>354.5</ele>
        <time>2011-05-02T14:51:13Z</time>
      </trkpt>
      <trkpt lat="45.34766" lon="1.26564">
        <ele>354.399994</ele>
        <time>2011-05-02T14:51:14Z</time>
      </trkpt>
      <trkpt lat="45.34762" lon="1.2657">
        <ele>354.200012</ele>
        <time>2011-05-02T14:51:15Z</time>
      </trkpt>
      <trkpt lat="45.34758" lon="1.26576">
        <ele>354.100006</ele>
        <time>2011-05-02T14:51:16Z</time>
      </trkpt>
      <trkpt lat="45.34754" lon="1.26581">
        <ele>354.200012</ele>
        <time>2011-05-02T14:51:17Z</time>
      </trkpt>
      <trkpt lat="45.34749" lon="1.26586">
        <ele>354.299988</ele>
        <time>2011-05-02T14:51:18Z</time>
      </trkpt>
      <trkpt lat="45.34745" lon="1.26592">
        <ele>354</ele>
        <time>2011-05-02T14:51:19Z</time>
      </trkpt>
      <trkpt lat="45.34741" lon="1.26597">
        <ele>353.799988</ele>
        <time>2011-05-02T14:51:20Z</time>
      </trkpt>
      <trkpt lat="45.34736" lon="1.26602">
        <ele>353.700012</ele>
        <time>2011-05-02T14:51:21Z</time>
      </trkpt>
      <trkpt lat="45.34732" lon="1.26608">
        <ele>353.700012</ele>
        <time>2011-05-02T14:51:22Z</time>
      </trkpt>
      <trkpt lat="45.34728" lon="1.26613">
        <ele>353.700012</ele>
        <time>2011-05-02T14:51:23Z</time>
      </trkpt>
      <trkpt lat="45.34724" lon="1.26619">
        <ele>353.5</ele>
        <time>2011-05-02T14:51:24Z</time>
      </trkpt>
      <trkpt lat="45.34719" lon="1.26624">
        <ele>353.200012</ele>
        <time>2011-05-02T14:51:25Z</time>
      </trkpt>
      <trkpt lat="45.34715" lon="1.26629">
        <ele>353.100006</ele>
        <time>2011-05-02T14:51:26Z</time>
      </trkpt>
      <trkpt lat="45.3471" lon="1.26633">
        <ele>353.100006</ele>
        <time>2011-05-02T14:51:27Z</time>
      </trkpt>
      <trkpt lat="45.34706" lon="1.26638">
        <ele>353.100006</ele>
        <time>2011-05-02T14:51:28Z</time>
      </trkpt>
      <trkpt lat="45.34701" lon="1.26642">
        <ele>353.399994</ele>
        <time>2011-05-02T14:51:29Z</time>
      </trkpt>
      <trkpt lat="45.34697" lon="1.26647">
        <ele>353.600006</ele>
        <time>2011-05-02T14:51:30Z</time>
      </trkpt>
      <trkpt lat="45.34693" lon="1.26652">
        <ele>353.600006</ele>
        <time>2011-05-02T14:51:31Z</time>
      </trkpt>
      <trkpt lat="45.34689" lon="1.26658">
        <ele>353.700012</ele>
        <time>2011-05-02T14:51:32Z</time>
      </trkpt>
      <trkpt lat="45.34685" lon="1.26663">
        <ele>353.700012</ele>
        <time>2011-05-02T14:51:33Z</time>
      </trkpt>
      <trkpt lat="45.34682" lon="1.26669">
        <ele>353.5</ele>
        <time>2011-05-02T14:51:34Z</time>
      </trkpt>
      <trkpt lat="45.34679" lon="1.26675">
        <ele>353.399994</ele>
        <time>2011-05-02T14:51:35Z</time>
      </trkpt>
      <trkpt lat="45.34676" lon="1.26682">
        <ele>353.600006</ele>
        <time>2011-05-02T14:51:36Z</time>
      </trkpt>
      <trkpt lat="45.34673" lon="1.26688">
        <ele>353.799988</ele>
        <time>2011-05-02T14:51:37Z</time>
      </trkpt>
      <trkpt lat="45.3467" lon="1.26694">
        <ele>354</ele>
        <time>2011-05-02T14:51:38Z</time>
      </trkpt>
      <trkpt lat="45.34668" lon="1.26701">
        <ele>354</ele>
        <time>2011-05-02T14:51:39Z</time>
      </trkpt>
      <trkpt lat="45.34666" lon="1.26707">
        <ele>354</ele>
        <time>2011-05-02T14:51:40Z</time>
      </trkpt>
      <trkpt lat="45.34663" lon="1.26713">
        <ele>354.200012</ele>
        <time>2011-05-02T14:51:41Z</time>
      </trkpt>
      <trkpt lat="45.34661" lon="1.26719">
        <ele>354.299988</ele>
        <time>2011-05-02T14:51:42Z</time>
      </trkpt>
      <trkpt lat="45.3466" lon="1.26726">
        <ele>354.5</ele>
        <time>2011-05-02T14:51:43Z</time>
      </trkpt>
      <trkpt lat="45.34658" lon="1.26732">
        <ele>354.700012</ele>
        <time>2011-05-02T14:51:44Z</time>
      </trkpt>
      <trkpt lat="45.34656" lon="1.26738">
        <ele>354.799988</ele>
        <time>2011-05-02T14:51:45Z</time>
      </trkpt>
      <trkpt lat="45.34655" lon="1.26744">
        <ele>354.899994</ele>
        <time>2011-05-02T14:51:46Z</time>
      </trkpt>
      <trkpt lat="45.34653" lon="1.2675">
        <ele>354.899994</ele>
        <time>2011-05-02T14:51:47Z</time>
      </trkpt>
      <trkpt lat="45.34652" lon="1.26757">
        <ele>355.399994</ele>
        <time>2011-05-02T14:51:48Z</time>
      </trkpt>
      <trkpt lat="45.3465" lon="1.26763">
        <ele>355.700012</ele>
        <time>2011-05-02T14:51:49Z</time>
      </trkpt>
      <trkpt lat="45.34649" lon="1.26769">
        <ele>355.799988</ele>
        <time>2011-05-02T14:51:50Z</time>
      </trkpt>
      <trkpt lat="45.34647" lon="1.26781">
        <ele>355.899994</ele>
        <time>2011-05-02T14:51:52Z</time>
      </trkpt>
      <trkpt lat="45.34646" lon="1.26788">
        <ele>355.899994</ele>
        <time>2011-05-02T14:51:53Z</time>
      </trkpt>
      <trkpt lat="45.34644" lon="1.26794">
        <ele>356</ele>
        <time>2011-05-02T14:51:54Z</time>
      </trkpt>
      <trkpt lat="45.34643" lon="1.26801">
        <ele>355.399994</ele>
        <time>2011-05-02T14:51:55Z</time>
      </trkpt>
      <trkpt lat="45.34641" lon="1.26807">
        <ele>354.899994</ele>
        <time>2011-05-02T14:51:56Z</time>
      </trkpt>
      <trkpt lat="45.34639" lon="1.26814">
        <ele>354.799988</ele>
        <time>2011-05-02T14:51:57Z</time>
      </trkpt>
      <trkpt lat="45.34638" lon="1.26821">
        <ele>354.700012</ele>
        <time>2011-05-02T14:51:58Z</time>
      </trkpt>
      <trkpt lat="45.34635" lon="1.26827">
        <ele>354.600006</ele>
        <time>2011-05-02T14:51:59Z</time>
      </trkpt>
      <trkpt lat="45.34633" lon="1.26834">
        <ele>354.5</ele>
        <time>2011-05-02T14:52:00Z</time>
      </trkpt>
      <trkpt lat="45.34631" lon="1.2684">
        <ele>354.5</ele>
        <time>2011-05-02T14:52:01Z</time>
      </trkpt>
      <trkpt lat="45.34628" lon="1.26847">
        <ele>354.700012</ele>
        <time>2011-05-02T14:52:02Z</time>
      </trkpt>
      <trkpt lat="45.34626" lon="1.26854">
        <ele>354.799988</ele>
        <time>2011-05-02T14:52:03Z</time>
      </trkpt>
      <trkpt lat="45.34624" lon="1.2686">
        <ele>354.899994</ele>
        <time>2011-05-02T14:52:04Z</time>
      </trkpt>
      <trkpt lat="45.34622" lon="1.26867">
        <ele>354.700012</ele>
        <time>2011-05-02T14:52:05Z</time>
      </trkpt>
      <trkpt lat="45.3462" lon="1.26874">
        <ele>354.600006</ele>
        <time>2011-05-02T14:52:06Z</time>
      </trkpt>
      <trkpt lat="45.34617" lon="1.2688">
        <ele>354.5</ele>
        <time>2011-05-02T14:52:07Z</time>
      </trkpt>
      <trkpt lat="45.3461" lon="1.26886">
        <ele>354.200012</ele>
        <time>2011-05-02T14:52:09Z</time>
      </trkpt>
      <trkpt lat="45.34604" lon="1.26882">
        <ele>354</ele>
        <time>2011-05-02T14:52:11Z</time>
      </trkpt>
      <trkpt lat="45.346" lon="1.26873">
        <ele>353.299988</ele>
        <time>2011-05-02T14:52:13Z</time>
      </trkpt>
      <trkpt lat="45.34596" lon="1.26862">
        <ele>352.799988</ele>
        <time>2011-05-02T14:52:15Z</time>
      </trkpt>
      <trkpt lat="45.34591" lon="1.26852">
        <ele>353.100006</ele>
        <time>2011-05-02T14:52:17Z</time>
      </trkpt>
      <trkpt lat="45.34586" lon="1.26841">
        <ele>353.299988</ele>
        <time>2011-05-02T14:52:19Z</time>
      </trkpt>
      <trkpt lat="45.34584" lon="1.26835">
        <ele>353.399994</ele>
        <time>2011-05-02T14:52:20Z</time>
      </trkpt>
      <trkpt lat="45.3458" lon="1.26824">
        <ele>353.299988</ele>
        <time>2011-05-02T14:52:22Z</time>
      </trkpt>
      <trkpt lat="45.34578" lon="1.26818">
        <ele>353.299988</ele>
        <time>2011-05-02T14:52:23Z</time>
      </trkpt>
      <trkpt lat="45.34576" lon="1.26812">
        <ele>353.200012</ele>
        <time>2011-05-02T14:52:24Z</time>
      </trkpt>
      <trkpt lat="45.34572" lon="1.26801">
        <ele>353.100006</ele>
        <time>2011-05-02T14:52:26Z</time>
      </trkpt>
      <trkpt lat="45.3457" lon="1.26795">
        <ele>353.100006</ele>
        <time>2011-05-02T14:52:27Z</time>
      </trkpt>
      <trkpt lat="45.34569" lon="1.26789">
        <ele>353.399994</ele>
        <time>2011-05-02T14:52:28Z</time>
      </trkpt>
      <trkpt lat="45.34567" lon="1.26782">
        <ele>353.600006</ele>
        <time>2011-05-02T14:52:29Z</time>
      </trkpt>
      <trkpt lat="45.34565" lon="1.2677">
        <ele>353.799988</ele>
        <time>2011-05-02T14:52:31Z</time>
      </trkpt>
      <trkpt lat="45.34564" lon="1.26764">
        <ele>353.899994</ele>
        <time>2011-05-02T14:52:32Z</time>
      </trkpt>
      <trkpt lat="45.34562" lon="1.26751">
        <ele>354</ele>
        <time>2011-05-02T14:52:34Z</time>
      </trkpt>
      <trkpt lat="45.34561" lon="1.26739">
        <ele>353.5</ele>
        <time>2011-05-02T14:52:36Z</time>
      </trkpt>
      <trkpt lat="45.34559" lon="1.26727">
        <ele>353.799988</ele>
        <time>2011-05-02T14:52:38Z</time>
      </trkpt>
      <trkpt lat="45.34558" lon="1.26715">
        <ele>354</ele>
        <time>2011-05-02T14:52:40Z</time>
      </trkpt>
      <trkpt lat="45.34555" lon="1.26705">
        <ele>353.700012</ele>
        <time>2011-05-02T14:52:42Z</time>
      </trkpt>
      <trkpt lat="45.34548" lon="1.26701">
        <ele>354.100006</ele>
        <time>2011-05-02T14:52:44Z</time>
      </trkpt>
      <trkpt lat="45.34541" lon="1.26703">
        <ele>354.200012</ele>
        <time>2011-05-02T14:52:46Z</time>
      </trkpt>
      <trkpt lat="45.34533" lon="1.26707">
        <ele>354.399994</ele>
        <time>2011-05-02T14:52:48Z</time>
      </trkpt>
      <trkpt lat="45.34525" lon="1.2671">
        <ele>354.200012</ele>
        <time>2011-05-02T14:52:50Z</time>
      </trkpt>
      <trkpt lat="45.34519" lon="1.26715">
        <ele>354</ele>
        <time>2011-05-02T14:52:53Z</time>
      </trkpt>
      <trkpt lat="45.34515" lon="1.26705">
        <ele>353.5</ele>
        <time>2011-05-02T14:52:59Z</time>
      </trkpt>
      <trkpt lat="45.34514" lon="1.26695">
        <ele>353.399994</ele>
        <time>2011-05-02T14:53:03Z</time>
      </trkpt>
      <trkpt lat="45.34508" lon="1.26688">
        <ele>353.5</ele>
        <time>2011-05-02T14:53:07Z</time>
      </trkpt>
      <trkpt lat="45.34501" lon="1.26683">
        <ele>353.899994</ele>
        <time>2011-05-02T14:53:11Z</time>
      </trkpt>
      <trkpt lat="45.34492" lon="1.26683">
        <ele>353.5</ele>
        <time>2011-05-02T14:53:16Z</time>
      </trkpt>
      <trkpt lat="45.34485" lon="1.26684">
        <ele>353.700012</ele>
        <time>2011-05-02T14:53:19Z</time>
      </trkpt>
      <trkpt lat="45.34479" lon="1.26686">
        <ele>353.799988</ele>
        <time>2011-05-02T14:53:23Z</time>
      </trkpt>
      <trkpt lat="45.34477" lon="1.26686">
        <ele>354</ele>
        <time>2011-05-02T14:53:24Z</time>
      </trkpt>
      <trkpt lat="45.34462" lon="1.26688">
        <ele>354.5</ele>
        <time>2011-05-02T14:53:31Z</time>
      </trkpt>
      <trkpt lat="45.34454" lon="1.2669">
        <ele>355.100006</ele>
        <time>2011-05-02T14:53:35Z</time>
      </trkpt>
      <trkpt lat="45.34446" lon="1.26691">
        <ele>356.200012</ele>
        <time>2011-05-02T14:53:38Z</time>
      </trkpt>
      <trkpt lat="45.34439" lon="1.2669">
        <ele>355</ele>
        <time>2011-05-02T14:53:41Z</time>
      </trkpt>
      <trkpt lat="45.34432" lon="1.26691">
        <ele>356.200012</ele>
        <time>2011-05-02T14:53:44Z</time>
      </trkpt>
      <trkpt lat="45.34425" lon="1.26699">
        <ele>356.700012</ele>
        <time>2011-05-02T14:53:48Z</time>
      </trkpt>
      <trkpt lat="45.34421" lon="1.26706">
        <ele>357.5</ele>
        <time>2011-05-02T14:53:51Z</time>
      </trkpt>
      <trkpt lat="45.34413" lon="1.2671">
        <ele>357.5</ele>
        <time>2011-05-02T14:53:54Z</time>
      </trkpt>
      <trkpt lat="45.34407" lon="1.26716">
        <ele>356.799988</ele>
        <time>2011-05-02T14:53:57Z</time>
      </trkpt>
      <trkpt lat="45.34401" lon="1.26723">
        <ele>357.100006</ele>
        <time>2011-05-02T14:54:00Z</time>
      </trkpt>
      <trkpt lat="45.34396" lon="1.26727">
        <ele>356.399994</ele>
        <time>2011-05-02T14:54:02Z</time>
      </trkpt>
      <trkpt lat="45.3439" lon="1.26731">
        <ele>356.299988</ele>
        <time>2011-05-02T14:54:04Z</time>
      </trkpt>
      <trkpt lat="45.34382" lon="1.26736">
        <ele>356.600006</ele>
        <time>2011-05-02T14:54:07Z</time>
      </trkpt>
      <trkpt lat="45.34376" lon="1.2674">
        <ele>356.5</ele>
        <time>2011-05-02T14:54:09Z</time>
      </trkpt>
      <trkpt lat="45.3437" lon="1.26744">
        <ele>356.299988</ele>
        <time>2011-05-02T14:54:11Z</time>
      </trkpt>
      <trkpt lat="45.34364" lon="1.26747">
        <ele>356.399994</ele>
        <time>2011-05-02T14:54:13Z</time>
      </trkpt>
      <trkpt lat="45.34356" lon="1.26746">
        <ele>356.700012</ele>
        <time>2011-05-02T14:54:16Z</time>
      </trkpt>
      <trkpt lat="45.3435" lon="1.26737">
        <ele>356.899994</ele>
        <time>2011-05-02T14:54:20Z</time>
      </trkpt>
      <trkpt lat="45.34347" lon="1.26726">
        <ele>356.899994</ele>
        <time>2011-05-02T14:54:26Z</time>
      </trkpt>
      <trkpt lat="45.34346" lon="1.26724">
        <ele>357.600006</ele>
        <time>2011-05-02T14:54:27Z</time>
      </trkpt>
      <trkpt lat="45.34342" lon="1.26705">
        <ele>358.100006</ele>
        <time>2011-05-02T14:54:34Z</time>
      </trkpt>
      <trkpt lat="45.34336" lon="1.26699">
        <ele>358.600006</ele>
        <time>2011-05-02T14:54:37Z</time>
      </trkpt>
      <trkpt lat="45.3433" lon="1.2669">
        <ele>358.399994</ele>
        <time>2011-05-02T14:54:40Z</time>
      </trkpt>
      <trkpt lat="45.34327" lon="1.26682">
        <ele>358.399994</ele>
        <time>2011-05-02T14:54:42Z</time>
      </trkpt>
      <trkpt lat="45.34321" lon="1.26673">
        <ele>358.399994</ele>
        <time>2011-05-02T14:54:45Z</time>
      </trkpt>
      <trkpt lat="45.34316" lon="1.26668">
        <ele>358.399994</ele>
        <time>2011-05-02T14:54:47Z</time>
      </trkpt>
      <trkpt lat="45.34309" lon="1.26665">
        <ele>358.899994</ele>
        <time>2011-05-02T14:54:49Z</time>
      </trkpt>
      <trkpt lat="45.34302" lon="1.26667">
        <ele>358.600006</ele>
        <time>2011-05-02T14:54:51Z</time>
      </trkpt>
      <trkpt lat="45.34296" lon="1.26673">
        <ele>357.700012</ele>
        <time>2011-05-02T14:54:53Z</time>
      </trkpt>
      <trkpt lat="45.34292" lon="1.26681">
        <ele>356.799988</ele>
        <time>2011-05-02T14:54:55Z</time>
      </trkpt>
      <trkpt lat="45.34286" lon="1.26688">
        <ele>356.200012</ele>
        <time>2011-05-02T14:54:57Z</time>
      </trkpt>
      <trkpt lat="45.3428" lon="1.26696">
        <ele>356</ele>
        <time>2011-05-02T14:54:59Z</time>
      </trkpt>
      <trkpt lat="45.34273" lon="1.26703">
        <ele>356</ele>
        <time>2011-05-02T14:55:01Z</time>
      </trkpt>
      <trkpt lat="45.34269" lon="1.26706">
        <ele>356</ele>
        <time>2011-05-02T14:55:02Z</time>
      </trkpt>
      <trkpt lat="45.34265" lon="1.2671">
        <ele>355.899994</ele>
        <time>2011-05-02T14:55:03Z</time>
      </trkpt>
      <trkpt lat="45.3426" lon="1.26713">
        <ele>355.899994</ele>
        <time>2011-05-02T14:55:04Z</time>
      </trkpt>
      <trkpt lat="45.34256" lon="1.26717">
        <ele>355.700012</ele>
        <time>2011-05-02T14:55:05Z</time>
      </trkpt>
      <trkpt lat="45.34252" lon="1.2672">
        <ele>355.5</ele>
        <time>2011-05-02T14:55:06Z</time>
      </trkpt>
      <trkpt lat="45.34248" lon="1.26724">
        <ele>355.200012</ele>
        <time>2011-05-02T14:55:07Z</time>
      </trkpt>
      <trkpt lat="45.34244" lon="1.26727">
        <ele>355</ele>
        <time>2011-05-02T14:55:08Z</time>
      </trkpt>
      <trkpt lat="45.3424" lon="1.26731">
        <ele>354.799988</ele>
        <time>2011-05-02T14:55:09Z</time>
      </trkpt>
      <trkpt lat="45.34236" lon="1.26735">
        <ele>354.600006</ele>
        <time>2011-05-02T14:55:10Z</time>
      </trkpt>
      <trkpt lat="45.34231" lon="1.26738">
        <ele>354.5</ele>
        <time>2011-05-02T14:55:11Z</time>
      </trkpt>
      <trkpt lat="45.34227" lon="1.26742">
        <ele>354.5</ele>
        <time>2011-05-02T14:55:12Z</time>
      </trkpt>
      <trkpt lat="45.34223" lon="1.26745">
        <ele>354.5</ele>
        <time>2011-05-02T14:55:13Z</time>
      </trkpt>
      <trkpt lat="45.34219" lon="1.26749">
        <ele>354.5</ele>
        <time>2011-05-02T14:55:14Z</time>
      </trkpt>
      <trkpt lat="45.34215" lon="1.26753">
        <ele>354.5</ele>
        <time>2011-05-02T14:55:15Z</time>
      </trkpt>
      <trkpt lat="45.3421" lon="1.26757">
        <ele>354.5</ele>
        <time>2011-05-02T14:55:16Z</time>
      </trkpt>
      <trkpt lat="45.34206" lon="1.26761">
        <ele>354.200012</ele>
        <time>2011-05-02T14:55:17Z</time>
      </trkpt>
      <trkpt lat="45.34202" lon="1.26765">
        <ele>354</ele>
        <time>2011-05-02T14:55:18Z</time>
      </trkpt>
      <trkpt lat="45.34198" lon="1.26769">
        <ele>353.700012</ele>
        <time>2011-05-02T14:55:19Z</time>
      </trkpt>
      <trkpt lat="45.34194" lon="1.26774">
        <ele>353.399994</ele>
        <time>2011-05-02T14:55:20Z</time>
      </trkpt>
      <trkpt lat="45.3419" lon="1.26778">
        <ele>353.299988</ele>
        <time>2011-05-02T14:55:21Z</time>
      </trkpt>
      <trkpt lat="45.34186" lon="1.26783">
        <ele>353.100006</ele>
        <time>2011-05-02T14:55:22Z</time>
      </trkpt>
      <trkpt lat="45.34182" lon="1.26787">
        <ele>352.899994</ele>
        <time>2011-05-02T14:55:23Z</time>
      </trkpt>
      <trkpt lat="45.34178" lon="1.26792">
        <ele>352.799988</ele>
        <time>2011-05-02T14:55:24Z</time>
      </trkpt>
      <trkpt lat="45.34174" lon="1.26797">
        <ele>352.700012</ele>
        <time>2011-05-02T14:55:25Z</time>
      </trkpt>
      <trkpt lat="45.34169" lon="1.26802">
        <ele>352.299988</ele>
        <time>2011-05-02T14:55:26Z</time>
      </trkpt>
      <trkpt lat="45.34165" lon="1.26807">
        <ele>352.100006</ele>
        <time>2011-05-02T14:55:27Z</time>
      </trkpt>
      <trkpt lat="45.3416" lon="1.26812">
        <ele>351.899994</ele>
        <time>2011-05-02T14:55:28Z</time>
      </trkpt>
      <trkpt lat="45.34155" lon="1.26817">
        <ele>351.899994</ele>
        <time>2011-05-02T14:55:29Z</time>
      </trkpt>
      <trkpt lat="45.3415" lon="1.26823">
        <ele>351.799988</ele>
        <time>2011-05-02T14:55:30Z</time>
      </trkpt>
      <trkpt lat="45.34145" lon="1.26828">
        <ele>351.299988</ele>
        <time>2011-05-02T14:55:31Z</time>
      </trkpt>
      <trkpt lat="45.34139" lon="1.26833">
        <ele>350.899994</ele>
        <time>2011-05-02T14:55:32Z</time>
      </trkpt>
      <trkpt lat="45.34134" lon="1.26836">
        <ele>350.600006</ele>
        <time>2011-05-02T14:55:33Z</time>
      </trkpt>
      <trkpt lat="45.34127" lon="1.26839">
        <ele>350.399994</ele>
        <time>2011-05-02T14:55:34Z</time>
      </trkpt>
      <trkpt lat="45.34121" lon="1.2684">
        <ele>350.200012</ele>
        <time>2011-05-02T14:55:35Z</time>
      </trkpt>
      <trkpt lat="45.34114" lon="1.26842">
        <ele>349.700012</ele>
        <time>2011-05-02T14:55:36Z</time>
      </trkpt>
      <trkpt lat="45.34107" lon="1.26844">
        <ele>349.299988</ele>
        <time>2011-05-02T14:55:37Z</time>
      </trkpt>
      <trkpt lat="45.341" lon="1.26846">
        <ele>348.799988</ele>
        <time>2011-05-02T14:55:38Z</time>
      </trkpt>
      <trkpt lat="45.34094" lon="1.26849">
        <ele>348.5</ele>
        <time>2011-05-02T14:55:39Z</time>
      </trkpt>
      <trkpt lat="45.34087" lon="1.26852">
        <ele>348.200012</ele>
        <time>2011-05-02T14:55:40Z</time>
      </trkpt>
      <trkpt lat="45.34081" lon="1.26855">
        <ele>348.100006</ele>
        <time>2011-05-02T14:55:41Z</time>
      </trkpt>
      <trkpt lat="45.34075" lon="1.26859">
        <ele>348</ele>
        <time>2011-05-02T14:55:42Z</time>
      </trkpt>
      <trkpt lat="45.34069" lon="1.26862">
        <ele>347.700012</ele>
        <time>2011-05-02T14:55:43Z</time>
      </trkpt>
      <trkpt lat="45.34063" lon="1.26866">
        <ele>347.5</ele>
        <time>2011-05-02T14:55:44Z</time>
      </trkpt>
      <trkpt lat="45.34057" lon="1.26869">
        <ele>347.299988</ele>
        <time>2011-05-02T14:55:45Z</time>
      </trkpt>
      <trkpt lat="45.34051" lon="1.26873">
        <ele>347.100006</ele>
        <time>2011-05-02T14:55:46Z</time>
      </trkpt>
      <trkpt lat="45.34045" lon="1.26876">
        <ele>347</ele>
        <time>2011-05-02T14:55:47Z</time>
      </trkpt>
      <trkpt lat="45.34039" lon="1.26878">
        <ele>346.899994</ele>
        <time>2011-05-02T14:55:48Z</time>
      </trkpt>
      <trkpt lat="45.34034" lon="1.26878">
        <ele>346.799988</ele>
        <time>2011-05-02T14:55:49Z</time>
      </trkpt>
      <trkpt lat="45.34028" lon="1.26876">
        <ele>346.399994</ele>
        <time>2011-05-02T14:55:50Z</time>
      </trkpt>
      <trkpt lat="45.34024" lon="1.26872">
        <ele>346.200012</ele>
        <time>2011-05-02T14:55:51Z</time>
      </trkpt>
      <trkpt lat="45.3402" lon="1.26862">
        <ele>346.200012</ele>
        <time>2011-05-02T14:55:53Z</time>
      </trkpt>
      <trkpt lat="45.34015" lon="1.26854">
        <ele>345.899994</ele>
        <time>2011-05-02T14:55:55Z</time>
      </trkpt>
      <trkpt lat="45.34007" lon="1.26851">
        <ele>345.600006</ele>
        <time>2011-05-02T14:55:57Z</time>
      </trkpt>
      <trkpt lat="45.33999" lon="1.26855">
        <ele>345.399994</ele>
        <time>2011-05-02T14:55:59Z</time>
      </trkpt>
      <trkpt lat="45.33992" lon="1.26864">
        <ele>345</ele>
        <time>2011-05-02T14:56:01Z</time>
      </trkpt>
      <trkpt lat="45.33989" lon="1.26868">
        <ele>344.899994</ele>
        <time>2011-05-02T14:56:02Z</time>
      </trkpt>
      <trkpt lat="45.33985" lon="1.26871">
        <ele>344.799988</ele>
        <time>2011-05-02T14:56:03Z</time>
      </trkpt>
      <trkpt lat="45.33981" lon="1.26875">
        <ele>344.299988</ele>
        <time>2011-05-02T14:56:04Z</time>
      </trkpt>
      <trkpt lat="45.33977" lon="1.26879">
        <ele>344</ele>
        <time>2011-05-02T14:56:05Z</time>
      </trkpt>
      <trkpt lat="45.33973" lon="1.26882">
        <ele>343.700012</ele>
        <time>2011-05-02T14:56:06Z</time>
      </trkpt>
      <trkpt lat="45.33967" lon="1.26885">
        <ele>343.100006</ele>
        <time>2011-05-02T14:56:07Z</time>
      </trkpt>
      <trkpt lat="45.33962" lon="1.26887">
        <ele>342.600006</ele>
        <time>2011-05-02T14:56:08Z</time>
      </trkpt>
      <trkpt lat="45.33955" lon="1.26889">
        <ele>342.100006</ele>
        <time>2011-05-02T14:56:09Z</time>
      </trkpt>
      <trkpt lat="45.33949" lon="1.2689">
        <ele>341.799988</ele>
        <time>2011-05-02T14:56:10Z</time>
      </trkpt>
      <trkpt lat="45.33943" lon="1.2689">
        <ele>341.700012</ele>
        <time>2011-05-02T14:56:11Z</time>
      </trkpt>
      <trkpt lat="45.33937" lon="1.26891">
        <ele>341.700012</ele>
        <time>2011-05-02T14:56:12Z</time>
      </trkpt>
      <trkpt lat="45.33932" lon="1.26894">
        <ele>341.700012</ele>
        <time>2011-05-02T14:56:13Z</time>
      </trkpt>
      <trkpt lat="45.33927" lon="1.26898">
        <ele>341.399994</ele>
        <time>2011-05-02T14:56:14Z</time>
      </trkpt>
      <trkpt lat="45.33922" lon="1.26903">
        <ele>341.200012</ele>
        <time>2011-05-02T14:56:15Z</time>
      </trkpt>
      <trkpt lat="45.33916" lon="1.26907">
        <ele>340.799988</ele>
        <time>2011-05-02T14:56:16Z</time>
      </trkpt>
      <trkpt lat="45.33911" lon="1.26912">
        <ele>340.399994</ele>
        <time>2011-05-02T14:56:17Z</time>
      </trkpt>
      <trkpt lat="45.33905" lon="1.26916">
        <ele>340.200012</ele>
        <time>2011-05-02T14:56:18Z</time>
      </trkpt>
      <trkpt lat="45.339" lon="1.26922">
        <ele>340</ele>
        <time>2011-05-02T14:56:19Z</time>
      </trkpt>
      <trkpt lat="45.33895" lon="1.26927">
        <ele>339.899994</ele>
        <time>2011-05-02T14:56:20Z</time>
      </trkpt>
      <trkpt lat="45.33892" lon="1.26932">
        <ele>339.5</ele>
        <time>2011-05-02T14:56:21Z</time>
      </trkpt>
      <trkpt lat="45.33887" lon="1.26941">
        <ele>338.600006</ele>
        <time>2011-05-02T14:56:23Z</time>
      </trkpt>
      <trkpt lat="45.33881" lon="1.26948">
        <ele>337.5</ele>
        <time>2011-05-02T14:56:26Z</time>
      </trkpt>
      <trkpt lat="45.33876" lon="1.26952">
        <ele>337.200012</ele>
        <time>2011-05-02T14:56:28Z</time>
      </trkpt>
      <trkpt lat="45.33873" lon="1.26954">
        <ele>337.100006</ele>
        <time>2011-05-02T14:56:29Z</time>
      </trkpt>
      <trkpt lat="45.33861" lon="1.26956">
        <ele>337.399994</ele>
        <time>2011-05-02T14:56:33Z</time>
      </trkpt>
      <trkpt lat="45.33853" lon="1.26956">
        <ele>337.5</ele>
        <time>2011-05-02T14:56:36Z</time>
      </trkpt>
      <trkpt lat="45.33845" lon="1.26956">
        <ele>337.5</ele>
        <time>2011-05-02T14:56:39Z</time>
      </trkpt>
      <trkpt lat="45.33837" lon="1.26953">
        <ele>336.899994</ele>
        <time>2011-05-02T14:56:42Z</time>
      </trkpt>
      <trkpt lat="45.33834" lon="1.26942">
        <ele>336.799988</ele>
        <time>2011-05-02T14:56:46Z</time>
      </trkpt>
      <trkpt lat="45.33836" lon="1.2693">
        <ele>338.5</ele>
        <time>2011-05-02T14:56:51Z</time>
      </trkpt>
      <trkpt lat="45.33835" lon="1.26918">
        <ele>339.200012</ele>
        <time>2011-05-02T14:56:55Z</time>
      </trkpt>
      <trkpt lat="45.33833" lon="1.26909">
        <ele>338.899994</ele>
        <time>2011-05-02T14:56:58Z</time>
      </trkpt>
      <trkpt lat="45.3383" lon="1.269">
        <ele>339.600006</ele>
        <time>2011-05-02T14:57:01Z</time>
      </trkpt>
      <trkpt lat="45.33826" lon="1.26891">
        <ele>340</ele>
        <time>2011-05-02T14:57:04Z</time>
      </trkpt>
      <trkpt lat="45.33822" lon="1.26882">
        <ele>340.399994</ele>
        <time>2011-05-02T14:57:07Z</time>
      </trkpt>
      <trkpt lat="45.33818" lon="1.26872">
        <ele>341.200012</ele>
        <time>2011-05-02T14:57:10Z</time>
      </trkpt>
      <trkpt lat="45.33815" lon="1.26862">
        <ele>341.5</ele>
        <time>2011-05-02T14:57:13Z</time>
      </trkpt>
      <trkpt lat="45.33812" lon="1.26851">
        <ele>342</ele>
        <time>2011-05-02T14:57:16Z</time>
      </trkpt>
      <trkpt lat="45.33812" lon="1.2684">
        <ele>343.5</ele>
        <time>2011-05-02T14:57:19Z</time>
      </trkpt>
      <trkpt lat="45.33812" lon="1.26829">
        <ele>343.100006</ele>
        <time>2011-05-02T14:57:22Z</time>
      </trkpt>
      <trkpt lat="45.3381" lon="1.2682">
        <ele>343.899994</ele>
        <time>2011-05-02T14:57:24Z</time>
      </trkpt>
      <trkpt lat="45.3381" lon="1.26808">
        <ele>344</ele>
        <time>2011-05-02T14:57:27Z</time>
      </trkpt>
      <trkpt lat="45.3381" lon="1.26796">
        <ele>344.5</ele>
        <time>2011-05-02T14:57:30Z</time>
      </trkpt>
      <trkpt lat="45.3381" lon="1.26791">
        <ele>344.799988</ele>
        <time>2011-05-02T14:57:31Z</time>
      </trkpt>
      <trkpt lat="45.33809" lon="1.26778">
        <ele>345</ele>
        <time>2011-05-02T14:57:34Z</time>
      </trkpt>
      <trkpt lat="45.33809" lon="1.26769">
        <ele>344.899994</ele>
        <time>2011-05-02T14:57:36Z</time>
      </trkpt>
      <trkpt lat="45.33809" lon="1.26758">
        <ele>344.899994</ele>
        <time>2011-05-02T14:57:38Z</time>
      </trkpt>
      <trkpt lat="45.3381" lon="1.26748">
        <ele>345.299988</ele>
        <time>2011-05-02T14:57:40Z</time>
      </trkpt>
      <trkpt lat="45.33811" lon="1.26737">
        <ele>345.299988</ele>
        <time>2011-05-02T14:57:42Z</time>
      </trkpt>
      <trkpt lat="45.33811" lon="1.26726">
        <ele>345.399994</ele>
        <time>2011-05-02T14:57:44Z</time>
      </trkpt>
      <trkpt lat="45.33811" lon="1.26715">
        <ele>345.799988</ele>
        <time>2011-05-02T14:57:46Z</time>
      </trkpt>
      <trkpt lat="45.33812" lon="1.26704">
        <ele>346.100006</ele>
        <time>2011-05-02T14:57:48Z</time>
      </trkpt>
      <trkpt lat="45.33813" lon="1.26692">
        <ele>345.700012</ele>
        <time>2011-05-02T14:57:50Z</time>
      </trkpt>
      <trkpt lat="45.33814" lon="1.26681">
        <ele>346.399994</ele>
        <time>2011-05-02T14:57:52Z</time>
      </trkpt>
      <trkpt lat="45.33814" lon="1.26669">
        <ele>346.600006</ele>
        <time>2011-05-02T14:57:54Z</time>
      </trkpt>
      <trkpt lat="45.33813" lon="1.26658">
        <ele>346.600006</ele>
        <time>2011-05-02T14:57:56Z</time>
      </trkpt>
      <trkpt lat="45.33813" lon="1.26647">
        <ele>346.799988</ele>
        <time>2011-05-02T14:57:58Z</time>
      </trkpt>
      <trkpt lat="45.33811" lon="1.26636">
        <ele>347</ele>
        <time>2011-05-02T14:58:00Z</time>
      </trkpt>
      <trkpt lat="45.33811" lon="1.26625">
        <ele>346.600006</ele>
        <time>2011-05-02T14:58:02Z</time>
      </trkpt>
      <trkpt lat="45.3381" lon="1.26614">
        <ele>347</ele>
        <time>2011-05-02T14:58:04Z</time>
      </trkpt>
      <trkpt lat="45.33808" lon="1.26603">
        <ele>346.700012</ele>
        <time>2011-05-02T14:58:06Z</time>
      </trkpt>
      <trkpt lat="45.33806" lon="1.26592">
        <ele>346.700012</ele>
        <time>2011-05-02T14:58:08Z</time>
      </trkpt>
      <trkpt lat="45.33804" lon="1.26582">
        <ele>346.899994</ele>
        <time>2011-05-02T14:58:10Z</time>
      </trkpt>
      <trkpt lat="45.33802" lon="1.26572">
        <ele>347.299988</ele>
        <time>2011-05-02T14:58:12Z</time>
      </trkpt>
      <trkpt lat="45.338" lon="1.26562">
        <ele>347.600006</ele>
        <time>2011-05-02T14:58:14Z</time>
      </trkpt>
      <trkpt lat="45.33799" lon="1.26551">
        <ele>347.899994</ele>
        <time>2011-05-02T14:58:16Z</time>
      </trkpt>
      <trkpt lat="45.33798" lon="1.26539">
        <ele>347.399994</ele>
        <time>2011-05-02T14:58:18Z</time>
      </trkpt>
      <trkpt lat="45.33797" lon="1.26528">
        <ele>346.899994</ele>
        <time>2011-05-02T14:58:20Z</time>
      </trkpt>
      <trkpt lat="45.33796" lon="1.26515">
        <ele>346.899994</ele>
        <time>2011-05-02T14:58:22Z</time>
      </trkpt>
      <trkpt lat="45.33795" lon="1.26503">
        <ele>347.299988</ele>
        <time>2011-05-02T14:58:24Z</time>
      </trkpt>
      <trkpt lat="45.33793" lon="1.26491">
        <ele>347.5</ele>
        <time>2011-05-02T14:58:26Z</time>
      </trkpt>
      <trkpt lat="45.33791" lon="1.26485">
        <ele>347.5</ele>
        <time>2011-05-02T14:58:27Z</time>
      </trkpt>
      <trkpt lat="45.33789" lon="1.26477">
        <ele>347.5</ele>
        <time>2011-05-02T14:58:28Z</time>
      </trkpt>
      <trkpt lat="45.33788" lon="1.2647">
        <ele>347.200012</ele>
        <time>2011-05-02T14:58:29Z</time>
      </trkpt>
      <trkpt lat="45.33788" lon="1.26463">
        <ele>347</ele>
        <time>2011-05-02T14:58:30Z</time>
      </trkpt>
      <trkpt lat="45.33787" lon="1.26455">
        <ele>346.600006</ele>
        <time>2011-05-02T14:58:31Z</time>
      </trkpt>
      <trkpt lat="45.33787" lon="1.26447">
        <ele>346.200012</ele>
        <time>2011-05-02T14:58:32Z</time>
      </trkpt>
      <trkpt lat="45.33787" lon="1.26439">
        <ele>346</ele>
        <time>2011-05-02T14:58:33Z</time>
      </trkpt>
      <trkpt lat="45.33787" lon="1.26431">
        <ele>345.299988</ele>
        <time>2011-05-02T14:58:34Z</time>
      </trkpt>
      <trkpt lat="45.33787" lon="1.26423">
        <ele>344.799988</ele>
        <time>2011-05-02T14:58:35Z</time>
      </trkpt>
      <trkpt lat="45.33787" lon="1.26415">
        <ele>344.5</ele>
        <time>2011-05-02T14:58:36Z</time>
      </trkpt>
      <trkpt lat="45.33787" lon="1.26407">
        <ele>344.299988</ele>
        <time>2011-05-02T14:58:37Z</time>
      </trkpt>
      <trkpt lat="45.33786" lon="1.26398">
        <ele>344.200012</ele>
        <time>2011-05-02T14:58:38Z</time>
      </trkpt>
      <trkpt lat="45.33786" lon="1.26389">
        <ele>343.899994</ele>
        <time>2011-05-02T14:58:39Z</time>
      </trkpt>
      <trkpt lat="45.33786" lon="1.2638">
        <ele>343.700012</ele>
        <time>2011-05-02T14:58:40Z</time>
      </trkpt>
      <trkpt lat="45.33785" lon="1.26372">
        <ele>343.600006</ele>
        <time>2011-05-02T14:58:41Z</time>
      </trkpt>
      <trkpt lat="45.33786" lon="1.26363">
        <ele>343.5</ele>
        <time>2011-05-02T14:58:42Z</time>
      </trkpt>
      <trkpt lat="45.33786" lon="1.26354">
        <ele>342.799988</ele>
        <time>2011-05-02T14:58:43Z</time>
      </trkpt>
      <trkpt lat="45.33786" lon="1.26346">
        <ele>342.299988</ele>
        <time>2011-05-02T14:58:44Z</time>
      </trkpt>
      <trkpt lat="45.33786" lon="1.26337">
        <ele>341.899994</ele>
        <time>2011-05-02T14:58:45Z</time>
      </trkpt>
      <trkpt lat="45.33786" lon="1.26329">
        <ele>341.600006</ele>
        <time>2011-05-02T14:58:46Z</time>
      </trkpt>
      <trkpt lat="45.33787" lon="1.26321">
        <ele>341.399994</ele>
        <time>2011-05-02T14:58:47Z</time>
      </trkpt>
      <trkpt lat="45.33787" lon="1.26313">
        <ele>341.399994</ele>
        <time>2011-05-02T14:58:48Z</time>
      </trkpt>
      <trkpt lat="45.33788" lon="1.26305">
        <ele>341.399994</ele>
        <time>2011-05-02T14:58:49Z</time>
      </trkpt>
      <trkpt lat="45.33788" lon="1.26298">
        <ele>341.200012</ele>
        <time>2011-05-02T14:58:50Z</time>
      </trkpt>
      <trkpt lat="45.33789" lon="1.26291">
        <ele>341.100006</ele>
        <time>2011-05-02T14:58:51Z</time>
      </trkpt>
      <trkpt lat="45.33788" lon="1.26284">
        <ele>341</ele>
        <time>2011-05-02T14:58:52Z</time>
      </trkpt>
      <trkpt lat="45.33787" lon="1.26277">
        <ele>341.100006</ele>
        <time>2011-05-02T14:58:53Z</time>
      </trkpt>
      <trkpt lat="45.33785" lon="1.2627">
        <ele>341.200012</ele>
        <time>2011-05-02T14:58:54Z</time>
      </trkpt>
      <trkpt lat="45.33783" lon="1.26263">
        <ele>341.200012</ele>
        <time>2011-05-02T14:58:55Z</time>
      </trkpt>
      <trkpt lat="45.33781" lon="1.26256">
        <ele>341.200012</ele>
        <time>2011-05-02T14:58:56Z</time>
      </trkpt>
      <trkpt lat="45.3378" lon="1.2625">
        <ele>341.200012</ele>
        <time>2011-05-02T14:58:57Z</time>
      </trkpt>
      <trkpt lat="45.3378" lon="1.26243">
        <ele>341.100006</ele>
        <time>2011-05-02T14:58:58Z</time>
      </trkpt>
      <trkpt lat="45.33779" lon="1.26236">
        <ele>341</ele>
        <time>2011-05-02T14:58:59Z</time>
      </trkpt>
      <trkpt lat="45.33778" lon="1.26229">
        <ele>340.600006</ele>
        <time>2011-05-02T14:59:00Z</time>
      </trkpt>
      <trkpt lat="45.33777" lon="1.26223">
        <ele>340.299988</ele>
        <time>2011-05-02T14:59:01Z</time>
      </trkpt>
      <trkpt lat="45.33777" lon="1.26216">
        <ele>339.899994</ele>
        <time>2011-05-02T14:59:02Z</time>
      </trkpt>
      <trkpt lat="45.33776" lon="1.2621">
        <ele>339.5</ele>
        <time>2011-05-02T14:59:03Z</time>
      </trkpt>
      <trkpt lat="45.33774" lon="1.26203">
        <ele>339.299988</ele>
        <time>2011-05-02T14:59:04Z</time>
      </trkpt>
      <trkpt lat="45.33773" lon="1.26197">
        <ele>339.399994</ele>
        <time>2011-05-02T14:59:05Z</time>
      </trkpt>
      <trkpt lat="45.33773" lon="1.2619">
        <ele>339.600006</ele>
        <time>2011-05-02T14:59:06Z</time>
      </trkpt>
      <trkpt lat="45.33772" lon="1.26184">
        <ele>339.700012</ele>
        <time>2011-05-02T14:59:07Z</time>
      </trkpt>
      <trkpt lat="45.33771" lon="1.26171">
        <ele>339.299988</ele>
        <time>2011-05-02T14:59:09Z</time>
      </trkpt>
      <trkpt lat="45.33769" lon="1.26162">
        <ele>338.700012</ele>
        <time>2011-05-02T14:59:11Z</time>
      </trkpt>
      <trkpt lat="45.33767" lon="1.26149">
        <ele>338.799988</ele>
        <time>2011-05-02T14:59:14Z</time>
      </trkpt>
      <trkpt lat="45.33766" lon="1.2614">
        <ele>338.899994</ele>
        <time>2011-05-02T14:59:16Z</time>
      </trkpt>
      <trkpt lat="45.33765" lon="1.26131">
        <ele>339.299988</ele>
        <time>2011-05-02T14:59:18Z</time>
      </trkpt>
      <trkpt lat="45.33765" lon="1.26122">
        <ele>339.200012</ele>
        <time>2011-05-02T14:59:20Z</time>
      </trkpt>
      <trkpt lat="45.33764" lon="1.26112">
        <ele>339.5</ele>
        <time>2011-05-02T14:59:22Z</time>
      </trkpt>
      <trkpt lat="45.33764" lon="1.26102">
        <ele>339.700012</ele>
        <time>2011-05-02T14:59:24Z</time>
      </trkpt>
      <trkpt lat="45.33765" lon="1.26092">
        <ele>339.700012</ele>
        <time>2011-05-02T14:59:26Z</time>
      </trkpt>
      <trkpt lat="45.33766" lon="1.26082">
        <ele>339.399994</ele>
        <time>2011-05-02T14:59:28Z</time>
      </trkpt>
      <trkpt lat="45.33766" lon="1.26073">
        <ele>338.799988</ele>
        <time>2011-05-02T14:59:30Z</time>
      </trkpt>
      <trkpt lat="45.33766" lon="1.26063">
        <ele>339.200012</ele>
        <time>2011-05-02T14:59:32Z</time>
      </trkpt>
      <trkpt lat="45.33766" lon="1.26058">
        <ele>339.100006</ele>
        <time>2011-05-02T14:59:33Z</time>
      </trkpt>
      <trkpt lat="45.33766" lon="1.26044">
        <ele>338.399994</ele>
        <time>2011-05-02T14:59:36Z</time>
      </trkpt>
      <trkpt lat="45.33766" lon="1.26034">
        <ele>338.399994</ele>
        <time>2011-05-02T14:59:38Z</time>
      </trkpt>
      <trkpt lat="45.33766" lon="1.26025">
        <ele>339.200012</ele>
        <time>2011-05-02T14:59:40Z</time>
      </trkpt>
      <trkpt lat="45.33766" lon="1.26016">
        <ele>339.899994</ele>
        <time>2011-05-02T14:59:42Z</time>
      </trkpt>
      <trkpt lat="45.33766" lon="1.26007">
        <ele>339.799988</ele>
        <time>2011-05-02T14:59:44Z</time>
      </trkpt>
      <trkpt lat="45.33771" lon="1.26">
        <ele>339.899994</ele>
        <time>2011-05-02T14:59:47Z</time>
      </trkpt>
      <trkpt lat="45.33778" lon="1.25998">
        <ele>340.5</ele>
        <time>2011-05-02T14:59:50Z</time>
      </trkpt>
      <trkpt lat="45.33786" lon="1.25996">
        <ele>340.600006</ele>
        <time>2011-05-02T14:59:53Z</time>
      </trkpt>
      <trkpt lat="45.33794" lon="1.25992">
        <ele>340.700012</ele>
        <time>2011-05-02T14:59:56Z</time>
      </trkpt>
      <trkpt lat="45.33802" lon="1.2599">
        <ele>341.100006</ele>
        <time>2011-05-02T14:59:59Z</time>
      </trkpt>
      <trkpt lat="45.33809" lon="1.25988">
        <ele>342</ele>
        <time>2011-05-02T15:00:02Z</time>
      </trkpt>
      <trkpt lat="45.33817" lon="1.25986">
        <ele>342.700012</ele>
        <time>2011-05-02T15:00:05Z</time>
      </trkpt>
      <trkpt lat="45.33825" lon="1.25985">
        <ele>343.5</ele>
        <time>2011-05-02T15:00:08Z</time>
      </trkpt>
      <trkpt lat="45.33833" lon="1.25986">
        <ele>344</ele>
        <time>2011-05-02T15:00:11Z</time>
      </trkpt>
      <trkpt lat="45.3384" lon="1.25989">
        <ele>344.5</ele>
        <time>2011-05-02T15:00:14Z</time>
      </trkpt>
      <trkpt lat="45.33846" lon="1.25994">
        <ele>344.799988</ele>
        <time>2011-05-02T15:00:16Z</time>
      </trkpt>
      <trkpt lat="45.33851" lon="1.25999">
        <ele>345</ele>
        <time>2011-05-02T15:00:18Z</time>
      </trkpt>
      <trkpt lat="45.33857" lon="1.26005">
        <ele>345.100006</ele>
        <time>2011-05-02T15:00:20Z</time>
      </trkpt>
      <trkpt lat="45.33862" lon="1.2601">
        <ele>345.799988</ele>
        <time>2011-05-02T15:00:22Z</time>
      </trkpt>
      <trkpt lat="45.33867" lon="1.26014">
        <ele>346.100006</ele>
        <time>2011-05-02T15:00:24Z</time>
      </trkpt>
      <trkpt lat="45.33873" lon="1.26018">
        <ele>346</ele>
        <time>2011-05-02T15:00:26Z</time>
      </trkpt>
      <trkpt lat="45.33879" lon="1.26023">
        <ele>346.100006</ele>
        <time>2011-05-02T15:00:28Z</time>
      </trkpt>
      <trkpt lat="45.33885" lon="1.26027">
        <ele>346.200012</ele>
        <time>2011-05-02T15:00:30Z</time>
      </trkpt>
      <trkpt lat="45.33891" lon="1.26032">
        <ele>346.399994</ele>
        <time>2011-05-02T15:00:32Z</time>
      </trkpt>
      <trkpt lat="45.33899" lon="1.26037">
        <ele>346.600006</ele>
        <time>2011-05-02T15:00:34Z</time>
      </trkpt>
      <trkpt lat="45.33902" lon="1.26039">
        <ele>346.700012</ele>
        <time>2011-05-02T15:00:35Z</time>
      </trkpt>
      <trkpt lat="45.33914" lon="1.26049">
        <ele>346</ele>
        <time>2011-05-02T15:00:38Z</time>
      </trkpt>
      <trkpt lat="45.33921" lon="1.26056">
        <ele>345.600006</ele>
        <time>2011-05-02T15:00:40Z</time>
      </trkpt>
      <trkpt lat="45.33928" lon="1.26064">
        <ele>345.799988</ele>
        <time>2011-05-02T15:00:42Z</time>
      </trkpt>
      <trkpt lat="45.33931" lon="1.26068">
        <ele>346</ele>
        <time>2011-05-02T15:00:43Z</time>
      </trkpt>
      <trkpt lat="45.33935" lon="1.26073">
        <ele>346.100006</ele>
        <time>2011-05-02T15:00:44Z</time>
      </trkpt>
      <trkpt lat="45.33941" lon="1.26081">
        <ele>346.299988</ele>
        <time>2011-05-02T15:00:46Z</time>
      </trkpt>
      <trkpt lat="45.33948" lon="1.26088">
        <ele>346.899994</ele>
        <time>2011-05-02T15:00:48Z</time>
      </trkpt>
      <trkpt lat="45.33956" lon="1.26094">
        <ele>346.5</ele>
        <time>2011-05-02T15:00:50Z</time>
      </trkpt>
      <trkpt lat="45.33963" lon="1.26101">
        <ele>346.200012</ele>
        <time>2011-05-02T15:00:52Z</time>
      </trkpt>
      <trkpt lat="45.33969" lon="1.26108">
        <ele>346.200012</ele>
        <time>2011-05-02T15:00:54Z</time>
      </trkpt>
      <trkpt lat="45.33976" lon="1.26114">
        <ele>346.5</ele>
        <time>2011-05-02T15:00:56Z</time>
      </trkpt>
      <trkpt lat="45.33983" lon="1.26121">
        <ele>346.5</ele>
        <time>2011-05-02T15:00:58Z</time>
      </trkpt>
      <trkpt lat="45.3399" lon="1.26126">
        <ele>346.299988</ele>
        <time>2011-05-02T15:01:00Z</time>
      </trkpt>
      <trkpt lat="45.33997" lon="1.26132">
        <ele>345</ele>
        <time>2011-05-02T15:01:02Z</time>
      </trkpt>
      <trkpt lat="45.34005" lon="1.26138">
        <ele>345.200012</ele>
        <time>2011-05-02T15:01:04Z</time>
      </trkpt>
      <trkpt lat="45.34008" lon="1.26142">
        <ele>345.299988</ele>
        <time>2011-05-02T15:01:05Z</time>
      </trkpt>
      <trkpt lat="45.34012" lon="1.26146">
        <ele>345.5</ele>
        <time>2011-05-02T15:01:06Z</time>
      </trkpt>
      <trkpt lat="45.34016" lon="1.26151">
        <ele>345.600006</ele>
        <time>2011-05-02T15:01:07Z</time>
      </trkpt>
      <trkpt lat="45.3402" lon="1.26155">
        <ele>345.299988</ele>
        <time>2011-05-02T15:01:08Z</time>
      </trkpt>
      <trkpt lat="45.34024" lon="1.26159">
        <ele>345</ele>
        <time>2011-05-02T15:01:09Z</time>
      </trkpt>
      <trkpt lat="45.34029" lon="1.26163">
        <ele>344.700012</ele>
        <time>2011-05-02T15:01:10Z</time>
      </trkpt>
      <trkpt lat="45.34034" lon="1.26168">
        <ele>344.399994</ele>
        <time>2011-05-02T15:01:11Z</time>
      </trkpt>
      <trkpt lat="45.34039" lon="1.26174">
        <ele>344.200012</ele>
        <time>2011-05-02T15:01:12Z</time>
      </trkpt>
      <trkpt lat="45.34045" lon="1.26178">
        <ele>344</ele>
        <time>2011-05-02T15:01:13Z</time>
      </trkpt>
      <trkpt lat="45.34051" lon="1.26182">
        <ele>343.899994</ele>
        <time>2011-05-02T15:01:14Z</time>
      </trkpt>
      <trkpt lat="45.34058" lon="1.26185">
        <ele>343.600006</ele>
        <time>2011-05-02T15:01:15Z</time>
      </trkpt>
      <trkpt lat="45.34064" lon="1.26187">
        <ele>343.399994</ele>
        <time>2011-05-02T15:01:16Z</time>
      </trkpt>
      <trkpt lat="45.34069" lon="1.2619">
        <ele>343.299988</ele>
        <time>2011-05-02T15:01:17Z</time>
      </trkpt>
      <trkpt lat="45.34075" lon="1.26194">
        <ele>343.200012</ele>
        <time>2011-05-02T15:01:18Z</time>
      </trkpt>
      <trkpt lat="45.34079" lon="1.26197">
        <ele>343.100006</ele>
        <time>2011-05-02T15:01:19Z</time>
      </trkpt>
      <trkpt lat="45.34084" lon="1.26201">
        <ele>342.899994</ele>
        <time>2011-05-02T15:01:20Z</time>
      </trkpt>
      <trkpt lat="45.34088" lon="1.26204">
        <ele>342.700012</ele>
        <time>2011-05-02T15:01:21Z</time>
      </trkpt>
      <trkpt lat="45.34093" lon="1.26206">
        <ele>342.399994</ele>
        <time>2011-05-02T15:01:22Z</time>
      </trkpt>
      <trkpt lat="45.34101" lon="1.26207">
        <ele>342</ele>
        <time>2011-05-02T15:01:24Z</time>
      </trkpt>
      <trkpt lat="45.34109" lon="1.26205">
        <ele>342.600006</ele>
        <time>2011-05-02T15:01:26Z</time>
      </trkpt>
      <trkpt lat="45.34116" lon="1.26208">
        <ele>342.299988</ele>
        <time>2011-05-02T15:01:28Z</time>
      </trkpt>
      <trkpt lat="45.34123" lon="1.26212">
        <ele>343.299988</ele>
        <time>2011-05-02T15:01:30Z</time>
      </trkpt>
      <trkpt lat="45.3413" lon="1.26216">
        <ele>344.299988</ele>
        <time>2011-05-02T15:01:32Z</time>
      </trkpt>
      <trkpt lat="45.34136" lon="1.26219">
        <ele>345.399994</ele>
        <time>2011-05-02T15:01:34Z</time>
      </trkpt>
      <trkpt lat="45.34143" lon="1.26222">
        <ele>346.100006</ele>
        <time>2011-05-02T15:01:36Z</time>
      </trkpt>
      <trkpt lat="45.34145" lon="1.26223">
        <ele>345.899994</ele>
        <time>2011-05-02T15:01:37Z</time>
      </trkpt>
      <trkpt lat="45.34157" lon="1.26228">
        <ele>346.700012</ele>
        <time>2011-05-02T15:01:41Z</time>
      </trkpt>
      <trkpt lat="45.34163" lon="1.26231">
        <ele>346.600006</ele>
        <time>2011-05-02T15:01:43Z</time>
      </trkpt>
      <trkpt lat="45.34169" lon="1.26235">
        <ele>346.899994</ele>
        <time>2011-05-02T15:01:45Z</time>
      </trkpt>
      <trkpt lat="45.34175" lon="1.26239">
        <ele>347</ele>
        <time>2011-05-02T15:01:47Z</time>
      </trkpt>
      <trkpt lat="45.34181" lon="1.26241">
        <ele>347</ele>
        <time>2011-05-02T15:01:49Z</time>
      </trkpt>
      <trkpt lat="45.34187" lon="1.26245">
        <ele>347.100006</ele>
        <time>2011-05-02T15:01:51Z</time>
      </trkpt>
      <trkpt lat="45.34193" lon="1.2625">
        <ele>347</ele>
        <time>2011-05-02T15:01:53Z</time>
      </trkpt>
      <trkpt lat="45.34198" lon="1.26257">
        <ele>347.100006</ele>
        <time>2011-05-02T15:01:55Z</time>
      </trkpt>
      <trkpt lat="45.34202" lon="1.26262">
        <ele>347.399994</ele>
        <time>2011-05-02T15:01:57Z</time>
      </trkpt>
      <trkpt lat="45.34207" lon="1.26268">
        <ele>348.299988</ele>
        <time>2011-05-02T15:01:59Z</time>
      </trkpt>
      <trkpt lat="45.34212" lon="1.26274">
        <ele>348.600006</ele>
        <time>2011-05-02T15:02:01Z</time>
      </trkpt>
      <trkpt lat="45.34219" lon="1.26281">
        <ele>349.700012</ele>
        <time>2011-05-02T15:02:04Z</time>
      </trkpt>
      <trkpt lat="45.34226" lon="1.26277">
        <ele>349.399994</ele>
        <time>2011-05-02T15:02:07Z</time>
      </trkpt>
      <trkpt lat="45.34227" lon="1.26268">
        <ele>349.299988</ele>
        <time>2011-05-02T15:02:09Z</time>
      </trkpt>
      <trkpt lat="45.34228" lon="1.26258">
        <ele>349.200012</ele>
        <time>2011-05-02T15:02:11Z</time>
      </trkpt>
      <trkpt lat="45.34229" lon="1.26247">
        <ele>348.5</ele>
        <time>2011-05-02T15:02:13Z</time>
      </trkpt>
      <trkpt lat="45.3423" lon="1.26238">
        <ele>348.299988</ele>
        <time>2011-05-02T15:02:15Z</time>
      </trkpt>
      <trkpt lat="45.34231" lon="1.26229">
        <ele>348.299988</ele>
        <time>2011-05-02T15:02:17Z</time>
      </trkpt>
      <trkpt lat="45.34233" lon="1.2622">
        <ele>348.399994</ele>
        <time>2011-05-02T15:02:19Z</time>
      </trkpt>
      <trkpt lat="45.34234" lon="1.26211">
        <ele>348.600006</ele>
        <time>2011-05-02T15:02:21Z</time>
      </trkpt>
      <trkpt lat="45.34235" lon="1.26201">
        <ele>348.600006</ele>
        <time>2011-05-02T15:02:23Z</time>
      </trkpt>
      <trkpt lat="45.34236" lon="1.2619">
        <ele>348.799988</ele>
        <time>2011-05-02T15:02:25Z</time>
      </trkpt>
      <trkpt lat="45.34238" lon="1.2618">
        <ele>348.200012</ele>
        <time>2011-05-02T15:02:27Z</time>
      </trkpt>
      <trkpt lat="45.3424" lon="1.2617">
        <ele>347.799988</ele>
        <time>2011-05-02T15:02:29Z</time>
      </trkpt>
      <trkpt lat="45.34242" lon="1.2616">
        <ele>347.899994</ele>
        <time>2011-05-02T15:02:31Z</time>
      </trkpt>
      <trkpt lat="45.34245" lon="1.26152">
        <ele>347.899994</ele>
        <time>2011-05-02T15:02:33Z</time>
      </trkpt>
      <trkpt lat="45.34247" lon="1.26142">
        <ele>347.700012</ele>
        <time>2011-05-02T15:02:35Z</time>
      </trkpt>
      <trkpt lat="45.34249" lon="1.26132">
        <ele>348.200012</ele>
        <time>2011-05-02T15:02:37Z</time>
      </trkpt>
      <trkpt lat="45.34249" lon="1.26128">
        <ele>348</ele>
        <time>2011-05-02T15:02:38Z</time>
      </trkpt>
      <trkpt lat="45.3425" lon="1.26114">
        <ele>347.799988</ele>
        <time>2011-05-02T15:02:41Z</time>
      </trkpt>
      <trkpt lat="45.34251" lon="1.26104">
        <ele>347.600006</ele>
        <time>2011-05-02T15:02:43Z</time>
      </trkpt>
      <trkpt lat="45.3425" lon="1.26094">
        <ele>347.200012</ele>
        <time>2011-05-02T15:02:45Z</time>
      </trkpt>
      <trkpt lat="45.3425" lon="1.26084">
        <ele>346.799988</ele>
        <time>2011-05-02T15:02:47Z</time>
      </trkpt>
      <trkpt lat="45.34249" lon="1.26074">
        <ele>347.100006</ele>
        <time>2011-05-02T15:02:49Z</time>
      </trkpt>
      <trkpt lat="45.34248" lon="1.26063">
        <ele>347.600006</ele>
        <time>2011-05-02T15:02:51Z</time>
      </trkpt>
      <trkpt lat="45.34247" lon="1.26053">
        <ele>347.399994</ele>
        <time>2011-05-02T15:02:53Z</time>
      </trkpt>
      <trkpt lat="45.34245" lon="1.26041">
        <ele>347.299988</ele>
        <time>2011-05-02T15:02:55Z</time>
      </trkpt>
      <trkpt lat="45.34244" lon="1.2603">
        <ele>347.299988</ele>
        <time>2011-05-02T15:02:57Z</time>
      </trkpt>
      <trkpt lat="45.34242" lon="1.26017">
        <ele>347.299988</ele>
        <time>2011-05-02T15:02:59Z</time>
      </trkpt>
      <trkpt lat="45.34242" lon="1.26011">
        <ele>347.200012</ele>
        <time>2011-05-02T15:03:00Z</time>
      </trkpt>
      <trkpt lat="45.34241" lon="1.26004">
        <ele>347.200012</ele>
        <time>2011-05-02T15:03:01Z</time>
      </trkpt>
      <trkpt lat="45.3424" lon="1.25997">
        <ele>346.899994</ele>
        <time>2011-05-02T15:03:02Z</time>
      </trkpt>
      <trkpt lat="45.34239" lon="1.2599">
        <ele>346.700012</ele>
        <time>2011-05-02T15:03:03Z</time>
      </trkpt>
      <trkpt lat="45.34238" lon="1.25982">
        <ele>346.600006</ele>
        <time>2011-05-02T15:03:04Z</time>
      </trkpt>
      <trkpt lat="45.34237" lon="1.25975">
        <ele>346.5</ele>
        <time>2011-05-02T15:03:05Z</time>
      </trkpt>
      <trkpt lat="45.34236" lon="1.25967">
        <ele>346.399994</ele>
        <time>2011-05-02T15:03:06Z</time>
      </trkpt>
      <trkpt lat="45.34235" lon="1.25959">
        <ele>346.100006</ele>
        <time>2011-05-02T15:03:07Z</time>
      </trkpt>
      <trkpt lat="45.34234" lon="1.25951">
        <ele>345.899994</ele>
        <time>2011-05-02T15:03:08Z</time>
      </trkpt>
      <trkpt lat="45.34234" lon="1.25943">
        <ele>345.399994</ele>
        <time>2011-05-02T15:03:09Z</time>
      </trkpt>
      <trkpt lat="45.34233" lon="1.25936">
        <ele>345</ele>
        <time>2011-05-02T15:03:10Z</time>
      </trkpt>
      <trkpt lat="45.34232" lon="1.25928">
        <ele>344.600006</ele>
        <time>2011-05-02T15:03:11Z</time>
      </trkpt>
      <trkpt lat="45.34231" lon="1.2592">
        <ele>344.200012</ele>
        <time>2011-05-02T15:03:12Z</time>
      </trkpt>
      <trkpt lat="45.3423" lon="1.25912">
        <ele>344</ele>
        <time>2011-05-02T15:03:13Z</time>
      </trkpt>
      <trkpt lat="45.3423" lon="1.25904">
        <ele>343.899994</ele>
        <time>2011-05-02T15:03:14Z</time>
      </trkpt>
      <trkpt lat="45.34229" lon="1.25896">
        <ele>343.899994</ele>
        <time>2011-05-02T15:03:15Z</time>
      </trkpt>
      <trkpt lat="45.34228" lon="1.25889">
        <ele>344.299988</ele>
        <time>2011-05-02T15:03:16Z</time>
      </trkpt>
      <trkpt lat="45.34227" lon="1.25881">
        <ele>344.600006</ele>
        <time>2011-05-02T15:03:17Z</time>
      </trkpt>
      <trkpt lat="45.34226" lon="1.25874">
        <ele>344.799988</ele>
        <time>2011-05-02T15:03:18Z</time>
      </trkpt>
      <trkpt lat="45.34226" lon="1.25867">
        <ele>344.100006</ele>
        <time>2011-05-02T15:03:19Z</time>
      </trkpt>
      <trkpt lat="45.34226" lon="1.2586">
        <ele>343.5</ele>
        <time>2011-05-02T15:03:20Z</time>
      </trkpt>
      <trkpt lat="45.34226" lon="1.25853">
        <ele>343.399994</ele>
        <time>2011-05-02T15:03:21Z</time>
      </trkpt>
      <trkpt lat="45.34226" lon="1.25846">
        <ele>343.200012</ele>
        <time>2011-05-02T15:03:22Z</time>
      </trkpt>
      <trkpt lat="45.34227" lon="1.25839">
        <ele>343</ele>
        <time>2011-05-02T15:03:23Z</time>
      </trkpt>
      <trkpt lat="45.3423" lon="1.25828">
        <ele>342.799988</ele>
        <time>2011-05-02T15:03:25Z</time>
      </trkpt>
      <trkpt lat="45.34232" lon="1.25817">
        <ele>342.600006</ele>
        <time>2011-05-02T15:03:27Z</time>
      </trkpt>
      <trkpt lat="45.3423" lon="1.25809">
        <ele>342.600006</ele>
        <time>2011-05-02T15:03:29Z</time>
      </trkpt>
      <trkpt lat="45.34228" lon="1.25799">
        <ele>343.100006</ele>
        <time>2011-05-02T15:03:31Z</time>
      </trkpt>
      <trkpt lat="45.34227" lon="1.25789">
        <ele>343.299988</ele>
        <time>2011-05-02T15:03:33Z</time>
      </trkpt>
      <trkpt lat="45.34226" lon="1.25779">
        <ele>343.799988</ele>
        <time>2011-05-02T15:03:35Z</time>
      </trkpt>
      <trkpt lat="45.34226" lon="1.2577">
        <ele>344.5</ele>
        <time>2011-05-02T15:03:37Z</time>
      </trkpt>
      <trkpt lat="45.34226" lon="1.25761">
        <ele>344.899994</ele>
        <time>2011-05-02T15:03:39Z</time>
      </trkpt>
      <trkpt lat="45.34225" lon="1.25756">
        <ele>344.899994</ele>
        <time>2011-05-02T15:03:40Z</time>
      </trkpt>
      <trkpt lat="45.34226" lon="1.25743">
        <ele>345.5</ele>
        <time>2011-05-02T15:03:43Z</time>
      </trkpt>
      <trkpt lat="45.34227" lon="1.25734">
        <ele>345.5</ele>
        <time>2011-05-02T15:03:45Z</time>
      </trkpt>
      <trkpt lat="45.34227" lon="1.25726">
        <ele>346</ele>
        <time>2011-05-02T15:03:47Z</time>
      </trkpt>
      <trkpt lat="45.34226" lon="1.25717">
        <ele>346.899994</ele>
        <time>2011-05-02T15:03:49Z</time>
      </trkpt>
      <trkpt lat="45.34226" lon="1.25705">
        <ele>347.799988</ele>
        <time>2011-05-02T15:03:52Z</time>
      </trkpt>
      <trkpt lat="45.34226" lon="1.25692">
        <ele>349</ele>
        <time>2011-05-02T15:03:55Z</time>
      </trkpt>
      <trkpt lat="45.34225" lon="1.2568">
        <ele>349.399994</ele>
        <time>2011-05-02T15:03:58Z</time>
      </trkpt>
      <trkpt lat="45.34225" lon="1.25671">
        <ele>349.200012</ele>
        <time>2011-05-02T15:04:00Z</time>
      </trkpt>
      <trkpt lat="45.34224" lon="1.25662">
        <ele>349.700012</ele>
        <time>2011-05-02T15:04:02Z</time>
      </trkpt>
      <trkpt lat="45.34224" lon="1.25651">
        <ele>349.799988</ele>
        <time>2011-05-02T15:04:04Z</time>
      </trkpt>
      <trkpt lat="45.34223" lon="1.25641">
        <ele>349.600006</ele>
        <time>2011-05-02T15:04:06Z</time>
      </trkpt>
      <trkpt lat="45.34222" lon="1.2563">
        <ele>349.700012</ele>
        <time>2011-05-02T15:04:08Z</time>
      </trkpt>
      <trkpt lat="45.34221" lon="1.25617">
        <ele>349.799988</ele>
        <time>2011-05-02T15:04:10Z</time>
      </trkpt>
      <trkpt lat="45.3422" lon="1.2561">
        <ele>349.700012</ele>
        <time>2011-05-02T15:04:11Z</time>
      </trkpt>
      <trkpt lat="45.3422" lon="1.25604">
        <ele>349.600006</ele>
        <time>2011-05-02T15:04:12Z</time>
      </trkpt>
      <trkpt lat="45.3422" lon="1.25597">
        <ele>349</ele>
        <time>2011-05-02T15:04:13Z</time>
      </trkpt>
      <trkpt lat="45.3422" lon="1.2559">
        <ele>348.5</ele>
        <time>2011-05-02T15:04:14Z</time>
      </trkpt>
      <trkpt lat="45.34221" lon="1.25583">
        <ele>348.200012</ele>
        <time>2011-05-02T15:04:15Z</time>
      </trkpt>
      <trkpt lat="45.34223" lon="1.25575">
        <ele>348</ele>
        <time>2011-05-02T15:04:16Z</time>
      </trkpt>
      <trkpt lat="45.34224" lon="1.25568">
        <ele>347.899994</ele>
        <time>2011-05-02T15:04:17Z</time>
      </trkpt>
      <trkpt lat="45.34226" lon="1.25561">
        <ele>348.200012</ele>
        <time>2011-05-02T15:04:18Z</time>
      </trkpt>
      <trkpt lat="45.34229" lon="1.25555">
        <ele>348.399994</ele>
        <time>2011-05-02T15:04:19Z</time>
      </trkpt>
      <trkpt lat="45.34231" lon="1.2555">
        <ele>348.899994</ele>
        <time>2011-05-02T15:04:20Z</time>
      </trkpt>
      <trkpt lat="45.34234" lon="1.25544">
        <ele>349.299988</ele>
        <time>2011-05-02T15:04:21Z</time>
      </trkpt>
      <trkpt lat="45.34235" lon="1.25538">
        <ele>349.600006</ele>
        <time>2011-05-02T15:04:22Z</time>
      </trkpt>
      <trkpt lat="45.34237" lon="1.25532">
        <ele>349.299988</ele>
        <time>2011-05-02T15:04:23Z</time>
      </trkpt>
      <trkpt lat="45.34238" lon="1.25525">
        <ele>349.100006</ele>
        <time>2011-05-02T15:04:24Z</time>
      </trkpt>
      <trkpt lat="45.34239" lon="1.25519">
        <ele>349.100006</ele>
        <time>2011-05-02T15:04:25Z</time>
      </trkpt>
      <trkpt lat="45.34239" lon="1.25512">
        <ele>349.100006</ele>
        <time>2011-05-02T15:04:26Z</time>
      </trkpt>
      <trkpt lat="45.3424" lon="1.25505">
        <ele>348.899994</ele>
        <time>2011-05-02T15:04:27Z</time>
      </trkpt>
      <trkpt lat="45.34241" lon="1.25499">
        <ele>348.700012</ele>
        <time>2011-05-02T15:04:28Z</time>
      </trkpt>
      <trkpt lat="45.34242" lon="1.25492">
        <ele>348.600006</ele>
        <time>2011-05-02T15:04:29Z</time>
      </trkpt>
      <trkpt lat="45.34243" lon="1.25485">
        <ele>348.799988</ele>
        <time>2011-05-02T15:04:30Z</time>
      </trkpt>
      <trkpt lat="45.34245" lon="1.25478">
        <ele>348.899994</ele>
        <time>2011-05-02T15:04:31Z</time>
      </trkpt>
      <trkpt lat="45.34246" lon="1.2547">
        <ele>348.399994</ele>
        <time>2011-05-02T15:04:32Z</time>
      </trkpt>
      <trkpt lat="45.34248" lon="1.25463">
        <ele>348.100006</ele>
        <time>2011-05-02T15:04:33Z</time>
      </trkpt>
      <trkpt lat="45.34249" lon="1.25454">
        <ele>347.799988</ele>
        <time>2011-05-02T15:04:34Z</time>
      </trkpt>
      <trkpt lat="45.3425" lon="1.25446">
        <ele>347.600006</ele>
        <time>2011-05-02T15:04:35Z</time>
      </trkpt>
      <trkpt lat="45.34252" lon="1.25437">
        <ele>347.399994</ele>
        <time>2011-05-02T15:04:36Z</time>
      </trkpt>
      <trkpt lat="45.34254" lon="1.25428">
        <ele>347.100006</ele>
        <time>2011-05-02T15:04:37Z</time>
      </trkpt>
      <trkpt lat="45.34255" lon="1.25418">
        <ele>346.899994</ele>
        <time>2011-05-02T15:04:38Z</time>
      </trkpt>
      <trkpt lat="45.34257" lon="1.25407">
        <ele>346.399994</ele>
        <time>2011-05-02T15:04:39Z</time>
      </trkpt>
      <trkpt lat="45.34259" lon="1.25396">
        <ele>346</ele>
        <time>2011-05-02T15:04:40Z</time>
      </trkpt>
      <trkpt lat="45.34261" lon="1.25384">
        <ele>345.700012</ele>
        <time>2011-05-02T15:04:41Z</time>
      </trkpt>
      <trkpt lat="45.34264" lon="1.25372">
        <ele>345.100006</ele>
        <time>2011-05-02T15:04:42Z</time>
      </trkpt>
      <trkpt lat="45.34269" lon="1.25361">
        <ele>344.700012</ele>
        <time>2011-05-02T15:04:43Z</time>
      </trkpt>
      <trkpt lat="45.34274" lon="1.25351">
        <ele>344.200012</ele>
        <time>2011-05-02T15:04:44Z</time>
      </trkpt>
      <trkpt lat="45.34279" lon="1.25343">
        <ele>343.899994</ele>
        <time>2011-05-02T15:04:45Z</time>
      </trkpt>
      <trkpt lat="45.34285" lon="1.25337">
        <ele>344.200012</ele>
        <time>2011-05-02T15:04:46Z</time>
      </trkpt>
      <trkpt lat="45.3429" lon="1.25333">
        <ele>344.399994</ele>
        <time>2011-05-02T15:04:47Z</time>
      </trkpt>
      <trkpt lat="45.34295" lon="1.2533">
        <ele>344.600006</ele>
        <time>2011-05-02T15:04:48Z</time>
      </trkpt>
      <trkpt lat="45.343" lon="1.25329">
        <ele>344.399994</ele>
        <time>2011-05-02T15:04:49Z</time>
      </trkpt>
      <trkpt lat="45.34309" lon="1.25331">
        <ele>344.899994</ele>
        <time>2011-05-02T15:04:51Z</time>
      </trkpt>
      <trkpt lat="45.34316" lon="1.25335">
        <ele>345.899994</ele>
        <time>2011-05-02T15:04:53Z</time>
      </trkpt>
      <trkpt lat="45.34323" lon="1.25339">
        <ele>346.600006</ele>
        <time>2011-05-02T15:04:55Z</time>
      </trkpt>
      <trkpt lat="45.3433" lon="1.2534">
        <ele>348.200012</ele>
        <time>2011-05-02T15:04:57Z</time>
      </trkpt>
      <trkpt lat="45.34336" lon="1.25335">
        <ele>349</ele>
        <time>2011-05-02T15:04:59Z</time>
      </trkpt>
      <trkpt lat="45.34341" lon="1.25328">
        <ele>349.100006</ele>
        <time>2011-05-02T15:05:01Z</time>
      </trkpt>
      <trkpt lat="45.34345" lon="1.2532">
        <ele>349.100006</ele>
        <time>2011-05-02T15:05:03Z</time>
      </trkpt>
      <trkpt lat="45.34349" lon="1.25311">
        <ele>349.299988</ele>
        <time>2011-05-02T15:05:05Z</time>
      </trkpt>
      <trkpt lat="45.34352" lon="1.25301">
        <ele>349.399994</ele>
        <time>2011-05-02T15:05:07Z</time>
      </trkpt>
      <trkpt lat="45.34356" lon="1.2529">
        <ele>348.899994</ele>
        <time>2011-05-02T15:05:09Z</time>
      </trkpt>
      <trkpt lat="45.3436" lon="1.2528">
        <ele>348.799988</ele>
        <time>2011-05-02T15:05:11Z</time>
      </trkpt>
      <trkpt lat="45.34365" lon="1.2527">
        <ele>348.899994</ele>
        <time>2011-05-02T15:05:13Z</time>
      </trkpt>
      <trkpt lat="45.34371" lon="1.2526">
        <ele>348.799988</ele>
        <time>2011-05-02T15:05:15Z</time>
      </trkpt>
      <trkpt lat="45.34377" lon="1.2525">
        <ele>348.5</ele>
        <time>2011-05-02T15:05:17Z</time>
      </trkpt>
      <trkpt lat="45.34383" lon="1.25241">
        <ele>348.299988</ele>
        <time>2011-05-02T15:05:19Z</time>
      </trkpt>
      <trkpt lat="45.34386" lon="1.25236">
        <ele>348.399994</ele>
        <time>2011-05-02T15:05:20Z</time>
      </trkpt>
      <trkpt lat="45.34389" lon="1.2523">
        <ele>348.5</ele>
        <time>2011-05-02T15:05:21Z</time>
      </trkpt>
      <trkpt lat="45.34392" lon="1.25224">
        <ele>348.299988</ele>
        <time>2011-05-02T15:05:22Z</time>
      </trkpt>
      <trkpt lat="45.34395" lon="1.25218">
        <ele>348.100006</ele>
        <time>2011-05-02T15:05:23Z</time>
      </trkpt>
      <trkpt lat="45.34399" lon="1.25212">
        <ele>347.799988</ele>
        <time>2011-05-02T15:05:24Z</time>
      </trkpt>
      <trkpt lat="45.34403" lon="1.25206">
        <ele>347.700012</ele>
        <time>2011-05-02T15:05:25Z</time>
      </trkpt>
      <trkpt lat="45.34407" lon="1.252">
        <ele>347.5</ele>
        <time>2011-05-02T15:05:26Z</time>
      </trkpt>
      <trkpt lat="45.3441" lon="1.25194">
        <ele>347.5</ele>
        <time>2011-05-02T15:05:27Z</time>
      </trkpt>
      <trkpt lat="45.34415" lon="1.25188">
        <ele>347.5</ele>
        <time>2011-05-02T15:05:28Z</time>
      </trkpt>
      <trkpt lat="45.34418" lon="1.25182">
        <ele>347.600006</ele>
        <time>2011-05-02T15:05:29Z</time>
      </trkpt>
      <trkpt lat="45.34422" lon="1.25176">
        <ele>347.600006</ele>
        <time>2011-05-02T15:05:30Z</time>
      </trkpt>
      <trkpt lat="45.34426" lon="1.2517">
        <ele>347.700012</ele>
        <time>2011-05-02T15:05:31Z</time>
      </trkpt>
      <trkpt lat="45.3443" lon="1.25164">
        <ele>347.799988</ele>
        <time>2011-05-02T15:05:32Z</time>
      </trkpt>
      <trkpt lat="45.34433" lon="1.25158">
        <ele>347.799988</ele>
        <time>2011-05-02T15:05:33Z</time>
      </trkpt>
      <trkpt lat="45.34437" lon="1.25152">
        <ele>347.799988</ele>
        <time>2011-05-02T15:05:34Z</time>
      </trkpt>
      <trkpt lat="45.3444" lon="1.25146">
        <ele>347.799988</ele>
        <time>2011-05-02T15:05:35Z</time>
      </trkpt>
      <trkpt lat="45.34444" lon="1.25141">
        <ele>347.899994</ele>
        <time>2011-05-02T15:05:36Z</time>
      </trkpt>
      <trkpt lat="45.34447" lon="1.25135">
        <ele>348</ele>
        <time>2011-05-02T15:05:37Z</time>
      </trkpt>
      <trkpt lat="45.3445" lon="1.25129">
        <ele>348</ele>
        <time>2011-05-02T15:05:38Z</time>
      </trkpt>
      <trkpt lat="45.34453" lon="1.25123">
        <ele>348.299988</ele>
        <time>2011-05-02T15:05:39Z</time>
      </trkpt>
      <trkpt lat="45.34456" lon="1.25117">
        <ele>348.5</ele>
        <time>2011-05-02T15:05:40Z</time>
      </trkpt>
      <trkpt lat="45.34458" lon="1.25111">
        <ele>348.799988</ele>
        <time>2011-05-02T15:05:41Z</time>
      </trkpt>
      <trkpt lat="45.34461" lon="1.25105">
        <ele>349</ele>
        <time>2011-05-02T15:05:42Z</time>
      </trkpt>
      <trkpt lat="45.34464" lon="1.25099">
        <ele>348.200012</ele>
        <time>2011-05-02T15:05:43Z</time>
      </trkpt>
      <trkpt lat="45.34466" lon="1.25093">
        <ele>347.700012</ele>
        <time>2011-05-02T15:05:44Z</time>
      </trkpt>
      <trkpt lat="45.34469" lon="1.25088">
        <ele>347.299988</ele>
        <time>2011-05-02T15:05:45Z</time>
      </trkpt>
      <trkpt lat="45.34474" lon="1.25077">
        <ele>347.600006</ele>
        <time>2011-05-02T15:05:47Z</time>
      </trkpt>
      <trkpt lat="45.34478" lon="1.25068">
        <ele>347.899994</ele>
        <time>2011-05-02T15:05:49Z</time>
      </trkpt>
      <trkpt lat="45.3448" lon="1.25058">
        <ele>348.399994</ele>
        <time>2011-05-02T15:05:51Z</time>
      </trkpt>
      <trkpt lat="45.34482" lon="1.25048">
        <ele>348.5</ele>
        <time>2011-05-02T15:05:53Z</time>
      </trkpt>
      <trkpt lat="45.34481" lon="1.25037">
        <ele>348.399994</ele>
        <time>2011-05-02T15:05:55Z</time>
      </trkpt>
      <trkpt lat="45.34479" lon="1.25025">
        <ele>348.299988</ele>
        <time>2011-05-02T15:05:57Z</time>
      </trkpt>
      <trkpt lat="45.34476" lon="1.25014">
        <ele>348.600006</ele>
        <time>2011-05-02T15:05:59Z</time>
      </trkpt>
      <trkpt lat="45.34472" lon="1.25004">
        <ele>349.200012</ele>
        <time>2011-05-02T15:06:01Z</time>
      </trkpt>
      <trkpt lat="45.34469" lon="1.24993">
        <ele>349.5</ele>
        <time>2011-05-02T15:06:03Z</time>
      </trkpt>
      <trkpt lat="45.34465" lon="1.24982">
        <ele>349.299988</ele>
        <time>2011-05-02T15:06:05Z</time>
      </trkpt>
      <trkpt lat="45.34462" lon="1.24972">
        <ele>348.899994</ele>
        <time>2011-05-02T15:06:07Z</time>
      </trkpt>
      <trkpt lat="45.34459" lon="1.24961">
        <ele>349.399994</ele>
        <time>2011-05-02T15:06:09Z</time>
      </trkpt>
      <trkpt lat="45.34454" lon="1.24952">
        <ele>350</ele>
        <time>2011-05-02T15:06:11Z</time>
      </trkpt>
      <trkpt lat="45.34449" lon="1.24943">
        <ele>350.600006</ele>
        <time>2011-05-02T15:06:13Z</time>
      </trkpt>
      <trkpt lat="45.34444" lon="1.24934">
        <ele>351</ele>
        <time>2011-05-02T15:06:15Z</time>
      </trkpt>
      <trkpt lat="45.34438" lon="1.24925">
        <ele>350.899994</ele>
        <time>2011-05-02T15:06:17Z</time>
      </trkpt>
      <trkpt lat="45.34433" lon="1.24917">
        <ele>351.299988</ele>
        <time>2011-05-02T15:06:19Z</time>
      </trkpt>
      <trkpt lat="45.34429" lon="1.24907">
        <ele>352</ele>
        <time>2011-05-02T15:06:21Z</time>
      </trkpt>
      <trkpt lat="45.34425" lon="1.24897">
        <ele>352.299988</ele>
        <time>2011-05-02T15:06:23Z</time>
      </trkpt>
      <trkpt lat="45.34423" lon="1.2489">
        <ele>352.100006</ele>
        <time>2011-05-02T15:06:24Z</time>
      </trkpt>
      <trkpt lat="45.34421" lon="1.24884">
        <ele>352</ele>
        <time>2011-05-02T15:06:25Z</time>
      </trkpt>
      <trkpt lat="45.34419" lon="1.24878">
        <ele>351.600006</ele>
        <time>2011-05-02T15:06:26Z</time>
      </trkpt>
      <trkpt lat="45.34417" lon="1.24871">
        <ele>351.399994</ele>
        <time>2011-05-02T15:06:27Z</time>
      </trkpt>
      <trkpt lat="45.34415" lon="1.24859">
        <ele>350.600006</ele>
        <time>2011-05-02T15:06:29Z</time>
      </trkpt>
      <trkpt lat="45.34414" lon="1.24848">
        <ele>350.5</ele>
        <time>2011-05-02T15:06:31Z</time>
      </trkpt>
      <trkpt lat="45.34413" lon="1.24837">
        <ele>350.200012</ele>
        <time>2011-05-02T15:06:33Z</time>
      </trkpt>
      <trkpt lat="45.34413" lon="1.24827">
        <ele>349.700012</ele>
        <time>2011-05-02T15:06:35Z</time>
      </trkpt>
      <trkpt lat="45.34411" lon="1.24817">
        <ele>348.899994</ele>
        <time>2011-05-02T15:06:37Z</time>
      </trkpt>
      <trkpt lat="45.3441" lon="1.24806">
        <ele>349.100006</ele>
        <time>2011-05-02T15:06:39Z</time>
      </trkpt>
      <trkpt lat="45.34408" lon="1.24794">
        <ele>348.700012</ele>
        <time>2011-05-02T15:06:41Z</time>
      </trkpt>
      <trkpt lat="45.34408" lon="1.24788">
        <ele>348.600006</ele>
        <time>2011-05-02T15:06:42Z</time>
      </trkpt>
      <trkpt lat="45.34407" lon="1.24781">
        <ele>348.399994</ele>
        <time>2011-05-02T15:06:43Z</time>
      </trkpt>
      <trkpt lat="45.34406" lon="1.24774">
        <ele>348.299988</ele>
        <time>2011-05-02T15:06:44Z</time>
      </trkpt>
      <trkpt lat="45.34406" lon="1.24767">
        <ele>348.399994</ele>
        <time>2011-05-02T15:06:45Z</time>
      </trkpt>
      <trkpt lat="45.34405" lon="1.2476">
        <ele>348.5</ele>
        <time>2011-05-02T15:06:46Z</time>
      </trkpt>
      <trkpt lat="45.34405" lon="1.24753">
        <ele>348.399994</ele>
        <time>2011-05-02T15:06:47Z</time>
      </trkpt>
      <trkpt lat="45.34404" lon="1.24746">
        <ele>348.399994</ele>
        <time>2011-05-02T15:06:48Z</time>
      </trkpt>
      <trkpt lat="45.34403" lon="1.24738">
        <ele>348.399994</ele>
        <time>2011-05-02T15:06:49Z</time>
      </trkpt>
      <trkpt lat="45.34402" lon="1.2473">
        <ele>348</ele>
        <time>2011-05-02T15:06:50Z</time>
      </trkpt>
      <trkpt lat="45.34402" lon="1.24722">
        <ele>347.799988</ele>
        <time>2011-05-02T15:06:51Z</time>
      </trkpt>
      <trkpt lat="45.34401" lon="1.24713">
        <ele>347.299988</ele>
        <time>2011-05-02T15:06:52Z</time>
      </trkpt>
      <trkpt lat="45.34401" lon="1.24705">
        <ele>346.899994</ele>
        <time>2011-05-02T15:06:53Z</time>
      </trkpt>
      <trkpt lat="45.34401" lon="1.24697">
        <ele>346.700012</ele>
        <time>2011-05-02T15:06:54Z</time>
      </trkpt>
      <trkpt lat="45.34402" lon="1.24689">
        <ele>346.600006</ele>
        <time>2011-05-02T15:06:55Z</time>
      </trkpt>
      <trkpt lat="45.34404" lon="1.24682">
        <ele>346.5</ele>
        <time>2011-05-02T15:06:56Z</time>
      </trkpt>
      <trkpt lat="45.34406" lon="1.24675">
        <ele>346.299988</ele>
        <time>2011-05-02T15:06:57Z</time>
      </trkpt>
      <trkpt lat="45.34409" lon="1.24668">
        <ele>346.100006</ele>
        <time>2011-05-02T15:06:58Z</time>
      </trkpt>
      <trkpt lat="45.34411" lon="1.24661">
        <ele>345.899994</ele>
        <time>2011-05-02T15:06:59Z</time>
      </trkpt>
      <trkpt lat="45.34413" lon="1.24655">
        <ele>345.799988</ele>
        <time>2011-05-02T15:07:00Z</time>
      </trkpt>
      <trkpt lat="45.34415" lon="1.24648">
        <ele>345.700012</ele>
        <time>2011-05-02T15:07:01Z</time>
      </trkpt>
      <trkpt lat="45.34416" lon="1.24641">
        <ele>345.700012</ele>
        <time>2011-05-02T15:07:02Z</time>
      </trkpt>
      <trkpt lat="45.34417" lon="1.24633">
        <ele>345.600006</ele>
        <time>2011-05-02T15:07:03Z</time>
      </trkpt>
      <trkpt lat="45.34418" lon="1.24625">
        <ele>345.600006</ele>
        <time>2011-05-02T15:07:04Z</time>
      </trkpt>
      <trkpt lat="45.34419" lon="1.24617">
        <ele>345.5</ele>
        <time>2011-05-02T15:07:05Z</time>
      </trkpt>
      <trkpt lat="45.34421" lon="1.24609">
        <ele>345.200012</ele>
        <time>2011-05-02T15:07:06Z</time>
      </trkpt>
      <trkpt lat="45.34422" lon="1.246">
        <ele>344.899994</ele>
        <time>2011-05-02T15:07:07Z</time>
      </trkpt>
      <trkpt lat="45.34423" lon="1.24592">
        <ele>344.700012</ele>
        <time>2011-05-02T15:07:08Z</time>
      </trkpt>
      <trkpt lat="45.34423" lon="1.24583">
        <ele>344.5</ele>
        <time>2011-05-02T15:07:09Z</time>
      </trkpt>
      <trkpt lat="45.34423" lon="1.24574">
        <ele>344.299988</ele>
        <time>2011-05-02T15:07:10Z</time>
      </trkpt>
      <trkpt lat="45.34423" lon="1.24565">
        <ele>343.600006</ele>
        <time>2011-05-02T15:07:11Z</time>
      </trkpt>
      <trkpt lat="45.34422" lon="1.24556">
        <ele>343.100006</ele>
        <time>2011-05-02T15:07:12Z</time>
      </trkpt>
      <trkpt lat="45.3442" lon="1.24549">
        <ele>342.200012</ele>
        <time>2011-05-02T15:07:13Z</time>
      </trkpt>
      <trkpt lat="45.34418" lon="1.24538">
        <ele>341.100006</ele>
        <time>2011-05-02T15:07:15Z</time>
      </trkpt>
      <trkpt lat="45.34417" lon="1.24528">
        <ele>340.799988</ele>
        <time>2011-05-02T15:07:17Z</time>
      </trkpt>
      <trkpt lat="45.34417" lon="1.24516">
        <ele>341.399994</ele>
        <time>2011-05-02T15:07:19Z</time>
      </trkpt>
      <trkpt lat="45.34418" lon="1.24504">
        <ele>341.399994</ele>
        <time>2011-05-02T15:07:21Z</time>
      </trkpt>
      <trkpt lat="45.34418" lon="1.24492">
        <ele>341.200012</ele>
        <time>2011-05-02T15:07:23Z</time>
      </trkpt>
      <trkpt lat="45.34418" lon="1.24479">
        <ele>341</ele>
        <time>2011-05-02T15:07:25Z</time>
      </trkpt>
      <trkpt lat="45.34419" lon="1.24467">
        <ele>341.100006</ele>
        <time>2011-05-02T15:07:27Z</time>
      </trkpt>
      <trkpt lat="45.3442" lon="1.24455">
        <ele>341.399994</ele>
        <time>2011-05-02T15:07:29Z</time>
      </trkpt>
      <trkpt lat="45.34421" lon="1.24443">
        <ele>341.5</ele>
        <time>2011-05-02T15:07:31Z</time>
      </trkpt>
      <trkpt lat="45.34422" lon="1.24431">
        <ele>341.299988</ele>
        <time>2011-05-02T15:07:33Z</time>
      </trkpt>
      <trkpt lat="45.34423" lon="1.2442">
        <ele>341.899994</ele>
        <time>2011-05-02T15:07:35Z</time>
      </trkpt>
      <trkpt lat="45.34424" lon="1.24408">
        <ele>342.200012</ele>
        <time>2011-05-02T15:07:37Z</time>
      </trkpt>
      <trkpt lat="45.34426" lon="1.24397">
        <ele>342</ele>
        <time>2011-05-02T15:07:39Z</time>
      </trkpt>
      <trkpt lat="45.34427" lon="1.24387">
        <ele>342.600006</ele>
        <time>2011-05-02T15:07:41Z</time>
      </trkpt>
      <trkpt lat="45.34428" lon="1.24377">
        <ele>343.100006</ele>
        <time>2011-05-02T15:07:43Z</time>
      </trkpt>
      <trkpt lat="45.34428" lon="1.24374">
        <ele>343.299988</ele>
        <time>2011-05-02T15:07:44Z</time>
      </trkpt>
      <trkpt lat="45.34412" lon="1.2437">
        <ele>343.899994</ele>
        <time>2011-05-02T15:07:50Z</time>
      </trkpt>
      <trkpt lat="45.34406" lon="1.2437">
        <ele>344.5</ele>
        <time>2011-05-02T15:07:52Z</time>
      </trkpt>
      <trkpt lat="45.34398" lon="1.2437">
        <ele>344.399994</ele>
        <time>2011-05-02T15:07:54Z</time>
      </trkpt>
      <trkpt lat="45.34391" lon="1.2437">
        <ele>345</ele>
        <time>2011-05-02T15:07:56Z</time>
      </trkpt>
      <trkpt lat="45.34383" lon="1.24371">
        <ele>346</ele>
        <time>2011-05-02T15:07:58Z</time>
      </trkpt>
      <trkpt lat="45.34375" lon="1.24371">
        <ele>345.399994</ele>
        <time>2011-05-02T15:08:00Z</time>
      </trkpt>
      <trkpt lat="45.34366" lon="1.24371">
        <ele>345.600006</ele>
        <time>2011-05-02T15:08:02Z</time>
      </trkpt>
      <trkpt lat="45.34358" lon="1.24372">
        <ele>345.100006</ele>
        <time>2011-05-02T15:08:04Z</time>
      </trkpt>
      <trkpt lat="45.34349" lon="1.24373">
        <ele>344.899994</ele>
        <time>2011-05-02T15:08:06Z</time>
      </trkpt>
      <trkpt lat="45.34345" lon="1.24373">
        <ele>345</ele>
        <time>2011-05-02T15:08:07Z</time>
      </trkpt>
      <trkpt lat="45.3434" lon="1.24373">
        <ele>345</ele>
        <time>2011-05-02T15:08:08Z</time>
      </trkpt>
      <trkpt lat="45.34335" lon="1.24373">
        <ele>345.100006</ele>
        <time>2011-05-02T15:08:09Z</time>
      </trkpt>
      <trkpt lat="45.34331" lon="1.24373">
        <ele>345.100006</ele>
        <time>2011-05-02T15:08:10Z</time>
      </trkpt>
      <trkpt lat="45.34326" lon="1.24374">
        <ele>345.200012</ele>
        <time>2011-05-02T15:08:11Z</time>
      </trkpt>
      <trkpt lat="45.34321" lon="1.24375">
        <ele>345.200012</ele>
        <time>2011-05-02T15:08:12Z</time>
      </trkpt>
      <trkpt lat="45.34316" lon="1.24375">
        <ele>344.299988</ele>
        <time>2011-05-02T15:08:13Z</time>
      </trkpt>
      <trkpt lat="45.34311" lon="1.24375">
        <ele>343.600006</ele>
        <time>2011-05-02T15:08:14Z</time>
      </trkpt>
      <trkpt lat="45.34305" lon="1.24375">
        <ele>342.899994</ele>
        <time>2011-05-02T15:08:15Z</time>
      </trkpt>
      <trkpt lat="45.343" lon="1.24376">
        <ele>342.399994</ele>
        <time>2011-05-02T15:08:16Z</time>
      </trkpt>
      <trkpt lat="45.34295" lon="1.24377">
        <ele>342</ele>
        <time>2011-05-02T15:08:17Z</time>
      </trkpt>
      <trkpt lat="45.3429" lon="1.24377">
        <ele>341.799988</ele>
        <time>2011-05-02T15:08:18Z</time>
      </trkpt>
      <trkpt lat="45.34284" lon="1.24377">
        <ele>341.700012</ele>
        <time>2011-05-02T15:08:19Z</time>
      </trkpt>
      <trkpt lat="45.34279" lon="1.24378">
        <ele>341.799988</ele>
        <time>2011-05-02T15:08:20Z</time>
      </trkpt>
      <trkpt lat="45.34273" lon="1.24378">
        <ele>341.799988</ele>
        <time>2011-05-02T15:08:21Z</time>
      </trkpt>
      <trkpt lat="45.34268" lon="1.24378">
        <ele>341.700012</ele>
        <time>2011-05-02T15:08:22Z</time>
      </trkpt>
      <trkpt lat="45.34262" lon="1.24378">
        <ele>341.600006</ele>
        <time>2011-05-02T15:08:23Z</time>
      </trkpt>
      <trkpt lat="45.34256" lon="1.24378">
        <ele>341.5</ele>
        <time>2011-05-02T15:08:24Z</time>
      </trkpt>
      <trkpt lat="45.34251" lon="1.24377">
        <ele>341.399994</ele>
        <time>2011-05-02T15:08:25Z</time>
      </trkpt>
      <trkpt lat="45.34245" lon="1.24376">
        <ele>341.299988</ele>
        <time>2011-05-02T15:08:26Z</time>
      </trkpt>
      <trkpt lat="45.34239" lon="1.24374">
        <ele>341.200012</ele>
        <time>2011-05-02T15:08:27Z</time>
      </trkpt>
      <trkpt lat="45.34234" lon="1.24371">
        <ele>341.100006</ele>
        <time>2011-05-02T15:08:28Z</time>
      </trkpt>
      <trkpt lat="45.34229" lon="1.24368">
        <ele>340.700012</ele>
        <time>2011-05-02T15:08:29Z</time>
      </trkpt>
      <trkpt lat="45.34224" lon="1.24365">
        <ele>340.399994</ele>
        <time>2011-05-02T15:08:30Z</time>
      </trkpt>
      <trkpt lat="45.34219" lon="1.24361">
        <ele>340.200012</ele>
        <time>2011-05-02T15:08:31Z</time>
      </trkpt>
      <trkpt lat="45.34215" lon="1.24356">
        <ele>340.100006</ele>
        <time>2011-05-02T15:08:32Z</time>
      </trkpt>
      <trkpt lat="45.3421" lon="1.24352">
        <ele>340</ele>
        <time>2011-05-02T15:08:33Z</time>
      </trkpt>
      <trkpt lat="45.34206" lon="1.24348">
        <ele>340.100006</ele>
        <time>2011-05-02T15:08:34Z</time>
      </trkpt>
      <trkpt lat="45.34202" lon="1.24344">
        <ele>340.200012</ele>
        <time>2011-05-02T15:08:35Z</time>
      </trkpt>
      <trkpt lat="45.34198" lon="1.2434">
        <ele>340.200012</ele>
        <time>2011-05-02T15:08:36Z</time>
      </trkpt>
      <trkpt lat="45.34194" lon="1.24337">
        <ele>340.5</ele>
        <time>2011-05-02T15:08:37Z</time>
      </trkpt>
      <trkpt lat="45.34186" lon="1.24331">
        <ele>340.799988</ele>
        <time>2011-05-02T15:08:39Z</time>
      </trkpt>
      <trkpt lat="45.34179" lon="1.24324">
        <ele>341</ele>
        <time>2011-05-02T15:08:41Z</time>
      </trkpt>
      <trkpt lat="45.34171" lon="1.24319">
        <ele>341.200012</ele>
        <time>2011-05-02T15:08:43Z</time>
      </trkpt>
      <trkpt lat="45.34163" lon="1.24313">
        <ele>341.399994</ele>
        <time>2011-05-02T15:08:45Z</time>
      </trkpt>
      <trkpt lat="45.34159" lon="1.2431">
        <ele>341.600006</ele>
        <time>2011-05-02T15:08:46Z</time>
      </trkpt>
      <trkpt lat="45.34148" lon="1.24302">
        <ele>341.899994</ele>
        <time>2011-05-02T15:08:49Z</time>
      </trkpt>
      <trkpt lat="45.34141" lon="1.24296">
        <ele>342</ele>
        <time>2011-05-02T15:08:51Z</time>
      </trkpt>
      <trkpt lat="45.34134" lon="1.24291">
        <ele>342.299988</ele>
        <time>2011-05-02T15:08:53Z</time>
      </trkpt>
      <trkpt lat="45.34126" lon="1.24286">
        <ele>343</ele>
        <time>2011-05-02T15:08:55Z</time>
      </trkpt>
      <trkpt lat="45.34119" lon="1.2428">
        <ele>343.700012</ele>
        <time>2011-05-02T15:08:57Z</time>
      </trkpt>
      <trkpt lat="45.34112" lon="1.24275">
        <ele>344</ele>
        <time>2011-05-02T15:08:59Z</time>
      </trkpt>
      <trkpt lat="45.34105" lon="1.2427">
        <ele>344.200012</ele>
        <time>2011-05-02T15:09:01Z</time>
      </trkpt>
      <trkpt lat="45.34097" lon="1.24267">
        <ele>344.799988</ele>
        <time>2011-05-02T15:09:03Z</time>
      </trkpt>
      <trkpt lat="45.3409" lon="1.24266">
        <ele>345.299988</ele>
        <time>2011-05-02T15:09:05Z</time>
      </trkpt>
      <trkpt lat="45.34082" lon="1.24271">
        <ele>346.100006</ele>
        <time>2011-05-02T15:09:08Z</time>
      </trkpt>
      <trkpt lat="45.34077" lon="1.24275">
        <ele>346.399994</ele>
        <time>2011-05-02T15:09:10Z</time>
      </trkpt>
      <trkpt lat="45.34072" lon="1.24281">
        <ele>346.600006</ele>
        <time>2011-05-02T15:09:12Z</time>
      </trkpt>
      <trkpt lat="45.34067" lon="1.24288">
        <ele>347.100006</ele>
        <time>2011-05-02T15:09:14Z</time>
      </trkpt>
      <trkpt lat="45.34061" lon="1.24294">
        <ele>347.799988</ele>
        <time>2011-05-02T15:09:16Z</time>
      </trkpt>
      <trkpt lat="45.34055" lon="1.24301">
        <ele>347.799988</ele>
        <time>2011-05-02T15:09:18Z</time>
      </trkpt>
      <trkpt lat="45.34048" lon="1.24307">
        <ele>347.700012</ele>
        <time>2011-05-02T15:09:20Z</time>
      </trkpt>
      <trkpt lat="45.34041" lon="1.24312">
        <ele>347.600006</ele>
        <time>2011-05-02T15:09:22Z</time>
      </trkpt>
      <trkpt lat="45.34034" lon="1.24317">
        <ele>347.299988</ele>
        <time>2011-05-02T15:09:24Z</time>
      </trkpt>
      <trkpt lat="45.34027" lon="1.24322">
        <ele>347.100006</ele>
        <time>2011-05-02T15:09:26Z</time>
      </trkpt>
      <trkpt lat="45.34021" lon="1.24329">
        <ele>347.100006</ele>
        <time>2011-05-02T15:09:28Z</time>
      </trkpt>
      <trkpt lat="45.34015" lon="1.24337">
        <ele>347.5</ele>
        <time>2011-05-02T15:09:30Z</time>
      </trkpt>
      <trkpt lat="45.34011" lon="1.24346">
        <ele>348.200012</ele>
        <time>2011-05-02T15:09:32Z</time>
      </trkpt>
      <trkpt lat="45.34006" lon="1.24354">
        <ele>348.200012</ele>
        <time>2011-05-02T15:09:34Z</time>
      </trkpt>
      <trkpt lat="45.34001" lon="1.24362">
        <ele>347.799988</ele>
        <time>2011-05-02T15:09:36Z</time>
      </trkpt>
      <trkpt lat="45.33996" lon="1.24367">
        <ele>347.5</ele>
        <time>2011-05-02T15:09:38Z</time>
      </trkpt>
      <trkpt lat="45.3399" lon="1.24372">
        <ele>347.5</ele>
        <time>2011-05-02T15:09:40Z</time>
      </trkpt>
      <trkpt lat="45.33982" lon="1.24377">
        <ele>347.100006</ele>
        <time>2011-05-02T15:09:43Z</time>
      </trkpt>
      <trkpt lat="45.33978" lon="1.24388">
        <ele>347</ele>
        <time>2011-05-02T15:09:46Z</time>
      </trkpt>
      <trkpt lat="45.33977" lon="1.24392">
        <ele>347.100006</ele>
        <time>2011-05-02T15:09:47Z</time>
      </trkpt>
      <trkpt lat="45.33975" lon="1.24406">
        <ele>347</ele>
        <time>2011-05-02T15:09:50Z</time>
      </trkpt>
      <trkpt lat="45.33973" lon="1.24415">
        <ele>347</ele>
        <time>2011-05-02T15:09:52Z</time>
      </trkpt>
      <trkpt lat="45.33972" lon="1.24424">
        <ele>347.299988</ele>
        <time>2011-05-02T15:09:54Z</time>
      </trkpt>
      <trkpt lat="45.3397" lon="1.24433">
        <ele>347.600006</ele>
        <time>2011-05-02T15:09:56Z</time>
      </trkpt>
      <trkpt lat="45.33968" lon="1.24442">
        <ele>348</ele>
        <time>2011-05-02T15:09:58Z</time>
      </trkpt>
      <trkpt lat="45.33967" lon="1.24452">
        <ele>348</ele>
        <time>2011-05-02T15:10:00Z</time>
      </trkpt>
      <trkpt lat="45.33966" lon="1.24462">
        <ele>347.600006</ele>
        <time>2011-05-02T15:10:02Z</time>
      </trkpt>
      <trkpt lat="45.33965" lon="1.24472">
        <ele>347.299988</ele>
        <time>2011-05-02T15:10:04Z</time>
      </trkpt>
      <trkpt lat="45.33964" lon="1.24481">
        <ele>347</ele>
        <time>2011-05-02T15:10:06Z</time>
      </trkpt>
      <trkpt lat="45.33962" lon="1.24489">
        <ele>346.600006</ele>
        <time>2011-05-02T15:10:08Z</time>
      </trkpt>
      <trkpt lat="45.33959" lon="1.24501">
        <ele>346.399994</ele>
        <time>2011-05-02T15:10:11Z</time>
      </trkpt>
      <trkpt lat="45.33956" lon="1.24513">
        <ele>346.899994</ele>
        <time>2011-05-02T15:10:14Z</time>
      </trkpt>
      <trkpt lat="45.33952" lon="1.24524">
        <ele>347.5</ele>
        <time>2011-05-02T15:10:17Z</time>
      </trkpt>
      <trkpt lat="45.33948" lon="1.24534">
        <ele>347.299988</ele>
        <time>2011-05-02T15:10:20Z</time>
      </trkpt>
      <trkpt lat="45.3394" lon="1.24538">
        <ele>346.5</ele>
        <time>2011-05-02T15:10:23Z</time>
      </trkpt>
      <trkpt lat="45.33934" lon="1.24535">
        <ele>346.5</ele>
        <time>2011-05-02T15:10:25Z</time>
      </trkpt>
      <trkpt lat="45.33929" lon="1.24532">
        <ele>346.399994</ele>
        <time>2011-05-02T15:10:27Z</time>
      </trkpt>
      <trkpt lat="45.33923" lon="1.24529">
        <ele>346.399994</ele>
        <time>2011-05-02T15:10:29Z</time>
      </trkpt>
      <trkpt lat="45.33915" lon="1.24526">
        <ele>347</ele>
        <time>2011-05-02T15:10:32Z</time>
      </trkpt>
      <trkpt lat="45.33907" lon="1.2452">
        <ele>346.600006</ele>
        <time>2011-05-02T15:11:21Z</time>
      </trkpt>
      <trkpt lat="45.33907" lon="1.2452">
        <ele>346.600006</ele>
        <time>2011-05-02T15:11:22Z</time>
      </trkpt>
      <trkpt lat="45.33897" lon="1.24516">
        <ele>347.5</ele>
        <time>2011-05-02T15:16:51Z</time>
      </trkpt>
      <trkpt lat="45.33884" lon="1.24512">
        <ele>348.200012</ele>
        <time>2011-05-02T15:16:57Z</time>
      </trkpt>
      <trkpt lat="45.33876" lon="1.24509">
        <ele>347.700012</ele>
        <time>2011-05-02T15:17:28Z</time>
      </trkpt>
      <trkpt lat="45.33873" lon="1.24499">
        <ele>348.100006</ele>
        <time>2011-05-02T15:17:34Z</time>
      </trkpt>
      <trkpt lat="45.33876" lon="1.24489">
        <ele>347</ele>
        <time>2011-05-02T15:17:38Z</time>
      </trkpt>
      <trkpt lat="45.33878" lon="1.24479">
        <ele>347.100006</ele>
        <time>2011-05-02T15:17:41Z</time>
      </trkpt>
      <trkpt lat="45.33882" lon="1.24468">
        <ele>347.299988</ele>
        <time>2011-05-02T15:17:44Z</time>
      </trkpt>
      <trkpt lat="45.33884" lon="1.2446">
        <ele>347.299988</ele>
        <time>2011-05-02T15:17:46Z</time>
      </trkpt>
      <trkpt lat="45.33886" lon="1.24449">
        <ele>347.399994</ele>
        <time>2011-05-02T15:17:49Z</time>
      </trkpt>
      <trkpt lat="45.33882" lon="1.24439">
        <ele>347.600006</ele>
        <time>2011-05-02T15:17:52Z</time>
      </trkpt>
      <trkpt lat="45.33879" lon="1.24437">
        <ele>347.399994</ele>
        <time>2011-05-02T15:17:53Z</time>
      </trkpt>
      <trkpt lat="45.33871" lon="1.24431">
        <ele>346.700012</ele>
        <time>2011-05-02T15:17:56Z</time>
      </trkpt>
      <trkpt lat="45.33866" lon="1.24422">
        <ele>345.399994</ele>
        <time>2011-05-02T15:17:59Z</time>
      </trkpt>
      <trkpt lat="45.33866" lon="1.24412">
        <ele>344</ele>
        <time>2011-05-02T15:18:02Z</time>
      </trkpt>
      <trkpt lat="45.33863" lon="1.24402">
        <ele>343</ele>
        <time>2011-05-02T15:18:05Z</time>
      </trkpt>
      <trkpt lat="45.33859" lon="1.24394">
        <ele>341.399994</ele>
        <time>2011-05-02T15:18:07Z</time>
      </trkpt>
      <trkpt lat="45.33854" lon="1.24385">
        <ele>340.700012</ele>
        <time>2011-05-02T15:18:09Z</time>
      </trkpt>
      <trkpt lat="45.3385" lon="1.24375">
        <ele>340.5</ele>
        <time>2011-05-02T15:18:11Z</time>
      </trkpt>
      <trkpt lat="45.33846" lon="1.24366">
        <ele>339.700012</ele>
        <time>2011-05-02T15:18:13Z</time>
      </trkpt>
      <trkpt lat="45.33843" lon="1.24355">
        <ele>338.700012</ele>
        <time>2011-05-02T15:18:15Z</time>
      </trkpt>
      <trkpt lat="45.33841" lon="1.24348">
        <ele>338.200012</ele>
        <time>2011-05-02T15:18:16Z</time>
      </trkpt>
      <trkpt lat="45.3384" lon="1.24341">
        <ele>337.799988</ele>
        <time>2011-05-02T15:18:17Z</time>
      </trkpt>
      <trkpt lat="45.33839" lon="1.24333">
        <ele>336.799988</ele>
        <time>2011-05-02T15:18:18Z</time>
      </trkpt>
      <trkpt lat="45.33837" lon="1.24325">
        <ele>336</ele>
        <time>2011-05-02T15:18:19Z</time>
      </trkpt>
      <trkpt lat="45.33836" lon="1.24317">
        <ele>335.600006</ele>
        <time>2011-05-02T15:18:20Z</time>
      </trkpt>
      <trkpt lat="45.33835" lon="1.24309">
        <ele>335.299988</ele>
        <time>2011-05-02T15:18:21Z</time>
      </trkpt>
      <trkpt lat="45.33834" lon="1.243">
        <ele>335.100006</ele>
        <time>2011-05-02T15:18:22Z</time>
      </trkpt>
      <trkpt lat="45.33833" lon="1.24293">
        <ele>334.5</ele>
        <time>2011-05-02T15:18:23Z</time>
      </trkpt>
      <trkpt lat="45.33833" lon="1.24285">
        <ele>334.100006</ele>
        <time>2011-05-02T15:18:24Z</time>
      </trkpt>
      <trkpt lat="45.33833" lon="1.24278">
        <ele>334</ele>
        <time>2011-05-02T15:18:25Z</time>
      </trkpt>
      <trkpt lat="45.33833" lon="1.24266">
        <ele>333.799988</ele>
        <time>2011-05-02T15:18:27Z</time>
      </trkpt>
      <trkpt lat="45.33833" lon="1.24253">
        <ele>333.600006</ele>
        <time>2011-05-02T15:18:29Z</time>
      </trkpt>
      <trkpt lat="45.33831" lon="1.24241">
        <ele>333.600006</ele>
        <time>2011-05-02T15:18:31Z</time>
      </trkpt>
      <trkpt lat="45.3383" lon="1.24232">
        <ele>332.200012</ele>
        <time>2011-05-02T15:18:33Z</time>
      </trkpt>
      <trkpt lat="45.33829" lon="1.2422">
        <ele>331.899994</ele>
        <time>2011-05-02T15:18:35Z</time>
      </trkpt>
      <trkpt lat="45.33828" lon="1.2421">
        <ele>331.600006</ele>
        <time>2011-05-02T15:18:37Z</time>
      </trkpt>
      <trkpt lat="45.33826" lon="1.24198">
        <ele>330.799988</ele>
        <time>2011-05-02T15:18:40Z</time>
      </trkpt>
      <trkpt lat="45.33824" lon="1.24188">
        <ele>329.600006</ele>
        <time>2011-05-02T15:18:43Z</time>
      </trkpt>
      <trkpt lat="45.33822" lon="1.24181">
        <ele>328.200012</ele>
        <time>2011-05-02T15:18:45Z</time>
      </trkpt>
      <trkpt lat="45.3382" lon="1.24172">
        <ele>327.600006</ele>
        <time>2011-05-02T15:18:47Z</time>
      </trkpt>
      <trkpt lat="45.33817" lon="1.24164">
        <ele>326.799988</ele>
        <time>2011-05-02T15:18:49Z</time>
      </trkpt>
      <trkpt lat="45.33814" lon="1.24154">
        <ele>325.5</ele>
        <time>2011-05-02T15:18:52Z</time>
      </trkpt>
      <trkpt lat="45.3381" lon="1.24142">
        <ele>323.600006</ele>
        <time>2011-05-02T15:19:00Z</time>
      </trkpt>
      <trkpt lat="45.3381" lon="1.24142">
        <ele>323.399994</ele>
        <time>2011-05-02T15:19:01Z</time>
      </trkpt>
      <trkpt lat="45.33802" lon="1.24125">
        <ele>323</ele>
        <time>2011-05-02T15:19:30Z</time>
      </trkpt>
      <trkpt lat="45.33798" lon="1.24114">
        <ele>323.399994</ele>
        <time>2011-05-02T15:20:27Z</time>
      </trkpt>
      <trkpt lat="45.33795" lon="1.24111">
        <ele>323.100006</ele>
        <time>2011-05-02T15:20:28Z</time>
      </trkpt>
      <trkpt lat="45.33785" lon="1.24101">
        <ele>322.299988</ele>
        <time>2011-05-02T15:20:31Z</time>
      </trkpt>
      <trkpt lat="45.33778" lon="1.24097">
        <ele>321.600006</ele>
        <time>2011-05-02T15:20:33Z</time>
      </trkpt>
      <trkpt lat="45.33772" lon="1.24093">
        <ele>321</ele>
        <time>2011-05-02T15:20:35Z</time>
      </trkpt>
      <trkpt lat="45.33764" lon="1.24091">
        <ele>320.5</ele>
        <time>2011-05-02T15:20:38Z</time>
      </trkpt>
      <trkpt lat="45.33755" lon="1.24089">
        <ele>319.799988</ele>
        <time>2011-05-02T15:20:41Z</time>
      </trkpt>
      <trkpt lat="45.33748" lon="1.24085">
        <ele>319.600006</ele>
        <time>2011-05-02T15:20:44Z</time>
      </trkpt>
      <trkpt lat="45.33741" lon="1.24079">
        <ele>318.200012</ele>
        <time>2011-05-02T15:20:47Z</time>
      </trkpt>
      <trkpt lat="45.33736" lon="1.24072">
        <ele>316.600006</ele>
        <time>2011-05-02T15:20:50Z</time>
      </trkpt>
      <trkpt lat="45.33729" lon="1.24064">
        <ele>314.399994</ele>
        <time>2011-05-02T15:20:54Z</time>
      </trkpt>
      <trkpt lat="45.33723" lon="1.24056">
        <ele>312.899994</ele>
        <time>2011-05-02T15:20:58Z</time>
      </trkpt>
      <trkpt lat="45.33717" lon="1.24049">
        <ele>312.600006</ele>
        <time>2011-05-02T15:21:01Z</time>
      </trkpt>
      <trkpt lat="45.33714" lon="1.24041">
        <ele>311.799988</ele>
        <time>2011-05-02T15:21:03Z</time>
      </trkpt>
      <trkpt lat="45.33709" lon="1.2403">
        <ele>310.600006</ele>
        <time>2011-05-02T15:21:06Z</time>
      </trkpt>
      <trkpt lat="45.33705" lon="1.24023">
        <ele>309.600006</ele>
        <time>2011-05-02T15:21:09Z</time>
      </trkpt>
      <trkpt lat="45.33699" lon="1.24014">
        <ele>308.799988</ele>
        <time>2011-05-02T15:21:12Z</time>
      </trkpt>
      <trkpt lat="45.33694" lon="1.24006">
        <ele>307.700012</ele>
        <time>2011-05-02T15:21:14Z</time>
      </trkpt>
      <trkpt lat="45.3369" lon="1.23999">
        <ele>307.100006</ele>
        <time>2011-05-02T15:21:16Z</time>
      </trkpt>
      <trkpt lat="45.33683" lon="1.23991">
        <ele>305.399994</ele>
        <time>2011-05-02T15:21:19Z</time>
      </trkpt>
      <trkpt lat="45.33677" lon="1.23982">
        <ele>304.700012</ele>
        <time>2011-05-02T15:21:23Z</time>
      </trkpt>
      <trkpt lat="45.33671" lon="1.23973">
        <ele>303.100006</ele>
        <time>2011-05-02T15:21:28Z</time>
      </trkpt>
      <trkpt lat="45.3367" lon="1.23971">
        <ele>303</ele>
        <time>2011-05-02T15:21:29Z</time>
      </trkpt>
      <trkpt lat="45.33656" lon="1.23968">
        <ele>301.899994</ele>
        <time>2011-05-02T15:21:35Z</time>
      </trkpt>
      <trkpt lat="45.33648" lon="1.23973">
        <ele>300.399994</ele>
        <time>2011-05-02T15:21:39Z</time>
      </trkpt>
      <trkpt lat="45.33643" lon="1.23981">
        <ele>300.100006</ele>
        <time>2011-05-02T15:21:42Z</time>
      </trkpt>
      <trkpt lat="45.33639" lon="1.23989">
        <ele>298.299988</ele>
        <time>2011-05-02T15:21:45Z</time>
      </trkpt>
      <trkpt lat="45.33638" lon="1.24">
        <ele>297.899994</ele>
        <time>2011-05-02T15:21:48Z</time>
      </trkpt>
      <trkpt lat="45.33636" lon="1.24011">
        <ele>297</ele>
        <time>2011-05-02T15:21:51Z</time>
      </trkpt>
      <trkpt lat="45.33635" lon="1.24022">
        <ele>296.700012</ele>
        <time>2011-05-02T15:21:53Z</time>
      </trkpt>
      <trkpt lat="45.33633" lon="1.24032">
        <ele>295.299988</ele>
        <time>2011-05-02T15:21:55Z</time>
      </trkpt>
      <trkpt lat="45.33634" lon="1.24043">
        <ele>293.5</ele>
        <time>2011-05-02T15:21:58Z</time>
      </trkpt>
      <trkpt lat="45.33633" lon="1.24052">
        <ele>292.399994</ele>
        <time>2011-05-02T15:22:00Z</time>
      </trkpt>
      <trkpt lat="45.33629" lon="1.24061">
        <ele>291.200012</ele>
        <time>2011-05-02T15:22:02Z</time>
      </trkpt>
      <trkpt lat="45.33626" lon="1.2407">
        <ele>291</ele>
        <time>2011-05-02T15:22:04Z</time>
      </trkpt>
      <trkpt lat="45.33623" lon="1.24078">
        <ele>290.200012</ele>
        <time>2011-05-02T15:22:07Z</time>
      </trkpt>
      <trkpt lat="45.33616" lon="1.24072">
        <ele>289.799988</ele>
        <time>2011-05-02T15:22:30Z</time>
      </trkpt>
      <trkpt lat="45.33615" lon="1.2407">
        <ele>289.799988</ele>
        <time>2011-05-02T15:22:31Z</time>
      </trkpt>
      <trkpt lat="45.33603" lon="1.24067">
        <ele>289.700012</ele>
        <time>2011-05-02T15:22:42Z</time>
      </trkpt>
      <trkpt lat="45.33595" lon="1.24068">
        <ele>289</ele>
        <time>2011-05-02T15:22:45Z</time>
      </trkpt>
      <trkpt lat="45.33587" lon="1.24069">
        <ele>287</ele>
        <time>2011-05-02T15:22:48Z</time>
      </trkpt>
      <trkpt lat="45.33579" lon="1.24074">
        <ele>285.299988</ele>
        <time>2011-05-02T15:22:51Z</time>
      </trkpt>
      <trkpt lat="45.33571" lon="1.24077">
        <ele>283.600006</ele>
        <time>2011-05-02T15:22:53Z</time>
      </trkpt>
      <trkpt lat="45.33563" lon="1.24077">
        <ele>282.200012</ele>
        <time>2011-05-02T15:22:55Z</time>
      </trkpt>
      <trkpt lat="45.33558" lon="1.24077">
        <ele>281.899994</ele>
        <time>2011-05-02T15:22:56Z</time>
      </trkpt>
      <trkpt lat="45.3355" lon="1.24077">
        <ele>281.200012</ele>
        <time>2011-05-02T15:22:58Z</time>
      </trkpt>
      <trkpt lat="45.33542" lon="1.24076">
        <ele>280.600006</ele>
        <time>2011-05-02T15:23:00Z</time>
      </trkpt>
      <trkpt lat="45.33534" lon="1.24075">
        <ele>279.899994</ele>
        <time>2011-05-02T15:23:03Z</time>
      </trkpt>
      <trkpt lat="45.33526" lon="1.24075">
        <ele>279.600006</ele>
        <time>2011-05-02T15:23:07Z</time>
      </trkpt>
      <trkpt lat="45.33519" lon="1.24075">
        <ele>279.600006</ele>
        <time>2011-05-02T15:23:10Z</time>
      </trkpt>
      <trkpt lat="45.33512" lon="1.24075">
        <ele>279.100006</ele>
        <time>2011-05-02T15:23:13Z</time>
      </trkpt>
      <trkpt lat="45.33504" lon="1.24076">
        <ele>278.700012</ele>
        <time>2011-05-02T15:23:16Z</time>
      </trkpt>
      <trkpt lat="45.33496" lon="1.24076">
        <ele>278.799988</ele>
        <time>2011-05-02T15:23:19Z</time>
      </trkpt>
      <trkpt lat="45.33488" lon="1.24075">
        <ele>279.299988</ele>
        <time>2011-05-02T15:23:22Z</time>
      </trkpt>
      <trkpt lat="45.33484" lon="1.24064">
        <ele>279.799988</ele>
        <time>2011-05-02T15:23:28Z</time>
      </trkpt>
      <trkpt lat="45.33484" lon="1.24053">
        <ele>281.200012</ele>
        <time>2011-05-02T15:23:34Z</time>
      </trkpt>
      <trkpt lat="45.33484" lon="1.2405">
        <ele>281.700012</ele>
        <time>2011-05-02T15:23:35Z</time>
      </trkpt>
      <trkpt lat="45.33481" lon="1.24029">
        <ele>283.200012</ele>
        <time>2011-05-02T15:23:45Z</time>
      </trkpt>
      <trkpt lat="45.33479" lon="1.2402">
        <ele>283.299988</ele>
        <time>2011-05-02T15:23:48Z</time>
      </trkpt>
      <trkpt lat="45.33477" lon="1.2401">
        <ele>283.200012</ele>
        <time>2011-05-02T15:23:51Z</time>
      </trkpt>
      <trkpt lat="45.33475" lon="1.23998">
        <ele>283.399994</ele>
        <time>2011-05-02T15:23:55Z</time>
      </trkpt>
      <trkpt lat="45.33474" lon="1.23987">
        <ele>284.899994</ele>
        <time>2011-05-02T15:23:59Z</time>
      </trkpt>
      <trkpt lat="45.33473" lon="1.23976">
        <ele>284.100006</ele>
        <time>2011-05-02T15:24:02Z</time>
      </trkpt>
      <trkpt lat="45.33471" lon="1.23965">
        <ele>283.5</ele>
        <time>2011-05-02T15:24:05Z</time>
      </trkpt>
      <trkpt lat="45.3347" lon="1.23954">
        <ele>283.399994</ele>
        <time>2011-05-02T15:24:08Z</time>
      </trkpt>
      <trkpt lat="45.33468" lon="1.23943">
        <ele>283.799988</ele>
        <time>2011-05-02T15:24:11Z</time>
      </trkpt>
      <trkpt lat="45.33465" lon="1.23933">
        <ele>284</ele>
        <time>2011-05-02T15:24:14Z</time>
      </trkpt>
      <trkpt lat="45.33463" lon="1.23921">
        <ele>284.399994</ele>
        <time>2011-05-02T15:24:18Z</time>
      </trkpt>
      <trkpt lat="45.33462" lon="1.23912">
        <ele>286.100006</ele>
        <time>2011-05-02T15:24:21Z</time>
      </trkpt>
      <trkpt lat="45.33459" lon="1.23899">
        <ele>287.299988</ele>
        <time>2011-05-02T15:24:25Z</time>
      </trkpt>
      <trkpt lat="45.33457" lon="1.23888">
        <ele>287.600006</ele>
        <time>2011-05-02T15:24:29Z</time>
      </trkpt>
      <trkpt lat="45.33456" lon="1.23877">
        <ele>288</ele>
        <time>2011-05-02T15:24:32Z</time>
      </trkpt>
      <trkpt lat="45.33455" lon="1.23865">
        <ele>288.200012</ele>
        <time>2011-05-02T15:24:35Z</time>
      </trkpt>
      <trkpt lat="45.33455" lon="1.2386">
        <ele>288.200012</ele>
        <time>2011-05-02T15:24:36Z</time>
      </trkpt>
      <trkpt lat="45.33457" lon="1.23843">
        <ele>287.899994</ele>
        <time>2011-05-02T15:24:40Z</time>
      </trkpt>
      <trkpt lat="45.33456" lon="1.23831">
        <ele>288.299988</ele>
        <time>2011-05-02T15:24:44Z</time>
      </trkpt>
      <trkpt lat="45.33455" lon="1.23821">
        <ele>287.399994</ele>
        <time>2011-05-02T15:24:46Z</time>
      </trkpt>
      <trkpt lat="45.33454" lon="1.2381">
        <ele>286.799988</ele>
        <time>2011-05-02T15:24:48Z</time>
      </trkpt>
      <trkpt lat="45.33453" lon="1.238">
        <ele>286.399994</ele>
        <time>2011-05-02T15:24:50Z</time>
      </trkpt>
      <trkpt lat="45.33454" lon="1.23788">
        <ele>286.399994</ele>
        <time>2011-05-02T15:24:52Z</time>
      </trkpt>
      <trkpt lat="45.33454" lon="1.23781">
        <ele>286.399994</ele>
        <time>2011-05-02T15:24:53Z</time>
      </trkpt>
      <trkpt lat="45.33454" lon="1.23775">
        <ele>285.700012</ele>
        <time>2011-05-02T15:24:54Z</time>
      </trkpt>
      <trkpt lat="45.33454" lon="1.23768">
        <ele>285.200012</ele>
        <time>2011-05-02T15:24:55Z</time>
      </trkpt>
      <trkpt lat="45.33456" lon="1.23762">
        <ele>284.799988</ele>
        <time>2011-05-02T15:24:56Z</time>
      </trkpt>
      <trkpt lat="45.33456" lon="1.23755">
        <ele>284.200012</ele>
        <time>2011-05-02T15:24:57Z</time>
      </trkpt>
      <trkpt lat="45.33456" lon="1.23748">
        <ele>283.799988</ele>
        <time>2011-05-02T15:24:58Z</time>
      </trkpt>
      <trkpt lat="45.33456" lon="1.2374">
        <ele>283.299988</ele>
        <time>2011-05-02T15:24:59Z</time>
      </trkpt>
      <trkpt lat="45.33456" lon="1.23731">
        <ele>282.899994</ele>
        <time>2011-05-02T15:25:00Z</time>
      </trkpt>
      <trkpt lat="45.33458" lon="1.23722">
        <ele>282.200012</ele>
        <time>2011-05-02T15:25:01Z</time>
      </trkpt>
      <trkpt lat="45.33462" lon="1.23714">
        <ele>281.700012</ele>
        <time>2011-05-02T15:25:02Z</time>
      </trkpt>
      <trkpt lat="45.33465" lon="1.23706">
        <ele>281.399994</ele>
        <time>2011-05-02T15:25:03Z</time>
      </trkpt>
      <trkpt lat="45.33466" lon="1.23696">
        <ele>281</ele>
        <time>2011-05-02T15:25:04Z</time>
      </trkpt>
      <trkpt lat="45.33469" lon="1.23687">
        <ele>280.600006</ele>
        <time>2011-05-02T15:25:05Z</time>
      </trkpt>
      <trkpt lat="45.3347" lon="1.23677">
        <ele>280.600006</ele>
        <time>2011-05-02T15:25:06Z</time>
      </trkpt>
      <trkpt lat="45.33471" lon="1.23668">
        <ele>280.600006</ele>
        <time>2011-05-02T15:25:07Z</time>
      </trkpt>
      <trkpt lat="45.33472" lon="1.23658">
        <ele>279.799988</ele>
        <time>2011-05-02T15:25:08Z</time>
      </trkpt>
      <trkpt lat="45.33472" lon="1.2365">
        <ele>279.200012</ele>
        <time>2011-05-02T15:25:09Z</time>
      </trkpt>
      <trkpt lat="45.33473" lon="1.23641">
        <ele>278.799988</ele>
        <time>2011-05-02T15:25:10Z</time>
      </trkpt>
      <trkpt lat="45.33474" lon="1.23633">
        <ele>278.600006</ele>
        <time>2011-05-02T15:25:11Z</time>
      </trkpt>
      <trkpt lat="45.33474" lon="1.23625">
        <ele>278.5</ele>
        <time>2011-05-02T15:25:12Z</time>
      </trkpt>
      <trkpt lat="45.33474" lon="1.23617">
        <ele>278.5</ele>
        <time>2011-05-02T15:25:13Z</time>
      </trkpt>
      <trkpt lat="45.33473" lon="1.23609">
        <ele>278.600006</ele>
        <time>2011-05-02T15:25:14Z</time>
      </trkpt>
      <trkpt lat="45.33472" lon="1.23602">
        <ele>278.600006</ele>
        <time>2011-05-02T15:25:15Z</time>
      </trkpt>
      <trkpt lat="45.3347" lon="1.23595">
        <ele>278.700012</ele>
        <time>2011-05-02T15:25:16Z</time>
      </trkpt>
      <trkpt lat="45.33468" lon="1.23583">
        <ele>279.299988</ele>
        <time>2011-05-02T15:25:18Z</time>
      </trkpt>
      <trkpt lat="45.33465" lon="1.23572">
        <ele>279.299988</ele>
        <time>2011-05-02T15:25:20Z</time>
      </trkpt>
      <trkpt lat="45.33464" lon="1.2356">
        <ele>279</ele>
        <time>2011-05-02T15:25:22Z</time>
      </trkpt>
      <trkpt lat="45.33464" lon="1.23553">
        <ele>278.700012</ele>
        <time>2011-05-02T15:25:23Z</time>
      </trkpt>
      <trkpt lat="45.33464" lon="1.23547">
        <ele>278.5</ele>
        <time>2011-05-02T15:25:24Z</time>
      </trkpt>
      <trkpt lat="45.33465" lon="1.2354">
        <ele>278.399994</ele>
        <time>2011-05-02T15:25:25Z</time>
      </trkpt>
      <trkpt lat="45.33465" lon="1.23532">
        <ele>278.399994</ele>
        <time>2011-05-02T15:25:26Z</time>
      </trkpt>
      <trkpt lat="45.33465" lon="1.23524">
        <ele>278.399994</ele>
        <time>2011-05-02T15:25:27Z</time>
      </trkpt>
      <trkpt lat="45.33464" lon="1.23516">
        <ele>278.399994</ele>
        <time>2011-05-02T15:25:28Z</time>
      </trkpt>
      <trkpt lat="45.33463" lon="1.23508">
        <ele>278.399994</ele>
        <time>2011-05-02T15:25:29Z</time>
      </trkpt>
      <trkpt lat="45.33463" lon="1.235">
        <ele>278.299988</ele>
        <time>2011-05-02T15:25:30Z</time>
      </trkpt>
      <trkpt lat="45.33462" lon="1.23492">
        <ele>278.299988</ele>
        <time>2011-05-02T15:25:31Z</time>
      </trkpt>
      <trkpt lat="45.33461" lon="1.23485">
        <ele>277.899994</ele>
        <time>2011-05-02T15:25:32Z</time>
      </trkpt>
      <trkpt lat="45.33461" lon="1.23477">
        <ele>277.600006</ele>
        <time>2011-05-02T15:25:33Z</time>
      </trkpt>
      <trkpt lat="45.3346" lon="1.2347">
        <ele>277.299988</ele>
        <time>2011-05-02T15:25:34Z</time>
      </trkpt>
      <trkpt lat="45.3346" lon="1.23463">
        <ele>277</ele>
        <time>2011-05-02T15:25:35Z</time>
      </trkpt>
      <trkpt lat="45.3346" lon="1.23456">
        <ele>276.700012</ele>
        <time>2011-05-02T15:25:36Z</time>
      </trkpt>
      <trkpt lat="45.3346" lon="1.23449">
        <ele>276.399994</ele>
        <time>2011-05-02T15:25:37Z</time>
      </trkpt>
      <trkpt lat="45.3346" lon="1.23437">
        <ele>276.299988</ele>
        <time>2011-05-02T15:25:39Z</time>
      </trkpt>
      <trkpt lat="45.33459" lon="1.2343">
        <ele>276.600006</ele>
        <time>2011-05-02T15:25:40Z</time>
      </trkpt>
      <trkpt lat="45.33457" lon="1.23418">
        <ele>276.5</ele>
        <time>2011-05-02T15:25:42Z</time>
      </trkpt>
      <trkpt lat="45.33454" lon="1.23406">
        <ele>275.799988</ele>
        <time>2011-05-02T15:25:44Z</time>
      </trkpt>
      <trkpt lat="45.33453" lon="1.23396">
        <ele>275.5</ele>
        <time>2011-05-02T15:25:46Z</time>
      </trkpt>
      <trkpt lat="45.33451" lon="1.23385">
        <ele>275.399994</ele>
        <time>2011-05-02T15:25:48Z</time>
      </trkpt>
      <trkpt lat="45.33449" lon="1.23374">
        <ele>275.600006</ele>
        <time>2011-05-02T15:25:50Z</time>
      </trkpt>
      <trkpt lat="45.33447" lon="1.23362">
        <ele>275.100006</ele>
        <time>2011-05-02T15:25:52Z</time>
      </trkpt>
      <trkpt lat="45.33446" lon="1.23351">
        <ele>274.899994</ele>
        <time>2011-05-02T15:25:54Z</time>
      </trkpt>
      <trkpt lat="45.33444" lon="1.23338">
        <ele>274.799988</ele>
        <time>2011-05-02T15:25:56Z</time>
      </trkpt>
      <trkpt lat="45.33442" lon="1.23327">
        <ele>274.399994</ele>
        <time>2011-05-02T15:25:58Z</time>
      </trkpt>
      <trkpt lat="45.33441" lon="1.23315">
        <ele>274</ele>
        <time>2011-05-02T15:26:00Z</time>
      </trkpt>
      <trkpt lat="45.33439" lon="1.23304">
        <ele>273.700012</ele>
        <time>2011-05-02T15:26:02Z</time>
      </trkpt>
      <trkpt lat="45.33436" lon="1.23293">
        <ele>273.5</ele>
        <time>2011-05-02T15:26:04Z</time>
      </trkpt>
      <trkpt lat="45.33434" lon="1.23282">
        <ele>273.600006</ele>
        <time>2011-05-02T15:26:06Z</time>
      </trkpt>
      <trkpt lat="45.3343" lon="1.23271">
        <ele>273.5</ele>
        <time>2011-05-02T15:26:08Z</time>
      </trkpt>
      <trkpt lat="45.33426" lon="1.23261">
        <ele>273.299988</ele>
        <time>2011-05-02T15:26:10Z</time>
      </trkpt>
      <trkpt lat="45.33423" lon="1.23252">
        <ele>273.299988</ele>
        <time>2011-05-02T15:26:12Z</time>
      </trkpt>
      <trkpt lat="45.33419" lon="1.23243">
        <ele>273.5</ele>
        <time>2011-05-02T15:26:14Z</time>
      </trkpt>
      <trkpt lat="45.33414" lon="1.23234">
        <ele>273.5</ele>
        <time>2011-05-02T15:26:16Z</time>
      </trkpt>
      <trkpt lat="45.33408" lon="1.23225">
        <ele>273.600006</ele>
        <time>2011-05-02T15:26:18Z</time>
      </trkpt>
      <trkpt lat="45.33402" lon="1.23216">
        <ele>273.799988</ele>
        <time>2011-05-02T15:26:20Z</time>
      </trkpt>
      <trkpt lat="45.33396" lon="1.23208">
        <ele>273.600006</ele>
        <time>2011-05-02T15:26:22Z</time>
      </trkpt>
      <trkpt lat="45.33389" lon="1.23201">
        <ele>273.5</ele>
        <time>2011-05-02T15:26:24Z</time>
      </trkpt>
      <trkpt lat="45.33382" lon="1.23193">
        <ele>273.700012</ele>
        <time>2011-05-02T15:26:26Z</time>
      </trkpt>
      <trkpt lat="45.33376" lon="1.23185">
        <ele>273.399994</ele>
        <time>2011-05-02T15:26:28Z</time>
      </trkpt>
      <trkpt lat="45.33368" lon="1.23178">
        <ele>273.700012</ele>
        <time>2011-05-02T15:26:30Z</time>
      </trkpt>
      <trkpt lat="45.33361" lon="1.23172">
        <ele>273.299988</ele>
        <time>2011-05-02T15:26:32Z</time>
      </trkpt>
      <trkpt lat="45.33354" lon="1.23166">
        <ele>273.299988</ele>
        <time>2011-05-02T15:26:34Z</time>
      </trkpt>
      <trkpt lat="45.33346" lon="1.2316">
        <ele>273.100006</ele>
        <time>2011-05-02T15:26:36Z</time>
      </trkpt>
      <trkpt lat="45.33339" lon="1.23155">
        <ele>272.799988</ele>
        <time>2011-05-02T15:26:38Z</time>
      </trkpt>
      <trkpt lat="45.33335" lon="1.23153">
        <ele>273</ele>
        <time>2011-05-02T15:26:39Z</time>
      </trkpt>
      <trkpt lat="45.33325" lon="1.23148">
        <ele>273.299988</ele>
        <time>2011-05-02T15:26:42Z</time>
      </trkpt>
      <trkpt lat="45.33318" lon="1.23143">
        <ele>272.200012</ele>
        <time>2011-05-02T15:26:44Z</time>
      </trkpt>
      <trkpt lat="45.3331" lon="1.23138">
        <ele>272.100006</ele>
        <time>2011-05-02T15:26:46Z</time>
      </trkpt>
      <trkpt lat="45.33303" lon="1.23134">
        <ele>272.299988</ele>
        <time>2011-05-02T15:26:48Z</time>
      </trkpt>
      <trkpt lat="45.33295" lon="1.23131">
        <ele>272.899994</ele>
        <time>2011-05-02T15:26:50Z</time>
      </trkpt>
      <trkpt lat="45.33288" lon="1.23127">
        <ele>273.700012</ele>
        <time>2011-05-02T15:26:52Z</time>
      </trkpt>
      <trkpt lat="45.33281" lon="1.23123">
        <ele>273.100006</ele>
        <time>2011-05-02T15:26:54Z</time>
      </trkpt>
      <trkpt lat="45.33275" lon="1.2312">
        <ele>272.899994</ele>
        <time>2011-05-02T15:26:56Z</time>
      </trkpt>
      <trkpt lat="45.33267" lon="1.23116">
        <ele>273.299988</ele>
        <time>2011-05-02T15:26:59Z</time>
      </trkpt>
      <trkpt lat="45.33259" lon="1.23112">
        <ele>274.100006</ele>
        <time>2011-05-02T15:27:02Z</time>
      </trkpt>
      <trkpt lat="45.33252" lon="1.23108">
        <ele>274.600006</ele>
        <time>2011-05-02T15:27:05Z</time>
      </trkpt>
      <trkpt lat="45.33244" lon="1.23104">
        <ele>274.299988</ele>
        <time>2011-05-02T15:27:08Z</time>
      </trkpt>
      <trkpt lat="45.33237" lon="1.23099">
        <ele>274.200012</ele>
        <time>2011-05-02T15:27:11Z</time>
      </trkpt>
      <trkpt lat="45.33229" lon="1.23094">
        <ele>273.799988</ele>
        <time>2011-05-02T15:27:15Z</time>
      </trkpt>
      <trkpt lat="45.3322" lon="1.23092">
        <ele>273.299988</ele>
        <time>2011-05-02T15:27:36Z</time>
      </trkpt>
      <trkpt lat="45.33212" lon="1.23088">
        <ele>273.299988</ele>
        <time>2011-05-02T15:27:57Z</time>
      </trkpt>
      <trkpt lat="45.33211" lon="1.23087">
        <ele>273.399994</ele>
        <time>2011-05-02T15:27:58Z</time>
      </trkpt>
      <trkpt lat="45.33197" lon="1.2308">
        <ele>272.399994</ele>
        <time>2011-05-02T15:28:05Z</time>
      </trkpt>
      <trkpt lat="45.3319" lon="1.23074">
        <ele>272.299988</ele>
        <time>2011-05-02T15:28:08Z</time>
      </trkpt>
      <trkpt lat="45.33184" lon="1.2307">
        <ele>272.399994</ele>
        <time>2011-05-02T15:28:10Z</time>
      </trkpt>
      <trkpt lat="45.33179" lon="1.23064">
        <ele>272.799988</ele>
        <time>2011-05-02T15:28:12Z</time>
      </trkpt>
      <trkpt lat="45.33174" lon="1.23059">
        <ele>273.200012</ele>
        <time>2011-05-02T15:28:14Z</time>
      </trkpt>
      <trkpt lat="45.3317" lon="1.23052">
        <ele>273.5</ele>
        <time>2011-05-02T15:28:16Z</time>
      </trkpt>
      <trkpt lat="45.33164" lon="1.23043">
        <ele>273</ele>
        <time>2011-05-02T15:28:19Z</time>
      </trkpt>
      <trkpt lat="45.33159" lon="1.23033">
        <ele>273.100006</ele>
        <time>2011-05-02T15:28:22Z</time>
      </trkpt>
      <trkpt lat="45.33151" lon="1.23028">
        <ele>273.200012</ele>
        <time>2011-05-02T15:28:26Z</time>
      </trkpt>
      <trkpt lat="45.33144" lon="1.23033">
        <ele>273.5</ele>
        <time>2011-05-02T15:28:31Z</time>
      </trkpt>
      <trkpt lat="45.33136" lon="1.23036">
        <ele>275.700012</ele>
        <time>2011-05-02T15:28:37Z</time>
      </trkpt>
      <trkpt lat="45.33128" lon="1.2304">
        <ele>278.5</ele>
        <time>2011-05-02T15:28:45Z</time>
      </trkpt>
      <trkpt lat="45.3312" lon="1.23034">
        <ele>280.100006</ele>
        <time>2011-05-02T15:29:00Z</time>
      </trkpt>
      <trkpt lat="45.3312" lon="1.23032">
        <ele>280.5</ele>
        <time>2011-05-02T15:29:01Z</time>
      </trkpt>
      <trkpt lat="45.33107" lon="1.23023">
        <ele>283.899994</ele>
        <time>2011-05-02T15:29:19Z</time>
      </trkpt>
      <trkpt lat="45.33098" lon="1.23024">
        <ele>285.399994</ele>
        <time>2011-05-02T15:29:27Z</time>
      </trkpt>
      <trkpt lat="45.33089" lon="1.23023">
        <ele>287.200012</ele>
        <time>2011-05-02T15:29:35Z</time>
      </trkpt>
      <trkpt lat="45.33082" lon="1.23021">
        <ele>286.899994</ele>
        <time>2011-05-02T15:29:41Z</time>
      </trkpt>
      <trkpt lat="45.33074" lon="1.23017">
        <ele>288.299988</ele>
        <time>2011-05-02T15:29:47Z</time>
      </trkpt>
      <trkpt lat="45.33067" lon="1.23012">
        <ele>289.600006</ele>
        <time>2011-05-02T15:29:53Z</time>
      </trkpt>
      <trkpt lat="45.3306" lon="1.23008">
        <ele>290.899994</ele>
        <time>2011-05-02T15:29:59Z</time>
      </trkpt>
      <trkpt lat="45.33053" lon="1.23003">
        <ele>291.5</ele>
        <time>2011-05-02T15:30:04Z</time>
      </trkpt>
      <trkpt lat="45.33051" lon="1.23002">
        <ele>291.899994</ele>
        <time>2011-05-02T15:30:05Z</time>
      </trkpt>
      <trkpt lat="45.33037" lon="1.22994">
        <ele>293.899994</ele>
        <time>2011-05-02T15:30:16Z</time>
      </trkpt>
      <trkpt lat="45.3303" lon="1.22988">
        <ele>294.399994</ele>
        <time>2011-05-02T15:30:22Z</time>
      </trkpt>
      <trkpt lat="45.33022" lon="1.22984">
        <ele>295.100006</ele>
        <time>2011-05-02T15:30:26Z</time>
      </trkpt>
      <trkpt lat="45.33015" lon="1.22986">
        <ele>295.899994</ele>
        <time>2011-05-02T15:30:30Z</time>
      </trkpt>
      <trkpt lat="45.33006" lon="1.22988">
        <ele>297.299988</ele>
        <time>2011-05-02T15:30:35Z</time>
      </trkpt>
      <trkpt lat="45.32998" lon="1.22992">
        <ele>299.200012</ele>
        <time>2011-05-02T15:30:41Z</time>
      </trkpt>
      <trkpt lat="45.3299" lon="1.22996">
        <ele>299.899994</ele>
        <time>2011-05-02T15:30:48Z</time>
      </trkpt>
      <trkpt lat="45.32983" lon="1.23001">
        <ele>301.399994</ele>
        <time>2011-05-02T15:30:55Z</time>
      </trkpt>
      <trkpt lat="45.32975" lon="1.23004">
        <ele>303</ele>
        <time>2011-05-02T15:31:01Z</time>
      </trkpt>
      <trkpt lat="45.32967" lon="1.23008">
        <ele>303.200012</ele>
        <time>2011-05-02T15:31:06Z</time>
      </trkpt>
      <trkpt lat="45.32965" lon="1.23009">
        <ele>303.600006</ele>
        <time>2011-05-02T15:31:07Z</time>
      </trkpt>
      <trkpt lat="45.32951" lon="1.23018">
        <ele>306</ele>
        <time>2011-05-02T15:31:19Z</time>
      </trkpt>
      <trkpt lat="45.32944" lon="1.23024">
        <ele>307.100006</ele>
        <time>2011-05-02T15:31:25Z</time>
      </trkpt>
      <trkpt lat="45.32936" lon="1.23029">
        <ele>308.100006</ele>
        <time>2011-05-02T15:31:30Z</time>
      </trkpt>
      <trkpt lat="45.32928" lon="1.23034">
        <ele>309.299988</ele>
        <time>2011-05-02T15:31:35Z</time>
      </trkpt>
      <trkpt lat="45.3292" lon="1.2304">
        <ele>310.100006</ele>
        <time>2011-05-02T15:31:41Z</time>
      </trkpt>
      <trkpt lat="45.32913" lon="1.23045">
        <ele>310.600006</ele>
        <time>2011-05-02T15:31:48Z</time>
      </trkpt>
      <trkpt lat="45.32905" lon="1.23048">
        <ele>312.100006</ele>
        <time>2011-05-02T15:31:53Z</time>
      </trkpt>
      <trkpt lat="45.32897" lon="1.23052">
        <ele>313.100006</ele>
        <time>2011-05-02T15:31:58Z</time>
      </trkpt>
      <trkpt lat="45.32889" lon="1.23057">
        <ele>314.700012</ele>
        <time>2011-05-02T15:32:03Z</time>
      </trkpt>
      <trkpt lat="45.32881" lon="1.23062">
        <ele>315.299988</ele>
        <time>2011-05-02T15:32:09Z</time>
      </trkpt>
      <trkpt lat="45.32879" lon="1.23063">
        <ele>315.299988</ele>
        <time>2011-05-02T15:32:10Z</time>
      </trkpt>
      <trkpt lat="45.32867" lon="1.23068">
        <ele>316.5</ele>
        <time>2011-05-02T15:32:17Z</time>
      </trkpt>
      <trkpt lat="45.32859" lon="1.23073">
        <ele>317.799988</ele>
        <time>2011-05-02T15:32:23Z</time>
      </trkpt>
      <trkpt lat="45.32852" lon="1.23077">
        <ele>319.5</ele>
        <time>2011-05-02T15:32:27Z</time>
      </trkpt>
      <trkpt lat="45.32845" lon="1.23081">
        <ele>320</ele>
        <time>2011-05-02T15:32:31Z</time>
      </trkpt>
      <trkpt lat="45.32837" lon="1.23087">
        <ele>321.5</ele>
        <time>2011-05-02T15:32:36Z</time>
      </trkpt>
      <trkpt lat="45.32829" lon="1.23092">
        <ele>322.700012</ele>
        <time>2011-05-02T15:32:41Z</time>
      </trkpt>
      <trkpt lat="45.32823" lon="1.23097">
        <ele>323.399994</ele>
        <time>2011-05-02T15:32:45Z</time>
      </trkpt>
      <trkpt lat="45.32815" lon="1.23101">
        <ele>324.600006</ele>
        <time>2011-05-02T15:32:50Z</time>
      </trkpt>
      <trkpt lat="45.32808" lon="1.23106">
        <ele>326</ele>
        <time>2011-05-02T15:32:55Z</time>
      </trkpt>
      <trkpt lat="45.328" lon="1.23111">
        <ele>326.799988</ele>
        <time>2011-05-02T15:33:00Z</time>
      </trkpt>
      <trkpt lat="45.32792" lon="1.23116">
        <ele>327.299988</ele>
        <time>2011-05-02T15:33:05Z</time>
      </trkpt>
      <trkpt lat="45.32785" lon="1.23121">
        <ele>327.899994</ele>
        <time>2011-05-02T15:33:10Z</time>
      </trkpt>
      <trkpt lat="45.32783" lon="1.23122">
        <ele>328</ele>
        <time>2011-05-02T15:33:11Z</time>
      </trkpt>
      <trkpt lat="45.32768" lon="1.2313">
        <ele>329.600006</ele>
        <time>2011-05-02T15:33:20Z</time>
      </trkpt>
      <trkpt lat="45.32762" lon="1.23135">
        <ele>330.100006</ele>
        <time>2011-05-02T15:33:24Z</time>
      </trkpt>
      <trkpt lat="45.32756" lon="1.23138">
        <ele>331</ele>
        <time>2011-05-02T15:33:27Z</time>
      </trkpt>
      <trkpt lat="45.32749" lon="1.23141">
        <ele>331.5</ele>
        <time>2011-05-02T15:33:30Z</time>
      </trkpt>
      <trkpt lat="45.32742" lon="1.23146">
        <ele>331.299988</ele>
        <time>2011-05-02T15:33:34Z</time>
      </trkpt>
      <trkpt lat="45.32734" lon="1.23151">
        <ele>332</ele>
        <time>2011-05-02T15:33:38Z</time>
      </trkpt>
      <trkpt lat="45.32726" lon="1.23156">
        <ele>331.600006</ele>
        <time>2011-05-02T15:33:42Z</time>
      </trkpt>
      <trkpt lat="45.3272" lon="1.2316">
        <ele>332.100006</ele>
        <time>2011-05-02T15:33:45Z</time>
      </trkpt>
      <trkpt lat="45.32713" lon="1.23163">
        <ele>332.100006</ele>
        <time>2011-05-02T15:33:48Z</time>
      </trkpt>
      <trkpt lat="45.32706" lon="1.23167">
        <ele>333.299988</ele>
        <time>2011-05-02T15:33:51Z</time>
      </trkpt>
      <trkpt lat="45.32699" lon="1.23171">
        <ele>333.5</ele>
        <time>2011-05-02T15:33:54Z</time>
      </trkpt>
      <trkpt lat="45.32692" lon="1.23175">
        <ele>333.399994</ele>
        <time>2011-05-02T15:33:57Z</time>
      </trkpt>
      <trkpt lat="45.32685" lon="1.23179">
        <ele>333.600006</ele>
        <time>2011-05-02T15:34:00Z</time>
      </trkpt>
      <trkpt lat="45.32678" lon="1.23183">
        <ele>333.799988</ele>
        <time>2011-05-02T15:34:03Z</time>
      </trkpt>
      <trkpt lat="45.32672" lon="1.23187">
        <ele>334.100006</ele>
        <time>2011-05-02T15:34:06Z</time>
      </trkpt>
      <trkpt lat="45.32666" lon="1.23191">
        <ele>334.700012</ele>
        <time>2011-05-02T15:34:09Z</time>
      </trkpt>
      <trkpt lat="45.32659" lon="1.23195">
        <ele>335.299988</ele>
        <time>2011-05-02T15:34:12Z</time>
      </trkpt>
      <trkpt lat="45.32657" lon="1.23196">
        <ele>335.700012</ele>
        <time>2011-05-02T15:34:13Z</time>
      </trkpt>
      <trkpt lat="45.32646" lon="1.23202">
        <ele>336.700012</ele>
        <time>2011-05-02T15:34:18Z</time>
      </trkpt>
      <trkpt lat="45.3264" lon="1.23206">
        <ele>337</ele>
        <time>2011-05-02T15:34:21Z</time>
      </trkpt>
      <trkpt lat="45.32634" lon="1.2321">
        <ele>337.200012</ele>
        <time>2011-05-02T15:34:24Z</time>
      </trkpt>
      <trkpt lat="45.32628" lon="1.23214">
        <ele>338.100006</ele>
        <time>2011-05-02T15:34:27Z</time>
      </trkpt>
      <trkpt lat="45.32621" lon="1.23218">
        <ele>338.299988</ele>
        <time>2011-05-02T15:34:30Z</time>
      </trkpt>
      <trkpt lat="45.32615" lon="1.23223">
        <ele>338.700012</ele>
        <time>2011-05-02T15:34:33Z</time>
      </trkpt>
      <trkpt lat="45.32608" lon="1.23227">
        <ele>339.100006</ele>
        <time>2011-05-02T15:34:36Z</time>
      </trkpt>
      <trkpt lat="45.32601" lon="1.23232">
        <ele>340.200012</ele>
        <time>2011-05-02T15:34:39Z</time>
      </trkpt>
      <trkpt lat="45.32594" lon="1.23237">
        <ele>340.399994</ele>
        <time>2011-05-02T15:34:42Z</time>
      </trkpt>
      <trkpt lat="45.32586" lon="1.23241">
        <ele>340.399994</ele>
        <time>2011-05-02T15:34:45Z</time>
      </trkpt>
      <trkpt lat="45.32579" lon="1.23245">
        <ele>340.899994</ele>
        <time>2011-05-02T15:34:48Z</time>
      </trkpt>
      <trkpt lat="45.32571" lon="1.23249">
        <ele>340.700012</ele>
        <time>2011-05-02T15:34:51Z</time>
      </trkpt>
      <trkpt lat="45.32563" lon="1.23253">
        <ele>341.299988</ele>
        <time>2011-05-02T15:34:54Z</time>
      </trkpt>
      <trkpt lat="45.32557" lon="1.23257">
        <ele>341.5</ele>
        <time>2011-05-02T15:34:56Z</time>
      </trkpt>
      <trkpt lat="45.32552" lon="1.23261">
        <ele>341.100006</ele>
        <time>2011-05-02T15:34:58Z</time>
      </trkpt>
      <trkpt lat="45.32546" lon="1.23265">
        <ele>341.299988</ele>
        <time>2011-05-02T15:35:00Z</time>
      </trkpt>
      <trkpt lat="45.32539" lon="1.23268">
        <ele>341.299988</ele>
        <time>2011-05-02T15:35:02Z</time>
      </trkpt>
      <trkpt lat="45.32533" lon="1.23272">
        <ele>341.100006</ele>
        <time>2011-05-02T15:35:04Z</time>
      </trkpt>
      <trkpt lat="45.32526" lon="1.23275">
        <ele>340.899994</ele>
        <time>2011-05-02T15:35:06Z</time>
      </trkpt>
      <trkpt lat="45.32519" lon="1.23279">
        <ele>340.700012</ele>
        <time>2011-05-02T15:35:08Z</time>
      </trkpt>
      <trkpt lat="45.32512" lon="1.23283">
        <ele>340.5</ele>
        <time>2011-05-02T15:35:10Z</time>
      </trkpt>
      <trkpt lat="45.32506" lon="1.23287">
        <ele>341.200012</ele>
        <time>2011-05-02T15:35:12Z</time>
      </trkpt>
      <trkpt lat="45.32499" lon="1.23291">
        <ele>341.700012</ele>
        <time>2011-05-02T15:35:14Z</time>
      </trkpt>
      <trkpt lat="45.32495" lon="1.23294">
        <ele>342</ele>
        <time>2011-05-02T15:35:15Z</time>
      </trkpt>
      <trkpt lat="45.3249" lon="1.23296">
        <ele>341.5</ele>
        <time>2011-05-02T15:35:16Z</time>
      </trkpt>
      <trkpt lat="45.32486" lon="1.23299">
        <ele>341.200012</ele>
        <time>2011-05-02T15:35:17Z</time>
      </trkpt>
      <trkpt lat="45.32481" lon="1.23302">
        <ele>340.600006</ele>
        <time>2011-05-02T15:35:18Z</time>
      </trkpt>
      <trkpt lat="45.32476" lon="1.23305">
        <ele>340.200012</ele>
        <time>2011-05-02T15:35:19Z</time>
      </trkpt>
      <trkpt lat="45.3247" lon="1.23309">
        <ele>339.899994</ele>
        <time>2011-05-02T15:35:20Z</time>
      </trkpt>
      <trkpt lat="45.32464" lon="1.23312">
        <ele>339.399994</ele>
        <time>2011-05-02T15:35:21Z</time>
      </trkpt>
      <trkpt lat="45.32459" lon="1.23315">
        <ele>339</ele>
        <time>2011-05-02T15:35:22Z</time>
      </trkpt>
      <trkpt lat="45.32454" lon="1.23317">
        <ele>339</ele>
        <time>2011-05-02T15:35:23Z</time>
      </trkpt>
      <trkpt lat="45.32448" lon="1.23319">
        <ele>339</ele>
        <time>2011-05-02T15:35:24Z</time>
      </trkpt>
      <trkpt lat="45.32443" lon="1.23321">
        <ele>338.799988</ele>
        <time>2011-05-02T15:35:25Z</time>
      </trkpt>
      <trkpt lat="45.32438" lon="1.23323">
        <ele>338.700012</ele>
        <time>2011-05-02T15:35:26Z</time>
      </trkpt>
      <trkpt lat="45.32433" lon="1.23325">
        <ele>338.600006</ele>
        <time>2011-05-02T15:35:27Z</time>
      </trkpt>
      <trkpt lat="45.32428" lon="1.23328">
        <ele>338</ele>
        <time>2011-05-02T15:35:28Z</time>
      </trkpt>
      <trkpt lat="45.32423" lon="1.23331">
        <ele>337.5</ele>
        <time>2011-05-02T15:35:29Z</time>
      </trkpt>
      <trkpt lat="45.32419" lon="1.23334">
        <ele>337.700012</ele>
        <time>2011-05-02T15:35:30Z</time>
      </trkpt>
      <trkpt lat="45.32411" lon="1.23339">
        <ele>337.899994</ele>
        <time>2011-05-02T15:35:32Z</time>
      </trkpt>
      <trkpt lat="45.32403" lon="1.23343">
        <ele>338.100006</ele>
        <time>2011-05-02T15:35:34Z</time>
      </trkpt>
      <trkpt lat="45.32397" lon="1.23347">
        <ele>338.399994</ele>
        <time>2011-05-02T15:35:36Z</time>
      </trkpt>
      <trkpt lat="45.32391" lon="1.23351">
        <ele>338.299988</ele>
        <time>2011-05-02T15:35:38Z</time>
      </trkpt>
      <trkpt lat="45.32386" lon="1.23356">
        <ele>338.600006</ele>
        <time>2011-05-02T15:35:40Z</time>
      </trkpt>
      <trkpt lat="45.32379" lon="1.23361">
        <ele>339.5</ele>
        <time>2011-05-02T15:35:43Z</time>
      </trkpt>
      <trkpt lat="45.32371" lon="1.23366">
        <ele>341.200012</ele>
        <time>2011-05-02T15:35:46Z</time>
      </trkpt>
      <trkpt lat="45.32363" lon="1.23371">
        <ele>341.600006</ele>
        <time>2011-05-02T15:35:49Z</time>
      </trkpt>
      <trkpt lat="45.32357" lon="1.23375">
        <ele>342.700012</ele>
        <time>2011-05-02T15:35:52Z</time>
      </trkpt>
      <trkpt lat="45.3235" lon="1.23382">
        <ele>342.899994</ele>
        <time>2011-05-02T15:35:56Z</time>
      </trkpt>
      <trkpt lat="45.32343" lon="1.23388">
        <ele>343.299988</ele>
        <time>2011-05-02T15:36:00Z</time>
      </trkpt>
      <trkpt lat="45.32336" lon="1.23392">
        <ele>345.399994</ele>
        <time>2011-05-02T15:36:04Z</time>
      </trkpt>
      <trkpt lat="45.32329" lon="1.23397">
        <ele>346.799988</ele>
        <time>2011-05-02T15:36:09Z</time>
      </trkpt>
      <trkpt lat="45.32322" lon="1.23402">
        <ele>348.600006</ele>
        <time>2011-05-02T15:36:14Z</time>
      </trkpt>
      <trkpt lat="45.32313" lon="1.23406">
        <ele>349.299988</ele>
        <time>2011-05-02T15:36:19Z</time>
      </trkpt>
      <trkpt lat="45.32312" lon="1.23407">
        <ele>350.100006</ele>
        <time>2011-05-02T15:36:20Z</time>
      </trkpt>
      <trkpt lat="45.32299" lon="1.23415">
        <ele>352.600006</ele>
        <time>2011-05-02T15:36:27Z</time>
      </trkpt>
      <trkpt lat="45.32292" lon="1.2342">
        <ele>353.299988</ele>
        <time>2011-05-02T15:36:31Z</time>
      </trkpt>
      <trkpt lat="45.32284" lon="1.23425">
        <ele>353.899994</ele>
        <time>2011-05-02T15:36:36Z</time>
      </trkpt>
      <trkpt lat="45.32277" lon="1.23429">
        <ele>355.399994</ele>
        <time>2011-05-02T15:36:40Z</time>
      </trkpt>
      <trkpt lat="45.3227" lon="1.23434">
        <ele>354.700012</ele>
        <time>2011-05-02T15:36:44Z</time>
      </trkpt>
      <trkpt lat="45.32262" lon="1.23438">
        <ele>354.799988</ele>
        <time>2011-05-02T15:36:48Z</time>
      </trkpt>
      <trkpt lat="45.32254" lon="1.23442">
        <ele>355.399994</ele>
        <time>2011-05-02T15:36:52Z</time>
      </trkpt>
      <trkpt lat="45.32246" lon="1.23447">
        <ele>355.799988</ele>
        <time>2011-05-02T15:36:56Z</time>
      </trkpt>
      <trkpt lat="45.3224" lon="1.23451">
        <ele>355.799988</ele>
        <time>2011-05-02T15:36:59Z</time>
      </trkpt>
      <trkpt lat="45.32232" lon="1.23457">
        <ele>355.799988</ele>
        <time>2011-05-02T15:37:03Z</time>
      </trkpt>
      <trkpt lat="45.32225" lon="1.2346">
        <ele>355.700012</ele>
        <time>2011-05-02T15:37:06Z</time>
      </trkpt>
      <trkpt lat="45.32219" lon="1.23465">
        <ele>356.700012</ele>
        <time>2011-05-02T15:37:09Z</time>
      </trkpt>
      <trkpt lat="45.32212" lon="1.23469">
        <ele>356.700012</ele>
        <time>2011-05-02T15:37:12Z</time>
      </trkpt>
      <trkpt lat="45.32205" lon="1.23474">
        <ele>356.799988</ele>
        <time>2011-05-02T15:37:16Z</time>
      </trkpt>
      <trkpt lat="45.32197" lon="1.23479">
        <ele>356.600006</ele>
        <time>2011-05-02T15:37:23Z</time>
      </trkpt>
      <trkpt lat="45.32183" lon="1.23491">
        <ele>352.8125</ele>
      </trkpt>
      <trkpt lat="45.32173" lon="1.23452">
        <ele>353</ele>
      </trkpt>
      <trkpt lat="45.3217" lon="1.2339">
        <ele>353.484375</ele>
      </trkpt>
      <trkpt lat="45.32172" lon="1.23349">
        <ele>353.80859375</ele>
      </trkpt>
      <trkpt lat="45.3218" lon="1.23308">
        <ele>353.83984375</ele>
      </trkpt>
      <trkpt lat="45.32197" lon="1.23217">
        <ele>351.26953125</ele>
      </trkpt>
      <trkpt lat="45.32206" lon="1.2318">
        <ele>349.5078125</ele>
      </trkpt>
      <trkpt lat="45.32154" lon="1.22954">
        <ele>339.046875</ele>
      </trkpt>
      <trkpt lat="45.32132" lon="1.22913">
        <ele>336.59375</ele>
      </trkpt>
      <trkpt lat="45.32111" lon="1.22883">
        <ele>334.19140625</ele>
      </trkpt>
      <trkpt lat="45.32107" lon="1.22854">
        <ele>332.78515625</ele>
      </trkpt>
      <trkpt lat="45.32109" lon="1.22838">
        <ele>332.1640625</ele>
      </trkpt>
      <trkpt lat="45.3213" lon="1.22805">
        <ele>331.5</ele>
      </trkpt>
      <trkpt lat="45.32153" lon="1.22792">
        <ele>330.65234375</ele>
      </trkpt>
      <trkpt lat="45.32168" lon="1.22797">
        <ele>330.83984375</ele>
      </trkpt>
      <trkpt lat="45.32177" lon="1.22809">
        <ele>331.6328125</ele>
      </trkpt>
      <trkpt lat="45.32194" lon="1.22818">
        <ele>331.5546875</ele>
      </trkpt>
      <trkpt lat="45.32195" lon="1.22736">
        <ele>326.234375</ele>
      </trkpt>
      <trkpt lat="45.322" lon="1.22681">
        <ele>321.9453125</ele>
      </trkpt>
      <trkpt lat="45.32195" lon="1.22673">
        <ele>321.30859375</ele>
      </trkpt>
      <trkpt lat="45.32185" lon="1.22679">
        <ele>322.30859375</ele>
      </trkpt>
      <trkpt lat="45.32145" lon="1.22685">
        <ele>322.1328125</ele>
      </trkpt>
      <trkpt lat="45.32136" lon="1.2269">
        <ele>322.578125</ele>
      </trkpt>
      <trkpt lat="45.3212" lon="1.22716">
        <ele>324.484375</ele>
      </trkpt>
      <trkpt lat="45.32104" lon="1.22732">
        <ele>324.54296875</ele>
      </trkpt>
      <trkpt lat="45.321" lon="1.22727">
        <ele>323.63671875</ele>
      </trkpt>
      <trkpt lat="45.3211" lon="1.22705">
        <ele>322.25</ele>
      </trkpt>
      <trkpt lat="45.32099" lon="1.22698">
        <ele>320.24609375</ele>
      </trkpt>
      <trkpt lat="45.32097" lon="1.22691">
        <ele>319.1171875</ele>
      </trkpt>
      <trkpt lat="45.32103" lon="1.22682">
        <ele>318.515625</ele>
      </trkpt>
      <trkpt lat="45.32106" lon="1.22649">
        <ele>314.42578125</ele>
      </trkpt>
      <trkpt lat="45.321" lon="1.22645">
        <ele>313.171875</ele>
      </trkpt>
      <trkpt lat="45.32161" lon="1.22571">
        <ele>309.1953125</ele>
      </trkpt>
      <trkpt lat="45.32191" lon="1.22559">
        <ele>309.76171875</ele>
      </trkpt>
      <trkpt lat="45.32226" lon="1.22566">
        <ele>311.65625</ele>
      </trkpt>
      <trkpt lat="45.32245" lon="1.22563">
        <ele>312.26171875</ele>
      </trkpt>
      <trkpt lat="45.32261" lon="1.2255">
        <ele>312.390625</ele>
      </trkpt>
      <trkpt lat="45.32286" lon="1.2249">
        <ele>311.65625</ele>
      </trkpt>
      <trkpt lat="45.32247" lon="1.22472">
        <ele>307.50390625</ele>
      </trkpt>
      <trkpt lat="45.32251" lon="1.22455">
        <ele>307.3203125</ele>
      </trkpt>
      <trkpt lat="45.32271" lon="1.22434">
        <ele>308.6875</ele>
      </trkpt>
      <trkpt lat="45.32271" lon="1.22425">
        <ele>308.49609375</ele>
      </trkpt>
      <trkpt lat="45.3225" lon="1.22415">
        <ele>305.84375</ele>
      </trkpt>
      <trkpt lat="45.3225" lon="1.22401">
        <ele>305.46484375</ele>
      </trkpt>
      <trkpt lat="45.32255" lon="1.22392">
        <ele>305.75</ele>
      </trkpt>
      <trkpt lat="45.32303" lon="1.22281">
        <ele>312.1484375</ele>
      </trkpt>
      <trkpt lat="45.32286" lon="1.2226">
        <ele>309.90625</ele>
      </trkpt>
      <trkpt lat="45.32277" lon="1.22274">
        <ele>308.546875</ele>
      </trkpt>
      <trkpt lat="45.32259" lon="1.22237">
        <ele>305.51953125</ele>
      </trkpt>
      <trkpt lat="45.32256" lon="1.22241">
        <ele>305.234375</ele>
      </trkpt>
      <trkpt lat="45.32254" lon="1.2228">
        <ele>305.28515625</ele>
      </trkpt>
      <trkpt lat="45.32244" lon="1.2228">
        <ele>303.80859375</ele>
      </trkpt>
      <trkpt lat="45.32194" lon="1.22389">
        <ele>297.53515625</ele>
      </trkpt>
      <trkpt lat="45.32193" lon="1.22408">
        <ele>298.3203125</ele>
      </trkpt>
      <trkpt lat="45.32189" lon="1.22416">
        <ele>298.21484375</ele>
      </trkpt>
      <trkpt lat="45.32105" lon="1.22446">
        <ele>290.03515625</ele>
      </trkpt>
      <trkpt lat="45.32065" lon="1.22491">
        <ele>289.51953125</ele>
      </trkpt>
      <trkpt lat="45.32027" lon="1.22535">
        <ele>290.19921875</ele>
      </trkpt>
      <trkpt lat="45.31989" lon="1.225">
        <ele>281.45703125</ele>
      </trkpt>
      <trkpt lat="45.31988" lon="1.2249">
        <ele>280.3125</ele>
      </trkpt>
      <trkpt lat="45.31969" lon="1.22481">
        <ele>277.05078125</ele>
      </trkpt>
      <trkpt lat="45.31909" lon="1.22426">
        <ele>265.40625</ele>
      </trkpt>
      <trkpt lat="45.31905" lon="1.22413">
        <ele>264.29296875</ele>
      </trkpt>
      <trkpt lat="45.3189" lon="1.22379">
        <ele>262.06640625</ele>
      </trkpt>
      <trkpt lat="45.31867" lon="1.22392">
        <ele>261.69140625</ele>
      </trkpt>
      <trkpt lat="45.31773" lon="1.22478">
        <ele>253.58203125</ele>
      </trkpt>
      <trkpt lat="45.31769" lon="1.22487">
        <ele>252.9140625</ele>
      </trkpt>
      <trkpt lat="45.31773" lon="1.22546">
        <ele>253.125</ele>
      </trkpt>
      <trkpt lat="45.31766" lon="1.22595">
        <ele>252.61328125</ele>
      </trkpt>
      <trkpt lat="45.3175" lon="1.22625">
        <ele>252.55078125</ele>
      </trkpt>
      <trkpt lat="45.31734" lon="1.22645">
        <ele>252.4140625</ele>
      </trkpt>
      <trkpt lat="45.31709" lon="1.22675">
        <ele>252.6875</ele>
      </trkpt>
      <trkpt lat="45.31698" lon="1.22701">
        <ele>253.6875</ele>
      </trkpt>
      <trkpt lat="45.31693" lon="1.22726">
        <ele>255.34375</ele>
      </trkpt>
      <trkpt lat="45.31638" lon="1.22721">
        <ele>248.26171875</ele>
      </trkpt>
      <trkpt lat="45.31627" lon="1.22845">
        <ele>252.55859375</ele>
      </trkpt>
      <trkpt lat="45.31603" lon="1.22841">
        <ele>249.0390625</ele>
      </trkpt>
    </trkseg>
  </trk>
</gpx>